<?xml version="1.0" encoding="UTF-8" standalone="no" ?>
<gpx xmlns="http://www.topografix.com/GPX/1/1" xmlns:xsi="http://www.w3.org/2001/XMLSchema-instance" xsi:schemaLocation="http://www.topografix.com/GPX/1/1 http://www.topografix.com/GPX/1/1/gpx.xsd" version="1.1" creator="VisuGPX - https://www.visugpx.com">
  <metadata>
    <name>Mandeure et ses belles descentes</name>
    <desc><![CDATA[Mandeure et ses belles descentes]]></desc>
  </metadata>
  <wpt lat="47.42848" lon="6.7995">
    <ele>478</ele>
    <name><![CDATA[Point de cheminement 1]]></name>
    <desc><![CDATA[]]></desc>
  </wpt>
  <wpt lat="47.42735" lon="6.80244">
    <ele>484</ele>
    <name><![CDATA[Point de cheminement 2]]></name>
    <desc><![CDATA[]]></desc>
  </wpt>
  <wpt lat="47.43045" lon="6.81533">
    <ele>450</ele>
    <name><![CDATA[Point de cheminement 3]]></name>
    <desc><![CDATA[]]></desc>
  </wpt>
  <wpt lat="47.4365" lon="6.81642">
    <ele>376</ele>
    <name><![CDATA[Point de cheminement 4]]></name>
    <desc><![CDATA[]]></desc>
  </wpt>
  <wpt lat="47.44955" lon="6.79841">
    <ele>347</ele>
    <name><![CDATA[Point de cheminement 5]]></name>
    <desc><![CDATA[]]></desc>
  </wpt>
  <wpt lat="47.47441" lon="6.77543">
    <ele>319</ele>
    <name><![CDATA[Point de cheminement 6]]></name>
    <desc><![CDATA[]]></desc>
  </wpt>
  <wpt lat="47.49018" lon="6.77324">
    <ele>311</ele>
    <name><![CDATA[Point de cheminement 7]]></name>
    <desc><![CDATA[]]></desc>
  </wpt>
  <wpt lat="47.49273" lon="6.769">
    <ele>317</ele>
    <name><![CDATA[Point de cheminement 8]]></name>
    <desc><![CDATA[]]></desc>
  </wpt>
  <wpt lat="47.51796" lon="6.77461">
    <ele>388</ele>
    <name><![CDATA[Point de cheminement 9]]></name>
    <desc><![CDATA[]]></desc>
  </wpt>
  <wpt lat="47.51794" lon="6.77467">
    <ele>388</ele>
    <name><![CDATA[Point de cheminement 10]]></name>
    <desc><![CDATA[]]></desc>
  </wpt>
  <wpt lat="47.51794" lon="6.77467">
    <ele>388</ele>
    <name><![CDATA[Point de cheminement 11]]></name>
    <desc><![CDATA[]]></desc>
  </wpt>
  <wpt lat="47.51794" lon="6.7746">
    <ele>388</ele>
    <name><![CDATA[Point de cheminement 12]]></name>
    <desc><![CDATA[]]></desc>
  </wpt>
  <wpt lat="47.51794" lon="6.7746">
    <ele>388</ele>
    <name><![CDATA[Point de cheminement 13]]></name>
    <desc><![CDATA[]]></desc>
  </wpt>
  <wpt lat="47.51794" lon="6.7746">
    <ele>388</ele>
    <name><![CDATA[Point de cheminement 14]]></name>
    <desc><![CDATA[]]></desc>
  </wpt>
  <wpt lat="47.51794" lon="6.7746">
    <ele>388</ele>
    <name><![CDATA[Point de cheminement 15]]></name>
    <desc><![CDATA[]]></desc>
  </wpt>
  <wpt lat="47.51794" lon="6.7746">
    <ele>388</ele>
    <name><![CDATA[Point de cheminement 16]]></name>
    <desc><![CDATA[]]></desc>
  </wpt>
  <trk>
    <name><![CDATA[Rue Antoine Coysevox]]></name>
    <desc><![CDATA[]]></desc>
    <trkseg>
      <trkpt lat="47.43084" lon="6.7958">
        <ele>483</ele>
        <time>2015-06-14T08:38:40.000Z</time>
      </trkpt>
      <trkpt lat="47.43084" lon="6.79587">
        <ele>485</ele>
        <time>2015-06-14T08:44:10.000Z</time>
      </trkpt>
      <trkpt lat="47.43084" lon="6.79588">
        <ele>486</ele>
        <time>2015-06-14T08:44:11.000Z</time>
      </trkpt>
      <trkpt lat="47.43083" lon="6.79595">
        <ele>487</ele>
        <time>2015-06-14T08:44:14.000Z</time>
      </trkpt>
      <trkpt lat="47.43082" lon="6.79596">
        <ele>487</ele>
        <time>2015-06-14T08:44:15.000Z</time>
      </trkpt>
      <trkpt lat="47.43081" lon="6.79601">
        <ele>487</ele>
        <time>2015-06-14T08:44:17.000Z</time>
      </trkpt>
      <trkpt lat="47.43082" lon="6.79604">
        <ele>488</ele>
        <time>2015-06-14T08:44:18.000Z</time>
      </trkpt>
      <trkpt lat="47.43083" lon="6.79608">
        <ele>488</ele>
        <time>2015-06-14T08:44:19.000Z</time>
      </trkpt>
      <trkpt lat="47.43083" lon="6.79612">
        <ele>488</ele>
        <time>2015-06-14T08:44:20.000Z</time>
      </trkpt>
      <trkpt lat="47.43083" lon="6.79618">
        <ele>488</ele>
        <time>2015-06-14T08:44:22.000Z</time>
      </trkpt>
      <trkpt lat="47.4308" lon="6.79619">
        <ele>489</ele>
        <time>2015-06-14T08:44:23.000Z</time>
      </trkpt>
      <trkpt lat="47.43079" lon="6.79621">
        <ele>489</ele>
        <time>2015-06-14T08:44:24.000Z</time>
      </trkpt>
      <trkpt lat="47.43075" lon="6.79622">
        <ele>489</ele>
        <time>2015-06-14T08:44:25.000Z</time>
      </trkpt>
      <trkpt lat="47.43073" lon="6.79623">
        <ele>489</ele>
        <time>2015-06-14T08:44:26.001Z</time>
      </trkpt>
      <trkpt lat="47.43069" lon="6.79623">
        <ele>489</ele>
        <time>2015-06-14T08:44:27.000Z</time>
      </trkpt>
      <trkpt lat="47.43064" lon="6.79624">
        <ele>489</ele>
        <time>2015-06-14T08:44:28.000Z</time>
      </trkpt>
      <trkpt lat="47.4306" lon="6.79627">
        <ele>489</ele>
        <time>2015-06-14T08:44:29.000Z</time>
      </trkpt>
      <trkpt lat="47.43056" lon="6.7963">
        <ele>489</ele>
        <time>2015-06-14T08:44:30.000Z</time>
      </trkpt>
      <trkpt lat="47.43053" lon="6.79632">
        <ele>489</ele>
        <time>2015-06-14T08:44:31.000Z</time>
      </trkpt>
      <trkpt lat="47.4305" lon="6.79638">
        <ele>490</ele>
        <time>2015-06-14T08:44:32.000Z</time>
      </trkpt>
      <trkpt lat="47.43048" lon="6.79642">
        <ele>490</ele>
        <time>2015-06-14T08:44:33.000Z</time>
      </trkpt>
      <trkpt lat="47.43047" lon="6.79644">
        <ele>490</ele>
        <time>2015-06-14T08:44:34.000Z</time>
      </trkpt>
      <trkpt lat="47.43043" lon="6.79648">
        <ele>490</ele>
        <time>2015-06-14T08:45:04.000Z</time>
      </trkpt>
      <trkpt lat="47.43043" lon="6.79648">
        <ele>490</ele>
        <time>2015-06-14T08:45:05.000Z</time>
      </trkpt>
      <trkpt lat="47.43042" lon="6.79652">
        <ele>490</ele>
        <time>2015-06-14T08:45:09.000Z</time>
      </trkpt>
      <trkpt lat="47.43041" lon="6.79654">
        <ele>490</ele>
        <time>2015-06-14T08:45:10.000Z</time>
      </trkpt>
      <trkpt lat="47.43039" lon="6.79659">
        <ele>490</ele>
        <time>2015-06-14T08:45:12.001Z</time>
      </trkpt>
      <trkpt lat="47.43037" lon="6.79662">
        <ele>490</ele>
        <time>2015-06-14T08:45:13.000Z</time>
      </trkpt>
      <trkpt lat="47.43034" lon="6.79665">
        <ele>491</ele>
        <time>2015-06-14T08:45:14.000Z</time>
      </trkpt>
      <trkpt lat="47.43033" lon="6.79668">
        <ele>492</ele>
        <time>2015-06-14T08:45:15.000Z</time>
      </trkpt>
      <trkpt lat="47.43029" lon="6.79671">
        <ele>492</ele>
        <time>2015-06-14T08:45:16.000Z</time>
      </trkpt>
      <trkpt lat="47.43026" lon="6.79675">
        <ele>492</ele>
        <time>2015-06-14T08:45:17.000Z</time>
      </trkpt>
      <trkpt lat="47.43023" lon="6.79678">
        <ele>492</ele>
        <time>2015-06-14T08:45:18.000Z</time>
      </trkpt>
      <trkpt lat="47.4302" lon="6.79683">
        <ele>492</ele>
        <time>2015-06-14T08:45:19.000Z</time>
      </trkpt>
      <trkpt lat="47.43018" lon="6.79687">
        <ele>492</ele>
        <time>2015-06-14T08:45:20.000Z</time>
      </trkpt>
      <trkpt lat="47.43016" lon="6.79692">
        <ele>492</ele>
        <time>2015-06-14T08:45:21.000Z</time>
      </trkpt>
      <trkpt lat="47.43014" lon="6.79697">
        <ele>492</ele>
        <time>2015-06-14T08:45:22.000Z</time>
      </trkpt>
      <trkpt lat="47.43012" lon="6.79703">
        <ele>492</ele>
        <time>2015-06-14T08:45:23.000Z</time>
      </trkpt>
      <trkpt lat="47.43011" lon="6.79708">
        <ele>492</ele>
        <time>2015-06-14T08:45:24.000Z</time>
      </trkpt>
      <trkpt lat="47.43009" lon="6.79712">
        <ele>492</ele>
        <time>2015-06-14T08:45:25.000Z</time>
      </trkpt>
      <trkpt lat="47.43007" lon="6.79717">
        <ele>492</ele>
        <time>2015-06-14T08:45:26.000Z</time>
      </trkpt>
      <trkpt lat="47.43005" lon="6.79723">
        <ele>492</ele>
        <time>2015-06-14T08:45:27.000Z</time>
      </trkpt>
      <trkpt lat="47.43004" lon="6.79729">
        <ele>492</ele>
        <time>2015-06-14T08:45:28.000Z</time>
      </trkpt>
      <trkpt lat="47.43003" lon="6.79735">
        <ele>493</ele>
        <time>2015-06-14T08:45:29.000Z</time>
      </trkpt>
      <trkpt lat="47.43002" lon="6.79741">
        <ele>493</ele>
        <time>2015-06-14T08:45:30.000Z</time>
      </trkpt>
      <trkpt lat="47.43004" lon="6.79753">
        <ele>493</ele>
        <time>2015-06-14T08:45:31.000Z</time>
      </trkpt>
      <trkpt lat="47.43005" lon="6.7976">
        <ele>492</ele>
        <time>2015-06-14T08:45:32.000Z</time>
      </trkpt>
      <trkpt lat="47.43005" lon="6.79768">
        <ele>492</ele>
        <time>2015-06-14T08:45:33.000Z</time>
      </trkpt>
      <trkpt lat="47.43004" lon="6.79775">
        <ele>492</ele>
        <time>2015-06-14T08:45:34.000Z</time>
      </trkpt>
      <trkpt lat="47.43004" lon="6.79781">
        <ele>492</ele>
        <time>2015-06-14T08:45:35.001Z</time>
      </trkpt>
      <trkpt lat="47.43001" lon="6.79786">
        <ele>492</ele>
        <time>2015-06-14T08:45:36.000Z</time>
      </trkpt>
      <trkpt lat="47.42999" lon="6.7979">
        <ele>493</ele>
        <time>2015-06-14T08:45:37.000Z</time>
      </trkpt>
      <trkpt lat="47.42998" lon="6.79794">
        <ele>493</ele>
        <time>2015-06-14T08:45:38.000Z</time>
      </trkpt>
      <trkpt lat="47.42994" lon="6.79794">
        <ele>493</ele>
        <time>2015-06-14T08:45:39.000Z</time>
      </trkpt>
      <trkpt lat="47.42994" lon="6.79784">
        <ele>492</ele>
        <time>2015-06-14T08:45:40.000Z</time>
      </trkpt>
      <trkpt lat="47.42991" lon="6.79783">
        <ele>492</ele>
        <time>2015-06-14T08:45:41.000Z</time>
      </trkpt>
      <trkpt lat="47.42989" lon="6.79782">
        <ele>492</ele>
        <time>2015-06-14T08:45:42.000Z</time>
      </trkpt>
      <trkpt lat="47.42986" lon="6.7978">
        <ele>492</ele>
        <time>2015-06-14T08:45:43.000Z</time>
      </trkpt>
      <trkpt lat="47.42983" lon="6.79779">
        <ele>492</ele>
        <time>2015-06-14T08:45:44.000Z</time>
      </trkpt>
      <trkpt lat="47.4298" lon="6.79779">
        <ele>492</ele>
        <time>2015-06-14T08:45:45.000Z</time>
      </trkpt>
      <trkpt lat="47.42977" lon="6.79778">
        <ele>492</ele>
        <time>2015-06-14T08:45:46.000Z</time>
      </trkpt>
      <trkpt lat="47.42974" lon="6.79778">
        <ele>492</ele>
        <time>2015-06-14T08:45:47.000Z</time>
      </trkpt>
      <trkpt lat="47.42971" lon="6.79777">
        <ele>492</ele>
        <time>2015-06-14T08:45:48.000Z</time>
      </trkpt>
      <trkpt lat="47.42968" lon="6.79776">
        <ele>492</ele>
        <time>2015-06-14T08:45:49.000Z</time>
      </trkpt>
      <trkpt lat="47.42965" lon="6.79775">
        <ele>492</ele>
        <time>2015-06-14T08:45:50.000Z</time>
      </trkpt>
      <trkpt lat="47.42962" lon="6.79773">
        <ele>492</ele>
        <time>2015-06-14T08:45:51.000Z</time>
      </trkpt>
      <trkpt lat="47.42959" lon="6.79772">
        <ele>492</ele>
        <time>2015-06-14T08:45:52.000Z</time>
      </trkpt>
      <trkpt lat="47.42956" lon="6.79771">
        <ele>492</ele>
        <time>2015-06-14T08:45:53.000Z</time>
      </trkpt>
      <trkpt lat="47.42952" lon="6.7977">
        <ele>492</ele>
        <time>2015-06-14T08:45:54.000Z</time>
      </trkpt>
      <trkpt lat="47.42949" lon="6.7977">
        <ele>492</ele>
        <time>2015-06-14T08:45:55.000Z</time>
      </trkpt>
      <trkpt lat="47.42945" lon="6.79769">
        <ele>492</ele>
        <time>2015-06-14T08:45:56.000Z</time>
      </trkpt>
      <trkpt lat="47.42942" lon="6.79769">
        <ele>492</ele>
        <time>2015-06-14T08:45:57.000Z</time>
      </trkpt>
      <trkpt lat="47.42938" lon="6.79768">
        <ele>492</ele>
        <time>2015-06-14T08:45:58.000Z</time>
      </trkpt>
      <trkpt lat="47.42934" lon="6.79768">
        <ele>492</ele>
        <time>2015-06-14T08:45:59.000Z</time>
      </trkpt>
      <trkpt lat="47.4293" lon="6.79768">
        <ele>492</ele>
        <time>2015-06-14T08:46:00.000Z</time>
      </trkpt>
      <trkpt lat="47.42925" lon="6.79768">
        <ele>491</ele>
        <time>2015-06-14T08:46:01.000Z</time>
      </trkpt>
      <trkpt lat="47.42918" lon="6.79769">
        <ele>491</ele>
        <time>2015-06-14T08:46:02.000Z</time>
      </trkpt>
      <trkpt lat="47.42913" lon="6.79769">
        <ele>490</ele>
        <time>2015-06-14T08:46:03.000Z</time>
      </trkpt>
      <trkpt lat="47.42908" lon="6.79769">
        <ele>490</ele>
        <time>2015-06-14T08:46:04.000Z</time>
      </trkpt>
      <trkpt lat="47.42902" lon="6.79768">
        <ele>489</ele>
        <time>2015-06-14T08:46:05.000Z</time>
      </trkpt>
      <trkpt lat="47.42896" lon="6.79769">
        <ele>489</ele>
        <time>2015-06-14T08:46:06.000Z</time>
      </trkpt>
      <trkpt lat="47.42889" lon="6.79769">
        <ele>489</ele>
        <time>2015-06-14T08:46:07.000Z</time>
      </trkpt>
      <trkpt lat="47.42883" lon="6.79768">
        <ele>489</ele>
        <time>2015-06-14T08:46:08.000Z</time>
      </trkpt>
      <trkpt lat="47.42877" lon="6.79768">
        <ele>489</ele>
        <time>2015-06-14T08:46:09.000Z</time>
      </trkpt>
      <trkpt lat="47.42871" lon="6.7977">
        <ele>488</ele>
        <time>2015-06-14T08:46:10.000Z</time>
      </trkpt>
      <trkpt lat="47.42865" lon="6.7977">
        <ele>488</ele>
        <time>2015-06-14T08:46:11.000Z</time>
      </trkpt>
      <trkpt lat="47.42859" lon="6.79771">
        <ele>488</ele>
        <time>2015-06-14T08:46:12.000Z</time>
      </trkpt>
      <trkpt lat="47.42854" lon="6.79773">
        <ele>488</ele>
        <time>2015-06-14T08:46:13.000Z</time>
      </trkpt>
      <trkpt lat="47.42849" lon="6.79775">
        <ele>488</ele>
        <time>2015-06-14T08:46:14.000Z</time>
      </trkpt>
      <trkpt lat="47.42843" lon="6.79777">
        <ele>488</ele>
        <time>2015-06-14T08:46:15.000Z</time>
      </trkpt>
      <trkpt lat="47.42839" lon="6.79781">
        <ele>488</ele>
        <time>2015-06-14T08:46:16.000Z</time>
      </trkpt>
      <trkpt lat="47.42834" lon="6.79783">
        <ele>488</ele>
        <time>2015-06-14T08:46:17.000Z</time>
      </trkpt>
      <trkpt lat="47.4283" lon="6.79784">
        <ele>488</ele>
        <time>2015-06-14T08:46:18.000Z</time>
      </trkpt>
      <trkpt lat="47.42823" lon="6.79786">
        <ele>488</ele>
        <time>2015-06-14T08:46:19.000Z</time>
      </trkpt>
      <trkpt lat="47.42819" lon="6.79788">
        <ele>488</ele>
        <time>2015-06-14T08:46:20.000Z</time>
      </trkpt>
      <trkpt lat="47.42815" lon="6.7979">
        <ele>488</ele>
        <time>2015-06-14T08:46:21.000Z</time>
      </trkpt>
      <trkpt lat="47.4281" lon="6.79791">
        <ele>489</ele>
        <time>2015-06-14T08:46:22.000Z</time>
      </trkpt>
      <trkpt lat="47.42806" lon="6.79794">
        <ele>489</ele>
        <time>2015-06-14T08:46:23.000Z</time>
      </trkpt>
      <trkpt lat="47.42802" lon="6.79796">
        <ele>489</ele>
        <time>2015-06-14T08:46:24.000Z</time>
      </trkpt>
      <trkpt lat="47.42797" lon="6.79798">
        <ele>489</ele>
        <time>2015-06-14T08:46:25.000Z</time>
      </trkpt>
      <trkpt lat="47.42793" lon="6.79799">
        <ele>489</ele>
        <time>2015-06-14T08:46:26.000Z</time>
      </trkpt>
      <trkpt lat="47.42789" lon="6.79802">
        <ele>489</ele>
        <time>2015-06-14T08:46:27.000Z</time>
      </trkpt>
      <trkpt lat="47.42787" lon="6.79803">
        <ele>489</ele>
        <time>2015-06-14T08:46:28.000Z</time>
      </trkpt>
      <trkpt lat="47.42783" lon="6.79804">
        <ele>490</ele>
        <time>2015-06-14T08:46:29.000Z</time>
      </trkpt>
      <trkpt lat="47.42777" lon="6.79807">
        <ele>490</ele>
        <time>2015-06-14T08:46:31.000Z</time>
      </trkpt>
      <trkpt lat="47.42774" lon="6.79808">
        <ele>490</ele>
        <time>2015-06-14T08:46:32.000Z</time>
      </trkpt>
      <trkpt lat="47.42771" lon="6.79809">
        <ele>490</ele>
        <time>2015-06-14T08:46:33.000Z</time>
      </trkpt>
      <trkpt lat="47.42768" lon="6.79809">
        <ele>490</ele>
        <time>2015-06-14T08:46:34.000Z</time>
      </trkpt>
      <trkpt lat="47.42765" lon="6.7981">
        <ele>490</ele>
        <time>2015-06-14T08:46:35.000Z</time>
      </trkpt>
      <trkpt lat="47.42762" lon="6.79812">
        <ele>491</ele>
        <time>2015-06-14T08:46:36.000Z</time>
      </trkpt>
      <trkpt lat="47.42759" lon="6.79813">
        <ele>491</ele>
        <time>2015-06-14T08:46:37.000Z</time>
      </trkpt>
      <trkpt lat="47.42756" lon="6.79817">
        <ele>491</ele>
        <time>2015-06-14T08:46:38.000Z</time>
      </trkpt>
      <trkpt lat="47.42754" lon="6.7982">
        <ele>491</ele>
        <time>2015-06-14T08:46:39.000Z</time>
      </trkpt>
      <trkpt lat="47.42751" lon="6.79822">
        <ele>492</ele>
        <time>2015-06-14T08:46:40.000Z</time>
      </trkpt>
      <trkpt lat="47.42748" lon="6.79825">
        <ele>494</ele>
        <time>2015-06-14T08:46:41.000Z</time>
      </trkpt>
      <trkpt lat="47.42745" lon="6.79827">
        <ele>494</ele>
        <time>2015-06-14T08:46:42.000Z</time>
      </trkpt>
      <trkpt lat="47.42742" lon="6.7983">
        <ele>494</ele>
        <time>2015-06-14T08:46:43.000Z</time>
      </trkpt>
      <trkpt lat="47.42738" lon="6.79832">
        <ele>494</ele>
        <time>2015-06-14T08:46:44.000Z</time>
      </trkpt>
      <trkpt lat="47.42734" lon="6.79832">
        <ele>494</ele>
        <time>2015-06-14T08:46:45.000Z</time>
      </trkpt>
      <trkpt lat="47.42731" lon="6.79832">
        <ele>494</ele>
        <time>2015-06-14T08:46:46.000Z</time>
      </trkpt>
      <trkpt lat="47.42728" lon="6.79831">
        <ele>494</ele>
        <time>2015-06-14T08:46:47.000Z</time>
      </trkpt>
      <trkpt lat="47.42725" lon="6.79832">
        <ele>495</ele>
        <time>2015-06-14T08:46:48.000Z</time>
      </trkpt>
      <trkpt lat="47.42722" lon="6.79831">
        <ele>495</ele>
        <time>2015-06-14T08:46:49.000Z</time>
      </trkpt>
      <trkpt lat="47.42719" lon="6.79831">
        <ele>495</ele>
        <time>2015-06-14T08:46:50.000Z</time>
      </trkpt>
      <trkpt lat="47.42717" lon="6.79831">
        <ele>495</ele>
        <time>2015-06-14T08:46:51.000Z</time>
      </trkpt>
      <trkpt lat="47.42714" lon="6.7983">
        <ele>495</ele>
        <time>2015-06-14T08:46:52.000Z</time>
      </trkpt>
      <trkpt lat="47.42711" lon="6.7983">
        <ele>495</ele>
        <time>2015-06-14T08:46:53.000Z</time>
      </trkpt>
      <trkpt lat="47.4271" lon="6.7983">
        <ele>495</ele>
        <time>2015-06-14T08:46:54.000Z</time>
      </trkpt>
      <trkpt lat="47.42707" lon="6.7983">
        <ele>495</ele>
        <time>2015-06-14T08:46:55.000Z</time>
      </trkpt>
      <trkpt lat="47.42704" lon="6.7983">
        <ele>496</ele>
        <time>2015-06-14T08:46:56.000Z</time>
      </trkpt>
      <trkpt lat="47.42701" lon="6.7983">
        <ele>496</ele>
        <time>2015-06-14T08:46:57.000Z</time>
      </trkpt>
      <trkpt lat="47.42698" lon="6.79829">
        <ele>496</ele>
        <time>2015-06-14T08:46:58.000Z</time>
      </trkpt>
      <trkpt lat="47.42695" lon="6.79828">
        <ele>496</ele>
        <time>2015-06-14T08:46:59.000Z</time>
      </trkpt>
      <trkpt lat="47.42693" lon="6.79828">
        <ele>496</ele>
        <time>2015-06-14T08:46:59.999Z</time>
      </trkpt>
      <trkpt lat="47.42689" lon="6.79825">
        <ele>496</ele>
        <time>2015-06-14T08:47:01.000Z</time>
      </trkpt>
      <trkpt lat="47.42686" lon="6.79824">
        <ele>496</ele>
        <time>2015-06-14T08:47:02.000Z</time>
      </trkpt>
      <trkpt lat="47.42683" lon="6.79824">
        <ele>497</ele>
        <time>2015-06-14T08:47:03.000Z</time>
      </trkpt>
      <trkpt lat="47.4268" lon="6.79825">
        <ele>497</ele>
        <time>2015-06-14T08:47:04.000Z</time>
      </trkpt>
      <trkpt lat="47.42676" lon="6.79826">
        <ele>497</ele>
        <time>2015-06-14T08:47:05.000Z</time>
      </trkpt>
      <trkpt lat="47.42674" lon="6.79826">
        <ele>497</ele>
        <time>2015-06-14T08:47:06.001Z</time>
      </trkpt>
      <trkpt lat="47.4267" lon="6.79827">
        <ele>497</ele>
        <time>2015-06-14T08:47:07.000Z</time>
      </trkpt>
      <trkpt lat="47.42666" lon="6.79827">
        <ele>499</ele>
        <time>2015-06-14T08:47:08.000Z</time>
      </trkpt>
      <trkpt lat="47.42663" lon="6.79828">
        <ele>499</ele>
        <time>2015-06-14T08:47:09.000Z</time>
      </trkpt>
      <trkpt lat="47.42659" lon="6.79828">
        <ele>499</ele>
        <time>2015-06-14T08:47:10.000Z</time>
      </trkpt>
      <trkpt lat="47.42657" lon="6.79828">
        <ele>499</ele>
        <time>2015-06-14T08:47:11.000Z</time>
      </trkpt>
      <trkpt lat="47.42652" lon="6.79828">
        <ele>499</ele>
        <time>2015-06-14T08:47:13.000Z</time>
      </trkpt>
      <trkpt lat="47.4265" lon="6.79829">
        <ele>500</ele>
        <time>2015-06-14T08:47:14.000Z</time>
      </trkpt>
      <trkpt lat="47.42648" lon="6.79829">
        <ele>500</ele>
        <time>2015-06-14T08:47:15.000Z</time>
      </trkpt>
      <trkpt lat="47.42645" lon="6.7983">
        <ele>500</ele>
        <time>2015-06-14T08:47:16.000Z</time>
      </trkpt>
      <trkpt lat="47.42643" lon="6.79831">
        <ele>500</ele>
        <time>2015-06-14T08:47:17.000Z</time>
      </trkpt>
      <trkpt lat="47.42641" lon="6.79831">
        <ele>500</ele>
        <time>2015-06-14T08:47:18.000Z</time>
      </trkpt>
      <trkpt lat="47.42637" lon="6.79829">
        <ele>500</ele>
        <time>2015-06-14T08:47:20.000Z</time>
      </trkpt>
      <trkpt lat="47.42635" lon="6.79828">
        <ele>500</ele>
        <time>2015-06-14T08:47:21.000Z</time>
      </trkpt>
      <trkpt lat="47.42633" lon="6.79827">
        <ele>501</ele>
        <time>2015-06-14T08:47:22.001Z</time>
      </trkpt>
      <trkpt lat="47.4263" lon="6.79827">
        <ele>501</ele>
        <time>2015-06-14T08:47:23.000Z</time>
      </trkpt>
      <trkpt lat="47.42628" lon="6.79827">
        <ele>501</ele>
        <time>2015-06-14T08:47:24.000Z</time>
      </trkpt>
      <trkpt lat="47.42626" lon="6.79827">
        <ele>501</ele>
        <time>2015-06-14T08:47:25.000Z</time>
      </trkpt>
      <trkpt lat="47.42622" lon="6.79827">
        <ele>501</ele>
        <time>2015-06-14T08:47:26.000Z</time>
      </trkpt>
      <trkpt lat="47.4262" lon="6.79826">
        <ele>501</ele>
        <time>2015-06-14T08:47:27.000Z</time>
      </trkpt>
      <trkpt lat="47.42618" lon="6.79826">
        <ele>501</ele>
        <time>2015-06-14T08:47:28.000Z</time>
      </trkpt>
      <trkpt lat="47.42615" lon="6.79824">
        <ele>502</ele>
        <time>2015-06-14T08:47:29.000Z</time>
      </trkpt>
      <trkpt lat="47.4261" lon="6.79824">
        <ele>502</ele>
        <time>2015-06-14T08:47:31.000Z</time>
      </trkpt>
      <trkpt lat="47.42607" lon="6.79824">
        <ele>502</ele>
        <time>2015-06-14T08:47:32.000Z</time>
      </trkpt>
      <trkpt lat="47.42605" lon="6.79825">
        <ele>502</ele>
        <time>2015-06-14T08:47:33.000Z</time>
      </trkpt>
      <trkpt lat="47.42602" lon="6.79827">
        <ele>502</ele>
        <time>2015-06-14T08:47:34.000Z</time>
      </trkpt>
      <trkpt lat="47.426" lon="6.79828">
        <ele>502</ele>
        <time>2015-06-14T08:47:35.000Z</time>
      </trkpt>
      <trkpt lat="47.42598" lon="6.79829">
        <ele>503</ele>
        <time>2015-06-14T08:47:36.000Z</time>
      </trkpt>
      <trkpt lat="47.42595" lon="6.79829">
        <ele>503</ele>
        <time>2015-06-14T08:47:37.000Z</time>
      </trkpt>
      <trkpt lat="47.42592" lon="6.79828">
        <ele>503</ele>
        <time>2015-06-14T08:47:38.000Z</time>
      </trkpt>
      <trkpt lat="47.42589" lon="6.79826">
        <ele>503</ele>
        <time>2015-06-14T08:47:39.000Z</time>
      </trkpt>
      <trkpt lat="47.42586" lon="6.79824">
        <ele>503</ele>
        <time>2015-06-14T08:47:40.000Z</time>
      </trkpt>
      <trkpt lat="47.42583" lon="6.79822">
        <ele>506</ele>
        <time>2015-06-14T08:47:41.000Z</time>
      </trkpt>
      <trkpt lat="47.4258" lon="6.79821">
        <ele>506</ele>
        <time>2015-06-14T08:47:42.000Z</time>
      </trkpt>
      <trkpt lat="47.42577" lon="6.79821">
        <ele>506</ele>
        <time>2015-06-14T08:47:43.000Z</time>
      </trkpt>
      <trkpt lat="47.42575" lon="6.79821">
        <ele>506</ele>
        <time>2015-06-14T08:47:44.000Z</time>
      </trkpt>
      <trkpt lat="47.42572" lon="6.79821">
        <ele>506</ele>
        <time>2015-06-14T08:47:45.000Z</time>
      </trkpt>
      <trkpt lat="47.4257" lon="6.79822">
        <ele>506</ele>
        <time>2015-06-14T08:47:46.000Z</time>
      </trkpt>
      <trkpt lat="47.42567" lon="6.79822">
        <ele>506</ele>
        <time>2015-06-14T08:47:47.000Z</time>
      </trkpt>
      <trkpt lat="47.42564" lon="6.79823">
        <ele>507</ele>
        <time>2015-06-14T08:47:48.000Z</time>
      </trkpt>
      <trkpt lat="47.42561" lon="6.79823">
        <ele>507</ele>
        <time>2015-06-14T08:47:49.000Z</time>
      </trkpt>
      <trkpt lat="47.42558" lon="6.79824">
        <ele>507</ele>
        <time>2015-06-14T08:47:50.000Z</time>
      </trkpt>
      <trkpt lat="47.42555" lon="6.79824">
        <ele>507</ele>
        <time>2015-06-14T08:47:51.000Z</time>
      </trkpt>
      <trkpt lat="47.42553" lon="6.79825">
        <ele>508</ele>
        <time>2015-06-14T08:47:52.000Z</time>
      </trkpt>
      <trkpt lat="47.4255" lon="6.79825">
        <ele>508</ele>
        <time>2015-06-14T08:47:53.000Z</time>
      </trkpt>
      <trkpt lat="47.42547" lon="6.79826">
        <ele>508</ele>
        <time>2015-06-14T08:47:54.000Z</time>
      </trkpt>
      <trkpt lat="47.42544" lon="6.79826">
        <ele>508</ele>
        <time>2015-06-14T08:47:55.000Z</time>
      </trkpt>
      <trkpt lat="47.42541" lon="6.79826">
        <ele>508</ele>
        <time>2015-06-14T08:47:56.000Z</time>
      </trkpt>
      <trkpt lat="47.42537" lon="6.79826">
        <ele>509</ele>
        <time>2015-06-14T08:47:57.000Z</time>
      </trkpt>
      <trkpt lat="47.42533" lon="6.79827">
        <ele>509</ele>
        <time>2015-06-14T08:47:58.000Z</time>
      </trkpt>
      <trkpt lat="47.4253" lon="6.79827">
        <ele>509</ele>
        <time>2015-06-14T08:47:59.000Z</time>
      </trkpt>
      <trkpt lat="47.42526" lon="6.79828">
        <ele>509</ele>
        <time>2015-06-14T08:48:00.000Z</time>
      </trkpt>
      <trkpt lat="47.42523" lon="6.7983">
        <ele>510</ele>
        <time>2015-06-14T08:48:01.000Z</time>
      </trkpt>
      <trkpt lat="47.4252" lon="6.7983">
        <ele>510</ele>
        <time>2015-06-14T08:48:02.000Z</time>
      </trkpt>
      <trkpt lat="47.42517" lon="6.79831">
        <ele>510</ele>
        <time>2015-06-14T08:48:03.000Z</time>
      </trkpt>
      <trkpt lat="47.42514" lon="6.79832">
        <ele>510</ele>
        <time>2015-06-14T08:48:04.000Z</time>
      </trkpt>
      <trkpt lat="47.42511" lon="6.79834">
        <ele>510</ele>
        <time>2015-06-14T08:48:05.000Z</time>
      </trkpt>
      <trkpt lat="47.42508" lon="6.79835">
        <ele>511</ele>
        <time>2015-06-14T08:48:06.000Z</time>
      </trkpt>
      <trkpt lat="47.42505" lon="6.79836">
        <ele>511</ele>
        <time>2015-06-14T08:48:07.000Z</time>
      </trkpt>
      <trkpt lat="47.42502" lon="6.79836">
        <ele>511</ele>
        <time>2015-06-14T08:48:08.001Z</time>
      </trkpt>
      <trkpt lat="47.42498" lon="6.79837">
        <ele>512</ele>
        <time>2015-06-14T08:48:09.000Z</time>
      </trkpt>
      <trkpt lat="47.42495" lon="6.79837">
        <ele>512</ele>
        <time>2015-06-14T08:48:10.000Z</time>
      </trkpt>
      <trkpt lat="47.42493" lon="6.79838">
        <ele>513</ele>
        <time>2015-06-14T08:48:10.999Z</time>
      </trkpt>
      <trkpt lat="47.4249" lon="6.79838">
        <ele>513</ele>
        <time>2015-06-14T08:48:12.001Z</time>
      </trkpt>
      <trkpt lat="47.42488" lon="6.79838">
        <ele>513</ele>
        <time>2015-06-14T08:48:13.000Z</time>
      </trkpt>
      <trkpt lat="47.42485" lon="6.79838">
        <ele>513</ele>
        <time>2015-06-14T08:48:14.000Z</time>
      </trkpt>
      <trkpt lat="47.42482" lon="6.79838">
        <ele>513</ele>
        <time>2015-06-14T08:48:15.000Z</time>
      </trkpt>
      <trkpt lat="47.4248" lon="6.79839">
        <ele>513</ele>
        <time>2015-06-14T08:48:16.000Z</time>
      </trkpt>
      <trkpt lat="47.42477" lon="6.79839">
        <ele>513</ele>
        <time>2015-06-14T08:48:17.000Z</time>
      </trkpt>
      <trkpt lat="47.42475" lon="6.79839">
        <ele>513</ele>
        <time>2015-06-14T08:48:18.000Z</time>
      </trkpt>
      <trkpt lat="47.42472" lon="6.79838">
        <ele>513</ele>
        <time>2015-06-14T08:48:19.000Z</time>
      </trkpt>
      <trkpt lat="47.4247" lon="6.79838">
        <ele>514</ele>
        <time>2015-06-14T08:48:20.000Z</time>
      </trkpt>
      <trkpt lat="47.42467" lon="6.79837">
        <ele>514</ele>
        <time>2015-06-14T08:48:21.000Z</time>
      </trkpt>
      <trkpt lat="47.42464" lon="6.79836">
        <ele>514</ele>
        <time>2015-06-14T08:48:22.000Z</time>
      </trkpt>
      <trkpt lat="47.42461" lon="6.79836">
        <ele>514</ele>
        <time>2015-06-14T08:48:23.000Z</time>
      </trkpt>
      <trkpt lat="47.42458" lon="6.79835">
        <ele>514</ele>
        <time>2015-06-14T08:48:24.000Z</time>
      </trkpt>
      <trkpt lat="47.42455" lon="6.79835">
        <ele>514</ele>
        <time>2015-06-14T08:48:25.000Z</time>
      </trkpt>
      <trkpt lat="47.42453" lon="6.79835">
        <ele>514</ele>
        <time>2015-06-14T08:48:26.000Z</time>
      </trkpt>
      <trkpt lat="47.4245" lon="6.79834">
        <ele>514</ele>
        <time>2015-06-14T08:48:27.000Z</time>
      </trkpt>
      <trkpt lat="47.42447" lon="6.79834">
        <ele>514</ele>
        <time>2015-06-14T08:48:28.000Z</time>
      </trkpt>
      <trkpt lat="47.42445" lon="6.79835">
        <ele>515</ele>
        <time>2015-06-14T08:48:29.000Z</time>
      </trkpt>
      <trkpt lat="47.42442" lon="6.79835">
        <ele>515</ele>
        <time>2015-06-14T08:48:30.000Z</time>
      </trkpt>
      <trkpt lat="47.42439" lon="6.79835">
        <ele>515</ele>
        <time>2015-06-14T08:48:31.000Z</time>
      </trkpt>
      <trkpt lat="47.42436" lon="6.79835">
        <ele>515</ele>
        <time>2015-06-14T08:48:32.000Z</time>
      </trkpt>
      <trkpt lat="47.42433" lon="6.79835">
        <ele>515</ele>
        <time>2015-06-14T08:48:33.000Z</time>
      </trkpt>
      <trkpt lat="47.4243" lon="6.79836">
        <ele>515</ele>
        <time>2015-06-14T08:48:34.000Z</time>
      </trkpt>
      <trkpt lat="47.42427" lon="6.79837">
        <ele>515</ele>
        <time>2015-06-14T08:48:35.000Z</time>
      </trkpt>
      <trkpt lat="47.42424" lon="6.79838">
        <ele>515</ele>
        <time>2015-06-14T08:48:36.000Z</time>
      </trkpt>
      <trkpt lat="47.4242" lon="6.79839">
        <ele>516</ele>
        <time>2015-06-14T08:48:37.000Z</time>
      </trkpt>
      <trkpt lat="47.42416" lon="6.79841">
        <ele>517</ele>
        <time>2015-06-14T08:48:38.000Z</time>
      </trkpt>
      <trkpt lat="47.42413" lon="6.79843">
        <ele>517</ele>
        <time>2015-06-14T08:48:39.000Z</time>
      </trkpt>
      <trkpt lat="47.42409" lon="6.79845">
        <ele>518</ele>
        <time>2015-06-14T08:48:40.000Z</time>
      </trkpt>
      <trkpt lat="47.42406" lon="6.79847">
        <ele>518</ele>
        <time>2015-06-14T08:48:41.000Z</time>
      </trkpt>
      <trkpt lat="47.42402" lon="6.79849">
        <ele>518</ele>
        <time>2015-06-14T08:48:42.000Z</time>
      </trkpt>
      <trkpt lat="47.42399" lon="6.79851">
        <ele>519</ele>
        <time>2015-06-14T08:48:43.000Z</time>
      </trkpt>
      <trkpt lat="47.42396" lon="6.79853">
        <ele>519</ele>
        <time>2015-06-14T08:48:44.000Z</time>
      </trkpt>
      <trkpt lat="47.42393" lon="6.79855">
        <ele>519</ele>
        <time>2015-06-14T08:48:45.000Z</time>
      </trkpt>
      <trkpt lat="47.4239" lon="6.79858">
        <ele>519</ele>
        <time>2015-06-14T08:48:46.000Z</time>
      </trkpt>
      <trkpt lat="47.42388" lon="6.79861">
        <ele>520</ele>
        <time>2015-06-14T08:48:47.000Z</time>
      </trkpt>
      <trkpt lat="47.42385" lon="6.79863">
        <ele>520</ele>
        <time>2015-06-14T08:48:48.000Z</time>
      </trkpt>
      <trkpt lat="47.42383" lon="6.79866">
        <ele>520</ele>
        <time>2015-06-14T08:48:49.000Z</time>
      </trkpt>
      <trkpt lat="47.42381" lon="6.79869">
        <ele>520</ele>
        <time>2015-06-14T08:48:50.000Z</time>
      </trkpt>
      <trkpt lat="47.42378" lon="6.79871">
        <ele>520</ele>
        <time>2015-06-14T08:48:51.000Z</time>
      </trkpt>
      <trkpt lat="47.42374" lon="6.79874">
        <ele>520</ele>
        <time>2015-06-14T08:48:53.000Z</time>
      </trkpt>
      <trkpt lat="47.42373" lon="6.79876">
        <ele>520</ele>
        <time>2015-06-14T08:48:54.000Z</time>
      </trkpt>
      <trkpt lat="47.42369" lon="6.79879">
        <ele>521</ele>
        <time>2015-06-14T08:48:56.000Z</time>
      </trkpt>
      <trkpt lat="47.42367" lon="6.79881">
        <ele>521</ele>
        <time>2015-06-14T08:48:57.000Z</time>
      </trkpt>
      <trkpt lat="47.42364" lon="6.79885">
        <ele>521</ele>
        <time>2015-06-14T08:48:59.000Z</time>
      </trkpt>
      <trkpt lat="47.42362" lon="6.79887">
        <ele>521</ele>
        <time>2015-06-14T08:49:00.000Z</time>
      </trkpt>
      <trkpt lat="47.4236" lon="6.79889">
        <ele>521</ele>
        <time>2015-06-14T08:49:01.000Z</time>
      </trkpt>
      <trkpt lat="47.42359" lon="6.79892">
        <ele>521</ele>
        <time>2015-06-14T08:49:02.000Z</time>
      </trkpt>
      <trkpt lat="47.42356" lon="6.79896">
        <ele>521</ele>
        <time>2015-06-14T08:49:04.000Z</time>
      </trkpt>
      <trkpt lat="47.42355" lon="6.79898">
        <ele>521</ele>
        <time>2015-06-14T08:49:05.000Z</time>
      </trkpt>
      <trkpt lat="47.42352" lon="6.79902">
        <ele>522</ele>
        <time>2015-06-14T08:49:07.000Z</time>
      </trkpt>
      <trkpt lat="47.4235" lon="6.79904">
        <ele>522</ele>
        <time>2015-06-14T08:49:08.000Z</time>
      </trkpt>
      <trkpt lat="47.42347" lon="6.79908">
        <ele>522</ele>
        <time>2015-06-14T08:49:10.000Z</time>
      </trkpt>
      <trkpt lat="47.42346" lon="6.7991">
        <ele>522</ele>
        <time>2015-06-14T08:49:11.000Z</time>
      </trkpt>
      <trkpt lat="47.42343" lon="6.79914">
        <ele>523</ele>
        <time>2015-06-14T08:49:13.000Z</time>
      </trkpt>
      <trkpt lat="47.42341" lon="6.79915">
        <ele>523</ele>
        <time>2015-06-14T08:49:14.000Z</time>
      </trkpt>
      <trkpt lat="47.42338" lon="6.79919">
        <ele>523</ele>
        <time>2015-06-14T08:49:16.000Z</time>
      </trkpt>
      <trkpt lat="47.42336" lon="6.7992">
        <ele>523</ele>
        <time>2015-06-14T08:49:17.000Z</time>
      </trkpt>
      <trkpt lat="47.42333" lon="6.79924">
        <ele>524</ele>
        <time>2015-06-14T08:49:19.000Z</time>
      </trkpt>
      <trkpt lat="47.42332" lon="6.79926">
        <ele>524</ele>
        <time>2015-06-14T08:49:20.000Z</time>
      </trkpt>
      <trkpt lat="47.42329" lon="6.79929">
        <ele>524</ele>
        <time>2015-06-14T08:49:22.000Z</time>
      </trkpt>
      <trkpt lat="47.42327" lon="6.7993">
        <ele>524</ele>
        <time>2015-06-14T08:49:23.000Z</time>
      </trkpt>
      <trkpt lat="47.42325" lon="6.79932">
        <ele>524</ele>
        <time>2015-06-14T08:49:24.000Z</time>
      </trkpt>
      <trkpt lat="47.42323" lon="6.79935">
        <ele>524</ele>
        <time>2015-06-14T08:49:25.000Z</time>
      </trkpt>
      <trkpt lat="47.4232" lon="6.79939">
        <ele>525</ele>
        <time>2015-06-14T08:49:27.000Z</time>
      </trkpt>
      <trkpt lat="47.42318" lon="6.7994">
        <ele>525</ele>
        <time>2015-06-14T08:49:28.000Z</time>
      </trkpt>
      <trkpt lat="47.42316" lon="6.79943">
        <ele>525</ele>
        <time>2015-06-14T08:49:30.000Z</time>
      </trkpt>
      <trkpt lat="47.42315" lon="6.79945">
        <ele>525</ele>
        <time>2015-06-14T08:49:31.000Z</time>
      </trkpt>
      <trkpt lat="47.42312" lon="6.79949">
        <ele>525</ele>
        <time>2015-06-14T08:49:33.000Z</time>
      </trkpt>
      <trkpt lat="47.4231" lon="6.79951">
        <ele>525</ele>
        <time>2015-06-14T08:49:34.000Z</time>
      </trkpt>
      <trkpt lat="47.42308" lon="6.79955">
        <ele>525</ele>
        <time>2015-06-14T08:49:36.000Z</time>
      </trkpt>
      <trkpt lat="47.42307" lon="6.79957">
        <ele>525</ele>
        <time>2015-06-14T08:49:37.000Z</time>
      </trkpt>
      <trkpt lat="47.42304" lon="6.79961">
        <ele>525</ele>
        <time>2015-06-14T08:49:40.000Z</time>
      </trkpt>
      <trkpt lat="47.42303" lon="6.79964">
        <ele>525</ele>
        <time>2015-06-14T08:49:41.000Z</time>
      </trkpt>
      <trkpt lat="47.42302" lon="6.79968">
        <ele>525</ele>
        <time>2015-06-14T08:49:42.000Z</time>
      </trkpt>
      <trkpt lat="47.423" lon="6.79972">
        <ele>525</ele>
        <time>2015-06-14T08:49:43.000Z</time>
      </trkpt>
      <trkpt lat="47.42298" lon="6.79975">
        <ele>525</ele>
        <time>2015-06-14T08:49:44.000Z</time>
      </trkpt>
      <trkpt lat="47.42296" lon="6.79977">
        <ele>525</ele>
        <time>2015-06-14T08:49:45.000Z</time>
      </trkpt>
      <trkpt lat="47.42292" lon="6.7998">
        <ele>525</ele>
        <time>2015-06-14T08:49:48.000Z</time>
      </trkpt>
      <trkpt lat="47.42291" lon="6.7998">
        <ele>525</ele>
        <time>2015-06-14T08:49:49.000Z</time>
      </trkpt>
      <trkpt lat="47.42288" lon="6.79983">
        <ele>525</ele>
        <time>2015-06-14T08:49:54.000Z</time>
      </trkpt>
      <trkpt lat="47.42287" lon="6.79984">
        <ele>525</ele>
        <time>2015-06-14T08:49:55.000Z</time>
      </trkpt>
      <trkpt lat="47.42284" lon="6.79987">
        <ele>525</ele>
        <time>2015-06-14T08:49:58.000Z</time>
      </trkpt>
      <trkpt lat="47.42283" lon="6.79987">
        <ele>525</ele>
        <time>2015-06-14T08:49:59.000Z</time>
      </trkpt>
      <trkpt lat="47.42287" lon="6.79986">
        <ele>525</ele>
        <time>2015-06-14T08:50:04.000Z</time>
      </trkpt>
      <trkpt lat="47.42291" lon="6.79985">
        <ele>525</ele>
        <time>2015-06-14T08:50:05.000Z</time>
      </trkpt>
      <trkpt lat="47.42295" lon="6.79982">
        <ele>525</ele>
        <time>2015-06-14T08:50:06.000Z</time>
      </trkpt>
      <trkpt lat="47.42299" lon="6.7998">
        <ele>525</ele>
        <time>2015-06-14T08:50:07.000Z</time>
      </trkpt>
      <trkpt lat="47.42303" lon="6.79977">
        <ele>525</ele>
        <time>2015-06-14T08:50:08.000Z</time>
      </trkpt>
      <trkpt lat="47.42307" lon="6.79974">
        <ele>525</ele>
        <time>2015-06-14T08:50:09.000Z</time>
      </trkpt>
      <trkpt lat="47.4231" lon="6.79971">
        <ele>525</ele>
        <time>2015-06-14T08:50:10.000Z</time>
      </trkpt>
      <trkpt lat="47.42313" lon="6.79968">
        <ele>525</ele>
        <time>2015-06-14T08:50:11.000Z</time>
      </trkpt>
      <trkpt lat="47.42317" lon="6.79965">
        <ele>525</ele>
        <time>2015-06-14T08:50:12.000Z</time>
      </trkpt>
      <trkpt lat="47.4232" lon="6.79962">
        <ele>525</ele>
        <time>2015-06-14T08:50:13.000Z</time>
      </trkpt>
      <trkpt lat="47.42323" lon="6.79959">
        <ele>525</ele>
        <time>2015-06-14T08:50:14.000Z</time>
      </trkpt>
      <trkpt lat="47.42326" lon="6.79956">
        <ele>524</ele>
        <time>2015-06-14T08:50:15.000Z</time>
      </trkpt>
      <trkpt lat="47.42329" lon="6.79953">
        <ele>524</ele>
        <time>2015-06-14T08:50:16.000Z</time>
      </trkpt>
      <trkpt lat="47.42331" lon="6.7995">
        <ele>524</ele>
        <time>2015-06-14T08:50:17.000Z</time>
      </trkpt>
      <trkpt lat="47.42334" lon="6.79947">
        <ele>522</ele>
        <time>2015-06-14T08:50:18.000Z</time>
      </trkpt>
      <trkpt lat="47.42337" lon="6.79945">
        <ele>522</ele>
        <time>2015-06-14T08:50:19.000Z</time>
      </trkpt>
      <trkpt lat="47.42346" lon="6.79932">
        <ele>522</ele>
        <time>2015-06-14T08:50:20.000Z</time>
      </trkpt>
      <trkpt lat="47.4235" lon="6.79927">
        <ele>522</ele>
        <time>2015-06-14T08:50:21.000Z</time>
      </trkpt>
      <trkpt lat="47.42354" lon="6.79922">
        <ele>522</ele>
        <time>2015-06-14T08:50:22.000Z</time>
      </trkpt>
      <trkpt lat="47.4236" lon="6.79914">
        <ele>522</ele>
        <time>2015-06-14T08:50:23.000Z</time>
      </trkpt>
      <trkpt lat="47.42366" lon="6.79907">
        <ele>521</ele>
        <time>2015-06-14T08:50:24.000Z</time>
      </trkpt>
      <trkpt lat="47.42371" lon="6.79901">
        <ele>521</ele>
        <time>2015-06-14T08:50:25.000Z</time>
      </trkpt>
      <trkpt lat="47.42377" lon="6.79896">
        <ele>520</ele>
        <time>2015-06-14T08:50:26.000Z</time>
      </trkpt>
      <trkpt lat="47.42381" lon="6.7989">
        <ele>520</ele>
        <time>2015-06-14T08:50:27.000Z</time>
      </trkpt>
      <trkpt lat="47.42385" lon="6.79887">
        <ele>520</ele>
        <time>2015-06-14T08:50:28.000Z</time>
      </trkpt>
      <trkpt lat="47.42388" lon="6.79888">
        <ele>520</ele>
        <time>2015-06-14T08:50:29.000Z</time>
      </trkpt>
      <trkpt lat="47.4239" lon="6.7989">
        <ele>520</ele>
        <time>2015-06-14T08:50:30.000Z</time>
      </trkpt>
      <trkpt lat="47.42394" lon="6.79892">
        <ele>520</ele>
        <time>2015-06-14T08:50:31.000Z</time>
      </trkpt>
      <trkpt lat="47.42394" lon="6.79893">
        <ele>520</ele>
        <time>2015-06-14T08:50:32.000Z</time>
      </trkpt>
      <trkpt lat="47.42391" lon="6.79899">
        <ele>520</ele>
        <time>2015-06-14T08:50:35.000Z</time>
      </trkpt>
      <trkpt lat="47.4239" lon="6.799">
        <ele>520</ele>
        <time>2015-06-14T08:50:36.000Z</time>
      </trkpt>
      <trkpt lat="47.42388" lon="6.79906">
        <ele>520</ele>
        <time>2015-06-14T08:50:39.000Z</time>
      </trkpt>
      <trkpt lat="47.42389" lon="6.79907">
        <ele>520</ele>
        <time>2015-06-14T08:50:40.000Z</time>
      </trkpt>
      <trkpt lat="47.42392" lon="6.79909">
        <ele>520</ele>
        <time>2015-06-14T08:51:10.000Z</time>
      </trkpt>
      <trkpt lat="47.42394" lon="6.79909">
        <ele>520</ele>
        <time>2015-06-14T08:51:11.000Z</time>
      </trkpt>
      <trkpt lat="47.42397" lon="6.7991">
        <ele>520</ele>
        <time>2015-06-14T08:51:12.000Z</time>
      </trkpt>
      <trkpt lat="47.42399" lon="6.79911">
        <ele>520</ele>
        <time>2015-06-14T08:51:13.000Z</time>
      </trkpt>
      <trkpt lat="47.42402" lon="6.79911">
        <ele>520</ele>
        <time>2015-06-14T08:51:14.000Z</time>
      </trkpt>
      <trkpt lat="47.42406" lon="6.7991">
        <ele>520</ele>
        <time>2015-06-14T08:51:15.000Z</time>
      </trkpt>
      <trkpt lat="47.4241" lon="6.79908">
        <ele>519</ele>
        <time>2015-06-14T08:51:16.000Z</time>
      </trkpt>
      <trkpt lat="47.42414" lon="6.79906">
        <ele>519</ele>
        <time>2015-06-14T08:51:17.000Z</time>
      </trkpt>
      <trkpt lat="47.42419" lon="6.79903">
        <ele>517</ele>
        <time>2015-06-14T08:51:18.000Z</time>
      </trkpt>
      <trkpt lat="47.42424" lon="6.799">
        <ele>516</ele>
        <time>2015-06-14T08:51:19.000Z</time>
      </trkpt>
      <trkpt lat="47.42428" lon="6.79899">
        <ele>516</ele>
        <time>2015-06-14T08:51:20.000Z</time>
      </trkpt>
      <trkpt lat="47.42433" lon="6.79897">
        <ele>516</ele>
        <time>2015-06-14T08:51:21.000Z</time>
      </trkpt>
      <trkpt lat="47.42438" lon="6.79897">
        <ele>515</ele>
        <time>2015-06-14T08:51:22.000Z</time>
      </trkpt>
      <trkpt lat="47.42444" lon="6.79897">
        <ele>515</ele>
        <time>2015-06-14T08:51:23.000Z</time>
      </trkpt>
      <trkpt lat="47.42449" lon="6.79898">
        <ele>515</ele>
        <time>2015-06-14T08:51:24.000Z</time>
      </trkpt>
      <trkpt lat="47.42462" lon="6.79893">
        <ele>514</ele>
        <time>2015-06-14T08:51:25.000Z</time>
      </trkpt>
      <trkpt lat="47.42469" lon="6.79891">
        <ele>513</ele>
        <time>2015-06-14T08:51:26.000Z</time>
      </trkpt>
      <trkpt lat="47.42476" lon="6.79891">
        <ele>513</ele>
        <time>2015-06-14T08:51:27.000Z</time>
      </trkpt>
      <trkpt lat="47.42481" lon="6.79889">
        <ele>513</ele>
        <time>2015-06-14T08:51:28.000Z</time>
      </trkpt>
      <trkpt lat="47.42486" lon="6.79888">
        <ele>513</ele>
        <time>2015-06-14T08:51:29.000Z</time>
      </trkpt>
      <trkpt lat="47.42493" lon="6.79888">
        <ele>512</ele>
        <time>2015-06-14T08:51:30.000Z</time>
      </trkpt>
      <trkpt lat="47.42499" lon="6.79887">
        <ele>512</ele>
        <time>2015-06-14T08:51:31.000Z</time>
      </trkpt>
      <trkpt lat="47.42504" lon="6.79886">
        <ele>508</ele>
        <time>2015-06-14T08:51:32.000Z</time>
      </trkpt>
      <trkpt lat="47.42508" lon="6.79888">
        <ele>508</ele>
        <time>2015-06-14T08:51:33.000Z</time>
      </trkpt>
      <trkpt lat="47.42512" lon="6.79889">
        <ele>508</ele>
        <time>2015-06-14T08:51:34.000Z</time>
      </trkpt>
      <trkpt lat="47.42516" lon="6.79889">
        <ele>508</ele>
        <time>2015-06-14T08:51:35.000Z</time>
      </trkpt>
      <trkpt lat="47.42522" lon="6.7989">
        <ele>508</ele>
        <time>2015-06-14T08:51:36.000Z</time>
      </trkpt>
      <trkpt lat="47.42527" lon="6.79889">
        <ele>508</ele>
        <time>2015-06-14T08:51:37.000Z</time>
      </trkpt>
      <trkpt lat="47.42532" lon="6.79886">
        <ele>508</ele>
        <time>2015-06-14T08:51:38.000Z</time>
      </trkpt>
      <trkpt lat="47.42536" lon="6.79886">
        <ele>507</ele>
        <time>2015-06-14T08:51:39.000Z</time>
      </trkpt>
      <trkpt lat="47.4254" lon="6.79885">
        <ele>507</ele>
        <time>2015-06-14T08:51:40.000Z</time>
      </trkpt>
      <trkpt lat="47.42544" lon="6.79884">
        <ele>507</ele>
        <time>2015-06-14T08:51:41.000Z</time>
      </trkpt>
      <trkpt lat="47.4255" lon="6.79884">
        <ele>507</ele>
        <time>2015-06-14T08:51:42.000Z</time>
      </trkpt>
      <trkpt lat="47.42555" lon="6.79884">
        <ele>507</ele>
        <time>2015-06-14T08:51:43.000Z</time>
      </trkpt>
      <trkpt lat="47.42559" lon="6.79884">
        <ele>507</ele>
        <time>2015-06-14T08:51:44.000Z</time>
      </trkpt>
      <trkpt lat="47.42564" lon="6.79885">
        <ele>506</ele>
        <time>2015-06-14T08:51:45.000Z</time>
      </trkpt>
      <trkpt lat="47.42569" lon="6.79887">
        <ele>506</ele>
        <time>2015-06-14T08:51:46.000Z</time>
      </trkpt>
      <trkpt lat="47.42577" lon="6.79888">
        <ele>506</ele>
        <time>2015-06-14T08:51:47.000Z</time>
      </trkpt>
      <trkpt lat="47.42583" lon="6.79887">
        <ele>506</ele>
        <time>2015-06-14T08:51:48.000Z</time>
      </trkpt>
      <trkpt lat="47.42592" lon="6.79889">
        <ele>502</ele>
        <time>2015-06-14T08:51:49.000Z</time>
      </trkpt>
      <trkpt lat="47.42603" lon="6.7989">
        <ele>502</ele>
        <time>2015-06-14T08:51:50.000Z</time>
      </trkpt>
      <trkpt lat="47.42614" lon="6.79891">
        <ele>502</ele>
        <time>2015-06-14T08:51:51.000Z</time>
      </trkpt>
      <trkpt lat="47.42622" lon="6.79891">
        <ele>501</ele>
        <time>2015-06-14T08:51:52.000Z</time>
      </trkpt>
      <trkpt lat="47.42631" lon="6.79891">
        <ele>501</ele>
        <time>2015-06-14T08:51:53.000Z</time>
      </trkpt>
      <trkpt lat="47.4264" lon="6.79889">
        <ele>501</ele>
        <time>2015-06-14T08:51:54.000Z</time>
      </trkpt>
      <trkpt lat="47.42648" lon="6.79888">
        <ele>501</ele>
        <time>2015-06-14T08:51:55.000Z</time>
      </trkpt>
      <trkpt lat="47.42655" lon="6.79887">
        <ele>500</ele>
        <time>2015-06-14T08:51:56.000Z</time>
      </trkpt>
      <trkpt lat="47.42661" lon="6.79884">
        <ele>500</ele>
        <time>2015-06-14T08:51:57.000Z</time>
      </trkpt>
      <trkpt lat="47.42666" lon="6.79883">
        <ele>500</ele>
        <time>2015-06-14T08:51:58.000Z</time>
      </trkpt>
      <trkpt lat="47.42671" lon="6.79883">
        <ele>497</ele>
        <time>2015-06-14T08:51:59.000Z</time>
      </trkpt>
      <trkpt lat="47.42676" lon="6.79883">
        <ele>497</ele>
        <time>2015-06-14T08:52:00.000Z</time>
      </trkpt>
      <trkpt lat="47.42681" lon="6.79884">
        <ele>496</ele>
        <time>2015-06-14T08:52:01.000Z</time>
      </trkpt>
      <trkpt lat="47.42685" lon="6.79886">
        <ele>496</ele>
        <time>2015-06-14T08:52:02.000Z</time>
      </trkpt>
      <trkpt lat="47.42691" lon="6.79887">
        <ele>496</ele>
        <time>2015-06-14T08:52:03.000Z</time>
      </trkpt>
      <trkpt lat="47.42695" lon="6.79884">
        <ele>496</ele>
        <time>2015-06-14T08:52:04.000Z</time>
      </trkpt>
      <trkpt lat="47.42699" lon="6.79881">
        <ele>496</ele>
        <time>2015-06-14T08:52:05.000Z</time>
      </trkpt>
      <trkpt lat="47.42703" lon="6.7988">
        <ele>496</ele>
        <time>2015-06-14T08:52:06.000Z</time>
      </trkpt>
      <trkpt lat="47.42706" lon="6.79877">
        <ele>496</ele>
        <time>2015-06-14T08:52:07.000Z</time>
      </trkpt>
      <trkpt lat="47.42709" lon="6.79874">
        <ele>495</ele>
        <time>2015-06-14T08:52:08.000Z</time>
      </trkpt>
      <trkpt lat="47.42712" lon="6.7987">
        <ele>495</ele>
        <time>2015-06-14T08:52:09.000Z</time>
      </trkpt>
      <trkpt lat="47.42716" lon="6.79868">
        <ele>495</ele>
        <time>2015-06-14T08:52:10.000Z</time>
      </trkpt>
      <trkpt lat="47.4272" lon="6.79865">
        <ele>495</ele>
        <time>2015-06-14T08:52:11.000Z</time>
      </trkpt>
      <trkpt lat="47.42724" lon="6.79864">
        <ele>495</ele>
        <time>2015-06-14T08:52:12.000Z</time>
      </trkpt>
      <trkpt lat="47.42729" lon="6.79863">
        <ele>495</ele>
        <time>2015-06-14T08:52:13.000Z</time>
      </trkpt>
      <trkpt lat="47.42742" lon="6.79861">
        <ele>494</ele>
        <time>2015-06-14T08:52:14.000Z</time>
      </trkpt>
      <trkpt lat="47.42749" lon="6.79861">
        <ele>494</ele>
        <time>2015-06-14T08:52:15.000Z</time>
      </trkpt>
      <trkpt lat="47.42756" lon="6.79861">
        <ele>489</ele>
        <time>2015-06-14T08:52:16.000Z</time>
      </trkpt>
      <trkpt lat="47.42762" lon="6.79859">
        <ele>489</ele>
        <time>2015-06-14T08:52:17.000Z</time>
      </trkpt>
      <trkpt lat="47.42767" lon="6.79856">
        <ele>489</ele>
        <time>2015-06-14T08:52:18.000Z</time>
      </trkpt>
      <trkpt lat="47.42767" lon="6.7986">
        <ele>489</ele>
        <time>2015-06-14T08:52:21.000Z</time>
      </trkpt>
      <trkpt lat="47.42765" lon="6.79861">
        <ele>489</ele>
        <time>2015-06-14T08:52:22.000Z</time>
      </trkpt>
      <trkpt lat="47.42764" lon="6.79865">
        <ele>489</ele>
        <time>2015-06-14T08:52:32.000Z</time>
      </trkpt>
      <trkpt lat="47.42776" lon="6.79866">
        <ele>488</ele>
        <time>2015-06-14T08:52:33.000Z</time>
      </trkpt>
      <trkpt lat="47.4278" lon="6.79863">
        <ele>488</ele>
        <time>2015-06-14T08:52:34.000Z</time>
      </trkpt>
      <trkpt lat="47.42784" lon="6.79854">
        <ele>488</ele>
        <time>2015-06-14T08:52:35.000Z</time>
      </trkpt>
      <trkpt lat="47.42789" lon="6.79851">
        <ele>488</ele>
        <time>2015-06-14T08:52:36.000Z</time>
      </trkpt>
      <trkpt lat="47.42794" lon="6.79841">
        <ele>487</ele>
        <time>2015-06-14T08:52:37.000Z</time>
      </trkpt>
      <trkpt lat="47.42796" lon="6.79839">
        <ele>487</ele>
        <time>2015-06-14T08:52:38.000Z</time>
      </trkpt>
      <trkpt lat="47.42798" lon="6.79835">
        <ele>487</ele>
        <time>2015-06-14T08:52:39.000Z</time>
      </trkpt>
      <trkpt lat="47.42801" lon="6.79831">
        <ele>489</ele>
        <time>2015-06-14T08:52:40.000Z</time>
      </trkpt>
      <trkpt lat="47.42804" lon="6.79828">
        <ele>488</ele>
        <time>2015-06-14T08:52:41.000Z</time>
      </trkpt>
      <trkpt lat="47.4281" lon="6.7982">
        <ele>488</ele>
        <time>2015-06-14T08:52:42.000Z</time>
      </trkpt>
      <trkpt lat="47.42814" lon="6.79816">
        <ele>488</ele>
        <time>2015-06-14T08:52:43.000Z</time>
      </trkpt>
      <trkpt lat="47.42816" lon="6.79813">
        <ele>488</ele>
        <time>2015-06-14T08:52:44.000Z</time>
      </trkpt>
      <trkpt lat="47.4282" lon="6.79809">
        <ele>488</ele>
        <time>2015-06-14T08:52:45.000Z</time>
      </trkpt>
      <trkpt lat="47.42824" lon="6.79806">
        <ele>488</ele>
        <time>2015-06-14T08:52:46.000Z</time>
      </trkpt>
      <trkpt lat="47.42827" lon="6.79802">
        <ele>488</ele>
        <time>2015-06-14T08:52:47.000Z</time>
      </trkpt>
      <trkpt lat="47.42831" lon="6.79799">
        <ele>488</ele>
        <time>2015-06-14T08:52:48.000Z</time>
      </trkpt>
      <trkpt lat="47.42834" lon="6.79797">
        <ele>487</ele>
        <time>2015-06-14T08:52:49.000Z</time>
      </trkpt>
      <trkpt lat="47.42835" lon="6.79796">
        <ele>487</ele>
        <time>2015-06-14T08:52:50.000Z</time>
      </trkpt>
      <trkpt lat="47.42839" lon="6.79798">
        <ele>487</ele>
        <time>2015-06-14T08:52:53.000Z</time>
      </trkpt>
      <trkpt lat="47.42841" lon="6.79799">
        <ele>487</ele>
        <time>2015-06-14T08:52:54.000Z</time>
      </trkpt>
      <trkpt lat="47.42843" lon="6.79805">
        <ele>487</ele>
        <time>2015-06-14T08:52:56.000Z</time>
      </trkpt>
      <trkpt lat="47.42843" lon="6.79808">
        <ele>487</ele>
        <time>2015-06-14T08:52:57.000Z</time>
      </trkpt>
      <trkpt lat="47.42843" lon="6.79813">
        <ele>487</ele>
        <time>2015-06-14T08:52:58.000Z</time>
      </trkpt>
      <trkpt lat="47.42843" lon="6.79818">
        <ele>487</ele>
        <time>2015-06-14T08:52:59.000Z</time>
      </trkpt>
      <trkpt lat="47.42844" lon="6.79822">
        <ele>487</ele>
        <time>2015-06-14T08:53:00.000Z</time>
      </trkpt>
      <trkpt lat="47.42846" lon="6.79827">
        <ele>486</ele>
        <time>2015-06-14T08:53:01.000Z</time>
      </trkpt>
      <trkpt lat="47.42846" lon="6.79831">
        <ele>486</ele>
        <time>2015-06-14T08:53:02.000Z</time>
      </trkpt>
      <trkpt lat="47.42847" lon="6.79834">
        <ele>485</ele>
        <time>2015-06-14T08:53:03.000Z</time>
      </trkpt>
      <trkpt lat="47.42846" lon="6.79841">
        <ele>485</ele>
        <time>2015-06-14T08:53:05.000Z</time>
      </trkpt>
      <trkpt lat="47.42845" lon="6.79844">
        <ele>485</ele>
        <time>2015-06-14T08:53:06.000Z</time>
      </trkpt>
      <trkpt lat="47.42846" lon="6.79847">
        <ele>484</ele>
        <time>2015-06-14T08:53:07.000Z</time>
      </trkpt>
      <trkpt lat="47.42847" lon="6.7985">
        <ele>484</ele>
        <time>2015-06-14T08:53:08.000Z</time>
      </trkpt>
      <trkpt lat="47.4285" lon="6.79854">
        <ele>484</ele>
        <time>2015-06-14T08:53:10.000Z</time>
      </trkpt>
      <trkpt lat="47.42851" lon="6.79856">
        <ele>484</ele>
        <time>2015-06-14T08:53:11.000Z</time>
      </trkpt>
      <trkpt lat="47.42853" lon="6.7986">
        <ele>484</ele>
        <time>2015-06-14T08:53:13.000Z</time>
      </trkpt>
      <trkpt lat="47.42854" lon="6.79862">
        <ele>484</ele>
        <time>2015-06-14T08:53:14.000Z</time>
      </trkpt>
      <trkpt lat="47.42856" lon="6.79866">
        <ele>484</ele>
        <time>2015-06-14T08:53:16.000Z</time>
      </trkpt>
      <trkpt lat="47.42855" lon="6.7987">
        <ele>484</ele>
        <time>2015-06-14T08:53:17.000Z</time>
      </trkpt>
      <trkpt lat="47.42855" lon="6.79874">
        <ele>483</ele>
        <time>2015-06-14T08:53:18.000Z</time>
      </trkpt>
      <trkpt lat="47.42854" lon="6.79878">
        <ele>483</ele>
        <time>2015-06-14T08:53:19.000Z</time>
      </trkpt>
      <trkpt lat="47.42853" lon="6.79882">
        <ele>483</ele>
        <time>2015-06-14T08:53:20.000Z</time>
      </trkpt>
      <trkpt lat="47.42851" lon="6.79886">
        <ele>483</ele>
        <time>2015-06-14T08:53:21.000Z</time>
      </trkpt>
      <trkpt lat="47.42851" lon="6.7989">
        <ele>482</ele>
        <time>2015-06-14T08:53:22.000Z</time>
      </trkpt>
      <trkpt lat="47.42851" lon="6.79893">
        <ele>482</ele>
        <time>2015-06-14T08:53:23.000Z</time>
      </trkpt>
      <trkpt lat="47.42851" lon="6.79897">
        <ele>482</ele>
        <time>2015-06-14T08:53:24.000Z</time>
      </trkpt>
      <trkpt lat="47.42852" lon="6.799">
        <ele>482</ele>
        <time>2015-06-14T08:53:25.000Z</time>
      </trkpt>
      <trkpt lat="47.42852" lon="6.79904">
        <ele>481</ele>
        <time>2015-06-14T08:53:26.000Z</time>
      </trkpt>
      <trkpt lat="47.42852" lon="6.79907">
        <ele>481</ele>
        <time>2015-06-14T08:53:27.000Z</time>
      </trkpt>
      <trkpt lat="47.42852" lon="6.79911">
        <ele>481</ele>
        <time>2015-06-14T08:53:28.000Z</time>
      </trkpt>
      <trkpt lat="47.42851" lon="6.79916">
        <ele>480</ele>
        <time>2015-06-14T08:53:29.000Z</time>
      </trkpt>
      <trkpt lat="47.42847" lon="6.79929">
        <ele>478</ele>
        <time>2015-06-14T08:53:31.000Z</time>
      </trkpt>
      <trkpt lat="47.42846" lon="6.79934">
        <ele>478</ele>
        <time>2015-06-14T08:53:32.000Z</time>
      </trkpt>
      <trkpt lat="47.42845" lon="6.79939">
        <ele>478</ele>
        <time>2015-06-14T08:53:33.000Z</time>
      </trkpt>
      <trkpt lat="47.42845" lon="6.79943">
        <ele>478</ele>
        <time>2015-06-14T08:53:34.000Z</time>
      </trkpt>
      <trkpt lat="47.42847" lon="6.79947">
        <ele>478</ele>
        <time>2015-06-14T08:53:35.000Z</time>
      </trkpt>
      <trkpt lat="47.42848" lon="6.7995">
        <ele>478</ele>
        <time>2015-06-14T08:53:36.000Z</time>
      </trkpt>
      <trkpt lat="47.42849" lon="6.79955">
        <ele>478</ele>
        <time>2015-06-14T08:53:37.000Z</time>
      </trkpt>
      <trkpt lat="47.4285" lon="6.79959">
        <ele>478</ele>
        <time>2015-06-14T08:53:38.000Z</time>
      </trkpt>
      <trkpt lat="47.42851" lon="6.79964">
        <ele>478</ele>
        <time>2015-06-14T08:53:39.000Z</time>
      </trkpt>
      <trkpt lat="47.42851" lon="6.79968">
        <ele>478</ele>
        <time>2015-06-14T08:53:40.000Z</time>
      </trkpt>
      <trkpt lat="47.42851" lon="6.79972">
        <ele>477</ele>
        <time>2015-06-14T08:53:41.000Z</time>
      </trkpt>
      <trkpt lat="47.42849" lon="6.79976">
        <ele>477</ele>
        <time>2015-06-14T08:53:42.000Z</time>
      </trkpt>
      <trkpt lat="47.42848" lon="6.7998">
        <ele>477</ele>
        <time>2015-06-14T08:53:43.000Z</time>
      </trkpt>
      <trkpt lat="47.42846" lon="6.79985">
        <ele>477</ele>
        <time>2015-06-14T08:53:44.000Z</time>
      </trkpt>
      <trkpt lat="47.42844" lon="6.7999">
        <ele>476</ele>
        <time>2015-06-14T08:53:45.000Z</time>
      </trkpt>
      <trkpt lat="47.42843" lon="6.79997">
        <ele>476</ele>
        <time>2015-06-14T08:53:46.000Z</time>
      </trkpt>
      <trkpt lat="47.42842" lon="6.80003">
        <ele>474</ele>
        <time>2015-06-14T08:53:47.000Z</time>
      </trkpt>
      <trkpt lat="47.42842" lon="6.80011">
        <ele>474</ele>
        <time>2015-06-14T08:53:48.000Z</time>
      </trkpt>
      <trkpt lat="47.42841" lon="6.80019">
        <ele>474</ele>
        <time>2015-06-14T08:53:49.000Z</time>
      </trkpt>
      <trkpt lat="47.42841" lon="6.80028">
        <ele>474</ele>
        <time>2015-06-14T08:53:50.000Z</time>
      </trkpt>
      <trkpt lat="47.42841" lon="6.80038">
        <ele>474</ele>
        <time>2015-06-14T08:53:51.000Z</time>
      </trkpt>
      <trkpt lat="47.4284" lon="6.80047">
        <ele>474</ele>
        <time>2015-06-14T08:53:52.000Z</time>
      </trkpt>
      <trkpt lat="47.4284" lon="6.80057">
        <ele>473</ele>
        <time>2015-06-14T08:53:53.000Z</time>
      </trkpt>
      <trkpt lat="47.42841" lon="6.80064">
        <ele>473</ele>
        <time>2015-06-14T08:53:54.000Z</time>
      </trkpt>
      <trkpt lat="47.42844" lon="6.8007">
        <ele>473</ele>
        <time>2015-06-14T08:53:55.000Z</time>
      </trkpt>
      <trkpt lat="47.42847" lon="6.80076">
        <ele>473</ele>
        <time>2015-06-14T08:53:56.000Z</time>
      </trkpt>
      <trkpt lat="47.42851" lon="6.80081">
        <ele>473</ele>
        <time>2015-06-14T08:53:57.000Z</time>
      </trkpt>
      <trkpt lat="47.42855" lon="6.80086">
        <ele>471</ele>
        <time>2015-06-14T08:53:58.000Z</time>
      </trkpt>
      <trkpt lat="47.42859" lon="6.80091">
        <ele>471</ele>
        <time>2015-06-14T08:53:59.000Z</time>
      </trkpt>
      <trkpt lat="47.42863" lon="6.80097">
        <ele>470</ele>
        <time>2015-06-14T08:54:00.000Z</time>
      </trkpt>
      <trkpt lat="47.42866" lon="6.80102">
        <ele>470</ele>
        <time>2015-06-14T08:54:01.000Z</time>
      </trkpt>
      <trkpt lat="47.42868" lon="6.80106">
        <ele>470</ele>
        <time>2015-06-14T08:54:02.000Z</time>
      </trkpt>
      <trkpt lat="47.4287" lon="6.80109">
        <ele>470</ele>
        <time>2015-06-14T08:54:03.000Z</time>
      </trkpt>
      <trkpt lat="47.42874" lon="6.80113">
        <ele>470</ele>
        <time>2015-06-14T08:54:05.000Z</time>
      </trkpt>
      <trkpt lat="47.42875" lon="6.80114">
        <ele>470</ele>
        <time>2015-06-14T08:54:06.000Z</time>
      </trkpt>
      <trkpt lat="47.42877" lon="6.80115">
        <ele>470</ele>
        <time>2015-06-14T08:54:08.000Z</time>
      </trkpt>
      <trkpt lat="47.42879" lon="6.80116">
        <ele>470</ele>
        <time>2015-06-14T08:54:09.000Z</time>
      </trkpt>
      <trkpt lat="47.42883" lon="6.80118">
        <ele>470</ele>
        <time>2015-06-14T08:54:17.000Z</time>
      </trkpt>
      <trkpt lat="47.42883" lon="6.80121">
        <ele>470</ele>
        <time>2015-06-14T08:54:18.000Z</time>
      </trkpt>
      <trkpt lat="47.42885" lon="6.80126">
        <ele>470</ele>
        <time>2015-06-14T08:54:20.000Z</time>
      </trkpt>
      <trkpt lat="47.42885" lon="6.80129">
        <ele>469</ele>
        <time>2015-06-14T08:54:21.000Z</time>
      </trkpt>
      <trkpt lat="47.42886" lon="6.80132">
        <ele>469</ele>
        <time>2015-06-14T08:54:22.000Z</time>
      </trkpt>
      <trkpt lat="47.42886" lon="6.80136">
        <ele>469</ele>
        <time>2015-06-14T08:54:23.000Z</time>
      </trkpt>
      <trkpt lat="47.42886" lon="6.8014">
        <ele>469</ele>
        <time>2015-06-14T08:54:24.000Z</time>
      </trkpt>
      <trkpt lat="47.42886" lon="6.80145">
        <ele>469</ele>
        <time>2015-06-14T08:54:25.000Z</time>
      </trkpt>
      <trkpt lat="47.42885" lon="6.80149">
        <ele>469</ele>
        <time>2015-06-14T08:54:26.000Z</time>
      </trkpt>
      <trkpt lat="47.42884" lon="6.80154">
        <ele>469</ele>
        <time>2015-06-14T08:54:27.000Z</time>
      </trkpt>
      <trkpt lat="47.42883" lon="6.8016">
        <ele>469</ele>
        <time>2015-06-14T08:54:28.000Z</time>
      </trkpt>
      <trkpt lat="47.42882" lon="6.80165">
        <ele>469</ele>
        <time>2015-06-14T08:54:29.000Z</time>
      </trkpt>
      <trkpt lat="47.42881" lon="6.8017">
        <ele>468</ele>
        <time>2015-06-14T08:54:30.000Z</time>
      </trkpt>
      <trkpt lat="47.4288" lon="6.80175">
        <ele>468</ele>
        <time>2015-06-14T08:54:31.000Z</time>
      </trkpt>
      <trkpt lat="47.4288" lon="6.80181">
        <ele>468</ele>
        <time>2015-06-14T08:54:32.000Z</time>
      </trkpt>
      <trkpt lat="47.42879" lon="6.80186">
        <ele>468</ele>
        <time>2015-06-14T08:54:33.000Z</time>
      </trkpt>
      <trkpt lat="47.42879" lon="6.80191">
        <ele>468</ele>
        <time>2015-06-14T08:54:34.000Z</time>
      </trkpt>
      <trkpt lat="47.4288" lon="6.80196">
        <ele>468</ele>
        <time>2015-06-14T08:54:35.000Z</time>
      </trkpt>
      <trkpt lat="47.4288" lon="6.802">
        <ele>468</ele>
        <time>2015-06-14T08:54:36.000Z</time>
      </trkpt>
      <trkpt lat="47.4288" lon="6.80204">
        <ele>468</ele>
        <time>2015-06-14T08:54:37.000Z</time>
      </trkpt>
      <trkpt lat="47.4288" lon="6.80208">
        <ele>468</ele>
        <time>2015-06-14T08:54:38.000Z</time>
      </trkpt>
      <trkpt lat="47.42879" lon="6.80211">
        <ele>468</ele>
        <time>2015-06-14T08:54:39.000Z</time>
      </trkpt>
      <trkpt lat="47.42879" lon="6.80215">
        <ele>468</ele>
        <time>2015-06-14T08:54:40.000Z</time>
      </trkpt>
      <trkpt lat="47.42879" lon="6.80219">
        <ele>468</ele>
        <time>2015-06-14T08:54:41.000Z</time>
      </trkpt>
      <trkpt lat="47.42879" lon="6.80224">
        <ele>468</ele>
        <time>2015-06-14T08:54:42.000Z</time>
      </trkpt>
      <trkpt lat="47.4288" lon="6.80228">
        <ele>468</ele>
        <time>2015-06-14T08:54:43.000Z</time>
      </trkpt>
      <trkpt lat="47.42881" lon="6.80234">
        <ele>468</ele>
        <time>2015-06-14T08:54:44.000Z</time>
      </trkpt>
      <trkpt lat="47.42882" lon="6.8024">
        <ele>468</ele>
        <time>2015-06-14T08:54:45.000Z</time>
      </trkpt>
      <trkpt lat="47.42883" lon="6.80247">
        <ele>467</ele>
        <time>2015-06-14T08:54:46.000Z</time>
      </trkpt>
      <trkpt lat="47.42884" lon="6.80253">
        <ele>465</ele>
        <time>2015-06-14T08:54:47.000Z</time>
      </trkpt>
      <trkpt lat="47.42884" lon="6.80259">
        <ele>465</ele>
        <time>2015-06-14T08:54:48.000Z</time>
      </trkpt>
      <trkpt lat="47.42884" lon="6.80265">
        <ele>465</ele>
        <time>2015-06-14T08:54:49.000Z</time>
      </trkpt>
      <trkpt lat="47.42885" lon="6.80271">
        <ele>465</ele>
        <time>2015-06-14T08:54:50.000Z</time>
      </trkpt>
      <trkpt lat="47.42885" lon="6.80277">
        <ele>464</ele>
        <time>2015-06-14T08:54:51.000Z</time>
      </trkpt>
      <trkpt lat="47.42885" lon="6.80282">
        <ele>464</ele>
        <time>2015-06-14T08:54:52.000Z</time>
      </trkpt>
      <trkpt lat="47.42885" lon="6.80288">
        <ele>464</ele>
        <time>2015-06-14T08:54:53.000Z</time>
      </trkpt>
      <trkpt lat="47.42884" lon="6.80295">
        <ele>464</ele>
        <time>2015-06-14T08:54:54.000Z</time>
      </trkpt>
      <trkpt lat="47.42883" lon="6.80302">
        <ele>464</ele>
        <time>2015-06-14T08:54:55.000Z</time>
      </trkpt>
      <trkpt lat="47.42882" lon="6.80308">
        <ele>463</ele>
        <time>2015-06-14T08:54:56.000Z</time>
      </trkpt>
      <trkpt lat="47.42881" lon="6.80315">
        <ele>463</ele>
        <time>2015-06-14T08:54:57.000Z</time>
      </trkpt>
      <trkpt lat="47.42881" lon="6.80321">
        <ele>463</ele>
        <time>2015-06-14T08:54:58.000Z</time>
      </trkpt>
      <trkpt lat="47.42881" lon="6.80327">
        <ele>463</ele>
        <time>2015-06-14T08:54:59.000Z</time>
      </trkpt>
      <trkpt lat="47.4288" lon="6.80332">
        <ele>463</ele>
        <time>2015-06-14T08:55:00.000Z</time>
      </trkpt>
      <trkpt lat="47.4288" lon="6.80337">
        <ele>459</ele>
        <time>2015-06-14T08:55:01.000Z</time>
      </trkpt>
      <trkpt lat="47.4288" lon="6.80343">
        <ele>459</ele>
        <time>2015-06-14T08:55:02.000Z</time>
      </trkpt>
      <trkpt lat="47.4288" lon="6.80349">
        <ele>459</ele>
        <time>2015-06-14T08:55:03.000Z</time>
      </trkpt>
      <trkpt lat="47.4288" lon="6.80353">
        <ele>458</ele>
        <time>2015-06-14T08:55:04.000Z</time>
      </trkpt>
      <trkpt lat="47.42882" lon="6.80359">
        <ele>458</ele>
        <time>2015-06-14T08:55:06.000Z</time>
      </trkpt>
      <trkpt lat="47.42883" lon="6.8036">
        <ele>458</ele>
        <time>2015-06-14T08:55:07.000Z</time>
      </trkpt>
      <trkpt lat="47.42884" lon="6.80366">
        <ele>458</ele>
        <time>2015-06-14T08:55:11.000Z</time>
      </trkpt>
      <trkpt lat="47.42884" lon="6.80367">
        <ele>458</ele>
        <time>2015-06-14T08:55:12.000Z</time>
      </trkpt>
      <trkpt lat="47.42885" lon="6.80372">
        <ele>458</ele>
        <time>2015-06-14T08:55:19.000Z</time>
      </trkpt>
      <trkpt lat="47.42885" lon="6.80373">
        <ele>458</ele>
        <time>2015-06-14T08:55:20.000Z</time>
      </trkpt>
      <trkpt lat="47.42886" lon="6.80375">
        <ele>457</ele>
        <time>2015-06-14T08:55:50.000Z</time>
      </trkpt>
      <trkpt lat="47.4289" lon="6.80379">
        <ele>457</ele>
        <time>2015-06-14T08:55:51.000Z</time>
      </trkpt>
      <trkpt lat="47.42894" lon="6.80382">
        <ele>457</ele>
        <time>2015-06-14T08:55:53.000Z</time>
      </trkpt>
      <trkpt lat="47.42895" lon="6.80383">
        <ele>457</ele>
        <time>2015-06-14T08:55:54.000Z</time>
      </trkpt>
      <trkpt lat="47.42899" lon="6.80386">
        <ele>456</ele>
        <time>2015-06-14T08:55:58.000Z</time>
      </trkpt>
      <trkpt lat="47.429" lon="6.80385">
        <ele>456</ele>
        <time>2015-06-14T08:55:59.000Z</time>
      </trkpt>
      <trkpt lat="47.42904" lon="6.80386">
        <ele>456</ele>
        <time>2015-06-14T08:56:36.000Z</time>
      </trkpt>
      <trkpt lat="47.42905" lon="6.80387">
        <ele>456</ele>
        <time>2015-06-14T08:56:37.000Z</time>
      </trkpt>
      <trkpt lat="47.42906" lon="6.80391">
        <ele>455</ele>
        <time>2015-06-14T08:56:58.000Z</time>
      </trkpt>
      <trkpt lat="47.42906" lon="6.80394">
        <ele>455</ele>
        <time>2015-06-14T08:56:59.000Z</time>
      </trkpt>
      <trkpt lat="47.42904" lon="6.80398">
        <ele>455</ele>
        <time>2015-06-14T08:57:00.000Z</time>
      </trkpt>
      <trkpt lat="47.42903" lon="6.80404">
        <ele>454</ele>
        <time>2015-06-14T08:57:01.000Z</time>
      </trkpt>
      <trkpt lat="47.42902" lon="6.8041">
        <ele>454</ele>
        <time>2015-06-14T08:57:02.000Z</time>
      </trkpt>
      <trkpt lat="47.42901" lon="6.80416">
        <ele>454</ele>
        <time>2015-06-14T08:57:03.000Z</time>
      </trkpt>
      <trkpt lat="47.429" lon="6.80422">
        <ele>451</ele>
        <time>2015-06-14T08:57:04.000Z</time>
      </trkpt>
      <trkpt lat="47.42892" lon="6.80436">
        <ele>452</ele>
        <time>2015-06-14T08:57:05.000Z</time>
      </trkpt>
      <trkpt lat="47.42889" lon="6.80442">
        <ele>452</ele>
        <time>2015-06-14T08:57:06.000Z</time>
      </trkpt>
      <trkpt lat="47.42887" lon="6.80448">
        <ele>452</ele>
        <time>2015-06-14T08:57:07.000Z</time>
      </trkpt>
      <trkpt lat="47.42885" lon="6.80452">
        <ele>452</ele>
        <time>2015-06-14T08:57:08.000Z</time>
      </trkpt>
      <trkpt lat="47.42883" lon="6.80453">
        <ele>452</ele>
        <time>2015-06-14T08:57:09.000Z</time>
      </trkpt>
      <trkpt lat="47.42881" lon="6.80454">
        <ele>452</ele>
        <time>2015-06-14T08:57:10.000Z</time>
      </trkpt>
      <trkpt lat="47.42879" lon="6.8046">
        <ele>452</ele>
        <time>2015-06-14T08:57:11.000Z</time>
      </trkpt>
      <trkpt lat="47.42886" lon="6.80468">
        <ele>451</ele>
        <time>2015-06-14T08:57:12.000Z</time>
      </trkpt>
      <trkpt lat="47.42887" lon="6.80473">
        <ele>451</ele>
        <time>2015-06-14T08:57:13.000Z</time>
      </trkpt>
      <trkpt lat="47.42888" lon="6.80476">
        <ele>451</ele>
        <time>2015-06-14T08:57:14.000Z</time>
      </trkpt>
      <trkpt lat="47.42887" lon="6.80483">
        <ele>451</ele>
        <time>2015-06-14T08:57:16.000Z</time>
      </trkpt>
      <trkpt lat="47.42886" lon="6.80485">
        <ele>451</ele>
        <time>2015-06-14T08:57:17.000Z</time>
      </trkpt>
      <trkpt lat="47.42883" lon="6.80489">
        <ele>451</ele>
        <time>2015-06-14T08:57:18.000Z</time>
      </trkpt>
      <trkpt lat="47.4288" lon="6.80494">
        <ele>451</ele>
        <time>2015-06-14T08:57:19.000Z</time>
      </trkpt>
      <trkpt lat="47.42878" lon="6.80498">
        <ele>451</ele>
        <time>2015-06-14T08:57:20.000Z</time>
      </trkpt>
      <trkpt lat="47.42876" lon="6.80503">
        <ele>446</ele>
        <time>2015-06-14T08:57:21.000Z</time>
      </trkpt>
      <trkpt lat="47.42874" lon="6.80507">
        <ele>446</ele>
        <time>2015-06-14T08:57:22.000Z</time>
      </trkpt>
      <trkpt lat="47.42874" lon="6.8051">
        <ele>446</ele>
        <time>2015-06-14T08:57:23.000Z</time>
      </trkpt>
      <trkpt lat="47.42874" lon="6.80514">
        <ele>446</ele>
        <time>2015-06-14T08:57:24.000Z</time>
      </trkpt>
      <trkpt lat="47.42875" lon="6.80519">
        <ele>445</ele>
        <time>2015-06-14T08:57:25.000Z</time>
      </trkpt>
      <trkpt lat="47.42877" lon="6.80523">
        <ele>445</ele>
        <time>2015-06-14T08:57:26.000Z</time>
      </trkpt>
      <trkpt lat="47.42878" lon="6.80526">
        <ele>445</ele>
        <time>2015-06-14T08:57:27.000Z</time>
      </trkpt>
      <trkpt lat="47.4288" lon="6.80532">
        <ele>444</ele>
        <time>2015-06-14T08:57:32.000Z</time>
      </trkpt>
      <trkpt lat="47.4288" lon="6.80532">
        <ele>444</ele>
        <time>2015-06-14T08:57:33.000Z</time>
      </trkpt>
      <trkpt lat="47.42881" lon="6.80539">
        <ele>444</ele>
        <time>2015-06-14T08:58:14.000Z</time>
      </trkpt>
      <trkpt lat="47.42881" lon="6.80539">
        <ele>444</ele>
        <time>2015-06-14T08:58:15.000Z</time>
      </trkpt>
      <trkpt lat="47.42882" lon="6.80545">
        <ele>444</ele>
        <time>2015-06-14T08:58:28.000Z</time>
      </trkpt>
      <trkpt lat="47.42881" lon="6.80546">
        <ele>444</ele>
        <time>2015-06-14T08:58:29.000Z</time>
      </trkpt>
      <trkpt lat="47.42881" lon="6.80551">
        <ele>443</ele>
        <time>2015-06-14T08:58:56.000Z</time>
      </trkpt>
      <trkpt lat="47.42881" lon="6.80554">
        <ele>443</ele>
        <time>2015-06-14T08:58:57.000Z</time>
      </trkpt>
      <trkpt lat="47.42879" lon="6.80557">
        <ele>443</ele>
        <time>2015-06-14T08:58:58.000Z</time>
      </trkpt>
      <trkpt lat="47.42879" lon="6.80561">
        <ele>443</ele>
        <time>2015-06-14T08:58:59.000Z</time>
      </trkpt>
      <trkpt lat="47.42879" lon="6.80566">
        <ele>442</ele>
        <time>2015-06-14T08:59:00.000Z</time>
      </trkpt>
      <trkpt lat="47.42879" lon="6.80571">
        <ele>442</ele>
        <time>2015-06-14T08:59:01.000Z</time>
      </trkpt>
      <trkpt lat="47.4288" lon="6.80577">
        <ele>442</ele>
        <time>2015-06-14T08:59:02.000Z</time>
      </trkpt>
      <trkpt lat="47.42882" lon="6.80583">
        <ele>442</ele>
        <time>2015-06-14T08:59:03.000Z</time>
      </trkpt>
      <trkpt lat="47.42884" lon="6.80588">
        <ele>436</ele>
        <time>2015-06-14T08:59:04.000Z</time>
      </trkpt>
      <trkpt lat="47.42885" lon="6.80592">
        <ele>436</ele>
        <time>2015-06-14T08:59:05.000Z</time>
      </trkpt>
      <trkpt lat="47.42886" lon="6.80596">
        <ele>435</ele>
        <time>2015-06-14T08:59:06.000Z</time>
      </trkpt>
      <trkpt lat="47.42887" lon="6.80602">
        <ele>435</ele>
        <time>2015-06-14T08:59:07.000Z</time>
      </trkpt>
      <trkpt lat="47.42887" lon="6.80608">
        <ele>435</ele>
        <time>2015-06-14T08:59:08.000Z</time>
      </trkpt>
      <trkpt lat="47.42888" lon="6.80614">
        <ele>435</ele>
        <time>2015-06-14T08:59:09.000Z</time>
      </trkpt>
      <trkpt lat="47.42889" lon="6.80619">
        <ele>434</ele>
        <time>2015-06-14T08:59:10.000Z</time>
      </trkpt>
      <trkpt lat="47.42889" lon="6.80624">
        <ele>434</ele>
        <time>2015-06-14T08:59:11.000Z</time>
      </trkpt>
      <trkpt lat="47.42889" lon="6.80629">
        <ele>434</ele>
        <time>2015-06-14T08:59:12.000Z</time>
      </trkpt>
      <trkpt lat="47.42889" lon="6.80633">
        <ele>434</ele>
        <time>2015-06-14T08:59:13.000Z</time>
      </trkpt>
      <trkpt lat="47.42889" lon="6.80637">
        <ele>433</ele>
        <time>2015-06-14T08:59:14.000Z</time>
      </trkpt>
      <trkpt lat="47.4289" lon="6.80641">
        <ele>433</ele>
        <time>2015-06-14T08:59:15.000Z</time>
      </trkpt>
      <trkpt lat="47.4289" lon="6.80646">
        <ele>433</ele>
        <time>2015-06-14T08:59:16.000Z</time>
      </trkpt>
      <trkpt lat="47.42892" lon="6.80652">
        <ele>432</ele>
        <time>2015-06-14T08:59:17.000Z</time>
      </trkpt>
      <trkpt lat="47.42893" lon="6.80659">
        <ele>432</ele>
        <time>2015-06-14T08:59:18.000Z</time>
      </trkpt>
      <trkpt lat="47.42896" lon="6.80666">
        <ele>432</ele>
        <time>2015-06-14T08:59:19.000Z</time>
      </trkpt>
      <trkpt lat="47.42898" lon="6.80673">
        <ele>430</ele>
        <time>2015-06-14T08:59:20.000Z</time>
      </trkpt>
      <trkpt lat="47.42902" lon="6.8069">
        <ele>430</ele>
        <time>2015-06-14T08:59:21.000Z</time>
      </trkpt>
      <trkpt lat="47.42904" lon="6.80697">
        <ele>430</ele>
        <time>2015-06-14T08:59:22.000Z</time>
      </trkpt>
      <trkpt lat="47.42906" lon="6.80704">
        <ele>430</ele>
        <time>2015-06-14T08:59:23.000Z</time>
      </trkpt>
      <trkpt lat="47.42909" lon="6.80712">
        <ele>430</ele>
        <time>2015-06-14T08:59:24.000Z</time>
      </trkpt>
      <trkpt lat="47.42915" lon="6.80721">
        <ele>429</ele>
        <time>2015-06-14T08:59:25.000Z</time>
      </trkpt>
      <trkpt lat="47.4292" lon="6.80729">
        <ele>429</ele>
        <time>2015-06-14T08:59:26.000Z</time>
      </trkpt>
      <trkpt lat="47.42923" lon="6.80735">
        <ele>428</ele>
        <time>2015-06-14T08:59:27.000Z</time>
      </trkpt>
      <trkpt lat="47.42927" lon="6.80741">
        <ele>428</ele>
        <time>2015-06-14T08:59:28.000Z</time>
      </trkpt>
      <trkpt lat="47.42931" lon="6.80746">
        <ele>428</ele>
        <time>2015-06-14T08:59:29.000Z</time>
      </trkpt>
      <trkpt lat="47.42934" lon="6.80753">
        <ele>426</ele>
        <time>2015-06-14T08:59:30.000Z</time>
      </trkpt>
      <trkpt lat="47.42935" lon="6.8076">
        <ele>426</ele>
        <time>2015-06-14T08:59:31.000Z</time>
      </trkpt>
      <trkpt lat="47.42937" lon="6.80768">
        <ele>427</ele>
        <time>2015-06-14T08:59:32.000Z</time>
      </trkpt>
      <trkpt lat="47.42939" lon="6.80775">
        <ele>427</ele>
        <time>2015-06-14T08:59:33.000Z</time>
      </trkpt>
      <trkpt lat="47.42944" lon="6.80781">
        <ele>427</ele>
        <time>2015-06-14T08:59:34.000Z</time>
      </trkpt>
      <trkpt lat="47.42946" lon="6.80786">
        <ele>427</ele>
        <time>2015-06-14T08:59:35.000Z</time>
      </trkpt>
      <trkpt lat="47.4295" lon="6.8079">
        <ele>427</ele>
        <time>2015-06-14T08:59:36.000Z</time>
      </trkpt>
      <trkpt lat="47.42953" lon="6.80794">
        <ele>427</ele>
        <time>2015-06-14T08:59:37.000Z</time>
      </trkpt>
      <trkpt lat="47.42955" lon="6.80796">
        <ele>427</ele>
        <time>2015-06-14T08:59:38.000Z</time>
      </trkpt>
      <trkpt lat="47.42959" lon="6.808">
        <ele>427</ele>
        <time>2015-06-14T08:59:39.000Z</time>
      </trkpt>
      <trkpt lat="47.42962" lon="6.80806">
        <ele>427</ele>
        <time>2015-06-14T08:59:40.000Z</time>
      </trkpt>
      <trkpt lat="47.42964" lon="6.8081">
        <ele>427</ele>
        <time>2015-06-14T08:59:41.000Z</time>
      </trkpt>
      <trkpt lat="47.4297" lon="6.80815">
        <ele>427</ele>
        <time>2015-06-14T08:59:42.000Z</time>
      </trkpt>
      <trkpt lat="47.42974" lon="6.8082">
        <ele>426</ele>
        <time>2015-06-14T08:59:43.000Z</time>
      </trkpt>
      <trkpt lat="47.42977" lon="6.80824">
        <ele>426</ele>
        <time>2015-06-14T08:59:44.000Z</time>
      </trkpt>
      <trkpt lat="47.4298" lon="6.80829">
        <ele>425</ele>
        <time>2015-06-14T08:59:45.000Z</time>
      </trkpt>
      <trkpt lat="47.42984" lon="6.80836">
        <ele>425</ele>
        <time>2015-06-14T08:59:46.000Z</time>
      </trkpt>
      <trkpt lat="47.42987" lon="6.80842">
        <ele>425</ele>
        <time>2015-06-14T08:59:47.000Z</time>
      </trkpt>
      <trkpt lat="47.4299" lon="6.80848">
        <ele>425</ele>
        <time>2015-06-14T08:59:48.000Z</time>
      </trkpt>
      <trkpt lat="47.42992" lon="6.80856">
        <ele>425</ele>
        <time>2015-06-14T08:59:49.000Z</time>
      </trkpt>
      <trkpt lat="47.42996" lon="6.80858">
        <ele>425</ele>
        <time>2015-06-14T08:59:56.000Z</time>
      </trkpt>
      <trkpt lat="47.42997" lon="6.80857">
        <ele>425</ele>
        <time>2015-06-14T08:59:57.000Z</time>
      </trkpt>
      <trkpt lat="47.42998" lon="6.80861">
        <ele>425</ele>
        <time>2015-06-14T09:00:01.000Z</time>
      </trkpt>
      <trkpt lat="47.42999" lon="6.80862">
        <ele>425</ele>
        <time>2015-06-14T09:00:02.000Z</time>
      </trkpt>
      <trkpt lat="47.43" lon="6.80868">
        <ele>425</ele>
        <time>2015-06-14T09:00:04.000Z</time>
      </trkpt>
      <trkpt lat="47.43001" lon="6.80871">
        <ele>425</ele>
        <time>2015-06-14T09:00:05.000Z</time>
      </trkpt>
      <trkpt lat="47.43002" lon="6.80875">
        <ele>425</ele>
        <time>2015-06-14T09:00:06.000Z</time>
      </trkpt>
      <trkpt lat="47.43004" lon="6.8088">
        <ele>425</ele>
        <time>2015-06-14T09:00:07.000Z</time>
      </trkpt>
      <trkpt lat="47.43006" lon="6.80886">
        <ele>424</ele>
        <time>2015-06-14T09:00:08.000Z</time>
      </trkpt>
      <trkpt lat="47.43009" lon="6.80892">
        <ele>424</ele>
        <time>2015-06-14T09:00:09.000Z</time>
      </trkpt>
      <trkpt lat="47.43011" lon="6.80898">
        <ele>423</ele>
        <time>2015-06-14T09:00:10.000Z</time>
      </trkpt>
      <trkpt lat="47.43014" lon="6.80905">
        <ele>423</ele>
        <time>2015-06-14T09:00:11.000Z</time>
      </trkpt>
      <trkpt lat="47.43022" lon="6.8092">
        <ele>420</ele>
        <time>2015-06-14T09:00:12.000Z</time>
      </trkpt>
      <trkpt lat="47.43025" lon="6.80926">
        <ele>420</ele>
        <time>2015-06-14T09:00:13.000Z</time>
      </trkpt>
      <trkpt lat="47.43029" lon="6.80934">
        <ele>420</ele>
        <time>2015-06-14T09:00:14.000Z</time>
      </trkpt>
      <trkpt lat="47.43033" lon="6.80943">
        <ele>420</ele>
        <time>2015-06-14T09:00:15.000Z</time>
      </trkpt>
      <trkpt lat="47.43038" lon="6.80951">
        <ele>420</ele>
        <time>2015-06-14T09:00:16.000Z</time>
      </trkpt>
      <trkpt lat="47.43044" lon="6.80959">
        <ele>420</ele>
        <time>2015-06-14T09:00:17.000Z</time>
      </trkpt>
      <trkpt lat="47.43047" lon="6.80967">
        <ele>419</ele>
        <time>2015-06-14T09:00:18.000Z</time>
      </trkpt>
      <trkpt lat="47.43049" lon="6.80973">
        <ele>419</ele>
        <time>2015-06-14T09:00:19.000Z</time>
      </trkpt>
      <trkpt lat="47.43044" lon="6.80976">
        <ele>419</ele>
        <time>2015-06-14T09:00:34.000Z</time>
      </trkpt>
      <trkpt lat="47.43047" lon="6.80981">
        <ele>419</ele>
        <time>2015-06-14T09:00:35.000Z</time>
      </trkpt>
      <trkpt lat="47.43046" lon="6.80976">
        <ele>419</ele>
        <time>2015-06-14T09:00:42.000Z</time>
      </trkpt>
      <trkpt lat="47.43045" lon="6.80975">
        <ele>419</ele>
        <time>2015-06-14T09:00:43.000Z</time>
      </trkpt>
      <trkpt lat="47.43041" lon="6.80972">
        <ele>419</ele>
        <time>2015-06-14T09:00:48.000Z</time>
      </trkpt>
      <trkpt lat="47.4304" lon="6.80972">
        <ele>419</ele>
        <time>2015-06-14T09:00:49.000Z</time>
      </trkpt>
      <trkpt lat="47.43038" lon="6.80966">
        <ele>419</ele>
        <time>2015-06-14T09:00:53.000Z</time>
      </trkpt>
      <trkpt lat="47.43037" lon="6.80964">
        <ele>420</ele>
        <time>2015-06-14T09:00:54.000Z</time>
      </trkpt>
      <trkpt lat="47.43035" lon="6.8096">
        <ele>420</ele>
        <time>2015-06-14T09:00:56.000Z</time>
      </trkpt>
      <trkpt lat="47.43035" lon="6.80957">
        <ele>420</ele>
        <time>2015-06-14T09:00:57.000Z</time>
      </trkpt>
      <trkpt lat="47.43034" lon="6.80953">
        <ele>420</ele>
        <time>2015-06-14T09:00:59.000Z</time>
      </trkpt>
      <trkpt lat="47.43033" lon="6.80951">
        <ele>420</ele>
        <time>2015-06-14T09:01:00.000Z</time>
      </trkpt>
      <trkpt lat="47.43032" lon="6.80947">
        <ele>420</ele>
        <time>2015-06-14T09:01:02.000Z</time>
      </trkpt>
      <trkpt lat="47.43031" lon="6.80945">
        <ele>420</ele>
        <time>2015-06-14T09:01:03.000Z</time>
      </trkpt>
      <trkpt lat="47.43029" lon="6.80941">
        <ele>420</ele>
        <time>2015-06-14T09:01:05.000Z</time>
      </trkpt>
      <trkpt lat="47.43028" lon="6.80938">
        <ele>420</ele>
        <time>2015-06-14T09:01:06.000Z</time>
      </trkpt>
      <trkpt lat="47.43025" lon="6.80933">
        <ele>420</ele>
        <time>2015-06-14T09:01:08.000Z</time>
      </trkpt>
      <trkpt lat="47.43024" lon="6.8093">
        <ele>420</ele>
        <time>2015-06-14T09:01:09.000Z</time>
      </trkpt>
      <trkpt lat="47.43022" lon="6.80925">
        <ele>420</ele>
        <time>2015-06-14T09:01:11.000Z</time>
      </trkpt>
      <trkpt lat="47.43021" lon="6.80922">
        <ele>420</ele>
        <time>2015-06-14T09:01:12.000Z</time>
      </trkpt>
      <trkpt lat="47.43019" lon="6.8092">
        <ele>419</ele>
        <time>2015-06-14T09:01:13.000Z</time>
      </trkpt>
      <trkpt lat="47.43017" lon="6.80917">
        <ele>419</ele>
        <time>2015-06-14T09:01:14.000Z</time>
      </trkpt>
      <trkpt lat="47.43016" lon="6.80915">
        <ele>422</ele>
        <time>2015-06-14T09:01:15.000Z</time>
      </trkpt>
      <trkpt lat="47.43014" lon="6.80913">
        <ele>422</ele>
        <time>2015-06-14T09:01:16.000Z</time>
      </trkpt>
      <trkpt lat="47.4301" lon="6.80909">
        <ele>422</ele>
        <time>2015-06-14T09:01:18.000Z</time>
      </trkpt>
      <trkpt lat="47.43009" lon="6.80907">
        <ele>422</ele>
        <time>2015-06-14T09:01:19.000Z</time>
      </trkpt>
      <trkpt lat="47.43005" lon="6.80903">
        <ele>422</ele>
        <time>2015-06-14T09:01:21.000Z</time>
      </trkpt>
      <trkpt lat="47.43004" lon="6.80901">
        <ele>422</ele>
        <time>2015-06-14T09:01:22.000Z</time>
      </trkpt>
      <trkpt lat="47.43001" lon="6.80897">
        <ele>423</ele>
        <time>2015-06-14T09:01:24.000Z</time>
      </trkpt>
      <trkpt lat="47.43" lon="6.80894">
        <ele>423</ele>
        <time>2015-06-14T09:01:25.000Z</time>
      </trkpt>
      <trkpt lat="47.42998" lon="6.80889">
        <ele>425</ele>
        <time>2015-06-14T09:01:27.000Z</time>
      </trkpt>
      <trkpt lat="47.42996" lon="6.80887">
        <ele>425</ele>
        <time>2015-06-14T09:01:28.000Z</time>
      </trkpt>
      <trkpt lat="47.42994" lon="6.80882">
        <ele>425</ele>
        <time>2015-06-14T09:01:30.000Z</time>
      </trkpt>
      <trkpt lat="47.42993" lon="6.8088">
        <ele>425</ele>
        <time>2015-06-14T09:01:31.000Z</time>
      </trkpt>
      <trkpt lat="47.42991" lon="6.80875">
        <ele>426</ele>
        <time>2015-06-14T09:01:33.000Z</time>
      </trkpt>
      <trkpt lat="47.42989" lon="6.80873">
        <ele>426</ele>
        <time>2015-06-14T09:01:34.000Z</time>
      </trkpt>
      <trkpt lat="47.42986" lon="6.80869">
        <ele>426</ele>
        <time>2015-06-14T09:01:36.000Z</time>
      </trkpt>
      <trkpt lat="47.42985" lon="6.80867">
        <ele>426</ele>
        <time>2015-06-14T09:01:37.000Z</time>
      </trkpt>
      <trkpt lat="47.42982" lon="6.80862">
        <ele>426</ele>
        <time>2015-06-14T09:01:39.000Z</time>
      </trkpt>
      <trkpt lat="47.4298" lon="6.8086">
        <ele>426</ele>
        <time>2015-06-14T09:01:40.000Z</time>
      </trkpt>
      <trkpt lat="47.42978" lon="6.80855">
        <ele>426</ele>
        <time>2015-06-14T09:01:42.000Z</time>
      </trkpt>
      <trkpt lat="47.42977" lon="6.80853">
        <ele>426</ele>
        <time>2015-06-14T09:01:43.000Z</time>
      </trkpt>
      <trkpt lat="47.42974" lon="6.8085">
        <ele>426</ele>
        <time>2015-06-14T09:01:45.000Z</time>
      </trkpt>
      <trkpt lat="47.42973" lon="6.80849">
        <ele>426</ele>
        <time>2015-06-14T09:01:46.000Z</time>
      </trkpt>
      <trkpt lat="47.42971" lon="6.80846">
        <ele>427</ele>
        <time>2015-06-14T09:01:48.000Z</time>
      </trkpt>
      <trkpt lat="47.4297" lon="6.80843">
        <ele>427</ele>
        <time>2015-06-14T09:01:49.000Z</time>
      </trkpt>
      <trkpt lat="47.42969" lon="6.80839">
        <ele>427</ele>
        <time>2015-06-14T09:01:50.000Z</time>
      </trkpt>
      <trkpt lat="47.42967" lon="6.80835">
        <ele>427</ele>
        <time>2015-06-14T09:01:51.000Z</time>
      </trkpt>
      <trkpt lat="47.42965" lon="6.80832">
        <ele>426</ele>
        <time>2015-06-14T09:01:52.000Z</time>
      </trkpt>
      <trkpt lat="47.42963" lon="6.80829">
        <ele>427</ele>
        <time>2015-06-14T09:01:53.000Z</time>
      </trkpt>
      <trkpt lat="47.42961" lon="6.80826">
        <ele>427</ele>
        <time>2015-06-14T09:01:54.000Z</time>
      </trkpt>
      <trkpt lat="47.4296" lon="6.80824">
        <ele>427</ele>
        <time>2015-06-14T09:01:55.000Z</time>
      </trkpt>
      <trkpt lat="47.42958" lon="6.8082">
        <ele>427</ele>
        <time>2015-06-14T09:01:56.000Z</time>
      </trkpt>
      <trkpt lat="47.42957" lon="6.80817">
        <ele>427</ele>
        <time>2015-06-14T09:01:57.000Z</time>
      </trkpt>
      <trkpt lat="47.42956" lon="6.80814">
        <ele>427</ele>
        <time>2015-06-14T09:01:58.000Z</time>
      </trkpt>
      <trkpt lat="47.42955" lon="6.80811">
        <ele>427</ele>
        <time>2015-06-14T09:01:59.000Z</time>
      </trkpt>
      <trkpt lat="47.42954" lon="6.80807">
        <ele>427</ele>
        <time>2015-06-14T09:02:00.000Z</time>
      </trkpt>
      <trkpt lat="47.42953" lon="6.80803">
        <ele>427</ele>
        <time>2015-06-14T09:02:01.000Z</time>
      </trkpt>
      <trkpt lat="47.42952" lon="6.80799">
        <ele>427</ele>
        <time>2015-06-14T09:02:02.000Z</time>
      </trkpt>
      <trkpt lat="47.42951" lon="6.80796">
        <ele>427</ele>
        <time>2015-06-14T09:02:03.000Z</time>
      </trkpt>
      <trkpt lat="47.42949" lon="6.8079">
        <ele>427</ele>
        <time>2015-06-14T09:02:05.000Z</time>
      </trkpt>
      <trkpt lat="47.42948" lon="6.80787">
        <ele>427</ele>
        <time>2015-06-14T09:02:06.000Z</time>
      </trkpt>
      <trkpt lat="47.42946" lon="6.80781">
        <ele>427</ele>
        <time>2015-06-14T09:02:08.000Z</time>
      </trkpt>
      <trkpt lat="47.42945" lon="6.80778">
        <ele>427</ele>
        <time>2015-06-14T09:02:09.000Z</time>
      </trkpt>
      <trkpt lat="47.42945" lon="6.80772">
        <ele>427</ele>
        <time>2015-06-14T09:02:11.000Z</time>
      </trkpt>
      <trkpt lat="47.42944" lon="6.80769">
        <ele>427</ele>
        <time>2015-06-14T09:02:12.000Z</time>
      </trkpt>
      <trkpt lat="47.42943" lon="6.80765">
        <ele>427</ele>
        <time>2015-06-14T09:02:13.000Z</time>
      </trkpt>
      <trkpt lat="47.42942" lon="6.80761">
        <ele>427</ele>
        <time>2015-06-14T09:02:14.000Z</time>
      </trkpt>
      <trkpt lat="47.42941" lon="6.80757">
        <ele>427</ele>
        <time>2015-06-14T09:02:15.000Z</time>
      </trkpt>
      <trkpt lat="47.4294" lon="6.80754">
        <ele>427</ele>
        <time>2015-06-14T09:02:16.000Z</time>
      </trkpt>
      <trkpt lat="47.42939" lon="6.80751">
        <ele>427</ele>
        <time>2015-06-14T09:02:17.000Z</time>
      </trkpt>
      <trkpt lat="47.42938" lon="6.80747">
        <ele>429</ele>
        <time>2015-06-14T09:02:18.000Z</time>
      </trkpt>
      <trkpt lat="47.42937" lon="6.80744">
        <ele>429</ele>
        <time>2015-06-14T09:02:19.000Z</time>
      </trkpt>
      <trkpt lat="47.42936" lon="6.80741">
        <ele>429</ele>
        <time>2015-06-14T09:02:20.000Z</time>
      </trkpt>
      <trkpt lat="47.42935" lon="6.80738">
        <ele>429</ele>
        <time>2015-06-14T09:02:21.000Z</time>
      </trkpt>
      <trkpt lat="47.42934" lon="6.80735">
        <ele>430</ele>
        <time>2015-06-14T09:02:22.000Z</time>
      </trkpt>
      <trkpt lat="47.42933" lon="6.80731">
        <ele>430</ele>
        <time>2015-06-14T09:02:23.000Z</time>
      </trkpt>
      <trkpt lat="47.42931" lon="6.80728">
        <ele>430</ele>
        <time>2015-06-14T09:02:24.000Z</time>
      </trkpt>
      <trkpt lat="47.4293" lon="6.80724">
        <ele>430</ele>
        <time>2015-06-14T09:02:25.000Z</time>
      </trkpt>
      <trkpt lat="47.42929" lon="6.8072">
        <ele>431</ele>
        <time>2015-06-14T09:02:26.000Z</time>
      </trkpt>
      <trkpt lat="47.42928" lon="6.80717">
        <ele>431</ele>
        <time>2015-06-14T09:02:27.000Z</time>
      </trkpt>
      <trkpt lat="47.42927" lon="6.80714">
        <ele>431</ele>
        <time>2015-06-14T09:02:28.000Z</time>
      </trkpt>
      <trkpt lat="47.42925" lon="6.80711">
        <ele>431</ele>
        <time>2015-06-14T09:02:29.000Z</time>
      </trkpt>
      <trkpt lat="47.42924" lon="6.80707">
        <ele>431</ele>
        <time>2015-06-14T09:02:30.000Z</time>
      </trkpt>
      <trkpt lat="47.42923" lon="6.80704">
        <ele>431</ele>
        <time>2015-06-14T09:02:31.000Z</time>
      </trkpt>
      <trkpt lat="47.42922" lon="6.80701">
        <ele>431</ele>
        <time>2015-06-14T09:02:32.000Z</time>
      </trkpt>
      <trkpt lat="47.4292" lon="6.80695">
        <ele>431</ele>
        <time>2015-06-14T09:02:34.000Z</time>
      </trkpt>
      <trkpt lat="47.42918" lon="6.80693">
        <ele>431</ele>
        <time>2015-06-14T09:02:35.000Z</time>
      </trkpt>
      <trkpt lat="47.42917" lon="6.8069">
        <ele>431</ele>
        <time>2015-06-14T09:02:36.000Z</time>
      </trkpt>
      <trkpt lat="47.42915" lon="6.80688">
        <ele>430</ele>
        <time>2015-06-14T09:02:37.000Z</time>
      </trkpt>
      <trkpt lat="47.42913" lon="6.80682">
        <ele>430</ele>
        <time>2015-06-14T09:02:39.000Z</time>
      </trkpt>
      <trkpt lat="47.42912" lon="6.8068">
        <ele>430</ele>
        <time>2015-06-14T09:02:40.000Z</time>
      </trkpt>
      <trkpt lat="47.42909" lon="6.80675">
        <ele>430</ele>
        <time>2015-06-14T09:02:42.000Z</time>
      </trkpt>
      <trkpt lat="47.42908" lon="6.80672">
        <ele>430</ele>
        <time>2015-06-14T09:02:43.000Z</time>
      </trkpt>
      <trkpt lat="47.42906" lon="6.80669">
        <ele>430</ele>
        <time>2015-06-14T09:02:44.000Z</time>
      </trkpt>
      <trkpt lat="47.42904" lon="6.80667">
        <ele>431</ele>
        <time>2015-06-14T09:02:45.000Z</time>
      </trkpt>
      <trkpt lat="47.42902" lon="6.80664">
        <ele>431</ele>
        <time>2015-06-14T09:02:46.000Z</time>
      </trkpt>
      <trkpt lat="47.429" lon="6.80661">
        <ele>431</ele>
        <time>2015-06-14T09:02:47.000Z</time>
      </trkpt>
      <trkpt lat="47.42897" lon="6.80658">
        <ele>432</ele>
        <time>2015-06-14T09:02:49.000Z</time>
      </trkpt>
      <trkpt lat="47.42894" lon="6.80658">
        <ele>432</ele>
        <time>2015-06-14T09:02:50.000Z</time>
      </trkpt>
      <trkpt lat="47.42891" lon="6.80656">
        <ele>432</ele>
        <time>2015-06-14T09:02:52.000Z</time>
      </trkpt>
      <trkpt lat="47.4289" lon="6.80654">
        <ele>432</ele>
        <time>2015-06-14T09:02:53.000Z</time>
      </trkpt>
      <trkpt lat="47.42886" lon="6.80652">
        <ele>433</ele>
        <time>2015-06-14T09:02:55.000Z</time>
      </trkpt>
      <trkpt lat="47.42885" lon="6.80652">
        <ele>433</ele>
        <time>2015-06-14T09:02:56.000Z</time>
      </trkpt>
      <trkpt lat="47.42881" lon="6.80648">
        <ele>433</ele>
        <time>2015-06-14T09:02:59.000Z</time>
      </trkpt>
      <trkpt lat="47.4288" lon="6.80646">
        <ele>433</ele>
        <time>2015-06-14T09:03:00.000Z</time>
      </trkpt>
      <trkpt lat="47.42876" lon="6.80643">
        <ele>433</ele>
        <time>2015-06-14T09:03:02.000Z</time>
      </trkpt>
      <trkpt lat="47.42875" lon="6.80642">
        <ele>433</ele>
        <time>2015-06-14T09:03:03.000Z</time>
      </trkpt>
      <trkpt lat="47.4287" lon="6.80641">
        <ele>434</ele>
        <time>2015-06-14T09:03:06.000Z</time>
      </trkpt>
      <trkpt lat="47.42869" lon="6.8064">
        <ele>434</ele>
        <time>2015-06-14T09:03:07.000Z</time>
      </trkpt>
      <trkpt lat="47.42866" lon="6.80638">
        <ele>434</ele>
        <time>2015-06-14T09:03:09.000Z</time>
      </trkpt>
      <trkpt lat="47.42864" lon="6.80637">
        <ele>434</ele>
        <time>2015-06-14T09:03:10.000Z</time>
      </trkpt>
      <trkpt lat="47.42861" lon="6.80634">
        <ele>434</ele>
        <time>2015-06-14T09:03:13.000Z</time>
      </trkpt>
      <trkpt lat="47.42859" lon="6.80633">
        <ele>434</ele>
        <time>2015-06-14T09:03:14.000Z</time>
      </trkpt>
      <trkpt lat="47.42856" lon="6.80631">
        <ele>434</ele>
        <time>2015-06-14T09:03:17.000Z</time>
      </trkpt>
      <trkpt lat="47.42855" lon="6.80631">
        <ele>434</ele>
        <time>2015-06-14T09:03:18.000Z</time>
      </trkpt>
      <trkpt lat="47.42851" lon="6.8063">
        <ele>434</ele>
        <time>2015-06-14T09:03:20.000Z</time>
      </trkpt>
      <trkpt lat="47.4285" lon="6.80629">
        <ele>434</ele>
        <time>2015-06-14T09:03:21.000Z</time>
      </trkpt>
      <trkpt lat="47.42846" lon="6.80628">
        <ele>434</ele>
        <time>2015-06-14T09:03:23.000Z</time>
      </trkpt>
      <trkpt lat="47.42845" lon="6.80627">
        <ele>434</ele>
        <time>2015-06-14T09:03:24.000Z</time>
      </trkpt>
      <trkpt lat="47.42841" lon="6.80626">
        <ele>435</ele>
        <time>2015-06-14T09:03:27.000Z</time>
      </trkpt>
      <trkpt lat="47.4284" lon="6.80625">
        <ele>435</ele>
        <time>2015-06-14T09:03:28.000Z</time>
      </trkpt>
      <trkpt lat="47.42836" lon="6.80625">
        <ele>435</ele>
        <time>2015-06-14T09:03:30.000Z</time>
      </trkpt>
      <trkpt lat="47.42834" lon="6.80624">
        <ele>435</ele>
        <time>2015-06-14T09:03:31.000Z</time>
      </trkpt>
      <trkpt lat="47.4283" lon="6.80624">
        <ele>439</ele>
        <time>2015-06-14T09:03:33.000Z</time>
      </trkpt>
      <trkpt lat="47.42828" lon="6.80623">
        <ele>439</ele>
        <time>2015-06-14T09:03:34.000Z</time>
      </trkpt>
      <trkpt lat="47.42824" lon="6.80623">
        <ele>439</ele>
        <time>2015-06-14T09:03:36.000Z</time>
      </trkpt>
      <trkpt lat="47.42822" lon="6.80623">
        <ele>439</ele>
        <time>2015-06-14T09:03:37.000Z</time>
      </trkpt>
      <trkpt lat="47.42818" lon="6.80624">
        <ele>439</ele>
        <time>2015-06-14T09:03:39.000Z</time>
      </trkpt>
      <trkpt lat="47.42815" lon="6.80625">
        <ele>439</ele>
        <time>2015-06-14T09:03:40.000Z</time>
      </trkpt>
      <trkpt lat="47.42813" lon="6.80625">
        <ele>439</ele>
        <time>2015-06-14T09:03:41.000Z</time>
      </trkpt>
      <trkpt lat="47.42811" lon="6.80626">
        <ele>439</ele>
        <time>2015-06-14T09:03:42.000Z</time>
      </trkpt>
      <trkpt lat="47.42806" lon="6.80625">
        <ele>439</ele>
        <time>2015-06-14T09:03:44.000Z</time>
      </trkpt>
      <trkpt lat="47.42804" lon="6.80625">
        <ele>440</ele>
        <time>2015-06-14T09:03:45.000Z</time>
      </trkpt>
      <trkpt lat="47.42801" lon="6.80624">
        <ele>440</ele>
        <time>2015-06-14T09:03:46.000Z</time>
      </trkpt>
      <trkpt lat="47.42798" lon="6.80623">
        <ele>440</ele>
        <time>2015-06-14T09:03:47.000Z</time>
      </trkpt>
      <trkpt lat="47.42795" lon="6.80621">
        <ele>440</ele>
        <time>2015-06-14T09:03:48.000Z</time>
      </trkpt>
      <trkpt lat="47.42792" lon="6.8062">
        <ele>440</ele>
        <time>2015-06-14T09:03:49.000Z</time>
      </trkpt>
      <trkpt lat="47.4279" lon="6.8062">
        <ele>441</ele>
        <time>2015-06-14T09:03:50.000Z</time>
      </trkpt>
      <trkpt lat="47.42787" lon="6.80619">
        <ele>441</ele>
        <time>2015-06-14T09:03:51.000Z</time>
      </trkpt>
      <trkpt lat="47.42785" lon="6.80618">
        <ele>441</ele>
        <time>2015-06-14T09:03:52.000Z</time>
      </trkpt>
      <trkpt lat="47.42782" lon="6.80618">
        <ele>441</ele>
        <time>2015-06-14T09:03:53.000Z</time>
      </trkpt>
      <trkpt lat="47.4278" lon="6.80617">
        <ele>441</ele>
        <time>2015-06-14T09:03:54.000Z</time>
      </trkpt>
      <trkpt lat="47.42777" lon="6.80617">
        <ele>441</ele>
        <time>2015-06-14T09:03:55.000Z</time>
      </trkpt>
      <trkpt lat="47.42775" lon="6.80616">
        <ele>442</ele>
        <time>2015-06-14T09:03:56.000Z</time>
      </trkpt>
      <trkpt lat="47.42773" lon="6.80615">
        <ele>442</ele>
        <time>2015-06-14T09:03:57.000Z</time>
      </trkpt>
      <trkpt lat="47.42769" lon="6.80613">
        <ele>442</ele>
        <time>2015-06-14T09:03:59.000Z</time>
      </trkpt>
      <trkpt lat="47.42768" lon="6.80613">
        <ele>442</ele>
        <time>2015-06-14T09:04:00.000Z</time>
      </trkpt>
      <trkpt lat="47.42764" lon="6.80613">
        <ele>442</ele>
        <time>2015-06-14T09:04:02.000Z</time>
      </trkpt>
      <trkpt lat="47.42762" lon="6.80612">
        <ele>442</ele>
        <time>2015-06-14T09:04:03.000Z</time>
      </trkpt>
      <trkpt lat="47.42758" lon="6.80611">
        <ele>443</ele>
        <time>2015-06-14T09:04:06.000Z</time>
      </trkpt>
      <trkpt lat="47.42757" lon="6.80611">
        <ele>443</ele>
        <time>2015-06-14T09:04:07.000Z</time>
      </trkpt>
      <trkpt lat="47.42753" lon="6.8061">
        <ele>443</ele>
        <time>2015-06-14T09:04:10.000Z</time>
      </trkpt>
      <trkpt lat="47.42751" lon="6.80609">
        <ele>443</ele>
        <time>2015-06-14T09:04:11.000Z</time>
      </trkpt>
      <trkpt lat="47.42748" lon="6.80608">
        <ele>448</ele>
        <time>2015-06-14T09:04:13.000Z</time>
      </trkpt>
      <trkpt lat="47.42746" lon="6.80607">
        <ele>448</ele>
        <time>2015-06-14T09:04:14.000Z</time>
      </trkpt>
      <trkpt lat="47.42742" lon="6.80607">
        <ele>448</ele>
        <time>2015-06-14T09:04:18.000Z</time>
      </trkpt>
      <trkpt lat="47.42741" lon="6.80607">
        <ele>448</ele>
        <time>2015-06-14T09:04:19.000Z</time>
      </trkpt>
      <trkpt lat="47.42737" lon="6.80606">
        <ele>449</ele>
        <time>2015-06-14T09:04:21.000Z</time>
      </trkpt>
      <trkpt lat="47.42736" lon="6.80605">
        <ele>449</ele>
        <time>2015-06-14T09:04:22.000Z</time>
      </trkpt>
      <trkpt lat="47.42732" lon="6.80603">
        <ele>449</ele>
        <time>2015-06-14T09:04:24.000Z</time>
      </trkpt>
      <trkpt lat="47.4273" lon="6.80602">
        <ele>449</ele>
        <time>2015-06-14T09:04:25.000Z</time>
      </trkpt>
      <trkpt lat="47.42728" lon="6.80601">
        <ele>449</ele>
        <time>2015-06-14T09:04:26.000Z</time>
      </trkpt>
      <trkpt lat="47.42726" lon="6.806">
        <ele>449</ele>
        <time>2015-06-14T09:04:27.000Z</time>
      </trkpt>
      <trkpt lat="47.42722" lon="6.80598">
        <ele>449</ele>
        <time>2015-06-14T09:04:29.000Z</time>
      </trkpt>
      <trkpt lat="47.4272" lon="6.80598">
        <ele>449</ele>
        <time>2015-06-14T09:04:30.000Z</time>
      </trkpt>
      <trkpt lat="47.42717" lon="6.80596">
        <ele>450</ele>
        <time>2015-06-14T09:04:33.000Z</time>
      </trkpt>
      <trkpt lat="47.42716" lon="6.80595">
        <ele>450</ele>
        <time>2015-06-14T09:04:34.000Z</time>
      </trkpt>
      <trkpt lat="47.42713" lon="6.80593">
        <ele>450</ele>
        <time>2015-06-14T09:04:36.000Z</time>
      </trkpt>
      <trkpt lat="47.42711" lon="6.80592">
        <ele>450</ele>
        <time>2015-06-14T09:04:37.000Z</time>
      </trkpt>
      <trkpt lat="47.42707" lon="6.80592">
        <ele>450</ele>
        <time>2015-06-14T09:04:39.000Z</time>
      </trkpt>
      <trkpt lat="47.42706" lon="6.80592">
        <ele>450</ele>
        <time>2015-06-14T09:04:40.000Z</time>
      </trkpt>
      <trkpt lat="47.42702" lon="6.8059">
        <ele>450</ele>
        <time>2015-06-14T09:04:42.000Z</time>
      </trkpt>
      <trkpt lat="47.427" lon="6.80589">
        <ele>450</ele>
        <time>2015-06-14T09:04:43.000Z</time>
      </trkpt>
      <trkpt lat="47.42697" lon="6.80587">
        <ele>451</ele>
        <time>2015-06-14T09:04:45.000Z</time>
      </trkpt>
      <trkpt lat="47.42695" lon="6.80587">
        <ele>451</ele>
        <time>2015-06-14T09:04:46.000Z</time>
      </trkpt>
      <trkpt lat="47.42691" lon="6.80584">
        <ele>451</ele>
        <time>2015-06-14T09:04:49.000Z</time>
      </trkpt>
      <trkpt lat="47.4269" lon="6.80583">
        <ele>455</ele>
        <time>2015-06-14T09:04:50.000Z</time>
      </trkpt>
      <trkpt lat="47.42687" lon="6.80582">
        <ele>455</ele>
        <time>2015-06-14T09:04:52.000Z</time>
      </trkpt>
      <trkpt lat="47.42684" lon="6.80582">
        <ele>455</ele>
        <time>2015-06-14T09:04:53.000Z</time>
      </trkpt>
      <trkpt lat="47.42681" lon="6.80582">
        <ele>455</ele>
        <time>2015-06-14T09:04:54.000Z</time>
      </trkpt>
      <trkpt lat="47.42679" lon="6.80583">
        <ele>454</ele>
        <time>2015-06-14T09:04:55.000Z</time>
      </trkpt>
      <trkpt lat="47.42676" lon="6.80583">
        <ele>454</ele>
        <time>2015-06-14T09:04:56.000Z</time>
      </trkpt>
      <trkpt lat="47.42674" lon="6.80583">
        <ele>454</ele>
        <time>2015-06-14T09:04:57.000Z</time>
      </trkpt>
      <trkpt lat="47.42672" lon="6.80582">
        <ele>454</ele>
        <time>2015-06-14T09:04:58.000Z</time>
      </trkpt>
      <trkpt lat="47.4267" lon="6.8058">
        <ele>454</ele>
        <time>2015-06-14T09:04:59.000Z</time>
      </trkpt>
      <trkpt lat="47.42666" lon="6.80576">
        <ele>455</ele>
        <time>2015-06-14T09:05:01.000Z</time>
      </trkpt>
      <trkpt lat="47.42665" lon="6.80574">
        <ele>456</ele>
        <time>2015-06-14T09:05:02.000Z</time>
      </trkpt>
      <trkpt lat="47.42662" lon="6.80571">
        <ele>457</ele>
        <time>2015-06-14T09:05:04.000Z</time>
      </trkpt>
      <trkpt lat="47.42661" lon="6.8057">
        <ele>457</ele>
        <time>2015-06-14T09:05:05.000Z</time>
      </trkpt>
      <trkpt lat="47.42659" lon="6.80567">
        <ele>458</ele>
        <time>2015-06-14T09:05:07.000Z</time>
      </trkpt>
      <trkpt lat="47.42657" lon="6.80566">
        <ele>458</ele>
        <time>2015-06-14T09:05:08.000Z</time>
      </trkpt>
      <trkpt lat="47.42654" lon="6.80562">
        <ele>459</ele>
        <time>2015-06-14T09:05:10.000Z</time>
      </trkpt>
      <trkpt lat="47.42653" lon="6.8056">
        <ele>459</ele>
        <time>2015-06-14T09:05:11.000Z</time>
      </trkpt>
      <trkpt lat="47.42652" lon="6.80555">
        <ele>460</ele>
        <time>2015-06-14T09:05:13.000Z</time>
      </trkpt>
      <trkpt lat="47.42651" lon="6.80553">
        <ele>460</ele>
        <time>2015-06-14T09:05:14.000Z</time>
      </trkpt>
      <trkpt lat="47.42648" lon="6.80548">
        <ele>460</ele>
        <time>2015-06-14T09:05:18.000Z</time>
      </trkpt>
      <trkpt lat="47.42647" lon="6.80547">
        <ele>461</ele>
        <time>2015-06-14T09:05:19.000Z</time>
      </trkpt>
      <trkpt lat="47.42645" lon="6.80544">
        <ele>461</ele>
        <time>2015-06-14T09:05:23.000Z</time>
      </trkpt>
      <trkpt lat="47.42644" lon="6.80542">
        <ele>461</ele>
        <time>2015-06-14T09:05:24.000Z</time>
      </trkpt>
      <trkpt lat="47.42642" lon="6.80536">
        <ele>461</ele>
        <time>2015-06-14T09:05:27.000Z</time>
      </trkpt>
      <trkpt lat="47.42641" lon="6.80534">
        <ele>462</ele>
        <time>2015-06-14T09:05:28.000Z</time>
      </trkpt>
      <trkpt lat="47.42639" lon="6.80531">
        <ele>462</ele>
        <time>2015-06-14T09:05:30.000Z</time>
      </trkpt>
      <trkpt lat="47.42638" lon="6.80529">
        <ele>462</ele>
        <time>2015-06-14T09:05:31.000Z</time>
      </trkpt>
      <trkpt lat="47.42636" lon="6.80525">
        <ele>462</ele>
        <time>2015-06-14T09:05:33.000Z</time>
      </trkpt>
      <trkpt lat="47.42635" lon="6.80523">
        <ele>462</ele>
        <time>2015-06-14T09:05:34.000Z</time>
      </trkpt>
      <trkpt lat="47.42633" lon="6.8052">
        <ele>462</ele>
        <time>2015-06-14T09:05:36.000Z</time>
      </trkpt>
      <trkpt lat="47.42631" lon="6.80518">
        <ele>462</ele>
        <time>2015-06-14T09:05:37.000Z</time>
      </trkpt>
      <trkpt lat="47.42628" lon="6.80517">
        <ele>463</ele>
        <time>2015-06-14T09:05:38.000Z</time>
      </trkpt>
      <trkpt lat="47.42626" lon="6.80516">
        <ele>463</ele>
        <time>2015-06-14T09:05:39.000Z</time>
      </trkpt>
      <trkpt lat="47.42624" lon="6.80511">
        <ele>463</ele>
        <time>2015-06-14T09:05:41.000Z</time>
      </trkpt>
      <trkpt lat="47.42624" lon="6.80508">
        <ele>463</ele>
        <time>2015-06-14T09:05:42.000Z</time>
      </trkpt>
      <trkpt lat="47.42623" lon="6.80503">
        <ele>463</ele>
        <time>2015-06-14T09:05:44.000Z</time>
      </trkpt>
      <trkpt lat="47.42622" lon="6.80501">
        <ele>463</ele>
        <time>2015-06-14T09:05:45.000Z</time>
      </trkpt>
      <trkpt lat="47.4262" lon="6.80495">
        <ele>467</ele>
        <time>2015-06-14T09:05:48.000Z</time>
      </trkpt>
      <trkpt lat="47.42619" lon="6.80493">
        <ele>467</ele>
        <time>2015-06-14T09:05:49.000Z</time>
      </trkpt>
      <trkpt lat="47.42616" lon="6.8049">
        <ele>467</ele>
        <time>2015-06-14T09:05:51.000Z</time>
      </trkpt>
      <trkpt lat="47.42615" lon="6.80488">
        <ele>467</ele>
        <time>2015-06-14T09:05:52.000Z</time>
      </trkpt>
      <trkpt lat="47.42613" lon="6.80485">
        <ele>467</ele>
        <time>2015-06-14T09:05:53.000Z</time>
      </trkpt>
      <trkpt lat="47.42612" lon="6.80482">
        <ele>467</ele>
        <time>2015-06-14T09:05:54.000Z</time>
      </trkpt>
      <trkpt lat="47.42611" lon="6.80479">
        <ele>467</ele>
        <time>2015-06-14T09:05:55.000Z</time>
      </trkpt>
      <trkpt lat="47.42609" lon="6.80476">
        <ele>467</ele>
        <time>2015-06-14T09:05:56.000Z</time>
      </trkpt>
      <trkpt lat="47.42608" lon="6.80472">
        <ele>467</ele>
        <time>2015-06-14T09:05:58.000Z</time>
      </trkpt>
      <trkpt lat="47.42607" lon="6.80469">
        <ele>467</ele>
        <time>2015-06-14T09:05:59.000Z</time>
      </trkpt>
      <trkpt lat="47.42605" lon="6.80465">
        <ele>468</ele>
        <time>2015-06-14T09:06:01.000Z</time>
      </trkpt>
      <trkpt lat="47.42605" lon="6.80463">
        <ele>468</ele>
        <time>2015-06-14T09:06:02.000Z</time>
      </trkpt>
      <trkpt lat="47.42605" lon="6.80457">
        <ele>468</ele>
        <time>2015-06-14T09:06:05.000Z</time>
      </trkpt>
      <trkpt lat="47.42605" lon="6.80455">
        <ele>468</ele>
        <time>2015-06-14T09:06:06.000Z</time>
      </trkpt>
      <trkpt lat="47.42603" lon="6.80449">
        <ele>468</ele>
        <time>2015-06-14T09:06:09.000Z</time>
      </trkpt>
      <trkpt lat="47.42602" lon="6.80447">
        <ele>468</ele>
        <time>2015-06-14T09:06:10.000Z</time>
      </trkpt>
      <trkpt lat="47.42601" lon="6.80442">
        <ele>468</ele>
        <time>2015-06-14T09:06:12.000Z</time>
      </trkpt>
      <trkpt lat="47.426" lon="6.8044">
        <ele>468</ele>
        <time>2015-06-14T09:06:13.000Z</time>
      </trkpt>
      <trkpt lat="47.42599" lon="6.80436">
        <ele>468</ele>
        <time>2015-06-14T09:06:15.000Z</time>
      </trkpt>
      <trkpt lat="47.42598" lon="6.80434">
        <ele>468</ele>
        <time>2015-06-14T09:06:16.000Z</time>
      </trkpt>
      <trkpt lat="47.42595" lon="6.80431">
        <ele>468</ele>
        <time>2015-06-14T09:06:19.000Z</time>
      </trkpt>
      <trkpt lat="47.42594" lon="6.80429">
        <ele>468</ele>
        <time>2015-06-14T09:06:20.000Z</time>
      </trkpt>
      <trkpt lat="47.42593" lon="6.80424">
        <ele>469</ele>
        <time>2015-06-14T09:06:22.000Z</time>
      </trkpt>
      <trkpt lat="47.42593" lon="6.80421">
        <ele>469</ele>
        <time>2015-06-14T09:06:23.000Z</time>
      </trkpt>
      <trkpt lat="47.42592" lon="6.80417">
        <ele>469</ele>
        <time>2015-06-14T09:06:25.000Z</time>
      </trkpt>
      <trkpt lat="47.42592" lon="6.80415">
        <ele>470</ele>
        <time>2015-06-14T09:06:26.000Z</time>
      </trkpt>
      <trkpt lat="47.42591" lon="6.80409">
        <ele>471</ele>
        <time>2015-06-14T09:06:29.000Z</time>
      </trkpt>
      <trkpt lat="47.42591" lon="6.80407">
        <ele>471</ele>
        <time>2015-06-14T09:06:30.000Z</time>
      </trkpt>
      <trkpt lat="47.42589" lon="6.80402">
        <ele>471</ele>
        <time>2015-06-14T09:06:32.000Z</time>
      </trkpt>
      <trkpt lat="47.42589" lon="6.804">
        <ele>471</ele>
        <time>2015-06-14T09:06:33.000Z</time>
      </trkpt>
      <trkpt lat="47.42587" lon="6.80394">
        <ele>472</ele>
        <time>2015-06-14T09:06:36.000Z</time>
      </trkpt>
      <trkpt lat="47.42587" lon="6.80392">
        <ele>472</ele>
        <time>2015-06-14T09:06:37.000Z</time>
      </trkpt>
      <trkpt lat="47.42586" lon="6.80386">
        <ele>472</ele>
        <time>2015-06-14T09:06:39.000Z</time>
      </trkpt>
      <trkpt lat="47.42586" lon="6.80383">
        <ele>472</ele>
        <time>2015-06-14T09:06:40.000Z</time>
      </trkpt>
      <trkpt lat="47.42586" lon="6.80378">
        <ele>473</ele>
        <time>2015-06-14T09:06:42.000Z</time>
      </trkpt>
      <trkpt lat="47.42586" lon="6.80375">
        <ele>473</ele>
        <time>2015-06-14T09:06:43.000Z</time>
      </trkpt>
      <trkpt lat="47.42586" lon="6.8037">
        <ele>473</ele>
        <time>2015-06-14T09:06:45.000Z</time>
      </trkpt>
      <trkpt lat="47.42586" lon="6.80367">
        <ele>473</ele>
        <time>2015-06-14T09:06:46.000Z</time>
      </trkpt>
      <trkpt lat="47.42586" lon="6.80361">
        <ele>473</ele>
        <time>2015-06-14T09:06:48.000Z</time>
      </trkpt>
      <trkpt lat="47.42586" lon="6.80358">
        <ele>473</ele>
        <time>2015-06-14T09:06:49.000Z</time>
      </trkpt>
      <trkpt lat="47.42587" lon="6.80352">
        <ele>474</ele>
        <time>2015-06-14T09:06:51.000Z</time>
      </trkpt>
      <trkpt lat="47.42587" lon="6.80349">
        <ele>474</ele>
        <time>2015-06-14T09:06:52.000Z</time>
      </trkpt>
      <trkpt lat="47.42588" lon="6.80346">
        <ele>474</ele>
        <time>2015-06-14T09:06:53.000Z</time>
      </trkpt>
      <trkpt lat="47.42588" lon="6.80343">
        <ele>474</ele>
        <time>2015-06-14T09:06:54.000Z</time>
      </trkpt>
      <trkpt lat="47.42589" lon="6.80337">
        <ele>474</ele>
        <time>2015-06-14T09:06:56.000Z</time>
      </trkpt>
      <trkpt lat="47.4259" lon="6.80334">
        <ele>474</ele>
        <time>2015-06-14T09:06:57.000Z</time>
      </trkpt>
      <trkpt lat="47.42589" lon="6.80328">
        <ele>475</ele>
        <time>2015-06-14T09:06:59.000Z</time>
      </trkpt>
      <trkpt lat="47.42589" lon="6.80325">
        <ele>476</ele>
        <time>2015-06-14T09:07:00.000Z</time>
      </trkpt>
      <trkpt lat="47.42589" lon="6.80319">
        <ele>476</ele>
        <time>2015-06-14T09:07:02.000Z</time>
      </trkpt>
      <trkpt lat="47.42589" lon="6.80317">
        <ele>476</ele>
        <time>2015-06-14T09:07:03.000Z</time>
      </trkpt>
      <trkpt lat="47.42588" lon="6.80313">
        <ele>477</ele>
        <time>2015-06-14T09:07:05.000Z</time>
      </trkpt>
      <trkpt lat="47.42586" lon="6.8031">
        <ele>477</ele>
        <time>2015-06-14T09:07:06.000Z</time>
      </trkpt>
      <trkpt lat="47.42585" lon="6.80308">
        <ele>477</ele>
        <time>2015-06-14T09:07:07.000Z</time>
      </trkpt>
      <trkpt lat="47.42583" lon="6.80305">
        <ele>479</ele>
        <time>2015-06-14T09:07:08.000Z</time>
      </trkpt>
      <trkpt lat="47.42582" lon="6.803">
        <ele>480</ele>
        <time>2015-06-14T09:07:10.000Z</time>
      </trkpt>
      <trkpt lat="47.42581" lon="6.80298">
        <ele>480</ele>
        <time>2015-06-14T09:07:11.000Z</time>
      </trkpt>
      <trkpt lat="47.4258" lon="6.80293">
        <ele>480</ele>
        <time>2015-06-14T09:07:13.000Z</time>
      </trkpt>
      <trkpt lat="47.4258" lon="6.80291">
        <ele>480</ele>
        <time>2015-06-14T09:07:14.000Z</time>
      </trkpt>
      <trkpt lat="47.4258" lon="6.80286">
        <ele>481</ele>
        <time>2015-06-14T09:07:16.000Z</time>
      </trkpt>
      <trkpt lat="47.4258" lon="6.80284">
        <ele>481</ele>
        <time>2015-06-14T09:07:17.000Z</time>
      </trkpt>
      <trkpt lat="47.4258" lon="6.80278">
        <ele>481</ele>
        <time>2015-06-14T09:07:19.000Z</time>
      </trkpt>
      <trkpt lat="47.4258" lon="6.80275">
        <ele>481</ele>
        <time>2015-06-14T09:07:20.000Z</time>
      </trkpt>
      <trkpt lat="47.42581" lon="6.80271">
        <ele>481</ele>
        <time>2015-06-14T09:07:22.000Z</time>
      </trkpt>
      <trkpt lat="47.42582" lon="6.80269">
        <ele>480</ele>
        <time>2015-06-14T09:07:23.000Z</time>
      </trkpt>
      <trkpt lat="47.42585" lon="6.80265">
        <ele>479</ele>
        <time>2015-06-14T09:07:25.000Z</time>
      </trkpt>
      <trkpt lat="47.42586" lon="6.80264">
        <ele>479</ele>
        <time>2015-06-14T09:07:26.000Z</time>
      </trkpt>
      <trkpt lat="47.4259" lon="6.8026">
        <ele>479</ele>
        <time>2015-06-14T09:07:29.000Z</time>
      </trkpt>
      <trkpt lat="47.4259" lon="6.80259">
        <ele>479</ele>
        <time>2015-06-14T09:07:30.000Z</time>
      </trkpt>
      <trkpt lat="47.42594" lon="6.8026">
        <ele>479</ele>
        <time>2015-06-14T09:07:34.000Z</time>
      </trkpt>
      <trkpt lat="47.42595" lon="6.80262">
        <ele>479</ele>
        <time>2015-06-14T09:07:35.000Z</time>
      </trkpt>
      <trkpt lat="47.42598" lon="6.8026">
        <ele>479</ele>
        <time>2015-06-14T09:07:38.000Z</time>
      </trkpt>
      <trkpt lat="47.42599" lon="6.80257">
        <ele>479</ele>
        <time>2015-06-14T09:07:39.000Z</time>
      </trkpt>
      <trkpt lat="47.42603" lon="6.80253">
        <ele>479</ele>
        <time>2015-06-14T09:07:41.000Z</time>
      </trkpt>
      <trkpt lat="47.42604" lon="6.80253">
        <ele>479</ele>
        <time>2015-06-14T09:07:42.000Z</time>
      </trkpt>
      <trkpt lat="47.42607" lon="6.80255">
        <ele>479</ele>
        <time>2015-06-14T09:07:44.000Z</time>
      </trkpt>
      <trkpt lat="47.42609" lon="6.80256">
        <ele>479</ele>
        <time>2015-06-14T09:07:45.000Z</time>
      </trkpt>
      <trkpt lat="47.42612" lon="6.80258">
        <ele>479</ele>
        <time>2015-06-14T09:07:47.000Z</time>
      </trkpt>
      <trkpt lat="47.42614" lon="6.8026">
        <ele>479</ele>
        <time>2015-06-14T09:07:48.000Z</time>
      </trkpt>
      <trkpt lat="47.42617" lon="6.80263">
        <ele>479</ele>
        <time>2015-06-14T09:07:50.000Z</time>
      </trkpt>
      <trkpt lat="47.42619" lon="6.80264">
        <ele>479</ele>
        <time>2015-06-14T09:07:51.000Z</time>
      </trkpt>
      <trkpt lat="47.42623" lon="6.80267">
        <ele>479</ele>
        <time>2015-06-14T09:07:53.000Z</time>
      </trkpt>
      <trkpt lat="47.42625" lon="6.80267">
        <ele>479</ele>
        <time>2015-06-14T09:07:54.000Z</time>
      </trkpt>
      <trkpt lat="47.42629" lon="6.80268">
        <ele>479</ele>
        <time>2015-06-14T09:07:56.000Z</time>
      </trkpt>
      <trkpt lat="47.42632" lon="6.80267">
        <ele>480</ele>
        <time>2015-06-14T09:07:57.000Z</time>
      </trkpt>
      <trkpt lat="47.42634" lon="6.80267">
        <ele>480</ele>
        <time>2015-06-14T09:07:58.000Z</time>
      </trkpt>
      <trkpt lat="47.42637" lon="6.80268">
        <ele>480</ele>
        <time>2015-06-14T09:07:59.000Z</time>
      </trkpt>
      <trkpt lat="47.42639" lon="6.80269">
        <ele>480</ele>
        <time>2015-06-14T09:08:00.000Z</time>
      </trkpt>
      <trkpt lat="47.42641" lon="6.8027">
        <ele>480</ele>
        <time>2015-06-14T09:08:01.000Z</time>
      </trkpt>
      <trkpt lat="47.42644" lon="6.80272">
        <ele>480</ele>
        <time>2015-06-14T09:08:02.000Z</time>
      </trkpt>
      <trkpt lat="47.42646" lon="6.80273">
        <ele>480</ele>
        <time>2015-06-14T09:08:03.000Z</time>
      </trkpt>
      <trkpt lat="47.42649" lon="6.80275">
        <ele>480</ele>
        <time>2015-06-14T09:08:04.000Z</time>
      </trkpt>
      <trkpt lat="47.42651" lon="6.80276">
        <ele>480</ele>
        <time>2015-06-14T09:08:05.000Z</time>
      </trkpt>
      <trkpt lat="47.42654" lon="6.80277">
        <ele>480</ele>
        <time>2015-06-14T09:08:06.000Z</time>
      </trkpt>
      <trkpt lat="47.42657" lon="6.80277">
        <ele>480</ele>
        <time>2015-06-14T09:08:07.000Z</time>
      </trkpt>
      <trkpt lat="47.4266" lon="6.80278">
        <ele>480</ele>
        <time>2015-06-14T09:08:08.000Z</time>
      </trkpt>
      <trkpt lat="47.42662" lon="6.80279">
        <ele>480</ele>
        <time>2015-06-14T09:08:09.000Z</time>
      </trkpt>
      <trkpt lat="47.42665" lon="6.80281">
        <ele>480</ele>
        <time>2015-06-14T09:08:10.000Z</time>
      </trkpt>
      <trkpt lat="47.42668" lon="6.80282">
        <ele>482</ele>
        <time>2015-06-14T09:08:11.000Z</time>
      </trkpt>
      <trkpt lat="47.4267" lon="6.80284">
        <ele>482</ele>
        <time>2015-06-14T09:08:12.000Z</time>
      </trkpt>
      <trkpt lat="47.42673" lon="6.80285">
        <ele>482</ele>
        <time>2015-06-14T09:08:13.000Z</time>
      </trkpt>
      <trkpt lat="47.42676" lon="6.80285">
        <ele>482</ele>
        <time>2015-06-14T09:08:14.000Z</time>
      </trkpt>
      <trkpt lat="47.42679" lon="6.80285">
        <ele>482</ele>
        <time>2015-06-14T09:08:15.000Z</time>
      </trkpt>
      <trkpt lat="47.42682" lon="6.80283">
        <ele>482</ele>
        <time>2015-06-14T09:08:16.000Z</time>
      </trkpt>
      <trkpt lat="47.42686" lon="6.80282">
        <ele>482</ele>
        <time>2015-06-14T09:08:17.000Z</time>
      </trkpt>
      <trkpt lat="47.42689" lon="6.8028">
        <ele>482</ele>
        <time>2015-06-14T09:08:18.000Z</time>
      </trkpt>
      <trkpt lat="47.42692" lon="6.80277">
        <ele>482</ele>
        <time>2015-06-14T09:08:19.000Z</time>
      </trkpt>
      <trkpt lat="47.42695" lon="6.80274">
        <ele>482</ele>
        <time>2015-06-14T09:08:20.000Z</time>
      </trkpt>
      <trkpt lat="47.42698" lon="6.80271">
        <ele>482</ele>
        <time>2015-06-14T09:08:21.000Z</time>
      </trkpt>
      <trkpt lat="47.42701" lon="6.80268">
        <ele>482</ele>
        <time>2015-06-14T09:08:22.000Z</time>
      </trkpt>
      <trkpt lat="47.42704" lon="6.80266">
        <ele>482</ele>
        <time>2015-06-14T09:08:23.000Z</time>
      </trkpt>
      <trkpt lat="47.42706" lon="6.80264">
        <ele>482</ele>
        <time>2015-06-14T09:08:24.000Z</time>
      </trkpt>
      <trkpt lat="47.42709" lon="6.80263">
        <ele>482</ele>
        <time>2015-06-14T09:08:25.000Z</time>
      </trkpt>
      <trkpt lat="47.42711" lon="6.8026">
        <ele>482</ele>
        <time>2015-06-14T09:08:26.000Z</time>
      </trkpt>
      <trkpt lat="47.42713" lon="6.80258">
        <ele>482</ele>
        <time>2015-06-14T09:08:27.000Z</time>
      </trkpt>
      <trkpt lat="47.42715" lon="6.80256">
        <ele>482</ele>
        <time>2015-06-14T09:08:28.000Z</time>
      </trkpt>
      <trkpt lat="47.42718" lon="6.80255">
        <ele>483</ele>
        <time>2015-06-14T09:08:29.000Z</time>
      </trkpt>
      <trkpt lat="47.4272" lon="6.80255">
        <ele>483</ele>
        <time>2015-06-14T09:08:30.000Z</time>
      </trkpt>
      <trkpt lat="47.42723" lon="6.80254">
        <ele>483</ele>
        <time>2015-06-14T09:08:31.000Z</time>
      </trkpt>
      <trkpt lat="47.42726" lon="6.80253">
        <ele>483</ele>
        <time>2015-06-14T09:08:32.000Z</time>
      </trkpt>
      <trkpt lat="47.42728" lon="6.80252">
        <ele>483</ele>
        <time>2015-06-14T09:08:33.000Z</time>
      </trkpt>
      <trkpt lat="47.42731" lon="6.80249">
        <ele>484</ele>
        <time>2015-06-14T09:08:34.000Z</time>
      </trkpt>
      <trkpt lat="47.42733" lon="6.80247">
        <ele>484</ele>
        <time>2015-06-14T09:08:35.000Z</time>
      </trkpt>
      <trkpt lat="47.42735" lon="6.80244">
        <ele>484</ele>
        <time>2015-06-14T09:08:36.000Z</time>
      </trkpt>
      <trkpt lat="47.42738" lon="6.80241">
        <ele>484</ele>
        <time>2015-06-14T09:08:37.000Z</time>
      </trkpt>
      <trkpt lat="47.42739" lon="6.80238">
        <ele>484</ele>
        <time>2015-06-14T09:08:38.000Z</time>
      </trkpt>
      <trkpt lat="47.42741" lon="6.80236">
        <ele>484</ele>
        <time>2015-06-14T09:08:39.000Z</time>
      </trkpt>
      <trkpt lat="47.42744" lon="6.80231">
        <ele>484</ele>
        <time>2015-06-14T09:08:41.000Z</time>
      </trkpt>
      <trkpt lat="47.42745" lon="6.80228">
        <ele>484</ele>
        <time>2015-06-14T09:08:42.000Z</time>
      </trkpt>
      <trkpt lat="47.42747" lon="6.80226">
        <ele>484</ele>
        <time>2015-06-14T09:08:43.000Z</time>
      </trkpt>
      <trkpt lat="47.42748" lon="6.80223">
        <ele>484</ele>
        <time>2015-06-14T09:08:44.000Z</time>
      </trkpt>
      <trkpt lat="47.4275" lon="6.8022">
        <ele>484</ele>
        <time>2015-06-14T09:08:45.000Z</time>
      </trkpt>
      <trkpt lat="47.42751" lon="6.80216">
        <ele>480</ele>
        <time>2015-06-14T09:08:46.000Z</time>
      </trkpt>
      <trkpt lat="47.42753" lon="6.80212">
        <ele>480</ele>
        <time>2015-06-14T09:08:47.000Z</time>
      </trkpt>
      <trkpt lat="47.42754" lon="6.80207">
        <ele>480</ele>
        <time>2015-06-14T09:08:48.000Z</time>
      </trkpt>
      <trkpt lat="47.42754" lon="6.80202">
        <ele>480</ele>
        <time>2015-06-14T09:08:49.000Z</time>
      </trkpt>
      <trkpt lat="47.42755" lon="6.80196">
        <ele>480</ele>
        <time>2015-06-14T09:08:50.000Z</time>
      </trkpt>
      <trkpt lat="47.42755" lon="6.80191">
        <ele>481</ele>
        <time>2015-06-14T09:08:51.000Z</time>
      </trkpt>
      <trkpt lat="47.42756" lon="6.80187">
        <ele>481</ele>
        <time>2015-06-14T09:08:52.000Z</time>
      </trkpt>
      <trkpt lat="47.42758" lon="6.80182">
        <ele>481</ele>
        <time>2015-06-14T09:08:53.000Z</time>
      </trkpt>
      <trkpt lat="47.42759" lon="6.80178">
        <ele>481</ele>
        <time>2015-06-14T09:08:54.000Z</time>
      </trkpt>
      <trkpt lat="47.4276" lon="6.80174">
        <ele>482</ele>
        <time>2015-06-14T09:08:55.000Z</time>
      </trkpt>
      <trkpt lat="47.42761" lon="6.8017">
        <ele>482</ele>
        <time>2015-06-14T09:08:56.000Z</time>
      </trkpt>
      <trkpt lat="47.42762" lon="6.80165">
        <ele>482</ele>
        <time>2015-06-14T09:08:57.000Z</time>
      </trkpt>
      <trkpt lat="47.42763" lon="6.80161">
        <ele>482</ele>
        <time>2015-06-14T09:08:58.000Z</time>
      </trkpt>
      <trkpt lat="47.42764" lon="6.80156">
        <ele>482</ele>
        <time>2015-06-14T09:08:59.000Z</time>
      </trkpt>
      <trkpt lat="47.42765" lon="6.80152">
        <ele>481</ele>
        <time>2015-06-14T09:09:00.000Z</time>
      </trkpt>
      <trkpt lat="47.42765" lon="6.80147">
        <ele>481</ele>
        <time>2015-06-14T09:09:01.000Z</time>
      </trkpt>
      <trkpt lat="47.42766" lon="6.80141">
        <ele>481</ele>
        <time>2015-06-14T09:09:02.000Z</time>
      </trkpt>
      <trkpt lat="47.42767" lon="6.80135">
        <ele>481</ele>
        <time>2015-06-14T09:09:03.000Z</time>
      </trkpt>
      <trkpt lat="47.42768" lon="6.8013">
        <ele>481</ele>
        <time>2015-06-14T09:09:04.000Z</time>
      </trkpt>
      <trkpt lat="47.42769" lon="6.80125">
        <ele>481</ele>
        <time>2015-06-14T09:09:05.000Z</time>
      </trkpt>
      <trkpt lat="47.4277" lon="6.8012">
        <ele>481</ele>
        <time>2015-06-14T09:09:06.000Z</time>
      </trkpt>
      <trkpt lat="47.4277" lon="6.80115">
        <ele>481</ele>
        <time>2015-06-14T09:09:07.000Z</time>
      </trkpt>
      <trkpt lat="47.42771" lon="6.8011">
        <ele>481</ele>
        <time>2015-06-14T09:09:08.000Z</time>
      </trkpt>
      <trkpt lat="47.42771" lon="6.80105">
        <ele>482</ele>
        <time>2015-06-14T09:09:09.000Z</time>
      </trkpt>
      <trkpt lat="47.42771" lon="6.80101">
        <ele>482</ele>
        <time>2015-06-14T09:09:10.000Z</time>
      </trkpt>
      <trkpt lat="47.42771" lon="6.80096">
        <ele>482</ele>
        <time>2015-06-14T09:09:11.000Z</time>
      </trkpt>
      <trkpt lat="47.42771" lon="6.80091">
        <ele>483</ele>
        <time>2015-06-14T09:09:12.000Z</time>
      </trkpt>
      <trkpt lat="47.42772" lon="6.80086">
        <ele>483</ele>
        <time>2015-06-14T09:09:13.000Z</time>
      </trkpt>
      <trkpt lat="47.42773" lon="6.80081">
        <ele>484</ele>
        <time>2015-06-14T09:09:14.000Z</time>
      </trkpt>
      <trkpt lat="47.42773" lon="6.80076">
        <ele>484</ele>
        <time>2015-06-14T09:09:15.000Z</time>
      </trkpt>
      <trkpt lat="47.42774" lon="6.80071">
        <ele>483</ele>
        <time>2015-06-14T09:09:16.000Z</time>
      </trkpt>
      <trkpt lat="47.42775" lon="6.80066">
        <ele>483</ele>
        <time>2015-06-14T09:09:17.000Z</time>
      </trkpt>
      <trkpt lat="47.42775" lon="6.80062">
        <ele>483</ele>
        <time>2015-06-14T09:09:18.000Z</time>
      </trkpt>
      <trkpt lat="47.42776" lon="6.80057">
        <ele>483</ele>
        <time>2015-06-14T09:09:19.000Z</time>
      </trkpt>
      <trkpt lat="47.42776" lon="6.80052">
        <ele>483</ele>
        <time>2015-06-14T09:09:20.000Z</time>
      </trkpt>
      <trkpt lat="47.42777" lon="6.80047">
        <ele>483</ele>
        <time>2015-06-14T09:09:21.000Z</time>
      </trkpt>
      <trkpt lat="47.42777" lon="6.80041">
        <ele>483</ele>
        <time>2015-06-14T09:09:22.000Z</time>
      </trkpt>
      <trkpt lat="47.42778" lon="6.80036">
        <ele>483</ele>
        <time>2015-06-14T09:09:23.000Z</time>
      </trkpt>
      <trkpt lat="47.42779" lon="6.80031">
        <ele>483</ele>
        <time>2015-06-14T09:09:24.000Z</time>
      </trkpt>
      <trkpt lat="47.42779" lon="6.80026">
        <ele>483</ele>
        <time>2015-06-14T09:09:25.000Z</time>
      </trkpt>
      <trkpt lat="47.4278" lon="6.8002">
        <ele>483</ele>
        <time>2015-06-14T09:09:26.000Z</time>
      </trkpt>
      <trkpt lat="47.4278" lon="6.80014">
        <ele>483</ele>
        <time>2015-06-14T09:09:27.000Z</time>
      </trkpt>
      <trkpt lat="47.42779" lon="6.80009">
        <ele>483</ele>
        <time>2015-06-14T09:09:28.000Z</time>
      </trkpt>
      <trkpt lat="47.4278" lon="6.80003">
        <ele>483</ele>
        <time>2015-06-14T09:09:29.000Z</time>
      </trkpt>
      <trkpt lat="47.4278" lon="6.79999">
        <ele>485</ele>
        <time>2015-06-14T09:09:30.000Z</time>
      </trkpt>
      <trkpt lat="47.42779" lon="6.79994">
        <ele>485</ele>
        <time>2015-06-14T09:09:31.000Z</time>
      </trkpt>
      <trkpt lat="47.42779" lon="6.79989">
        <ele>484</ele>
        <time>2015-06-14T09:09:32.000Z</time>
      </trkpt>
      <trkpt lat="47.42779" lon="6.79984">
        <ele>484</ele>
        <time>2015-06-14T09:09:33.000Z</time>
      </trkpt>
      <trkpt lat="47.42778" lon="6.79979">
        <ele>484</ele>
        <time>2015-06-14T09:09:34.000Z</time>
      </trkpt>
      <trkpt lat="47.42778" lon="6.79973">
        <ele>484</ele>
        <time>2015-06-14T09:09:35.000Z</time>
      </trkpt>
      <trkpt lat="47.42777" lon="6.79967">
        <ele>484</ele>
        <time>2015-06-14T09:09:36.000Z</time>
      </trkpt>
      <trkpt lat="47.42777" lon="6.79961">
        <ele>485</ele>
        <time>2015-06-14T09:09:37.000Z</time>
      </trkpt>
      <trkpt lat="47.42778" lon="6.79955">
        <ele>485</ele>
        <time>2015-06-14T09:09:38.000Z</time>
      </trkpt>
      <trkpt lat="47.42778" lon="6.7995">
        <ele>485</ele>
        <time>2015-06-14T09:09:39.000Z</time>
      </trkpt>
      <trkpt lat="47.42779" lon="6.79945">
        <ele>485</ele>
        <time>2015-06-14T09:09:40.000Z</time>
      </trkpt>
      <trkpt lat="47.42779" lon="6.7994">
        <ele>485</ele>
        <time>2015-06-14T09:09:41.000Z</time>
      </trkpt>
      <trkpt lat="47.42779" lon="6.79934">
        <ele>485</ele>
        <time>2015-06-14T09:09:42.000Z</time>
      </trkpt>
      <trkpt lat="47.42778" lon="6.79929">
        <ele>485</ele>
        <time>2015-06-14T09:09:43.000Z</time>
      </trkpt>
      <trkpt lat="47.42778" lon="6.79923">
        <ele>486</ele>
        <time>2015-06-14T09:09:44.000Z</time>
      </trkpt>
      <trkpt lat="47.42777" lon="6.79917">
        <ele>486</ele>
        <time>2015-06-14T09:09:45.000Z</time>
      </trkpt>
      <trkpt lat="47.42777" lon="6.79912">
        <ele>488</ele>
        <time>2015-06-14T09:09:46.000Z</time>
      </trkpt>
      <trkpt lat="47.42778" lon="6.79906">
        <ele>488</ele>
        <time>2015-06-14T09:09:47.000Z</time>
      </trkpt>
      <trkpt lat="47.42778" lon="6.799">
        <ele>488</ele>
        <time>2015-06-14T09:09:48.000Z</time>
      </trkpt>
      <trkpt lat="47.42779" lon="6.79894">
        <ele>487</ele>
        <time>2015-06-14T09:09:49.000Z</time>
      </trkpt>
      <trkpt lat="47.4278" lon="6.79888">
        <ele>487</ele>
        <time>2015-06-14T09:09:50.000Z</time>
      </trkpt>
      <trkpt lat="47.4278" lon="6.79883">
        <ele>487</ele>
        <time>2015-06-14T09:09:51.000Z</time>
      </trkpt>
      <trkpt lat="47.42781" lon="6.79878">
        <ele>487</ele>
        <time>2015-06-14T09:09:52.000Z</time>
      </trkpt>
      <trkpt lat="47.42782" lon="6.79873">
        <ele>487</ele>
        <time>2015-06-14T09:09:53.000Z</time>
      </trkpt>
      <trkpt lat="47.42784" lon="6.79869">
        <ele>487</ele>
        <time>2015-06-14T09:09:54.000Z</time>
      </trkpt>
      <trkpt lat="47.42785" lon="6.79864">
        <ele>487</ele>
        <time>2015-06-14T09:09:55.000Z</time>
      </trkpt>
      <trkpt lat="47.42788" lon="6.79859">
        <ele>487</ele>
        <time>2015-06-14T09:09:56.000Z</time>
      </trkpt>
      <trkpt lat="47.4279" lon="6.79854">
        <ele>487</ele>
        <time>2015-06-14T09:09:57.000Z</time>
      </trkpt>
      <trkpt lat="47.42793" lon="6.79849">
        <ele>487</ele>
        <time>2015-06-14T09:09:58.000Z</time>
      </trkpt>
      <trkpt lat="47.42796" lon="6.79845">
        <ele>487</ele>
        <time>2015-06-14T09:09:59.000Z</time>
      </trkpt>
      <trkpt lat="47.42799" lon="6.79841">
        <ele>487</ele>
        <time>2015-06-14T09:10:00.000Z</time>
      </trkpt>
      <trkpt lat="47.42801" lon="6.79838">
        <ele>487</ele>
        <time>2015-06-14T09:10:01.000Z</time>
      </trkpt>
      <trkpt lat="47.42804" lon="6.79835">
        <ele>487</ele>
        <time>2015-06-14T09:10:02.000Z</time>
      </trkpt>
      <trkpt lat="47.42806" lon="6.79832">
        <ele>488</ele>
        <time>2015-06-14T09:10:03.000Z</time>
      </trkpt>
      <trkpt lat="47.42808" lon="6.79829">
        <ele>488</ele>
        <time>2015-06-14T09:10:04.000Z</time>
      </trkpt>
      <trkpt lat="47.4281" lon="6.79826">
        <ele>488</ele>
        <time>2015-06-14T09:10:05.000Z</time>
      </trkpt>
      <trkpt lat="47.42813" lon="6.79823">
        <ele>488</ele>
        <time>2015-06-14T09:10:06.000Z</time>
      </trkpt>
      <trkpt lat="47.42815" lon="6.7982">
        <ele>488</ele>
        <time>2015-06-14T09:10:07.000Z</time>
      </trkpt>
      <trkpt lat="47.42816" lon="6.79818">
        <ele>488</ele>
        <time>2015-06-14T09:10:08.000Z</time>
      </trkpt>
      <trkpt lat="47.4282" lon="6.79815">
        <ele>488</ele>
        <time>2015-06-14T09:10:11.000Z</time>
      </trkpt>
      <trkpt lat="47.42821" lon="6.79814">
        <ele>488</ele>
        <time>2015-06-14T09:10:12.000Z</time>
      </trkpt>
      <trkpt lat="47.42821" lon="6.79808">
        <ele>488</ele>
        <time>2015-06-14T09:10:15.000Z</time>
      </trkpt>
      <trkpt lat="47.4282" lon="6.79805">
        <ele>488</ele>
        <time>2015-06-14T09:10:16.000Z</time>
      </trkpt>
      <trkpt lat="47.42816" lon="6.79803">
        <ele>488</ele>
        <time>2015-06-14T09:10:18.000Z</time>
      </trkpt>
      <trkpt lat="47.42814" lon="6.79804">
        <ele>488</ele>
        <time>2015-06-14T09:10:19.000Z</time>
      </trkpt>
      <trkpt lat="47.42811" lon="6.79804">
        <ele>488</ele>
        <time>2015-06-14T09:10:20.000Z</time>
      </trkpt>
      <trkpt lat="47.42808" lon="6.79804">
        <ele>488</ele>
        <time>2015-06-14T09:10:21.000Z</time>
      </trkpt>
      <trkpt lat="47.42806" lon="6.79804">
        <ele>489</ele>
        <time>2015-06-14T09:10:22.000Z</time>
      </trkpt>
      <trkpt lat="47.42803" lon="6.79804">
        <ele>489</ele>
        <time>2015-06-14T09:10:23.000Z</time>
      </trkpt>
      <trkpt lat="47.428" lon="6.79804">
        <ele>489</ele>
        <time>2015-06-14T09:10:25.000Z</time>
      </trkpt>
      <trkpt lat="47.42799" lon="6.79803">
        <ele>489</ele>
        <time>2015-06-14T09:10:26.000Z</time>
      </trkpt>
      <trkpt lat="47.42795" lon="6.79804">
        <ele>489</ele>
        <time>2015-06-14T09:10:30.000Z</time>
      </trkpt>
      <trkpt lat="47.42794" lon="6.79804">
        <ele>489</ele>
        <time>2015-06-14T09:10:31.000Z</time>
      </trkpt>
      <trkpt lat="47.4279" lon="6.79801">
        <ele>489</ele>
        <time>2015-06-14T09:10:35.000Z</time>
      </trkpt>
      <trkpt lat="47.4279" lon="6.79801">
        <ele>489</ele>
        <time>2015-06-14T09:10:36.000Z</time>
      </trkpt>
      <trkpt lat="47.42786" lon="6.798">
        <ele>489</ele>
        <time>2015-06-14T09:10:58.000Z</time>
      </trkpt>
      <trkpt lat="47.42784" lon="6.798">
        <ele>490</ele>
        <time>2015-06-14T09:10:59.000Z</time>
      </trkpt>
      <trkpt lat="47.42781" lon="6.79798">
        <ele>490</ele>
        <time>2015-06-14T09:11:01.000Z</time>
      </trkpt>
      <trkpt lat="47.42778" lon="6.79799">
        <ele>490</ele>
        <time>2015-06-14T09:11:02.000Z</time>
      </trkpt>
      <trkpt lat="47.42776" lon="6.798">
        <ele>490</ele>
        <time>2015-06-14T09:11:03.000Z</time>
      </trkpt>
      <trkpt lat="47.42774" lon="6.79802">
        <ele>490</ele>
        <time>2015-06-14T09:11:04.000Z</time>
      </trkpt>
      <trkpt lat="47.42769" lon="6.79804">
        <ele>490</ele>
        <time>2015-06-14T09:11:06.000Z</time>
      </trkpt>
      <trkpt lat="47.42767" lon="6.79804">
        <ele>490</ele>
        <time>2015-06-14T09:11:07.000Z</time>
      </trkpt>
      <trkpt lat="47.42763" lon="6.79804">
        <ele>490</ele>
        <time>2015-06-14T09:11:09.000Z</time>
      </trkpt>
      <trkpt lat="47.42761" lon="6.79803">
        <ele>490</ele>
        <time>2015-06-14T09:11:10.000Z</time>
      </trkpt>
      <trkpt lat="47.42759" lon="6.79803">
        <ele>491</ele>
        <time>2015-06-14T09:11:11.000Z</time>
      </trkpt>
      <trkpt lat="47.42756" lon="6.79803">
        <ele>491</ele>
        <time>2015-06-14T09:11:12.000Z</time>
      </trkpt>
      <trkpt lat="47.42753" lon="6.79804">
        <ele>491</ele>
        <time>2015-06-14T09:11:13.000Z</time>
      </trkpt>
      <trkpt lat="47.42751" lon="6.79804">
        <ele>491</ele>
        <time>2015-06-14T09:11:14.000Z</time>
      </trkpt>
      <trkpt lat="47.42748" lon="6.79804">
        <ele>494</ele>
        <time>2015-06-14T09:11:15.000Z</time>
      </trkpt>
      <trkpt lat="47.42746" lon="6.79804">
        <ele>494</ele>
        <time>2015-06-14T09:11:16.000Z</time>
      </trkpt>
      <trkpt lat="47.42744" lon="6.79804">
        <ele>494</ele>
        <time>2015-06-14T09:11:17.000Z</time>
      </trkpt>
      <trkpt lat="47.42741" lon="6.79804">
        <ele>494</ele>
        <time>2015-06-14T09:11:18.000Z</time>
      </trkpt>
      <trkpt lat="47.42739" lon="6.79806">
        <ele>494</ele>
        <time>2015-06-14T09:11:19.000Z</time>
      </trkpt>
      <trkpt lat="47.42737" lon="6.79807">
        <ele>494</ele>
        <time>2015-06-14T09:11:20.000Z</time>
      </trkpt>
      <trkpt lat="47.42734" lon="6.79808">
        <ele>494</ele>
        <time>2015-06-14T09:11:21.000Z</time>
      </trkpt>
      <trkpt lat="47.42732" lon="6.79809">
        <ele>494</ele>
        <time>2015-06-14T09:11:22.000Z</time>
      </trkpt>
      <trkpt lat="47.42729" lon="6.7981">
        <ele>495</ele>
        <time>2015-06-14T09:11:23.000Z</time>
      </trkpt>
      <trkpt lat="47.42727" lon="6.7981">
        <ele>495</ele>
        <time>2015-06-14T09:11:24.000Z</time>
      </trkpt>
      <trkpt lat="47.42724" lon="6.7981">
        <ele>495</ele>
        <time>2015-06-14T09:11:24.999Z</time>
      </trkpt>
      <trkpt lat="47.42722" lon="6.79811">
        <ele>495</ele>
        <time>2015-06-14T09:11:26.000Z</time>
      </trkpt>
      <trkpt lat="47.42717" lon="6.79813">
        <ele>495</ele>
        <time>2015-06-14T09:11:28.000Z</time>
      </trkpt>
      <trkpt lat="47.42715" lon="6.79814">
        <ele>495</ele>
        <time>2015-06-14T09:11:29.000Z</time>
      </trkpt>
      <trkpt lat="47.42712" lon="6.79816">
        <ele>495</ele>
        <time>2015-06-14T09:11:31.000Z</time>
      </trkpt>
      <trkpt lat="47.4271" lon="6.79817">
        <ele>495</ele>
        <time>2015-06-14T09:11:32.000Z</time>
      </trkpt>
      <trkpt lat="47.42706" lon="6.79815">
        <ele>495</ele>
        <time>2015-06-14T09:11:35.000Z</time>
      </trkpt>
      <trkpt lat="47.42704" lon="6.79816">
        <ele>496</ele>
        <time>2015-06-14T09:11:36.000Z</time>
      </trkpt>
      <trkpt lat="47.42701" lon="6.79817">
        <ele>496</ele>
        <time>2015-06-14T09:11:37.000Z</time>
      </trkpt>
      <trkpt lat="47.42699" lon="6.79818">
        <ele>496</ele>
        <time>2015-06-14T09:11:38.000Z</time>
      </trkpt>
      <trkpt lat="47.42696" lon="6.79817">
        <ele>496</ele>
        <time>2015-06-14T09:11:40.000Z</time>
      </trkpt>
      <trkpt lat="47.42695" lon="6.79817">
        <ele>496</ele>
        <time>2015-06-14T09:11:41.001Z</time>
      </trkpt>
      <trkpt lat="47.42691" lon="6.79817">
        <ele>496</ele>
        <time>2015-06-14T09:11:43.001Z</time>
      </trkpt>
      <trkpt lat="47.42688" lon="6.79819">
        <ele>496</ele>
        <time>2015-06-14T09:11:44.000Z</time>
      </trkpt>
      <trkpt lat="47.42686" lon="6.79821">
        <ele>496</ele>
        <time>2015-06-14T09:11:45.000Z</time>
      </trkpt>
      <trkpt lat="47.42684" lon="6.79823">
        <ele>496</ele>
        <time>2015-06-14T09:11:46.000Z</time>
      </trkpt>
      <trkpt lat="47.42681" lon="6.79825">
        <ele>497</ele>
        <time>2015-06-14T09:11:48.000Z</time>
      </trkpt>
      <trkpt lat="47.4268" lon="6.79825">
        <ele>497</ele>
        <time>2015-06-14T09:11:49.000Z</time>
      </trkpt>
      <trkpt lat="47.42676" lon="6.79824">
        <ele>497</ele>
        <time>2015-06-14T09:11:51.000Z</time>
      </trkpt>
      <trkpt lat="47.42675" lon="6.79823">
        <ele>497</ele>
        <time>2015-06-14T09:11:52.000Z</time>
      </trkpt>
      <trkpt lat="47.42673" lon="6.79819">
        <ele>497</ele>
        <time>2015-06-14T09:11:55.000Z</time>
      </trkpt>
      <trkpt lat="47.42672" lon="6.79818">
        <ele>497</ele>
        <time>2015-06-14T09:11:56.000Z</time>
      </trkpt>
      <trkpt lat="47.42668" lon="6.79818">
        <ele>497</ele>
        <time>2015-06-14T09:11:59.000Z</time>
      </trkpt>
      <trkpt lat="47.42666" lon="6.79819">
        <ele>499</ele>
        <time>2015-06-14T09:12:00.000Z</time>
      </trkpt>
      <trkpt lat="47.42663" lon="6.7982">
        <ele>499</ele>
        <time>2015-06-14T09:12:02.000Z</time>
      </trkpt>
      <trkpt lat="47.42662" lon="6.7982">
        <ele>499</ele>
        <time>2015-06-14T09:12:03.000Z</time>
      </trkpt>
      <trkpt lat="47.42658" lon="6.7982">
        <ele>499</ele>
        <time>2015-06-14T09:12:08.000Z</time>
      </trkpt>
      <trkpt lat="47.42656" lon="6.79821">
        <ele>499</ele>
        <time>2015-06-14T09:12:09.000Z</time>
      </trkpt>
      <trkpt lat="47.42654" lon="6.79822">
        <ele>500</ele>
        <time>2015-06-14T09:12:10.000Z</time>
      </trkpt>
      <trkpt lat="47.42651" lon="6.79823">
        <ele>500</ele>
        <time>2015-06-14T09:12:11.000Z</time>
      </trkpt>
      <trkpt lat="47.42647" lon="6.79824">
        <ele>500</ele>
        <time>2015-06-14T09:12:13.000Z</time>
      </trkpt>
      <trkpt lat="47.42645" lon="6.79825">
        <ele>500</ele>
        <time>2015-06-14T09:12:14.000Z</time>
      </trkpt>
      <trkpt lat="47.42642" lon="6.79826">
        <ele>500</ele>
        <time>2015-06-14T09:12:16.000Z</time>
      </trkpt>
      <trkpt lat="47.4264" lon="6.79825">
        <ele>500</ele>
        <time>2015-06-14T09:12:17.000Z</time>
      </trkpt>
      <trkpt lat="47.42635" lon="6.79826">
        <ele>500</ele>
        <time>2015-06-14T09:12:19.000Z</time>
      </trkpt>
      <trkpt lat="47.42633" lon="6.79826">
        <ele>501</ele>
        <time>2015-06-14T09:12:20.000Z</time>
      </trkpt>
      <trkpt lat="47.42631" lon="6.79826">
        <ele>501</ele>
        <time>2015-06-14T09:12:21.000Z</time>
      </trkpt>
      <trkpt lat="47.42629" lon="6.79825">
        <ele>501</ele>
        <time>2015-06-14T09:12:22.000Z</time>
      </trkpt>
      <trkpt lat="47.42626" lon="6.79824">
        <ele>501</ele>
        <time>2015-06-14T09:12:23.000Z</time>
      </trkpt>
      <trkpt lat="47.42624" lon="6.79823">
        <ele>501</ele>
        <time>2015-06-14T09:12:24.000Z</time>
      </trkpt>
      <trkpt lat="47.42621" lon="6.79821">
        <ele>501</ele>
        <time>2015-06-14T09:12:26.000Z</time>
      </trkpt>
      <trkpt lat="47.4262" lon="6.7982">
        <ele>501</ele>
        <time>2015-06-14T09:12:27.000Z</time>
      </trkpt>
      <trkpt lat="47.42617" lon="6.79819">
        <ele>501</ele>
        <time>2015-06-14T09:12:29.000Z</time>
      </trkpt>
      <trkpt lat="47.42614" lon="6.79819">
        <ele>502</ele>
        <time>2015-06-14T09:12:30.000Z</time>
      </trkpt>
      <trkpt lat="47.42612" lon="6.79819">
        <ele>502</ele>
        <time>2015-06-14T09:12:31.000Z</time>
      </trkpt>
      <trkpt lat="47.42609" lon="6.79819">
        <ele>502</ele>
        <time>2015-06-14T09:12:32.000Z</time>
      </trkpt>
      <trkpt lat="47.42606" lon="6.79819">
        <ele>502</ele>
        <time>2015-06-14T09:12:33.000Z</time>
      </trkpt>
      <trkpt lat="47.42603" lon="6.7982">
        <ele>502</ele>
        <time>2015-06-14T09:12:34.000Z</time>
      </trkpt>
      <trkpt lat="47.42601" lon="6.79821">
        <ele>502</ele>
        <time>2015-06-14T09:12:35.000Z</time>
      </trkpt>
      <trkpt lat="47.42598" lon="6.79821">
        <ele>502</ele>
        <time>2015-06-14T09:12:36.000Z</time>
      </trkpt>
      <trkpt lat="47.42595" lon="6.79822">
        <ele>503</ele>
        <time>2015-06-14T09:12:37.000Z</time>
      </trkpt>
      <trkpt lat="47.42592" lon="6.79822">
        <ele>503</ele>
        <time>2015-06-14T09:12:38.000Z</time>
      </trkpt>
      <trkpt lat="47.42588" lon="6.79823">
        <ele>503</ele>
        <time>2015-06-14T09:12:39.000Z</time>
      </trkpt>
      <trkpt lat="47.42584" lon="6.79823">
        <ele>503</ele>
        <time>2015-06-14T09:12:40.000Z</time>
      </trkpt>
      <trkpt lat="47.42582" lon="6.79823">
        <ele>505</ele>
        <time>2015-06-14T09:12:41.000Z</time>
      </trkpt>
      <trkpt lat="47.42577" lon="6.79822">
        <ele>506</ele>
        <time>2015-06-14T09:12:42.000Z</time>
      </trkpt>
      <trkpt lat="47.42574" lon="6.79822">
        <ele>506</ele>
        <time>2015-06-14T09:12:43.000Z</time>
      </trkpt>
      <trkpt lat="47.42571" lon="6.79822">
        <ele>506</ele>
        <time>2015-06-14T09:12:44.001Z</time>
      </trkpt>
      <trkpt lat="47.42568" lon="6.79824">
        <ele>506</ele>
        <time>2015-06-14T09:12:45.001Z</time>
      </trkpt>
      <trkpt lat="47.42565" lon="6.79824">
        <ele>507</ele>
        <time>2015-06-14T09:12:46.001Z</time>
      </trkpt>
      <trkpt lat="47.42563" lon="6.79824">
        <ele>507</ele>
        <time>2015-06-14T09:12:47.000Z</time>
      </trkpt>
      <trkpt lat="47.42561" lon="6.79824">
        <ele>507</ele>
        <time>2015-06-14T09:12:48.000Z</time>
      </trkpt>
      <trkpt lat="47.42557" lon="6.79823">
        <ele>507</ele>
        <time>2015-06-14T09:12:50.001Z</time>
      </trkpt>
      <trkpt lat="47.42554" lon="6.79823">
        <ele>507</ele>
        <time>2015-06-14T09:12:50.999Z</time>
      </trkpt>
      <trkpt lat="47.42551" lon="6.79824">
        <ele>508</ele>
        <time>2015-06-14T09:12:52.000Z</time>
      </trkpt>
      <trkpt lat="47.42549" lon="6.79825">
        <ele>508</ele>
        <time>2015-06-14T09:12:53.000Z</time>
      </trkpt>
      <trkpt lat="47.42547" lon="6.79826">
        <ele>508</ele>
        <time>2015-06-14T09:12:53.999Z</time>
      </trkpt>
      <trkpt lat="47.42544" lon="6.79828">
        <ele>508</ele>
        <time>2015-06-14T09:12:55.000Z</time>
      </trkpt>
      <trkpt lat="47.42541" lon="6.79828">
        <ele>508</ele>
        <time>2015-06-14T09:12:56.000Z</time>
      </trkpt>
      <trkpt lat="47.42538" lon="6.79829">
        <ele>509</ele>
        <time>2015-06-14T09:12:56.999Z</time>
      </trkpt>
      <trkpt lat="47.42533" lon="6.79828">
        <ele>509</ele>
        <time>2015-06-14T09:12:58.000Z</time>
      </trkpt>
      <trkpt lat="47.42529" lon="6.79828">
        <ele>509</ele>
        <time>2015-06-14T09:12:59.000Z</time>
      </trkpt>
      <trkpt lat="47.42526" lon="6.79827">
        <ele>509</ele>
        <time>2015-06-14T09:13:00.000Z</time>
      </trkpt>
      <trkpt lat="47.42523" lon="6.79827">
        <ele>510</ele>
        <time>2015-06-14T09:13:01.000Z</time>
      </trkpt>
      <trkpt lat="47.4252" lon="6.79828">
        <ele>510</ele>
        <time>2015-06-14T09:13:02.000Z</time>
      </trkpt>
      <trkpt lat="47.42517" lon="6.79828">
        <ele>510</ele>
        <time>2015-06-14T09:13:03.000Z</time>
      </trkpt>
      <trkpt lat="47.42515" lon="6.7983">
        <ele>510</ele>
        <time>2015-06-14T09:13:04.000Z</time>
      </trkpt>
      <trkpt lat="47.42513" lon="6.79831">
        <ele>511</ele>
        <time>2015-06-14T09:13:05.000Z</time>
      </trkpt>
      <trkpt lat="47.4251" lon="6.79834">
        <ele>510</ele>
        <time>2015-06-14T09:13:06.000Z</time>
      </trkpt>
      <trkpt lat="47.42508" lon="6.79836">
        <ele>511</ele>
        <time>2015-06-14T09:13:07.000Z</time>
      </trkpt>
      <trkpt lat="47.42505" lon="6.79838">
        <ele>511</ele>
        <time>2015-06-14T09:13:08.000Z</time>
      </trkpt>
      <trkpt lat="47.42503" lon="6.79839">
        <ele>511</ele>
        <time>2015-06-14T09:13:09.000Z</time>
      </trkpt>
      <trkpt lat="47.425" lon="6.79839">
        <ele>511</ele>
        <time>2015-06-14T09:13:10.000Z</time>
      </trkpt>
      <trkpt lat="47.42498" lon="6.7984">
        <ele>512</ele>
        <time>2015-06-14T09:13:11.000Z</time>
      </trkpt>
      <trkpt lat="47.42496" lon="6.7984">
        <ele>512</ele>
        <time>2015-06-14T09:13:12.000Z</time>
      </trkpt>
      <trkpt lat="47.42494" lon="6.7984">
        <ele>513</ele>
        <time>2015-06-14T09:13:12.999Z</time>
      </trkpt>
      <trkpt lat="47.42491" lon="6.79842">
        <ele>513</ele>
        <time>2015-06-14T09:13:14.000Z</time>
      </trkpt>
      <trkpt lat="47.42488" lon="6.79843">
        <ele>513</ele>
        <time>2015-06-14T09:13:15.000Z</time>
      </trkpt>
      <trkpt lat="47.42485" lon="6.79844">
        <ele>513</ele>
        <time>2015-06-14T09:13:16.000Z</time>
      </trkpt>
      <trkpt lat="47.42482" lon="6.79844">
        <ele>513</ele>
        <time>2015-06-14T09:13:17.000Z</time>
      </trkpt>
      <trkpt lat="47.42479" lon="6.79844">
        <ele>513</ele>
        <time>2015-06-14T09:13:18.000Z</time>
      </trkpt>
      <trkpt lat="47.42476" lon="6.79844">
        <ele>513</ele>
        <time>2015-06-14T09:13:19.000Z</time>
      </trkpt>
      <trkpt lat="47.42473" lon="6.79844">
        <ele>513</ele>
        <time>2015-06-14T09:13:20.000Z</time>
      </trkpt>
      <trkpt lat="47.42471" lon="6.79845">
        <ele>514</ele>
        <time>2015-06-14T09:13:21.000Z</time>
      </trkpt>
      <trkpt lat="47.42468" lon="6.79845">
        <ele>514</ele>
        <time>2015-06-14T09:13:22.001Z</time>
      </trkpt>
      <trkpt lat="47.42466" lon="6.79844">
        <ele>514</ele>
        <time>2015-06-14T09:13:23.000Z</time>
      </trkpt>
      <trkpt lat="47.42463" lon="6.79843">
        <ele>514</ele>
        <time>2015-06-14T09:13:24.000Z</time>
      </trkpt>
      <trkpt lat="47.42461" lon="6.79842">
        <ele>514</ele>
        <time>2015-06-14T09:13:25.000Z</time>
      </trkpt>
      <trkpt lat="47.42458" lon="6.79842">
        <ele>514</ele>
        <time>2015-06-14T09:13:26.000Z</time>
      </trkpt>
      <trkpt lat="47.42456" lon="6.79841">
        <ele>514</ele>
        <time>2015-06-14T09:13:27.001Z</time>
      </trkpt>
      <trkpt lat="47.42453" lon="6.7984">
        <ele>514</ele>
        <time>2015-06-14T09:13:28.000Z</time>
      </trkpt>
      <trkpt lat="47.4245" lon="6.79839">
        <ele>514</ele>
        <time>2015-06-14T09:13:29.000Z</time>
      </trkpt>
      <trkpt lat="47.42447" lon="6.79839">
        <ele>514</ele>
        <time>2015-06-14T09:13:30.000Z</time>
      </trkpt>
      <trkpt lat="47.42444" lon="6.79839">
        <ele>515</ele>
        <time>2015-06-14T09:13:31.000Z</time>
      </trkpt>
      <trkpt lat="47.42441" lon="6.79838">
        <ele>515</ele>
        <time>2015-06-14T09:13:32.000Z</time>
      </trkpt>
      <trkpt lat="47.42437" lon="6.79835">
        <ele>515</ele>
        <time>2015-06-14T09:13:33.000Z</time>
      </trkpt>
      <trkpt lat="47.42433" lon="6.79834">
        <ele>515</ele>
        <time>2015-06-14T09:13:34.000Z</time>
      </trkpt>
      <trkpt lat="47.4243" lon="6.79835">
        <ele>515</ele>
        <time>2015-06-14T09:13:35.000Z</time>
      </trkpt>
      <trkpt lat="47.42428" lon="6.79836">
        <ele>515</ele>
        <time>2015-06-14T09:13:36.000Z</time>
      </trkpt>
      <trkpt lat="47.42425" lon="6.79836">
        <ele>515</ele>
        <time>2015-06-14T09:13:37.000Z</time>
      </trkpt>
      <trkpt lat="47.42422" lon="6.79836">
        <ele>516</ele>
        <time>2015-06-14T09:13:38.000Z</time>
      </trkpt>
      <trkpt lat="47.42419" lon="6.79837">
        <ele>516</ele>
        <time>2015-06-14T09:13:39.000Z</time>
      </trkpt>
      <trkpt lat="47.42415" lon="6.79838">
        <ele>517</ele>
        <time>2015-06-14T09:13:40.000Z</time>
      </trkpt>
      <trkpt lat="47.42412" lon="6.7984">
        <ele>517</ele>
        <time>2015-06-14T09:13:41.000Z</time>
      </trkpt>
      <trkpt lat="47.42408" lon="6.79843">
        <ele>518</ele>
        <time>2015-06-14T09:13:42.000Z</time>
      </trkpt>
      <trkpt lat="47.42405" lon="6.79844">
        <ele>518</ele>
        <time>2015-06-14T09:13:43.000Z</time>
      </trkpt>
      <trkpt lat="47.42402" lon="6.79845">
        <ele>518</ele>
        <time>2015-06-14T09:13:44.000Z</time>
      </trkpt>
      <trkpt lat="47.42399" lon="6.79847">
        <ele>519</ele>
        <time>2015-06-14T09:13:45.000Z</time>
      </trkpt>
      <trkpt lat="47.42396" lon="6.79849">
        <ele>519</ele>
        <time>2015-06-14T09:13:46.000Z</time>
      </trkpt>
      <trkpt lat="47.42394" lon="6.79852">
        <ele>519</ele>
        <time>2015-06-14T09:13:47.000Z</time>
      </trkpt>
      <trkpt lat="47.42392" lon="6.79854">
        <ele>519</ele>
        <time>2015-06-14T09:13:48.000Z</time>
      </trkpt>
      <trkpt lat="47.42389" lon="6.79856">
        <ele>519</ele>
        <time>2015-06-14T09:13:48.999Z</time>
      </trkpt>
      <trkpt lat="47.42386" lon="6.79858">
        <ele>520</ele>
        <time>2015-06-14T09:13:50.000Z</time>
      </trkpt>
      <trkpt lat="47.42383" lon="6.79861">
        <ele>520</ele>
        <time>2015-06-14T09:13:51.000Z</time>
      </trkpt>
      <trkpt lat="47.42381" lon="6.79864">
        <ele>520</ele>
        <time>2015-06-14T09:13:52.000Z</time>
      </trkpt>
      <trkpt lat="47.42378" lon="6.79867">
        <ele>520</ele>
        <time>2015-06-14T09:13:53.000Z</time>
      </trkpt>
      <trkpt lat="47.42376" lon="6.7987">
        <ele>520</ele>
        <time>2015-06-14T09:13:54.000Z</time>
      </trkpt>
      <trkpt lat="47.42374" lon="6.79873">
        <ele>520</ele>
        <time>2015-06-14T09:13:55.000Z</time>
      </trkpt>
      <trkpt lat="47.42372" lon="6.79876">
        <ele>520</ele>
        <time>2015-06-14T09:13:55.999Z</time>
      </trkpt>
      <trkpt lat="47.4237" lon="6.79881">
        <ele>521</ele>
        <time>2015-06-14T09:13:57.000Z</time>
      </trkpt>
      <trkpt lat="47.42368" lon="6.79885">
        <ele>521</ele>
        <time>2015-06-14T09:13:58.000Z</time>
      </trkpt>
      <trkpt lat="47.42366" lon="6.79889">
        <ele>521</ele>
        <time>2015-06-14T09:13:59.000Z</time>
      </trkpt>
      <trkpt lat="47.42363" lon="6.79893">
        <ele>521</ele>
        <time>2015-06-14T09:14:00.000Z</time>
      </trkpt>
      <trkpt lat="47.42361" lon="6.79895">
        <ele>521</ele>
        <time>2015-06-14T09:14:01.000Z</time>
      </trkpt>
      <trkpt lat="47.42359" lon="6.79897">
        <ele>521</ele>
        <time>2015-06-14T09:14:02.000Z</time>
      </trkpt>
      <trkpt lat="47.42357" lon="6.79898">
        <ele>521</ele>
        <time>2015-06-14T09:14:03.000Z</time>
      </trkpt>
      <trkpt lat="47.42352" lon="6.79898">
        <ele>522</ele>
        <time>2015-06-14T09:14:05.000Z</time>
      </trkpt>
      <trkpt lat="47.4235" lon="6.79898">
        <ele>522</ele>
        <time>2015-06-14T09:14:06.000Z</time>
      </trkpt>
      <trkpt lat="47.42347" lon="6.79898">
        <ele>522</ele>
        <time>2015-06-14T09:14:07.001Z</time>
      </trkpt>
      <trkpt lat="47.42345" lon="6.799">
        <ele>522</ele>
        <time>2015-06-14T09:14:08.000Z</time>
      </trkpt>
      <trkpt lat="47.42343" lon="6.79901">
        <ele>522</ele>
        <time>2015-06-14T09:14:09.000Z</time>
      </trkpt>
      <trkpt lat="47.4234" lon="6.79903">
        <ele>522</ele>
        <time>2015-06-14T09:14:10.000Z</time>
      </trkpt>
      <trkpt lat="47.42338" lon="6.79904">
        <ele>522</ele>
        <time>2015-06-14T09:14:11.000Z</time>
      </trkpt>
      <trkpt lat="47.42337" lon="6.79907">
        <ele>523</ele>
        <time>2015-06-14T09:14:12.000Z</time>
      </trkpt>
      <trkpt lat="47.42334" lon="6.79912">
        <ele>523</ele>
        <time>2015-06-14T09:14:14.000Z</time>
      </trkpt>
      <trkpt lat="47.42332" lon="6.79915">
        <ele>524</ele>
        <time>2015-06-14T09:14:15.000Z</time>
      </trkpt>
      <trkpt lat="47.42331" lon="6.79918">
        <ele>524</ele>
        <time>2015-06-14T09:14:16.000Z</time>
      </trkpt>
      <trkpt lat="47.42329" lon="6.79921">
        <ele>524</ele>
        <time>2015-06-14T09:14:17.000Z</time>
      </trkpt>
      <trkpt lat="47.42327" lon="6.79923">
        <ele>524</ele>
        <time>2015-06-14T09:14:18.000Z</time>
      </trkpt>
      <trkpt lat="47.42324" lon="6.79929">
        <ele>524</ele>
        <time>2015-06-14T09:14:19.000Z</time>
      </trkpt>
      <trkpt lat="47.42322" lon="6.79932">
        <ele>524</ele>
        <time>2015-06-14T09:14:20.000Z</time>
      </trkpt>
      <trkpt lat="47.42319" lon="6.79935">
        <ele>524</ele>
        <time>2015-06-14T09:14:21.000Z</time>
      </trkpt>
      <trkpt lat="47.42317" lon="6.79937">
        <ele>525</ele>
        <time>2015-06-14T09:14:22.000Z</time>
      </trkpt>
      <trkpt lat="47.42315" lon="6.7994">
        <ele>525</ele>
        <time>2015-06-14T09:14:23.000Z</time>
      </trkpt>
      <trkpt lat="47.42312" lon="6.79943">
        <ele>525</ele>
        <time>2015-06-14T09:14:24.000Z</time>
      </trkpt>
      <trkpt lat="47.4231" lon="6.79946">
        <ele>525</ele>
        <time>2015-06-14T09:14:25.000Z</time>
      </trkpt>
      <trkpt lat="47.42307" lon="6.7995">
        <ele>525</ele>
        <time>2015-06-14T09:14:26.000Z</time>
      </trkpt>
      <trkpt lat="47.42304" lon="6.79953">
        <ele>525</ele>
        <time>2015-06-14T09:14:27.000Z</time>
      </trkpt>
      <trkpt lat="47.42301" lon="6.79957">
        <ele>525</ele>
        <time>2015-06-14T09:14:28.000Z</time>
      </trkpt>
      <trkpt lat="47.42297" lon="6.79961">
        <ele>525</ele>
        <time>2015-06-14T09:14:29.000Z</time>
      </trkpt>
      <trkpt lat="47.42294" lon="6.79965">
        <ele>525</ele>
        <time>2015-06-14T09:14:30.000Z</time>
      </trkpt>
      <trkpt lat="47.4229" lon="6.79968">
        <ele>525</ele>
        <time>2015-06-14T09:14:31.000Z</time>
      </trkpt>
      <trkpt lat="47.42287" lon="6.79972">
        <ele>525</ele>
        <time>2015-06-14T09:14:32.000Z</time>
      </trkpt>
      <trkpt lat="47.42284" lon="6.79975">
        <ele>525</ele>
        <time>2015-06-14T09:14:33.000Z</time>
      </trkpt>
      <trkpt lat="47.4228" lon="6.79979">
        <ele>525</ele>
        <time>2015-06-14T09:14:34.000Z</time>
      </trkpt>
      <trkpt lat="47.42277" lon="6.79982">
        <ele>526</ele>
        <time>2015-06-14T09:14:35.000Z</time>
      </trkpt>
      <trkpt lat="47.42274" lon="6.79985">
        <ele>526</ele>
        <time>2015-06-14T09:14:36.000Z</time>
      </trkpt>
      <trkpt lat="47.4227" lon="6.79988">
        <ele>526</ele>
        <time>2015-06-14T09:14:37.000Z</time>
      </trkpt>
      <trkpt lat="47.42267" lon="6.79992">
        <ele>526</ele>
        <time>2015-06-14T09:14:38.000Z</time>
      </trkpt>
      <trkpt lat="47.42264" lon="6.79995">
        <ele>527</ele>
        <time>2015-06-14T09:14:39.000Z</time>
      </trkpt>
      <trkpt lat="47.42261" lon="6.79999">
        <ele>527</ele>
        <time>2015-06-14T09:14:40.000Z</time>
      </trkpt>
      <trkpt lat="47.42258" lon="6.80003">
        <ele>527</ele>
        <time>2015-06-14T09:14:41.000Z</time>
      </trkpt>
      <trkpt lat="47.42255" lon="6.80007">
        <ele>527</ele>
        <time>2015-06-14T09:14:42.000Z</time>
      </trkpt>
      <trkpt lat="47.42252" lon="6.80011">
        <ele>527</ele>
        <time>2015-06-14T09:14:43.000Z</time>
      </trkpt>
      <trkpt lat="47.42249" lon="6.80015">
        <ele>529</ele>
        <time>2015-06-14T09:14:44.000Z</time>
      </trkpt>
      <trkpt lat="47.42246" lon="6.80019">
        <ele>529</ele>
        <time>2015-06-14T09:14:45.000Z</time>
      </trkpt>
      <trkpt lat="47.42243" lon="6.80022">
        <ele>530</ele>
        <time>2015-06-14T09:14:46.000Z</time>
      </trkpt>
      <trkpt lat="47.4224" lon="6.80025">
        <ele>530</ele>
        <time>2015-06-14T09:14:47.000Z</time>
      </trkpt>
      <trkpt lat="47.42237" lon="6.80028">
        <ele>530</ele>
        <time>2015-06-14T09:14:48.000Z</time>
      </trkpt>
      <trkpt lat="47.42234" lon="6.80031">
        <ele>530</ele>
        <time>2015-06-14T09:14:49.000Z</time>
      </trkpt>
      <trkpt lat="47.4223" lon="6.80034">
        <ele>530</ele>
        <time>2015-06-14T09:14:50.000Z</time>
      </trkpt>
      <trkpt lat="47.42227" lon="6.80036">
        <ele>530</ele>
        <time>2015-06-14T09:14:51.000Z</time>
      </trkpt>
      <trkpt lat="47.42224" lon="6.80039">
        <ele>531</ele>
        <time>2015-06-14T09:14:52.000Z</time>
      </trkpt>
      <trkpt lat="47.42221" lon="6.80042">
        <ele>531</ele>
        <time>2015-06-14T09:14:53.000Z</time>
      </trkpt>
      <trkpt lat="47.42217" lon="6.80046">
        <ele>531</ele>
        <time>2015-06-14T09:14:54.000Z</time>
      </trkpt>
      <trkpt lat="47.42213" lon="6.80049">
        <ele>531</ele>
        <time>2015-06-14T09:14:55.000Z</time>
      </trkpt>
      <trkpt lat="47.4221" lon="6.80052">
        <ele>531</ele>
        <time>2015-06-14T09:14:56.000Z</time>
      </trkpt>
      <trkpt lat="47.42206" lon="6.80055">
        <ele>531</ele>
        <time>2015-06-14T09:14:57.000Z</time>
      </trkpt>
      <trkpt lat="47.42198" lon="6.80063">
        <ele>532</ele>
        <time>2015-06-14T09:14:58.000Z</time>
      </trkpt>
      <trkpt lat="47.42197" lon="6.80067">
        <ele>532</ele>
        <time>2015-06-14T09:14:59.000Z</time>
      </trkpt>
      <trkpt lat="47.42195" lon="6.8007">
        <ele>532</ele>
        <time>2015-06-14T09:15:00.000Z</time>
      </trkpt>
      <trkpt lat="47.42193" lon="6.80073">
        <ele>532</ele>
        <time>2015-06-14T09:15:01.000Z</time>
      </trkpt>
      <trkpt lat="47.42189" lon="6.80074">
        <ele>532</ele>
        <time>2015-06-14T09:15:02.000Z</time>
      </trkpt>
      <trkpt lat="47.42186" lon="6.80078">
        <ele>533</ele>
        <time>2015-06-14T09:15:03.000Z</time>
      </trkpt>
      <trkpt lat="47.42183" lon="6.80081">
        <ele>533</ele>
        <time>2015-06-14T09:15:04.000Z</time>
      </trkpt>
      <trkpt lat="47.4218" lon="6.80083">
        <ele>533</ele>
        <time>2015-06-14T09:15:05.000Z</time>
      </trkpt>
      <trkpt lat="47.42176" lon="6.80085">
        <ele>534</ele>
        <time>2015-06-14T09:15:06.000Z</time>
      </trkpt>
      <trkpt lat="47.42172" lon="6.80089">
        <ele>534</ele>
        <time>2015-06-14T09:15:07.000Z</time>
      </trkpt>
      <trkpt lat="47.42169" lon="6.80092">
        <ele>534</ele>
        <time>2015-06-14T09:15:08.000Z</time>
      </trkpt>
      <trkpt lat="47.42166" lon="6.80094">
        <ele>534</ele>
        <time>2015-06-14T09:15:09.000Z</time>
      </trkpt>
      <trkpt lat="47.42163" lon="6.80096">
        <ele>533</ele>
        <time>2015-06-14T09:15:10.000Z</time>
      </trkpt>
      <trkpt lat="47.4216" lon="6.80098">
        <ele>533</ele>
        <time>2015-06-14T09:15:11.000Z</time>
      </trkpt>
      <trkpt lat="47.42157" lon="6.801">
        <ele>533</ele>
        <time>2015-06-14T09:15:12.000Z</time>
      </trkpt>
      <trkpt lat="47.42155" lon="6.80102">
        <ele>533</ele>
        <time>2015-06-14T09:15:13.000Z</time>
      </trkpt>
      <trkpt lat="47.42152" lon="6.80105">
        <ele>533</ele>
        <time>2015-06-14T09:15:14.000Z</time>
      </trkpt>
      <trkpt lat="47.42149" lon="6.80108">
        <ele>532</ele>
        <time>2015-06-14T09:15:15.000Z</time>
      </trkpt>
      <trkpt lat="47.42146" lon="6.80111">
        <ele>532</ele>
        <time>2015-06-14T09:15:16.000Z</time>
      </trkpt>
      <trkpt lat="47.42143" lon="6.80114">
        <ele>532</ele>
        <time>2015-06-14T09:15:17.000Z</time>
      </trkpt>
      <trkpt lat="47.4214" lon="6.80116">
        <ele>532</ele>
        <time>2015-06-14T09:15:18.000Z</time>
      </trkpt>
      <trkpt lat="47.42137" lon="6.80119">
        <ele>532</ele>
        <time>2015-06-14T09:15:19.000Z</time>
      </trkpt>
      <trkpt lat="47.42134" lon="6.80122">
        <ele>532</ele>
        <time>2015-06-14T09:15:20.000Z</time>
      </trkpt>
      <trkpt lat="47.42131" lon="6.80125">
        <ele>531</ele>
        <time>2015-06-14T09:15:21.000Z</time>
      </trkpt>
      <trkpt lat="47.42127" lon="6.80128">
        <ele>531</ele>
        <time>2015-06-14T09:15:22.000Z</time>
      </trkpt>
      <trkpt lat="47.42122" lon="6.80131">
        <ele>531</ele>
        <time>2015-06-14T09:15:23.000Z</time>
      </trkpt>
      <trkpt lat="47.42118" lon="6.80135">
        <ele>531</ele>
        <time>2015-06-14T09:15:24.000Z</time>
      </trkpt>
      <trkpt lat="47.42113" lon="6.80139">
        <ele>531</ele>
        <time>2015-06-14T09:15:25.000Z</time>
      </trkpt>
      <trkpt lat="47.42109" lon="6.80143">
        <ele>531</ele>
        <time>2015-06-14T09:15:26.000Z</time>
      </trkpt>
      <trkpt lat="47.42105" lon="6.80148">
        <ele>531</ele>
        <time>2015-06-14T09:15:27.000Z</time>
      </trkpt>
      <trkpt lat="47.42101" lon="6.80151">
        <ele>530</ele>
        <time>2015-06-14T09:15:28.000Z</time>
      </trkpt>
      <trkpt lat="47.42097" lon="6.80154">
        <ele>530</ele>
        <time>2015-06-14T09:15:29.000Z</time>
      </trkpt>
      <trkpt lat="47.42094" lon="6.80157">
        <ele>530</ele>
        <time>2015-06-14T09:15:30.000Z</time>
      </trkpt>
      <trkpt lat="47.42091" lon="6.80159">
        <ele>530</ele>
        <time>2015-06-14T09:15:31.000Z</time>
      </trkpt>
      <trkpt lat="47.42089" lon="6.80162">
        <ele>530</ele>
        <time>2015-06-14T09:15:32.000Z</time>
      </trkpt>
      <trkpt lat="47.4209" lon="6.80168">
        <ele>529</ele>
        <time>2015-06-14T09:16:55.000Z</time>
      </trkpt>
      <trkpt lat="47.4209" lon="6.80169">
        <ele>529</ele>
        <time>2015-06-14T09:16:56.000Z</time>
      </trkpt>
      <trkpt lat="47.4209" lon="6.80174">
        <ele>529</ele>
        <time>2015-06-14T09:17:14.000Z</time>
      </trkpt>
      <trkpt lat="47.4209" lon="6.80176">
        <ele>529</ele>
        <time>2015-06-14T09:17:15.000Z</time>
      </trkpt>
      <trkpt lat="47.42091" lon="6.8018">
        <ele>529</ele>
        <time>2015-06-14T09:17:16.000Z</time>
      </trkpt>
      <trkpt lat="47.42092" lon="6.80185">
        <ele>529</ele>
        <time>2015-06-14T09:17:17.000Z</time>
      </trkpt>
      <trkpt lat="47.42094" lon="6.8019">
        <ele>529</ele>
        <time>2015-06-14T09:17:18.000Z</time>
      </trkpt>
      <trkpt lat="47.42096" lon="6.80196">
        <ele>529</ele>
        <time>2015-06-14T09:17:19.000Z</time>
      </trkpt>
      <trkpt lat="47.42099" lon="6.80201">
        <ele>529</ele>
        <time>2015-06-14T09:17:20.000Z</time>
      </trkpt>
      <trkpt lat="47.42101" lon="6.80207">
        <ele>529</ele>
        <time>2015-06-14T09:17:21.000Z</time>
      </trkpt>
      <trkpt lat="47.42104" lon="6.80213">
        <ele>529</ele>
        <time>2015-06-14T09:17:22.000Z</time>
      </trkpt>
      <trkpt lat="47.42106" lon="6.8022">
        <ele>528</ele>
        <time>2015-06-14T09:17:23.000Z</time>
      </trkpt>
      <trkpt lat="47.42109" lon="6.80226">
        <ele>528</ele>
        <time>2015-06-14T09:17:24.000Z</time>
      </trkpt>
      <trkpt lat="47.42112" lon="6.80232">
        <ele>528</ele>
        <time>2015-06-14T09:17:25.000Z</time>
      </trkpt>
      <trkpt lat="47.42118" lon="6.80242">
        <ele>528</ele>
        <time>2015-06-14T09:17:26.000Z</time>
      </trkpt>
      <trkpt lat="47.42122" lon="6.80249">
        <ele>528</ele>
        <time>2015-06-14T09:17:27.000Z</time>
      </trkpt>
      <trkpt lat="47.42126" lon="6.80256">
        <ele>526</ele>
        <time>2015-06-14T09:17:28.000Z</time>
      </trkpt>
      <trkpt lat="47.42128" lon="6.80264">
        <ele>526</ele>
        <time>2015-06-14T09:17:29.000Z</time>
      </trkpt>
      <trkpt lat="47.42132" lon="6.80271">
        <ele>526</ele>
        <time>2015-06-14T09:17:30.000Z</time>
      </trkpt>
      <trkpt lat="47.42136" lon="6.80277">
        <ele>525</ele>
        <time>2015-06-14T09:17:31.000Z</time>
      </trkpt>
      <trkpt lat="47.4214" lon="6.80284">
        <ele>525</ele>
        <time>2015-06-14T09:17:32.000Z</time>
      </trkpt>
      <trkpt lat="47.42144" lon="6.80289">
        <ele>525</ele>
        <time>2015-06-14T09:17:33.000Z</time>
      </trkpt>
      <trkpt lat="47.42147" lon="6.80294">
        <ele>525</ele>
        <time>2015-06-14T09:17:34.000Z</time>
      </trkpt>
      <trkpt lat="47.42151" lon="6.80302">
        <ele>525</ele>
        <time>2015-06-14T09:17:35.000Z</time>
      </trkpt>
      <trkpt lat="47.42154" lon="6.8031">
        <ele>524</ele>
        <time>2015-06-14T09:17:36.000Z</time>
      </trkpt>
      <trkpt lat="47.42159" lon="6.80317">
        <ele>524</ele>
        <time>2015-06-14T09:17:37.000Z</time>
      </trkpt>
      <trkpt lat="47.42165" lon="6.80324">
        <ele>524</ele>
        <time>2015-06-14T09:17:38.000Z</time>
      </trkpt>
      <trkpt lat="47.42169" lon="6.80331">
        <ele>523</ele>
        <time>2015-06-14T09:17:39.000Z</time>
      </trkpt>
      <trkpt lat="47.42174" lon="6.80342">
        <ele>522</ele>
        <time>2015-06-14T09:17:40.000Z</time>
      </trkpt>
      <trkpt lat="47.42177" lon="6.80352">
        <ele>522</ele>
        <time>2015-06-14T09:17:41.000Z</time>
      </trkpt>
      <trkpt lat="47.42183" lon="6.80362">
        <ele>521</ele>
        <time>2015-06-14T09:17:42.000Z</time>
      </trkpt>
      <trkpt lat="47.42188" lon="6.8037">
        <ele>521</ele>
        <time>2015-06-14T09:17:43.000Z</time>
      </trkpt>
      <trkpt lat="47.42193" lon="6.80377">
        <ele>521</ele>
        <time>2015-06-14T09:17:44.000Z</time>
      </trkpt>
      <trkpt lat="47.42198" lon="6.80385">
        <ele>520</ele>
        <time>2015-06-14T09:17:45.000Z</time>
      </trkpt>
      <trkpt lat="47.42203" lon="6.80394">
        <ele>520</ele>
        <time>2015-06-14T09:17:46.000Z</time>
      </trkpt>
      <trkpt lat="47.42206" lon="6.80403">
        <ele>520</ele>
        <time>2015-06-14T09:17:47.000Z</time>
      </trkpt>
      <trkpt lat="47.42212" lon="6.80414">
        <ele>520</ele>
        <time>2015-06-14T09:17:48.000Z</time>
      </trkpt>
      <trkpt lat="47.42218" lon="6.80424">
        <ele>516</ele>
        <time>2015-06-14T09:17:49.000Z</time>
      </trkpt>
      <trkpt lat="47.42224" lon="6.80434">
        <ele>515</ele>
        <time>2015-06-14T09:17:50.000Z</time>
      </trkpt>
      <trkpt lat="47.42233" lon="6.80445">
        <ele>515</ele>
        <time>2015-06-14T09:17:51.000Z</time>
      </trkpt>
      <trkpt lat="47.42239" lon="6.80456">
        <ele>514</ele>
        <time>2015-06-14T09:17:52.000Z</time>
      </trkpt>
      <trkpt lat="47.42245" lon="6.80468">
        <ele>513</ele>
        <time>2015-06-14T09:17:53.000Z</time>
      </trkpt>
      <trkpt lat="47.4225" lon="6.80478">
        <ele>512</ele>
        <time>2015-06-14T09:17:54.000Z</time>
      </trkpt>
      <trkpt lat="47.42257" lon="6.80489">
        <ele>512</ele>
        <time>2015-06-14T09:17:55.000Z</time>
      </trkpt>
      <trkpt lat="47.42263" lon="6.80499">
        <ele>512</ele>
        <time>2015-06-14T09:17:56.000Z</time>
      </trkpt>
      <trkpt lat="47.42269" lon="6.80509">
        <ele>508</ele>
        <time>2015-06-14T09:17:57.000Z</time>
      </trkpt>
      <trkpt lat="47.42277" lon="6.80519">
        <ele>508</ele>
        <time>2015-06-14T09:17:58.000Z</time>
      </trkpt>
      <trkpt lat="47.42282" lon="6.8053">
        <ele>507</ele>
        <time>2015-06-14T09:17:59.000Z</time>
      </trkpt>
      <trkpt lat="47.42286" lon="6.8054">
        <ele>507</ele>
        <time>2015-06-14T09:18:00.000Z</time>
      </trkpt>
      <trkpt lat="47.42292" lon="6.80548">
        <ele>506</ele>
        <time>2015-06-14T09:18:01.000Z</time>
      </trkpt>
      <trkpt lat="47.42295" lon="6.80555">
        <ele>506</ele>
        <time>2015-06-14T09:18:02.000Z</time>
      </trkpt>
      <trkpt lat="47.42298" lon="6.80562">
        <ele>506</ele>
        <time>2015-06-14T09:18:03.000Z</time>
      </trkpt>
      <trkpt lat="47.42303" lon="6.8057">
        <ele>506</ele>
        <time>2015-06-14T09:18:04.000Z</time>
      </trkpt>
      <trkpt lat="47.42308" lon="6.80579">
        <ele>506</ele>
        <time>2015-06-14T09:18:05.000Z</time>
      </trkpt>
      <trkpt lat="47.42313" lon="6.80588">
        <ele>502</ele>
        <time>2015-06-14T09:18:06.000Z</time>
      </trkpt>
      <trkpt lat="47.42319" lon="6.80596">
        <ele>502</ele>
        <time>2015-06-14T09:18:07.000Z</time>
      </trkpt>
      <trkpt lat="47.42323" lon="6.80606">
        <ele>501</ele>
        <time>2015-06-14T09:18:08.000Z</time>
      </trkpt>
      <trkpt lat="47.42327" lon="6.80615">
        <ele>500</ele>
        <time>2015-06-14T09:18:09.000Z</time>
      </trkpt>
      <trkpt lat="47.42333" lon="6.80625">
        <ele>500</ele>
        <time>2015-06-14T09:18:10.000Z</time>
      </trkpt>
      <trkpt lat="47.42338" lon="6.80632">
        <ele>504</ele>
        <time>2015-06-14T09:18:11.000Z</time>
      </trkpt>
      <trkpt lat="47.42343" lon="6.80642">
        <ele>503</ele>
        <time>2015-06-14T09:18:12.000Z</time>
      </trkpt>
      <trkpt lat="47.42347" lon="6.80651">
        <ele>502</ele>
        <time>2015-06-14T09:18:13.000Z</time>
      </trkpt>
      <trkpt lat="47.4235" lon="6.80659">
        <ele>502</ele>
        <time>2015-06-14T09:18:14.000Z</time>
      </trkpt>
      <trkpt lat="47.42352" lon="6.80664">
        <ele>502</ele>
        <time>2015-06-14T09:18:15.000Z</time>
      </trkpt>
      <trkpt lat="47.42354" lon="6.80666">
        <ele>502</ele>
        <time>2015-06-14T09:18:16.000Z</time>
      </trkpt>
      <trkpt lat="47.42357" lon="6.80667">
        <ele>501</ele>
        <time>2015-06-14T09:18:19.000Z</time>
      </trkpt>
      <trkpt lat="47.42359" lon="6.80668">
        <ele>501</ele>
        <time>2015-06-14T09:18:20.000Z</time>
      </trkpt>
      <trkpt lat="47.42361" lon="6.80672">
        <ele>501</ele>
        <time>2015-06-14T09:18:22.000Z</time>
      </trkpt>
      <trkpt lat="47.42362" lon="6.80672">
        <ele>501</ele>
        <time>2015-06-14T09:18:23.000Z</time>
      </trkpt>
      <trkpt lat="47.42365" lon="6.80674">
        <ele>501</ele>
        <time>2015-06-14T09:18:25.000Z</time>
      </trkpt>
      <trkpt lat="47.42367" lon="6.80675">
        <ele>501</ele>
        <time>2015-06-14T09:18:26.000Z</time>
      </trkpt>
      <trkpt lat="47.4237" lon="6.80677">
        <ele>501</ele>
        <time>2015-06-14T09:18:28.000Z</time>
      </trkpt>
      <trkpt lat="47.42372" lon="6.80678">
        <ele>501</ele>
        <time>2015-06-14T09:18:29.000Z</time>
      </trkpt>
      <trkpt lat="47.42376" lon="6.8068">
        <ele>502</ele>
        <time>2015-06-14T09:18:31.000Z</time>
      </trkpt>
      <trkpt lat="47.42378" lon="6.80682">
        <ele>502</ele>
        <time>2015-06-14T09:18:32.000Z</time>
      </trkpt>
      <trkpt lat="47.42381" lon="6.80685">
        <ele>502</ele>
        <time>2015-06-14T09:18:33.000Z</time>
      </trkpt>
      <trkpt lat="47.42384" lon="6.80688">
        <ele>502</ele>
        <time>2015-06-14T09:18:34.000Z</time>
      </trkpt>
      <trkpt lat="47.42387" lon="6.80692">
        <ele>502</ele>
        <time>2015-06-14T09:18:35.000Z</time>
      </trkpt>
      <trkpt lat="47.42389" lon="6.80697">
        <ele>502</ele>
        <time>2015-06-14T09:18:36.000Z</time>
      </trkpt>
      <trkpt lat="47.42392" lon="6.80702">
        <ele>502</ele>
        <time>2015-06-14T09:18:37.000Z</time>
      </trkpt>
      <trkpt lat="47.42395" lon="6.80707">
        <ele>502</ele>
        <time>2015-06-14T09:18:38.000Z</time>
      </trkpt>
      <trkpt lat="47.42398" lon="6.80712">
        <ele>502</ele>
        <time>2015-06-14T09:18:39.000Z</time>
      </trkpt>
      <trkpt lat="47.424" lon="6.80718">
        <ele>502</ele>
        <time>2015-06-14T09:18:40.000Z</time>
      </trkpt>
      <trkpt lat="47.42403" lon="6.80723">
        <ele>503</ele>
        <time>2015-06-14T09:18:41.000Z</time>
      </trkpt>
      <trkpt lat="47.42406" lon="6.80728">
        <ele>503</ele>
        <time>2015-06-14T09:18:42.000Z</time>
      </trkpt>
      <trkpt lat="47.4241" lon="6.80733">
        <ele>503</ele>
        <time>2015-06-14T09:18:43.000Z</time>
      </trkpt>
      <trkpt lat="47.42413" lon="6.80738">
        <ele>504</ele>
        <time>2015-06-14T09:18:44.000Z</time>
      </trkpt>
      <trkpt lat="47.42422" lon="6.80747">
        <ele>504</ele>
        <time>2015-06-14T09:18:45.000Z</time>
      </trkpt>
      <trkpt lat="47.42426" lon="6.80753">
        <ele>504</ele>
        <time>2015-06-14T09:18:46.000Z</time>
      </trkpt>
      <trkpt lat="47.42429" lon="6.80758">
        <ele>502</ele>
        <time>2015-06-14T09:18:47.000Z</time>
      </trkpt>
      <trkpt lat="47.42433" lon="6.80764">
        <ele>501</ele>
        <time>2015-06-14T09:18:48.000Z</time>
      </trkpt>
      <trkpt lat="47.42437" lon="6.8077">
        <ele>501</ele>
        <time>2015-06-14T09:18:49.000Z</time>
      </trkpt>
      <trkpt lat="47.42443" lon="6.80777">
        <ele>500</ele>
        <time>2015-06-14T09:18:50.000Z</time>
      </trkpt>
      <trkpt lat="47.42452" lon="6.80783">
        <ele>499</ele>
        <time>2015-06-14T09:18:51.000Z</time>
      </trkpt>
      <trkpt lat="47.42462" lon="6.80788">
        <ele>499</ele>
        <time>2015-06-14T09:18:52.000Z</time>
      </trkpt>
      <trkpt lat="47.42469" lon="6.80792">
        <ele>498</ele>
        <time>2015-06-14T09:18:53.000Z</time>
      </trkpt>
      <trkpt lat="47.42475" lon="6.80798">
        <ele>498</ele>
        <time>2015-06-14T09:18:54.000Z</time>
      </trkpt>
      <trkpt lat="47.42484" lon="6.80805">
        <ele>498</ele>
        <time>2015-06-14T09:18:55.000Z</time>
      </trkpt>
      <trkpt lat="47.42493" lon="6.80817">
        <ele>499</ele>
        <time>2015-06-14T09:18:56.000Z</time>
      </trkpt>
      <trkpt lat="47.42502" lon="6.80827">
        <ele>498</ele>
        <time>2015-06-14T09:18:57.000Z</time>
      </trkpt>
      <trkpt lat="47.42508" lon="6.80836">
        <ele>499</ele>
        <time>2015-06-14T09:18:58.000Z</time>
      </trkpt>
      <trkpt lat="47.42512" lon="6.80844">
        <ele>498</ele>
        <time>2015-06-14T09:18:59.000Z</time>
      </trkpt>
      <trkpt lat="47.42518" lon="6.80849">
        <ele>497</ele>
        <time>2015-06-14T09:19:00.000Z</time>
      </trkpt>
      <trkpt lat="47.42524" lon="6.80855">
        <ele>497</ele>
        <time>2015-06-14T09:19:01.000Z</time>
      </trkpt>
      <trkpt lat="47.42532" lon="6.80859">
        <ele>496</ele>
        <time>2015-06-14T09:19:02.000Z</time>
      </trkpt>
      <trkpt lat="47.4254" lon="6.80864">
        <ele>496</ele>
        <time>2015-06-14T09:19:03.000Z</time>
      </trkpt>
      <trkpt lat="47.42547" lon="6.80869">
        <ele>496</ele>
        <time>2015-06-14T09:19:04.000Z</time>
      </trkpt>
      <trkpt lat="47.42554" lon="6.80874">
        <ele>495</ele>
        <time>2015-06-14T09:19:05.000Z</time>
      </trkpt>
      <trkpt lat="47.42561" lon="6.8088">
        <ele>495</ele>
        <time>2015-06-14T09:19:06.000Z</time>
      </trkpt>
      <trkpt lat="47.42569" lon="6.80884">
        <ele>495</ele>
        <time>2015-06-14T09:19:07.000Z</time>
      </trkpt>
      <trkpt lat="47.42577" lon="6.80889">
        <ele>495</ele>
        <time>2015-06-14T09:19:08.000Z</time>
      </trkpt>
      <trkpt lat="47.42583" lon="6.80894">
        <ele>489</ele>
        <time>2015-06-14T09:19:09.000Z</time>
      </trkpt>
      <trkpt lat="47.42592" lon="6.80899">
        <ele>490</ele>
        <time>2015-06-14T09:19:10.000Z</time>
      </trkpt>
      <trkpt lat="47.426" lon="6.80905">
        <ele>490</ele>
        <time>2015-06-14T09:19:11.000Z</time>
      </trkpt>
      <trkpt lat="47.42607" lon="6.80911">
        <ele>489</ele>
        <time>2015-06-14T09:19:12.000Z</time>
      </trkpt>
      <trkpt lat="47.42612" lon="6.80918">
        <ele>489</ele>
        <time>2015-06-14T09:19:13.000Z</time>
      </trkpt>
      <trkpt lat="47.42619" lon="6.80922">
        <ele>488</ele>
        <time>2015-06-14T09:19:14.000Z</time>
      </trkpt>
      <trkpt lat="47.42623" lon="6.80925">
        <ele>488</ele>
        <time>2015-06-14T09:19:15.000Z</time>
      </trkpt>
      <trkpt lat="47.42624" lon="6.8093">
        <ele>487</ele>
        <time>2015-06-14T09:19:16.000Z</time>
      </trkpt>
      <trkpt lat="47.42624" lon="6.80936">
        <ele>487</ele>
        <time>2015-06-14T09:19:17.000Z</time>
      </trkpt>
      <trkpt lat="47.42626" lon="6.8094">
        <ele>487</ele>
        <time>2015-06-14T09:19:18.000Z</time>
      </trkpt>
      <trkpt lat="47.42628" lon="6.80943">
        <ele>487</ele>
        <time>2015-06-14T09:19:19.000Z</time>
      </trkpt>
      <trkpt lat="47.42631" lon="6.80944">
        <ele>487</ele>
        <time>2015-06-14T09:19:20.000Z</time>
      </trkpt>
      <trkpt lat="47.42635" lon="6.80949">
        <ele>487</ele>
        <time>2015-06-14T09:19:21.000Z</time>
      </trkpt>
      <trkpt lat="47.42639" lon="6.80952">
        <ele>486</ele>
        <time>2015-06-14T09:19:22.000Z</time>
      </trkpt>
      <trkpt lat="47.42643" lon="6.80955">
        <ele>486</ele>
        <time>2015-06-14T09:19:23.000Z</time>
      </trkpt>
      <trkpt lat="47.42647" lon="6.80956">
        <ele>486</ele>
        <time>2015-06-14T09:19:24.000Z</time>
      </trkpt>
      <trkpt lat="47.4265" lon="6.80957">
        <ele>486</ele>
        <time>2015-06-14T09:19:25.000Z</time>
      </trkpt>
      <trkpt lat="47.42653" lon="6.80958">
        <ele>486</ele>
        <time>2015-06-14T09:19:26.000Z</time>
      </trkpt>
      <trkpt lat="47.42655" lon="6.80959">
        <ele>486</ele>
        <time>2015-06-14T09:19:27.000Z</time>
      </trkpt>
      <trkpt lat="47.42658" lon="6.80961">
        <ele>486</ele>
        <time>2015-06-14T09:19:28.000Z</time>
      </trkpt>
      <trkpt lat="47.4266" lon="6.80963">
        <ele>486</ele>
        <time>2015-06-14T09:19:29.000Z</time>
      </trkpt>
      <trkpt lat="47.42662" lon="6.80965">
        <ele>485</ele>
        <time>2015-06-14T09:19:30.000Z</time>
      </trkpt>
      <trkpt lat="47.42664" lon="6.80968">
        <ele>485</ele>
        <time>2015-06-14T09:19:31.000Z</time>
      </trkpt>
      <trkpt lat="47.42666" lon="6.80969">
        <ele>485</ele>
        <time>2015-06-14T09:19:32.000Z</time>
      </trkpt>
      <trkpt lat="47.42669" lon="6.80971">
        <ele>483</ele>
        <time>2015-06-14T09:19:33.000Z</time>
      </trkpt>
      <trkpt lat="47.42671" lon="6.80972">
        <ele>483</ele>
        <time>2015-06-14T09:19:34.000Z</time>
      </trkpt>
      <trkpt lat="47.42674" lon="6.80973">
        <ele>483</ele>
        <time>2015-06-14T09:19:35.000Z</time>
      </trkpt>
      <trkpt lat="47.42677" lon="6.80975">
        <ele>483</ele>
        <time>2015-06-14T09:19:36.000Z</time>
      </trkpt>
      <trkpt lat="47.4268" lon="6.80978">
        <ele>483</ele>
        <time>2015-06-14T09:19:37.000Z</time>
      </trkpt>
      <trkpt lat="47.42682" lon="6.80982">
        <ele>483</ele>
        <time>2015-06-14T09:19:38.000Z</time>
      </trkpt>
      <trkpt lat="47.42685" lon="6.80986">
        <ele>483</ele>
        <time>2015-06-14T09:19:39.000Z</time>
      </trkpt>
      <trkpt lat="47.42688" lon="6.8099">
        <ele>483</ele>
        <time>2015-06-14T09:19:40.000Z</time>
      </trkpt>
      <trkpt lat="47.42691" lon="6.80994">
        <ele>483</ele>
        <time>2015-06-14T09:19:41.000Z</time>
      </trkpt>
      <trkpt lat="47.42695" lon="6.80999">
        <ele>483</ele>
        <time>2015-06-14T09:19:42.000Z</time>
      </trkpt>
      <trkpt lat="47.42699" lon="6.81004">
        <ele>480</ele>
        <time>2015-06-14T09:19:43.000Z</time>
      </trkpt>
      <trkpt lat="47.42703" lon="6.81009">
        <ele>480</ele>
        <time>2015-06-14T09:19:44.000Z</time>
      </trkpt>
      <trkpt lat="47.42707" lon="6.81015">
        <ele>479</ele>
        <time>2015-06-14T09:19:45.000Z</time>
      </trkpt>
      <trkpt lat="47.4271" lon="6.81019">
        <ele>479</ele>
        <time>2015-06-14T09:19:46.000Z</time>
      </trkpt>
      <trkpt lat="47.42713" lon="6.81023">
        <ele>479</ele>
        <time>2015-06-14T09:19:47.000Z</time>
      </trkpt>
      <trkpt lat="47.42716" lon="6.81027">
        <ele>479</ele>
        <time>2015-06-14T09:19:48.000Z</time>
      </trkpt>
      <trkpt lat="47.42718" lon="6.8103">
        <ele>479</ele>
        <time>2015-06-14T09:19:49.000Z</time>
      </trkpt>
      <trkpt lat="47.42721" lon="6.81033">
        <ele>479</ele>
        <time>2015-06-14T09:19:50.000Z</time>
      </trkpt>
      <trkpt lat="47.42724" lon="6.81036">
        <ele>478</ele>
        <time>2015-06-14T09:19:51.000Z</time>
      </trkpt>
      <trkpt lat="47.42727" lon="6.81039">
        <ele>478</ele>
        <time>2015-06-14T09:19:52.000Z</time>
      </trkpt>
      <trkpt lat="47.42729" lon="6.81042">
        <ele>478</ele>
        <time>2015-06-14T09:19:53.000Z</time>
      </trkpt>
      <trkpt lat="47.42732" lon="6.81045">
        <ele>478</ele>
        <time>2015-06-14T09:19:54.000Z</time>
      </trkpt>
      <trkpt lat="47.42735" lon="6.81048">
        <ele>478</ele>
        <time>2015-06-14T09:19:55.000Z</time>
      </trkpt>
      <trkpt lat="47.42738" lon="6.81051">
        <ele>477</ele>
        <time>2015-06-14T09:19:56.000Z</time>
      </trkpt>
      <trkpt lat="47.42741" lon="6.81055">
        <ele>477</ele>
        <time>2015-06-14T09:19:57.000Z</time>
      </trkpt>
      <trkpt lat="47.42744" lon="6.81059">
        <ele>477</ele>
        <time>2015-06-14T09:19:58.000Z</time>
      </trkpt>
      <trkpt lat="47.42748" lon="6.81063">
        <ele>476</ele>
        <time>2015-06-14T09:19:59.000Z</time>
      </trkpt>
      <trkpt lat="47.42752" lon="6.81068">
        <ele>477</ele>
        <time>2015-06-14T09:20:00.000Z</time>
      </trkpt>
      <trkpt lat="47.42756" lon="6.81073">
        <ele>476</ele>
        <time>2015-06-14T09:20:01.000Z</time>
      </trkpt>
      <trkpt lat="47.4276" lon="6.81078">
        <ele>476</ele>
        <time>2015-06-14T09:20:02.000Z</time>
      </trkpt>
      <trkpt lat="47.42765" lon="6.81085">
        <ele>473</ele>
        <time>2015-06-14T09:20:03.000Z</time>
      </trkpt>
      <trkpt lat="47.4277" lon="6.8109">
        <ele>473</ele>
        <time>2015-06-14T09:20:04.000Z</time>
      </trkpt>
      <trkpt lat="47.42775" lon="6.81095">
        <ele>472</ele>
        <time>2015-06-14T09:20:05.000Z</time>
      </trkpt>
      <trkpt lat="47.42779" lon="6.811">
        <ele>472</ele>
        <time>2015-06-14T09:20:06.000Z</time>
      </trkpt>
      <trkpt lat="47.42783" lon="6.81105">
        <ele>472</ele>
        <time>2015-06-14T09:20:07.000Z</time>
      </trkpt>
      <trkpt lat="47.42786" lon="6.81109">
        <ele>472</ele>
        <time>2015-06-14T09:20:08.000Z</time>
      </trkpt>
      <trkpt lat="47.42789" lon="6.81113">
        <ele>472</ele>
        <time>2015-06-14T09:20:09.000Z</time>
      </trkpt>
      <trkpt lat="47.42792" lon="6.81116">
        <ele>472</ele>
        <time>2015-06-14T09:20:10.000Z</time>
      </trkpt>
      <trkpt lat="47.42794" lon="6.81119">
        <ele>472</ele>
        <time>2015-06-14T09:20:11.000Z</time>
      </trkpt>
      <trkpt lat="47.42797" lon="6.81123">
        <ele>472</ele>
        <time>2015-06-14T09:20:12.000Z</time>
      </trkpt>
      <trkpt lat="47.42799" lon="6.81126">
        <ele>472</ele>
        <time>2015-06-14T09:20:13.000Z</time>
      </trkpt>
      <trkpt lat="47.42802" lon="6.8113">
        <ele>471</ele>
        <time>2015-06-14T09:20:14.000Z</time>
      </trkpt>
      <trkpt lat="47.42805" lon="6.81133">
        <ele>471</ele>
        <time>2015-06-14T09:20:15.000Z</time>
      </trkpt>
      <trkpt lat="47.42808" lon="6.81137">
        <ele>471</ele>
        <time>2015-06-14T09:20:16.000Z</time>
      </trkpt>
      <trkpt lat="47.42811" lon="6.81141">
        <ele>471</ele>
        <time>2015-06-14T09:20:17.000Z</time>
      </trkpt>
      <trkpt lat="47.42815" lon="6.81145">
        <ele>471</ele>
        <time>2015-06-14T09:20:18.000Z</time>
      </trkpt>
      <trkpt lat="47.42818" lon="6.8115">
        <ele>471</ele>
        <time>2015-06-14T09:20:19.000Z</time>
      </trkpt>
      <trkpt lat="47.42829" lon="6.81161">
        <ele>472</ele>
        <time>2015-06-14T09:20:20.000Z</time>
      </trkpt>
      <trkpt lat="47.42833" lon="6.81165">
        <ele>472</ele>
        <time>2015-06-14T09:20:21.000Z</time>
      </trkpt>
      <trkpt lat="47.42836" lon="6.8117">
        <ele>471</ele>
        <time>2015-06-14T09:20:22.000Z</time>
      </trkpt>
      <trkpt lat="47.42838" lon="6.81176">
        <ele>470</ele>
        <time>2015-06-14T09:20:23.000Z</time>
      </trkpt>
      <trkpt lat="47.42841" lon="6.81182">
        <ele>470</ele>
        <time>2015-06-14T09:20:24.000Z</time>
      </trkpt>
      <trkpt lat="47.42844" lon="6.8119">
        <ele>469</ele>
        <time>2015-06-14T09:20:25.000Z</time>
      </trkpt>
      <trkpt lat="47.42847" lon="6.81195">
        <ele>469</ele>
        <time>2015-06-14T09:20:26.000Z</time>
      </trkpt>
      <trkpt lat="47.42852" lon="6.81202">
        <ele>468</ele>
        <time>2015-06-14T09:20:27.000Z</time>
      </trkpt>
      <trkpt lat="47.42855" lon="6.81206">
        <ele>468</ele>
        <time>2015-06-14T09:20:28.000Z</time>
      </trkpt>
      <trkpt lat="47.42858" lon="6.81212">
        <ele>468</ele>
        <time>2015-06-14T09:20:29.000Z</time>
      </trkpt>
      <trkpt lat="47.42861" lon="6.81217">
        <ele>467</ele>
        <time>2015-06-14T09:20:30.000Z</time>
      </trkpt>
      <trkpt lat="47.42868" lon="6.81224">
        <ele>467</ele>
        <time>2015-06-14T09:20:31.000Z</time>
      </trkpt>
      <trkpt lat="47.42872" lon="6.81229">
        <ele>467</ele>
        <time>2015-06-14T09:20:32.000Z</time>
      </trkpt>
      <trkpt lat="47.42873" lon="6.81234">
        <ele>467</ele>
        <time>2015-06-14T09:20:33.000Z</time>
      </trkpt>
      <trkpt lat="47.42875" lon="6.8124">
        <ele>467</ele>
        <time>2015-06-14T09:20:34.000Z</time>
      </trkpt>
      <trkpt lat="47.42877" lon="6.81243">
        <ele>467</ele>
        <time>2015-06-14T09:20:35.000Z</time>
      </trkpt>
      <trkpt lat="47.4288" lon="6.8125">
        <ele>467</ele>
        <time>2015-06-14T09:20:36.000Z</time>
      </trkpt>
      <trkpt lat="47.42882" lon="6.81257">
        <ele>463</ele>
        <time>2015-06-14T09:20:37.000Z</time>
      </trkpt>
      <trkpt lat="47.42885" lon="6.81264">
        <ele>463</ele>
        <time>2015-06-14T09:20:38.000Z</time>
      </trkpt>
      <trkpt lat="47.42887" lon="6.81271">
        <ele>463</ele>
        <time>2015-06-14T09:20:39.000Z</time>
      </trkpt>
      <trkpt lat="47.4289" lon="6.81276">
        <ele>462</ele>
        <time>2015-06-14T09:20:40.000Z</time>
      </trkpt>
      <trkpt lat="47.42893" lon="6.8128">
        <ele>462</ele>
        <time>2015-06-14T09:20:41.000Z</time>
      </trkpt>
      <trkpt lat="47.42895" lon="6.81285">
        <ele>462</ele>
        <time>2015-06-14T09:20:42.000Z</time>
      </trkpt>
      <trkpt lat="47.42898" lon="6.81289">
        <ele>462</ele>
        <time>2015-06-14T09:20:43.000Z</time>
      </trkpt>
      <trkpt lat="47.42901" lon="6.81292">
        <ele>462</ele>
        <time>2015-06-14T09:20:44.000Z</time>
      </trkpt>
      <trkpt lat="47.42903" lon="6.81296">
        <ele>462</ele>
        <time>2015-06-14T09:20:45.000Z</time>
      </trkpt>
      <trkpt lat="47.42906" lon="6.813">
        <ele>462</ele>
        <time>2015-06-14T09:20:46.000Z</time>
      </trkpt>
      <trkpt lat="47.42909" lon="6.81304">
        <ele>462</ele>
        <time>2015-06-14T09:20:47.000Z</time>
      </trkpt>
      <trkpt lat="47.42912" lon="6.81307">
        <ele>462</ele>
        <time>2015-06-14T09:20:48.000Z</time>
      </trkpt>
      <trkpt lat="47.42914" lon="6.8131">
        <ele>462</ele>
        <time>2015-06-14T09:20:49.000Z</time>
      </trkpt>
      <trkpt lat="47.42916" lon="6.81313">
        <ele>462</ele>
        <time>2015-06-14T09:20:50.000Z</time>
      </trkpt>
      <trkpt lat="47.42918" lon="6.81315">
        <ele>464</ele>
        <time>2015-06-14T09:20:51.000Z</time>
      </trkpt>
      <trkpt lat="47.42921" lon="6.81318">
        <ele>464</ele>
        <time>2015-06-14T09:20:53.000Z</time>
      </trkpt>
      <trkpt lat="47.42922" lon="6.81319">
        <ele>464</ele>
        <time>2015-06-14T09:20:54.000Z</time>
      </trkpt>
      <trkpt lat="47.42923" lon="6.81322">
        <ele>464</ele>
        <time>2015-06-14T09:20:56.000Z</time>
      </trkpt>
      <trkpt lat="47.42925" lon="6.81324">
        <ele>463</ele>
        <time>2015-06-14T09:20:57.000Z</time>
      </trkpt>
      <trkpt lat="47.42928" lon="6.81328">
        <ele>463</ele>
        <time>2015-06-14T09:20:59.000Z</time>
      </trkpt>
      <trkpt lat="47.42929" lon="6.8133">
        <ele>463</ele>
        <time>2015-06-14T09:21:00.000Z</time>
      </trkpt>
      <trkpt lat="47.42932" lon="6.81333">
        <ele>464</ele>
        <time>2015-06-14T09:21:03.000Z</time>
      </trkpt>
      <trkpt lat="47.42933" lon="6.81334">
        <ele>462</ele>
        <time>2015-06-14T09:21:04.000Z</time>
      </trkpt>
      <trkpt lat="47.42935" lon="6.81338">
        <ele>462</ele>
        <time>2015-06-14T09:21:06.000Z</time>
      </trkpt>
      <trkpt lat="47.42936" lon="6.8134">
        <ele>462</ele>
        <time>2015-06-14T09:21:07.000Z</time>
      </trkpt>
      <trkpt lat="47.42938" lon="6.81344">
        <ele>462</ele>
        <time>2015-06-14T09:21:09.000Z</time>
      </trkpt>
      <trkpt lat="47.4294" lon="6.81347">
        <ele>462</ele>
        <time>2015-06-14T09:21:10.000Z</time>
      </trkpt>
      <trkpt lat="47.42941" lon="6.8135">
        <ele>462</ele>
        <time>2015-06-14T09:21:11.000Z</time>
      </trkpt>
      <trkpt lat="47.42942" lon="6.81353">
        <ele>462</ele>
        <time>2015-06-14T09:21:12.000Z</time>
      </trkpt>
      <trkpt lat="47.42943" lon="6.81355">
        <ele>462</ele>
        <time>2015-06-14T09:21:13.000Z</time>
      </trkpt>
      <trkpt lat="47.42945" lon="6.81358">
        <ele>462</ele>
        <time>2015-06-14T09:21:14.000Z</time>
      </trkpt>
      <trkpt lat="47.42946" lon="6.81361">
        <ele>462</ele>
        <time>2015-06-14T09:21:15.000Z</time>
      </trkpt>
      <trkpt lat="47.42948" lon="6.81364">
        <ele>461</ele>
        <time>2015-06-14T09:21:16.000Z</time>
      </trkpt>
      <trkpt lat="47.42949" lon="6.81366">
        <ele>461</ele>
        <time>2015-06-14T09:21:17.000Z</time>
      </trkpt>
      <trkpt lat="47.42951" lon="6.81369">
        <ele>461</ele>
        <time>2015-06-14T09:21:18.000Z</time>
      </trkpt>
      <trkpt lat="47.42953" lon="6.81372">
        <ele>461</ele>
        <time>2015-06-14T09:21:19.000Z</time>
      </trkpt>
      <trkpt lat="47.42955" lon="6.81375">
        <ele>461</ele>
        <time>2015-06-14T09:21:20.000Z</time>
      </trkpt>
      <trkpt lat="47.42957" lon="6.81378">
        <ele>461</ele>
        <time>2015-06-14T09:21:21.000Z</time>
      </trkpt>
      <trkpt lat="47.42959" lon="6.81381">
        <ele>461</ele>
        <time>2015-06-14T09:21:22.000Z</time>
      </trkpt>
      <trkpt lat="47.42962" lon="6.81384">
        <ele>461</ele>
        <time>2015-06-14T09:21:23.000Z</time>
      </trkpt>
      <trkpt lat="47.42964" lon="6.81387">
        <ele>461</ele>
        <time>2015-06-14T09:21:24.000Z</time>
      </trkpt>
      <trkpt lat="47.42966" lon="6.8139">
        <ele>461</ele>
        <time>2015-06-14T09:21:25.000Z</time>
      </trkpt>
      <trkpt lat="47.42968" lon="6.81393">
        <ele>461</ele>
        <time>2015-06-14T09:21:26.000Z</time>
      </trkpt>
      <trkpt lat="47.4297" lon="6.81397">
        <ele>462</ele>
        <time>2015-06-14T09:21:27.000Z</time>
      </trkpt>
      <trkpt lat="47.42972" lon="6.81401">
        <ele>462</ele>
        <time>2015-06-14T09:21:28.000Z</time>
      </trkpt>
      <trkpt lat="47.42974" lon="6.81405">
        <ele>462</ele>
        <time>2015-06-14T09:21:29.000Z</time>
      </trkpt>
      <trkpt lat="47.42976" lon="6.81409">
        <ele>462</ele>
        <time>2015-06-14T09:21:30.000Z</time>
      </trkpt>
      <trkpt lat="47.42979" lon="6.81413">
        <ele>462</ele>
        <time>2015-06-14T09:21:31.000Z</time>
      </trkpt>
      <trkpt lat="47.42982" lon="6.81417">
        <ele>459</ele>
        <time>2015-06-14T09:21:32.000Z</time>
      </trkpt>
      <trkpt lat="47.42986" lon="6.81421">
        <ele>459</ele>
        <time>2015-06-14T09:21:33.000Z</time>
      </trkpt>
      <trkpt lat="47.42989" lon="6.81424">
        <ele>460</ele>
        <time>2015-06-14T09:21:34.000Z</time>
      </trkpt>
      <trkpt lat="47.42993" lon="6.81427">
        <ele>460</ele>
        <time>2015-06-14T09:21:35.000Z</time>
      </trkpt>
      <trkpt lat="47.42997" lon="6.8143">
        <ele>460</ele>
        <time>2015-06-14T09:21:36.000Z</time>
      </trkpt>
      <trkpt lat="47.43" lon="6.81433">
        <ele>459</ele>
        <time>2015-06-14T09:21:37.000Z</time>
      </trkpt>
      <trkpt lat="47.43003" lon="6.81436">
        <ele>461</ele>
        <time>2015-06-14T09:21:38.000Z</time>
      </trkpt>
      <trkpt lat="47.43007" lon="6.8144">
        <ele>460</ele>
        <time>2015-06-14T09:21:39.000Z</time>
      </trkpt>
      <trkpt lat="47.4301" lon="6.81445">
        <ele>460</ele>
        <time>2015-06-14T09:21:40.000Z</time>
      </trkpt>
      <trkpt lat="47.43014" lon="6.81449">
        <ele>460</ele>
        <time>2015-06-14T09:21:41.000Z</time>
      </trkpt>
      <trkpt lat="47.43017" lon="6.81453">
        <ele>459</ele>
        <time>2015-06-14T09:21:42.000Z</time>
      </trkpt>
      <trkpt lat="47.4302" lon="6.81458">
        <ele>459</ele>
        <time>2015-06-14T09:21:43.000Z</time>
      </trkpt>
      <trkpt lat="47.43024" lon="6.81462">
        <ele>459</ele>
        <time>2015-06-14T09:21:44.000Z</time>
      </trkpt>
      <trkpt lat="47.43028" lon="6.81467">
        <ele>458</ele>
        <time>2015-06-14T09:21:45.000Z</time>
      </trkpt>
      <trkpt lat="47.43033" lon="6.81471">
        <ele>458</ele>
        <time>2015-06-14T09:21:46.000Z</time>
      </trkpt>
      <trkpt lat="47.43038" lon="6.81476">
        <ele>458</ele>
        <time>2015-06-14T09:21:47.000Z</time>
      </trkpt>
      <trkpt lat="47.43042" lon="6.81481">
        <ele>458</ele>
        <time>2015-06-14T09:21:48.000Z</time>
      </trkpt>
      <trkpt lat="47.43047" lon="6.81486">
        <ele>458</ele>
        <time>2015-06-14T09:21:49.000Z</time>
      </trkpt>
      <trkpt lat="47.43051" lon="6.81491">
        <ele>457</ele>
        <time>2015-06-14T09:21:50.000Z</time>
      </trkpt>
      <trkpt lat="47.43055" lon="6.81497">
        <ele>457</ele>
        <time>2015-06-14T09:21:51.000Z</time>
      </trkpt>
      <trkpt lat="47.43058" lon="6.81502">
        <ele>452</ele>
        <time>2015-06-14T09:21:52.000Z</time>
      </trkpt>
      <trkpt lat="47.43058" lon="6.81508">
        <ele>452</ele>
        <time>2015-06-14T09:21:53.000Z</time>
      </trkpt>
      <trkpt lat="47.43057" lon="6.81513">
        <ele>452</ele>
        <time>2015-06-14T09:21:54.000Z</time>
      </trkpt>
      <trkpt lat="47.43055" lon="6.81517">
        <ele>451</ele>
        <time>2015-06-14T09:21:55.000Z</time>
      </trkpt>
      <trkpt lat="47.43052" lon="6.81521">
        <ele>451</ele>
        <time>2015-06-14T09:21:56.000Z</time>
      </trkpt>
      <trkpt lat="47.43049" lon="6.81523">
        <ele>451</ele>
        <time>2015-06-14T09:21:57.000Z</time>
      </trkpt>
      <trkpt lat="47.43045" lon="6.81525">
        <ele>451</ele>
        <time>2015-06-14T09:21:58.000Z</time>
      </trkpt>
      <trkpt lat="47.43042" lon="6.81526">
        <ele>451</ele>
        <time>2015-06-14T09:21:59.000Z</time>
      </trkpt>
      <trkpt lat="47.43038" lon="6.81527">
        <ele>451</ele>
        <time>2015-06-14T09:22:00.000Z</time>
      </trkpt>
      <trkpt lat="47.43034" lon="6.81528">
        <ele>451</ele>
        <time>2015-06-14T09:22:01.000Z</time>
      </trkpt>
      <trkpt lat="47.43031" lon="6.81529">
        <ele>451</ele>
        <time>2015-06-14T09:22:02.000Z</time>
      </trkpt>
      <trkpt lat="47.43035" lon="6.81529">
        <ele>451</ele>
        <time>2015-06-14T09:22:45.000Z</time>
      </trkpt>
      <trkpt lat="47.43036" lon="6.8153">
        <ele>451</ele>
        <time>2015-06-14T09:22:46.000Z</time>
      </trkpt>
      <trkpt lat="47.43039" lon="6.81531">
        <ele>450</ele>
        <time>2015-06-14T09:22:48.000Z</time>
      </trkpt>
      <trkpt lat="47.43041" lon="6.81531">
        <ele>450</ele>
        <time>2015-06-14T09:22:49.000Z</time>
      </trkpt>
      <trkpt lat="47.43045" lon="6.81533">
        <ele>450</ele>
        <time>2015-06-14T09:22:52.000Z</time>
      </trkpt>
      <trkpt lat="47.43045" lon="6.81533">
        <ele>450</ele>
        <time>2015-06-14T09:22:53.000Z</time>
      </trkpt>
      <trkpt lat="47.4305" lon="6.81533">
        <ele>450</ele>
        <time>2015-06-14T09:23:43.000Z</time>
      </trkpt>
      <trkpt lat="47.43051" lon="6.81534">
        <ele>450</ele>
        <time>2015-06-14T09:23:44.000Z</time>
      </trkpt>
      <trkpt lat="47.43053" lon="6.8153">
        <ele>451</ele>
        <time>2015-06-14T09:24:22.000Z</time>
      </trkpt>
      <trkpt lat="47.43053" lon="6.81527">
        <ele>451</ele>
        <time>2015-06-14T09:24:23.000Z</time>
      </trkpt>
      <trkpt lat="47.43054" lon="6.81533">
        <ele>450</ele>
        <time>2015-06-14T09:26:36.000Z</time>
      </trkpt>
      <trkpt lat="47.43054" lon="6.81534">
        <ele>450</ele>
        <time>2015-06-14T09:26:37.000Z</time>
      </trkpt>
      <trkpt lat="47.43051" lon="6.81539">
        <ele>450</ele>
        <time>2015-06-14T09:32:25.000Z</time>
      </trkpt>
      <trkpt lat="47.43051" lon="6.81539">
        <ele>450</ele>
        <time>2015-06-14T09:32:26.000Z</time>
      </trkpt>
      <trkpt lat="47.43051" lon="6.81543">
        <ele>450</ele>
        <time>2015-06-14T09:33:14.000Z</time>
      </trkpt>
      <trkpt lat="47.43052" lon="6.81548">
        <ele>449</ele>
        <time>2015-06-14T09:33:15.000Z</time>
      </trkpt>
      <trkpt lat="47.43053" lon="6.81553">
        <ele>449</ele>
        <time>2015-06-14T09:33:16.000Z</time>
      </trkpt>
      <trkpt lat="47.43055" lon="6.81559">
        <ele>448</ele>
        <time>2015-06-14T09:33:17.000Z</time>
      </trkpt>
      <trkpt lat="47.43058" lon="6.81563">
        <ele>448</ele>
        <time>2015-06-14T09:33:18.000Z</time>
      </trkpt>
      <trkpt lat="47.4306" lon="6.81566">
        <ele>448</ele>
        <time>2015-06-14T09:33:19.000Z</time>
      </trkpt>
      <trkpt lat="47.43062" lon="6.8157">
        <ele>448</ele>
        <time>2015-06-14T09:33:20.000Z</time>
      </trkpt>
      <trkpt lat="47.43065" lon="6.81573">
        <ele>447</ele>
        <time>2015-06-14T09:33:21.000Z</time>
      </trkpt>
      <trkpt lat="47.43068" lon="6.81576">
        <ele>447</ele>
        <time>2015-06-14T09:33:22.000Z</time>
      </trkpt>
      <trkpt lat="47.43072" lon="6.81579">
        <ele>446</ele>
        <time>2015-06-14T09:33:23.000Z</time>
      </trkpt>
      <trkpt lat="47.43076" lon="6.81582">
        <ele>445</ele>
        <time>2015-06-14T09:33:24.000Z</time>
      </trkpt>
      <trkpt lat="47.43089" lon="6.81583">
        <ele>445</ele>
        <time>2015-06-14T09:33:25.000Z</time>
      </trkpt>
      <trkpt lat="47.43096" lon="6.81588">
        <ele>439</ele>
        <time>2015-06-14T09:33:26.000Z</time>
      </trkpt>
      <trkpt lat="47.43101" lon="6.81591">
        <ele>438</ele>
        <time>2015-06-14T09:33:27.000Z</time>
      </trkpt>
      <trkpt lat="47.43106" lon="6.81593">
        <ele>437</ele>
        <time>2015-06-14T09:33:28.000Z</time>
      </trkpt>
      <trkpt lat="47.4311" lon="6.81595">
        <ele>437</ele>
        <time>2015-06-14T09:33:29.000Z</time>
      </trkpt>
      <trkpt lat="47.43114" lon="6.81597">
        <ele>436</ele>
        <time>2015-06-14T09:33:30.000Z</time>
      </trkpt>
      <trkpt lat="47.43118" lon="6.81599">
        <ele>436</ele>
        <time>2015-06-14T09:33:31.000Z</time>
      </trkpt>
      <trkpt lat="47.43123" lon="6.81601">
        <ele>436</ele>
        <time>2015-06-14T09:33:32.000Z</time>
      </trkpt>
      <trkpt lat="47.43129" lon="6.81603">
        <ele>435</ele>
        <time>2015-06-14T09:33:33.000Z</time>
      </trkpt>
      <trkpt lat="47.43135" lon="6.81605">
        <ele>435</ele>
        <time>2015-06-14T09:33:34.000Z</time>
      </trkpt>
      <trkpt lat="47.43142" lon="6.81605">
        <ele>435</ele>
        <time>2015-06-14T09:33:35.000Z</time>
      </trkpt>
      <trkpt lat="47.43149" lon="6.81605">
        <ele>436</ele>
        <time>2015-06-14T09:33:36.000Z</time>
      </trkpt>
      <trkpt lat="47.43155" lon="6.81605">
        <ele>436</ele>
        <time>2015-06-14T09:33:37.000Z</time>
      </trkpt>
      <trkpt lat="47.43162" lon="6.81605">
        <ele>436</ele>
        <time>2015-06-14T09:33:38.000Z</time>
      </trkpt>
      <trkpt lat="47.43169" lon="6.81605">
        <ele>437</ele>
        <time>2015-06-14T09:33:39.000Z</time>
      </trkpt>
      <trkpt lat="47.43176" lon="6.81606">
        <ele>437</ele>
        <time>2015-06-14T09:33:40.000Z</time>
      </trkpt>
      <trkpt lat="47.43185" lon="6.81607">
        <ele>437</ele>
        <time>2015-06-14T09:33:41.000Z</time>
      </trkpt>
      <trkpt lat="47.43193" lon="6.81608">
        <ele>436</ele>
        <time>2015-06-14T09:33:42.000Z</time>
      </trkpt>
      <trkpt lat="47.43201" lon="6.81608">
        <ele>436</ele>
        <time>2015-06-14T09:33:43.000Z</time>
      </trkpt>
      <trkpt lat="47.43207" lon="6.8161">
        <ele>436</ele>
        <time>2015-06-14T09:33:44.000Z</time>
      </trkpt>
      <trkpt lat="47.43216" lon="6.81613">
        <ele>436</ele>
        <time>2015-06-14T09:33:45.000Z</time>
      </trkpt>
      <trkpt lat="47.43224" lon="6.81615">
        <ele>436</ele>
        <time>2015-06-14T09:33:46.000Z</time>
      </trkpt>
      <trkpt lat="47.43232" lon="6.81617">
        <ele>436</ele>
        <time>2015-06-14T09:33:47.000Z</time>
      </trkpt>
      <trkpt lat="47.43241" lon="6.81622">
        <ele>436</ele>
        <time>2015-06-14T09:33:48.000Z</time>
      </trkpt>
      <trkpt lat="47.43246" lon="6.81623">
        <ele>436</ele>
        <time>2015-06-14T09:33:49.000Z</time>
      </trkpt>
      <trkpt lat="47.43247" lon="6.81629">
        <ele>436</ele>
        <time>2015-06-14T09:34:07.000Z</time>
      </trkpt>
      <trkpt lat="47.43247" lon="6.81631">
        <ele>435</ele>
        <time>2015-06-14T09:34:08.000Z</time>
      </trkpt>
      <trkpt lat="47.43247" lon="6.81635">
        <ele>435</ele>
        <time>2015-06-14T09:34:09.000Z</time>
      </trkpt>
      <trkpt lat="47.43248" lon="6.81639">
        <ele>434</ele>
        <time>2015-06-14T09:34:10.000Z</time>
      </trkpt>
      <trkpt lat="47.43249" lon="6.81644">
        <ele>434</ele>
        <time>2015-06-14T09:34:11.000Z</time>
      </trkpt>
      <trkpt lat="47.43252" lon="6.81649">
        <ele>434</ele>
        <time>2015-06-14T09:34:12.000Z</time>
      </trkpt>
      <trkpt lat="47.43253" lon="6.81654">
        <ele>434</ele>
        <time>2015-06-14T09:34:12.999Z</time>
      </trkpt>
      <trkpt lat="47.43263" lon="6.8167">
        <ele>428</ele>
        <time>2015-06-14T09:34:14.000Z</time>
      </trkpt>
      <trkpt lat="47.43267" lon="6.81675">
        <ele>427</ele>
        <time>2015-06-14T09:34:15.000Z</time>
      </trkpt>
      <trkpt lat="47.43273" lon="6.81681">
        <ele>426</ele>
        <time>2015-06-14T09:34:16.000Z</time>
      </trkpt>
      <trkpt lat="47.43279" lon="6.81686">
        <ele>425</ele>
        <time>2015-06-14T09:34:17.000Z</time>
      </trkpt>
      <trkpt lat="47.43283" lon="6.81686">
        <ele>425</ele>
        <time>2015-06-14T09:34:18.000Z</time>
      </trkpt>
      <trkpt lat="47.43286" lon="6.81689">
        <ele>425</ele>
        <time>2015-06-14T09:34:19.000Z</time>
      </trkpt>
      <trkpt lat="47.43289" lon="6.81693">
        <ele>424</ele>
        <time>2015-06-14T09:34:20.000Z</time>
      </trkpt>
      <trkpt lat="47.43295" lon="6.81698">
        <ele>424</ele>
        <time>2015-06-14T09:34:21.000Z</time>
      </trkpt>
      <trkpt lat="47.43299" lon="6.817">
        <ele>424</ele>
        <time>2015-06-14T09:34:22.000Z</time>
      </trkpt>
      <trkpt lat="47.43304" lon="6.817">
        <ele>424</ele>
        <time>2015-06-14T09:34:23.000Z</time>
      </trkpt>
      <trkpt lat="47.43308" lon="6.81702">
        <ele>424</ele>
        <time>2015-06-14T09:34:24.000Z</time>
      </trkpt>
      <trkpt lat="47.43311" lon="6.81705">
        <ele>424</ele>
        <time>2015-06-14T09:34:25.000Z</time>
      </trkpt>
      <trkpt lat="47.43315" lon="6.81708">
        <ele>424</ele>
        <time>2015-06-14T09:34:26.000Z</time>
      </trkpt>
      <trkpt lat="47.43318" lon="6.81712">
        <ele>423</ele>
        <time>2015-06-14T09:34:27.000Z</time>
      </trkpt>
      <trkpt lat="47.43321" lon="6.81715">
        <ele>423</ele>
        <time>2015-06-14T09:34:28.000Z</time>
      </trkpt>
      <trkpt lat="47.43323" lon="6.81718">
        <ele>422</ele>
        <time>2015-06-14T09:34:29.000Z</time>
      </trkpt>
      <trkpt lat="47.43325" lon="6.8172">
        <ele>422</ele>
        <time>2015-06-14T09:34:30.000Z</time>
      </trkpt>
      <trkpt lat="47.43328" lon="6.81722">
        <ele>422</ele>
        <time>2015-06-14T09:34:31.000Z</time>
      </trkpt>
      <trkpt lat="47.4333" lon="6.81724">
        <ele>422</ele>
        <time>2015-06-14T09:34:32.000Z</time>
      </trkpt>
      <trkpt lat="47.43333" lon="6.81727">
        <ele>421</ele>
        <time>2015-06-14T09:34:33.000Z</time>
      </trkpt>
      <trkpt lat="47.43336" lon="6.81731">
        <ele>420</ele>
        <time>2015-06-14T09:34:34.000Z</time>
      </trkpt>
      <trkpt lat="47.4334" lon="6.81734">
        <ele>419</ele>
        <time>2015-06-14T09:34:35.000Z</time>
      </trkpt>
      <trkpt lat="47.43344" lon="6.81736">
        <ele>419</ele>
        <time>2015-06-14T09:34:36.000Z</time>
      </trkpt>
      <trkpt lat="47.43348" lon="6.81737">
        <ele>419</ele>
        <time>2015-06-14T09:34:37.000Z</time>
      </trkpt>
      <trkpt lat="47.43352" lon="6.81738">
        <ele>419</ele>
        <time>2015-06-14T09:34:38.000Z</time>
      </trkpt>
      <trkpt lat="47.43355" lon="6.81739">
        <ele>419</ele>
        <time>2015-06-14T09:34:39.000Z</time>
      </trkpt>
      <trkpt lat="47.43357" lon="6.8174">
        <ele>419</ele>
        <time>2015-06-14T09:34:40.000Z</time>
      </trkpt>
      <trkpt lat="47.4336" lon="6.81743">
        <ele>419</ele>
        <time>2015-06-14T09:34:41.000Z</time>
      </trkpt>
      <trkpt lat="47.43364" lon="6.81744">
        <ele>418</ele>
        <time>2015-06-14T09:34:48.000Z</time>
      </trkpt>
      <trkpt lat="47.43365" lon="6.81746">
        <ele>418</ele>
        <time>2015-06-14T09:34:49.000Z</time>
      </trkpt>
      <trkpt lat="47.43366" lon="6.81747">
        <ele>418</ele>
        <time>2015-06-14T09:34:51.000Z</time>
      </trkpt>
      <trkpt lat="47.4337" lon="6.8175">
        <ele>408</ele>
        <time>2015-06-14T09:34:52.000Z</time>
      </trkpt>
      <trkpt lat="47.43377" lon="6.81759">
        <ele>407</ele>
        <time>2015-06-14T09:34:53.000Z</time>
      </trkpt>
      <trkpt lat="47.43381" lon="6.81767">
        <ele>406</ele>
        <time>2015-06-14T09:34:54.000Z</time>
      </trkpt>
      <trkpt lat="47.43387" lon="6.81773">
        <ele>405</ele>
        <time>2015-06-14T09:34:55.000Z</time>
      </trkpt>
      <trkpt lat="47.43391" lon="6.81776">
        <ele>405</ele>
        <time>2015-06-14T09:34:56.000Z</time>
      </trkpt>
      <trkpt lat="47.43395" lon="6.81774">
        <ele>405</ele>
        <time>2015-06-14T09:34:57.000Z</time>
      </trkpt>
      <trkpt lat="47.43398" lon="6.81772">
        <ele>405</ele>
        <time>2015-06-14T09:34:58.000Z</time>
      </trkpt>
      <trkpt lat="47.434" lon="6.81776">
        <ele>405</ele>
        <time>2015-06-14T09:34:59.000Z</time>
      </trkpt>
      <trkpt lat="47.43405" lon="6.81778">
        <ele>405</ele>
        <time>2015-06-14T09:35:00.000Z</time>
      </trkpt>
      <trkpt lat="47.43408" lon="6.81779">
        <ele>405</ele>
        <time>2015-06-14T09:35:01.000Z</time>
      </trkpt>
      <trkpt lat="47.43414" lon="6.81779">
        <ele>404</ele>
        <time>2015-06-14T09:35:02.000Z</time>
      </trkpt>
      <trkpt lat="47.43418" lon="6.8178">
        <ele>400</ele>
        <time>2015-06-14T09:35:03.000Z</time>
      </trkpt>
      <trkpt lat="47.43418" lon="6.81779">
        <ele>400</ele>
        <time>2015-06-14T09:35:04.000Z</time>
      </trkpt>
      <trkpt lat="47.43421" lon="6.81779">
        <ele>400</ele>
        <time>2015-06-14T09:35:05.000Z</time>
      </trkpt>
      <trkpt lat="47.43424" lon="6.81778">
        <ele>400</ele>
        <time>2015-06-14T09:35:06.000Z</time>
      </trkpt>
      <trkpt lat="47.43427" lon="6.81778">
        <ele>400</ele>
        <time>2015-06-14T09:35:07.000Z</time>
      </trkpt>
      <trkpt lat="47.43436" lon="6.81782">
        <ele>399</ele>
        <time>2015-06-14T09:35:08.000Z</time>
      </trkpt>
      <trkpt lat="47.4344" lon="6.81783">
        <ele>398</ele>
        <time>2015-06-14T09:35:09.000Z</time>
      </trkpt>
      <trkpt lat="47.43444" lon="6.81782">
        <ele>398</ele>
        <time>2015-06-14T09:35:10.000Z</time>
      </trkpt>
      <trkpt lat="47.43449" lon="6.81783">
        <ele>398</ele>
        <time>2015-06-14T09:35:11.000Z</time>
      </trkpt>
      <trkpt lat="47.43456" lon="6.81785">
        <ele>397</ele>
        <time>2015-06-14T09:35:12.000Z</time>
      </trkpt>
      <trkpt lat="47.43462" lon="6.81788">
        <ele>397</ele>
        <time>2015-06-14T09:35:13.000Z</time>
      </trkpt>
      <trkpt lat="47.43468" lon="6.8179">
        <ele>396</ele>
        <time>2015-06-14T09:35:14.000Z</time>
      </trkpt>
      <trkpt lat="47.43478" lon="6.81788">
        <ele>396</ele>
        <time>2015-06-14T09:35:15.000Z</time>
      </trkpt>
      <trkpt lat="47.43486" lon="6.81787">
        <ele>396</ele>
        <time>2015-06-14T09:35:16.000Z</time>
      </trkpt>
      <trkpt lat="47.43493" lon="6.81786">
        <ele>395</ele>
        <time>2015-06-14T09:35:17.000Z</time>
      </trkpt>
      <trkpt lat="47.43499" lon="6.81787">
        <ele>395</ele>
        <time>2015-06-14T09:35:18.000Z</time>
      </trkpt>
      <trkpt lat="47.43504" lon="6.81786">
        <ele>389</ele>
        <time>2015-06-14T09:35:19.000Z</time>
      </trkpt>
      <trkpt lat="47.43508" lon="6.81784">
        <ele>389</ele>
        <time>2015-06-14T09:35:20.000Z</time>
      </trkpt>
      <trkpt lat="47.43512" lon="6.81781">
        <ele>390</ele>
        <time>2015-06-14T09:35:21.000Z</time>
      </trkpt>
      <trkpt lat="47.43515" lon="6.81779">
        <ele>390</ele>
        <time>2015-06-14T09:35:22.000Z</time>
      </trkpt>
      <trkpt lat="47.43517" lon="6.81785">
        <ele>389</ele>
        <time>2015-06-14T09:35:23.000Z</time>
      </trkpt>
      <trkpt lat="47.4352" lon="6.81779">
        <ele>389</ele>
        <time>2015-06-14T09:35:24.000Z</time>
      </trkpt>
      <trkpt lat="47.43525" lon="6.81778">
        <ele>389</ele>
        <time>2015-06-14T09:35:25.000Z</time>
      </trkpt>
      <trkpt lat="47.43529" lon="6.81777">
        <ele>389</ele>
        <time>2015-06-14T09:35:26.000Z</time>
      </trkpt>
      <trkpt lat="47.43532" lon="6.81776">
        <ele>389</ele>
        <time>2015-06-14T09:35:27.000Z</time>
      </trkpt>
      <trkpt lat="47.43536" lon="6.81775">
        <ele>388</ele>
        <time>2015-06-14T09:35:28.000Z</time>
      </trkpt>
      <trkpt lat="47.43539" lon="6.81775">
        <ele>388</ele>
        <time>2015-06-14T09:35:29.000Z</time>
      </trkpt>
      <trkpt lat="47.43542" lon="6.81775">
        <ele>388</ele>
        <time>2015-06-14T09:35:30.000Z</time>
      </trkpt>
      <trkpt lat="47.43546" lon="6.81775">
        <ele>387</ele>
        <time>2015-06-14T09:35:31.000Z</time>
      </trkpt>
      <trkpt lat="47.43549" lon="6.81776">
        <ele>387</ele>
        <time>2015-06-14T09:35:32.000Z</time>
      </trkpt>
      <trkpt lat="47.43553" lon="6.81777">
        <ele>387</ele>
        <time>2015-06-14T09:35:33.000Z</time>
      </trkpt>
      <trkpt lat="47.43556" lon="6.81778">
        <ele>387</ele>
        <time>2015-06-14T09:35:34.000Z</time>
      </trkpt>
      <trkpt lat="47.4356" lon="6.8178">
        <ele>386</ele>
        <time>2015-06-14T09:35:35.000Z</time>
      </trkpt>
      <trkpt lat="47.43564" lon="6.8178">
        <ele>386</ele>
        <time>2015-06-14T09:35:36.000Z</time>
      </trkpt>
      <trkpt lat="47.43567" lon="6.81779">
        <ele>386</ele>
        <time>2015-06-14T09:35:37.000Z</time>
      </trkpt>
      <trkpt lat="47.43571" lon="6.81775">
        <ele>386</ele>
        <time>2015-06-14T09:35:38.000Z</time>
      </trkpt>
      <trkpt lat="47.43574" lon="6.81771">
        <ele>386</ele>
        <time>2015-06-14T09:35:39.000Z</time>
      </trkpt>
      <trkpt lat="47.43578" lon="6.81767">
        <ele>386</ele>
        <time>2015-06-14T09:35:40.000Z</time>
      </trkpt>
      <trkpt lat="47.43582" lon="6.81763">
        <ele>386</ele>
        <time>2015-06-14T09:35:41.000Z</time>
      </trkpt>
      <trkpt lat="47.43586" lon="6.81759">
        <ele>382</ele>
        <time>2015-06-14T09:35:42.000Z</time>
      </trkpt>
      <trkpt lat="47.4359" lon="6.81756">
        <ele>382</ele>
        <time>2015-06-14T09:35:43.000Z</time>
      </trkpt>
      <trkpt lat="47.43594" lon="6.81753">
        <ele>381</ele>
        <time>2015-06-14T09:35:44.000Z</time>
      </trkpt>
      <trkpt lat="47.43597" lon="6.81751">
        <ele>380</ele>
        <time>2015-06-14T09:35:45.000Z</time>
      </trkpt>
      <trkpt lat="47.43599" lon="6.81748">
        <ele>381</ele>
        <time>2015-06-14T09:35:46.000Z</time>
      </trkpt>
      <trkpt lat="47.43602" lon="6.81746">
        <ele>380</ele>
        <time>2015-06-14T09:35:47.000Z</time>
      </trkpt>
      <trkpt lat="47.43604" lon="6.81744">
        <ele>380</ele>
        <time>2015-06-14T09:35:48.000Z</time>
      </trkpt>
      <trkpt lat="47.43606" lon="6.81743">
        <ele>380</ele>
        <time>2015-06-14T09:35:49.000Z</time>
      </trkpt>
      <trkpt lat="47.43608" lon="6.81742">
        <ele>379</ele>
        <time>2015-06-14T09:35:50.000Z</time>
      </trkpt>
      <trkpt lat="47.4361" lon="6.8174">
        <ele>379</ele>
        <time>2015-06-14T09:35:51.000Z</time>
      </trkpt>
      <trkpt lat="47.43612" lon="6.81738">
        <ele>378</ele>
        <time>2015-06-14T09:35:52.000Z</time>
      </trkpt>
      <trkpt lat="47.43614" lon="6.81736">
        <ele>378</ele>
        <time>2015-06-14T09:35:53.000Z</time>
      </trkpt>
      <trkpt lat="47.43616" lon="6.81733">
        <ele>378</ele>
        <time>2015-06-14T09:35:54.000Z</time>
      </trkpt>
      <trkpt lat="47.43617" lon="6.81729">
        <ele>378</ele>
        <time>2015-06-14T09:35:55.000Z</time>
      </trkpt>
      <trkpt lat="47.43618" lon="6.81724">
        <ele>377</ele>
        <time>2015-06-14T09:35:56.000Z</time>
      </trkpt>
      <trkpt lat="47.4362" lon="6.81718">
        <ele>377</ele>
        <time>2015-06-14T09:35:57.000Z</time>
      </trkpt>
      <trkpt lat="47.43621" lon="6.81712">
        <ele>377</ele>
        <time>2015-06-14T09:35:58.000Z</time>
      </trkpt>
      <trkpt lat="47.43623" lon="6.81705">
        <ele>377</ele>
        <time>2015-06-14T09:35:59.000Z</time>
      </trkpt>
      <trkpt lat="47.43625" lon="6.81698">
        <ele>377</ele>
        <time>2015-06-14T09:36:00.000Z</time>
      </trkpt>
      <trkpt lat="47.43627" lon="6.81691">
        <ele>377</ele>
        <time>2015-06-14T09:36:01.000Z</time>
      </trkpt>
      <trkpt lat="47.43633" lon="6.81671">
        <ele>376</ele>
        <time>2015-06-14T09:36:02.000Z</time>
      </trkpt>
      <trkpt lat="47.43636" lon="6.81658">
        <ele>377</ele>
        <time>2015-06-14T09:36:03.000Z</time>
      </trkpt>
      <trkpt lat="47.43636" lon="6.8165">
        <ele>377</ele>
        <time>2015-06-14T09:36:04.000Z</time>
      </trkpt>
      <trkpt lat="47.43636" lon="6.81644">
        <ele>377</ele>
        <time>2015-06-14T09:36:05.000Z</time>
      </trkpt>
      <trkpt lat="47.43636" lon="6.81635">
        <ele>377</ele>
        <time>2015-06-14T09:36:06.000Z</time>
      </trkpt>
      <trkpt lat="47.43634" lon="6.8163">
        <ele>378</ele>
        <time>2015-06-14T09:36:07.000Z</time>
      </trkpt>
      <trkpt lat="47.43634" lon="6.81623">
        <ele>378</ele>
        <time>2015-06-14T09:36:08.000Z</time>
      </trkpt>
      <trkpt lat="47.43635" lon="6.81619">
        <ele>378</ele>
        <time>2015-06-14T09:36:09.000Z</time>
      </trkpt>
      <trkpt lat="47.43634" lon="6.81615">
        <ele>378</ele>
        <time>2015-06-14T09:36:10.000Z</time>
      </trkpt>
      <trkpt lat="47.43633" lon="6.81609">
        <ele>378</ele>
        <time>2015-06-14T09:36:12.000Z</time>
      </trkpt>
      <trkpt lat="47.43632" lon="6.81607">
        <ele>378</ele>
        <time>2015-06-14T09:36:13.000Z</time>
      </trkpt>
      <trkpt lat="47.43631" lon="6.81602">
        <ele>378</ele>
        <time>2015-06-14T09:36:15.000Z</time>
      </trkpt>
      <trkpt lat="47.43629" lon="6.81599">
        <ele>378</ele>
        <time>2015-06-14T09:36:16.000Z</time>
      </trkpt>
      <trkpt lat="47.43627" lon="6.81594">
        <ele>378</ele>
        <time>2015-06-14T09:36:18.000Z</time>
      </trkpt>
      <trkpt lat="47.43626" lon="6.81591">
        <ele>378</ele>
        <time>2015-06-14T09:36:19.000Z</time>
      </trkpt>
      <trkpt lat="47.43624" lon="6.81586">
        <ele>379</ele>
        <time>2015-06-14T09:36:21.000Z</time>
      </trkpt>
      <trkpt lat="47.43623" lon="6.81584">
        <ele>379</ele>
        <time>2015-06-14T09:36:22.000Z</time>
      </trkpt>
      <trkpt lat="47.43623" lon="6.81579">
        <ele>380</ele>
        <time>2015-06-14T09:36:25.000Z</time>
      </trkpt>
      <trkpt lat="47.43622" lon="6.81577">
        <ele>380</ele>
        <time>2015-06-14T09:36:26.000Z</time>
      </trkpt>
      <trkpt lat="47.43622" lon="6.81571">
        <ele>380</ele>
        <time>2015-06-14T09:36:30.000Z</time>
      </trkpt>
      <trkpt lat="47.43622" lon="6.8157">
        <ele>380</ele>
        <time>2015-06-14T09:36:31.000Z</time>
      </trkpt>
      <trkpt lat="47.4362" lon="6.81565">
        <ele>380</ele>
        <time>2015-06-14T09:36:34.000Z</time>
      </trkpt>
      <trkpt lat="47.43619" lon="6.81563">
        <ele>380</ele>
        <time>2015-06-14T09:36:35.000Z</time>
      </trkpt>
      <trkpt lat="47.43617" lon="6.81557">
        <ele>381</ele>
        <time>2015-06-14T09:36:38.000Z</time>
      </trkpt>
      <trkpt lat="47.43616" lon="6.81555">
        <ele>381</ele>
        <time>2015-06-14T09:36:39.000Z</time>
      </trkpt>
      <trkpt lat="47.43614" lon="6.81551">
        <ele>381</ele>
        <time>2015-06-14T09:36:41.000Z</time>
      </trkpt>
      <trkpt lat="47.43612" lon="6.81549">
        <ele>381</ele>
        <time>2015-06-14T09:36:42.000Z</time>
      </trkpt>
      <trkpt lat="47.4361" lon="6.81545">
        <ele>381</ele>
        <time>2015-06-14T09:36:44.000Z</time>
      </trkpt>
      <trkpt lat="47.43609" lon="6.81543">
        <ele>381</ele>
        <time>2015-06-14T09:36:45.000Z</time>
      </trkpt>
      <trkpt lat="47.43608" lon="6.81539">
        <ele>381</ele>
        <time>2015-06-14T09:36:47.000Z</time>
      </trkpt>
      <trkpt lat="47.43607" lon="6.81536">
        <ele>381</ele>
        <time>2015-06-14T09:36:48.000Z</time>
      </trkpt>
      <trkpt lat="47.43605" lon="6.81533">
        <ele>381</ele>
        <time>2015-06-14T09:36:50.000Z</time>
      </trkpt>
      <trkpt lat="47.43604" lon="6.81531">
        <ele>381</ele>
        <time>2015-06-14T09:36:51.000Z</time>
      </trkpt>
      <trkpt lat="47.43602" lon="6.81527">
        <ele>381</ele>
        <time>2015-06-14T09:36:53.000Z</time>
      </trkpt>
      <trkpt lat="47.43601" lon="6.81524">
        <ele>381</ele>
        <time>2015-06-14T09:36:54.000Z</time>
      </trkpt>
      <trkpt lat="47.43599" lon="6.81521">
        <ele>381</ele>
        <time>2015-06-14T09:36:56.000Z</time>
      </trkpt>
      <trkpt lat="47.43598" lon="6.81519">
        <ele>381</ele>
        <time>2015-06-14T09:36:57.000Z</time>
      </trkpt>
      <trkpt lat="47.43594" lon="6.81516">
        <ele>381</ele>
        <time>2015-06-14T09:37:01.000Z</time>
      </trkpt>
      <trkpt lat="47.43593" lon="6.81515">
        <ele>381</ele>
        <time>2015-06-14T09:37:02.000Z</time>
      </trkpt>
      <trkpt lat="47.43595" lon="6.81521">
        <ele>381</ele>
        <time>2015-06-14T09:37:20.000Z</time>
      </trkpt>
      <trkpt lat="47.43595" lon="6.81522">
        <ele>381</ele>
        <time>2015-06-14T09:37:21.000Z</time>
      </trkpt>
      <trkpt lat="47.43593" lon="6.81516">
        <ele>381</ele>
        <time>2015-06-14T09:37:34.000Z</time>
      </trkpt>
      <trkpt lat="47.43591" lon="6.81514">
        <ele>381</ele>
        <time>2015-06-14T09:37:35.000Z</time>
      </trkpt>
      <trkpt lat="47.43589" lon="6.8151">
        <ele>382</ele>
        <time>2015-06-14T09:37:37.000Z</time>
      </trkpt>
      <trkpt lat="47.43589" lon="6.81507">
        <ele>382</ele>
        <time>2015-06-14T09:37:38.000Z</time>
      </trkpt>
      <trkpt lat="47.43587" lon="6.81501">
        <ele>382</ele>
        <time>2015-06-14T09:37:41.000Z</time>
      </trkpt>
      <trkpt lat="47.43585" lon="6.81501">
        <ele>382</ele>
        <time>2015-06-14T09:37:42.000Z</time>
      </trkpt>
      <trkpt lat="47.43581" lon="6.81501">
        <ele>382</ele>
        <time>2015-06-14T09:37:44.000Z</time>
      </trkpt>
      <trkpt lat="47.43579" lon="6.81502">
        <ele>383</ele>
        <time>2015-06-14T09:37:45.000Z</time>
      </trkpt>
      <trkpt lat="47.43577" lon="6.81501">
        <ele>383</ele>
        <time>2015-06-14T09:37:47.000Z</time>
      </trkpt>
      <trkpt lat="47.43575" lon="6.81501">
        <ele>383</ele>
        <time>2015-06-14T09:37:48.000Z</time>
      </trkpt>
      <trkpt lat="47.43573" lon="6.81507">
        <ele>383</ele>
        <time>2015-06-14T09:37:53.000Z</time>
      </trkpt>
      <trkpt lat="47.43574" lon="6.81509">
        <ele>383</ele>
        <time>2015-06-14T09:37:54.000Z</time>
      </trkpt>
      <trkpt lat="47.43576" lon="6.81513">
        <ele>384</ele>
        <time>2015-06-14T09:37:56.000Z</time>
      </trkpt>
      <trkpt lat="47.43577" lon="6.81517">
        <ele>384</ele>
        <time>2015-06-14T09:37:57.000Z</time>
      </trkpt>
      <trkpt lat="47.43578" lon="6.81521">
        <ele>384</ele>
        <time>2015-06-14T09:37:58.000Z</time>
      </trkpt>
      <trkpt lat="47.43579" lon="6.81526">
        <ele>384</ele>
        <time>2015-06-14T09:37:59.000Z</time>
      </trkpt>
      <trkpt lat="47.43581" lon="6.8153">
        <ele>384</ele>
        <time>2015-06-14T09:38:00.000Z</time>
      </trkpt>
      <trkpt lat="47.43583" lon="6.81535">
        <ele>384</ele>
        <time>2015-06-14T09:38:01.000Z</time>
      </trkpt>
      <trkpt lat="47.43586" lon="6.8154">
        <ele>381</ele>
        <time>2015-06-14T09:38:02.000Z</time>
      </trkpt>
      <trkpt lat="47.43589" lon="6.81545">
        <ele>381</ele>
        <time>2015-06-14T09:38:03.000Z</time>
      </trkpt>
      <trkpt lat="47.43592" lon="6.81549">
        <ele>381</ele>
        <time>2015-06-14T09:38:04.000Z</time>
      </trkpt>
      <trkpt lat="47.43595" lon="6.81553">
        <ele>381</ele>
        <time>2015-06-14T09:38:05.000Z</time>
      </trkpt>
      <trkpt lat="47.43598" lon="6.81557">
        <ele>381</ele>
        <time>2015-06-14T09:38:06.000Z</time>
      </trkpt>
      <trkpt lat="47.436" lon="6.81561">
        <ele>381</ele>
        <time>2015-06-14T09:38:07.000Z</time>
      </trkpt>
      <trkpt lat="47.43602" lon="6.81564">
        <ele>381</ele>
        <time>2015-06-14T09:38:08.000Z</time>
      </trkpt>
      <trkpt lat="47.43605" lon="6.81565">
        <ele>381</ele>
        <time>2015-06-14T09:38:09.000Z</time>
      </trkpt>
      <trkpt lat="47.43608" lon="6.81565">
        <ele>381</ele>
        <time>2015-06-14T09:38:10.000Z</time>
      </trkpt>
      <trkpt lat="47.43611" lon="6.81564">
        <ele>381</ele>
        <time>2015-06-14T09:38:11.000Z</time>
      </trkpt>
      <trkpt lat="47.43615" lon="6.81562">
        <ele>381</ele>
        <time>2015-06-14T09:38:13.000Z</time>
      </trkpt>
      <trkpt lat="47.43616" lon="6.81562">
        <ele>381</ele>
        <time>2015-06-14T09:38:14.000Z</time>
      </trkpt>
      <trkpt lat="47.43619" lon="6.81567">
        <ele>380</ele>
        <time>2015-06-14T09:38:18.000Z</time>
      </trkpt>
      <trkpt lat="47.43619" lon="6.81568">
        <ele>380</ele>
        <time>2015-06-14T09:38:19.000Z</time>
      </trkpt>
      <trkpt lat="47.43621" lon="6.81572">
        <ele>380</ele>
        <time>2015-06-14T09:38:22.000Z</time>
      </trkpt>
      <trkpt lat="47.43622" lon="6.81574">
        <ele>380</ele>
        <time>2015-06-14T09:38:23.000Z</time>
      </trkpt>
      <trkpt lat="47.43623" lon="6.8158">
        <ele>380</ele>
        <time>2015-06-14T09:38:25.000Z</time>
      </trkpt>
      <trkpt lat="47.43624" lon="6.81583">
        <ele>380</ele>
        <time>2015-06-14T09:38:26.000Z</time>
      </trkpt>
      <trkpt lat="47.43626" lon="6.81587">
        <ele>378</ele>
        <time>2015-06-14T09:38:27.000Z</time>
      </trkpt>
      <trkpt lat="47.43628" lon="6.81591">
        <ele>378</ele>
        <time>2015-06-14T09:38:28.000Z</time>
      </trkpt>
      <trkpt lat="47.4363" lon="6.81596">
        <ele>378</ele>
        <time>2015-06-14T09:38:29.000Z</time>
      </trkpt>
      <trkpt lat="47.43633" lon="6.81601">
        <ele>378</ele>
        <time>2015-06-14T09:38:30.000Z</time>
      </trkpt>
      <trkpt lat="47.43636" lon="6.81607">
        <ele>378</ele>
        <time>2015-06-14T09:38:31.000Z</time>
      </trkpt>
      <trkpt lat="47.43639" lon="6.81614">
        <ele>378</ele>
        <time>2015-06-14T09:38:32.000Z</time>
      </trkpt>
      <trkpt lat="47.43642" lon="6.81621">
        <ele>378</ele>
        <time>2015-06-14T09:38:33.000Z</time>
      </trkpt>
      <trkpt lat="47.43645" lon="6.81628">
        <ele>377</ele>
        <time>2015-06-14T09:38:34.000Z</time>
      </trkpt>
      <trkpt lat="47.43647" lon="6.81635">
        <ele>377</ele>
        <time>2015-06-14T09:38:35.000Z</time>
      </trkpt>
      <trkpt lat="47.4365" lon="6.81642">
        <ele>376</ele>
        <time>2015-06-14T09:38:36.000Z</time>
      </trkpt>
      <trkpt lat="47.43656" lon="6.81659">
        <ele>374</ele>
        <time>2015-06-14T09:38:37.000Z</time>
      </trkpt>
      <trkpt lat="47.4366" lon="6.81666">
        <ele>373</ele>
        <time>2015-06-14T09:38:38.000Z</time>
      </trkpt>
      <trkpt lat="47.43662" lon="6.81671">
        <ele>372</ele>
        <time>2015-06-14T09:38:39.000Z</time>
      </trkpt>
      <trkpt lat="47.43668" lon="6.81678">
        <ele>370</ele>
        <time>2015-06-14T09:38:40.000Z</time>
      </trkpt>
      <trkpt lat="47.43672" lon="6.81686">
        <ele>370</ele>
        <time>2015-06-14T09:38:41.000Z</time>
      </trkpt>
      <trkpt lat="47.43673" lon="6.81694">
        <ele>370</ele>
        <time>2015-06-14T09:38:42.000Z</time>
      </trkpt>
      <trkpt lat="47.43677" lon="6.817">
        <ele>369</ele>
        <time>2015-06-14T09:38:43.000Z</time>
      </trkpt>
      <trkpt lat="47.4368" lon="6.81709">
        <ele>369</ele>
        <time>2015-06-14T09:38:44.000Z</time>
      </trkpt>
      <trkpt lat="47.43686" lon="6.81721">
        <ele>369</ele>
        <time>2015-06-14T09:38:45.000Z</time>
      </trkpt>
      <trkpt lat="47.4369" lon="6.81732">
        <ele>369</ele>
        <time>2015-06-14T09:38:46.000Z</time>
      </trkpt>
      <trkpt lat="47.43695" lon="6.81742">
        <ele>369</ele>
        <time>2015-06-14T09:38:47.000Z</time>
      </trkpt>
      <trkpt lat="47.43697" lon="6.81749">
        <ele>369</ele>
        <time>2015-06-14T09:38:48.000Z</time>
      </trkpt>
      <trkpt lat="47.43701" lon="6.81757">
        <ele>367</ele>
        <time>2015-06-14T09:38:49.000Z</time>
      </trkpt>
      <trkpt lat="47.43704" lon="6.81767">
        <ele>367</ele>
        <time>2015-06-14T09:38:50.000Z</time>
      </trkpt>
      <trkpt lat="47.43705" lon="6.81776">
        <ele>367</ele>
        <time>2015-06-14T09:38:51.000Z</time>
      </trkpt>
      <trkpt lat="47.43706" lon="6.81786">
        <ele>367</ele>
        <time>2015-06-14T09:38:52.000Z</time>
      </trkpt>
      <trkpt lat="47.43708" lon="6.81795">
        <ele>367</ele>
        <time>2015-06-14T09:38:53.000Z</time>
      </trkpt>
      <trkpt lat="47.43709" lon="6.81803">
        <ele>367</ele>
        <time>2015-06-14T09:38:54.000Z</time>
      </trkpt>
      <trkpt lat="47.43709" lon="6.8181">
        <ele>367</ele>
        <time>2015-06-14T09:38:55.000Z</time>
      </trkpt>
      <trkpt lat="47.4371" lon="6.81813">
        <ele>367</ele>
        <time>2015-06-14T09:38:56.000Z</time>
      </trkpt>
      <trkpt lat="47.4371" lon="6.81817">
        <ele>367</ele>
        <time>2015-06-14T09:38:57.000Z</time>
      </trkpt>
      <trkpt lat="47.4371" lon="6.81823">
        <ele>367</ele>
        <time>2015-06-14T09:38:59.000Z</time>
      </trkpt>
      <trkpt lat="47.43712" lon="6.81825">
        <ele>367</ele>
        <time>2015-06-14T09:39:00.000Z</time>
      </trkpt>
      <trkpt lat="47.43713" lon="6.81831">
        <ele>367</ele>
        <time>2015-06-14T09:39:03.000Z</time>
      </trkpt>
      <trkpt lat="47.43712" lon="6.81833">
        <ele>367</ele>
        <time>2015-06-14T09:39:04.000Z</time>
      </trkpt>
      <trkpt lat="47.43714" lon="6.81837">
        <ele>363</ele>
        <time>2015-06-14T09:39:10.000Z</time>
      </trkpt>
      <trkpt lat="47.43715" lon="6.81838">
        <ele>363</ele>
        <time>2015-06-14T09:39:11.000Z</time>
      </trkpt>
      <trkpt lat="47.43717" lon="6.81843">
        <ele>362</ele>
        <time>2015-06-14T09:39:15.000Z</time>
      </trkpt>
      <trkpt lat="47.43719" lon="6.81844">
        <ele>362</ele>
        <time>2015-06-14T09:39:16.000Z</time>
      </trkpt>
      <trkpt lat="47.43722" lon="6.81846">
        <ele>362</ele>
        <time>2015-06-14T09:39:20.000Z</time>
      </trkpt>
      <trkpt lat="47.43724" lon="6.81847">
        <ele>362</ele>
        <time>2015-06-14T09:39:21.000Z</time>
      </trkpt>
      <trkpt lat="47.43727" lon="6.8185">
        <ele>362</ele>
        <time>2015-06-14T09:39:24.000Z</time>
      </trkpt>
      <trkpt lat="47.43729" lon="6.81851">
        <ele>362</ele>
        <time>2015-06-14T09:39:25.000Z</time>
      </trkpt>
      <trkpt lat="47.43732" lon="6.81853">
        <ele>362</ele>
        <time>2015-06-14T09:39:27.000Z</time>
      </trkpt>
      <trkpt lat="47.43734" lon="6.81854">
        <ele>362</ele>
        <time>2015-06-14T09:39:28.000Z</time>
      </trkpt>
      <trkpt lat="47.43736" lon="6.81857">
        <ele>362</ele>
        <time>2015-06-14T09:39:30.000Z</time>
      </trkpt>
      <trkpt lat="47.43738" lon="6.81857">
        <ele>362</ele>
        <time>2015-06-14T09:39:31.000Z</time>
      </trkpt>
      <trkpt lat="47.4374" lon="6.81859">
        <ele>362</ele>
        <time>2015-06-14T09:39:32.000Z</time>
      </trkpt>
      <trkpt lat="47.43742" lon="6.8186">
        <ele>362</ele>
        <time>2015-06-14T09:39:33.000Z</time>
      </trkpt>
      <trkpt lat="47.43745" lon="6.81862">
        <ele>362</ele>
        <time>2015-06-14T09:39:34.000Z</time>
      </trkpt>
      <trkpt lat="47.43747" lon="6.81863">
        <ele>362</ele>
        <time>2015-06-14T09:39:35.000Z</time>
      </trkpt>
      <trkpt lat="47.43749" lon="6.81865">
        <ele>361</ele>
        <time>2015-06-14T09:39:36.000Z</time>
      </trkpt>
      <trkpt lat="47.43751" lon="6.81867">
        <ele>364</ele>
        <time>2015-06-14T09:39:37.000Z</time>
      </trkpt>
      <trkpt lat="47.43753" lon="6.8187">
        <ele>363</ele>
        <time>2015-06-14T09:39:38.000Z</time>
      </trkpt>
      <trkpt lat="47.43755" lon="6.81872">
        <ele>363</ele>
        <time>2015-06-14T09:39:39.000Z</time>
      </trkpt>
      <trkpt lat="47.43758" lon="6.81874">
        <ele>363</ele>
        <time>2015-06-14T09:39:40.000Z</time>
      </trkpt>
      <trkpt lat="47.4376" lon="6.81876">
        <ele>363</ele>
        <time>2015-06-14T09:39:41.000Z</time>
      </trkpt>
      <trkpt lat="47.43763" lon="6.81879">
        <ele>363</ele>
        <time>2015-06-14T09:39:43.000Z</time>
      </trkpt>
      <trkpt lat="47.43764" lon="6.8188">
        <ele>363</ele>
        <time>2015-06-14T09:39:44.000Z</time>
      </trkpt>
      <trkpt lat="47.43768" lon="6.8188">
        <ele>363</ele>
        <time>2015-06-14T09:39:47.000Z</time>
      </trkpt>
      <trkpt lat="47.43769" lon="6.8188">
        <ele>363</ele>
        <time>2015-06-14T09:39:48.000Z</time>
      </trkpt>
      <trkpt lat="47.43772" lon="6.81883">
        <ele>363</ele>
        <time>2015-06-14T09:39:51.000Z</time>
      </trkpt>
      <trkpt lat="47.43774" lon="6.81884">
        <ele>363</ele>
        <time>2015-06-14T09:39:52.000Z</time>
      </trkpt>
      <trkpt lat="47.43776" lon="6.81886">
        <ele>363</ele>
        <time>2015-06-14T09:39:54.000Z</time>
      </trkpt>
      <trkpt lat="47.43777" lon="6.81887">
        <ele>363</ele>
        <time>2015-06-14T09:39:55.000Z</time>
      </trkpt>
      <trkpt lat="47.4378" lon="6.8189">
        <ele>363</ele>
        <time>2015-06-14T09:39:57.000Z</time>
      </trkpt>
      <trkpt lat="47.43781" lon="6.81891">
        <ele>363</ele>
        <time>2015-06-14T09:39:58.000Z</time>
      </trkpt>
      <trkpt lat="47.43784" lon="6.81895">
        <ele>363</ele>
        <time>2015-06-14T09:40:01.000Z</time>
      </trkpt>
      <trkpt lat="47.43785" lon="6.81896">
        <ele>363</ele>
        <time>2015-06-14T09:40:02.000Z</time>
      </trkpt>
      <trkpt lat="47.43787" lon="6.819">
        <ele>363</ele>
        <time>2015-06-14T09:40:05.000Z</time>
      </trkpt>
      <trkpt lat="47.43788" lon="6.81901">
        <ele>363</ele>
        <time>2015-06-14T09:40:06.000Z</time>
      </trkpt>
      <trkpt lat="47.43792" lon="6.81904">
        <ele>363</ele>
        <time>2015-06-14T09:40:09.000Z</time>
      </trkpt>
      <trkpt lat="47.43793" lon="6.81904">
        <ele>364</ele>
        <time>2015-06-14T09:40:10.000Z</time>
      </trkpt>
      <trkpt lat="47.43796" lon="6.81907">
        <ele>364</ele>
        <time>2015-06-14T09:40:13.000Z</time>
      </trkpt>
      <trkpt lat="47.43798" lon="6.81907">
        <ele>364</ele>
        <time>2015-06-14T09:40:14.000Z</time>
      </trkpt>
      <trkpt lat="47.43802" lon="6.81908">
        <ele>364</ele>
        <time>2015-06-14T09:40:17.000Z</time>
      </trkpt>
      <trkpt lat="47.43803" lon="6.81907">
        <ele>365</ele>
        <time>2015-06-14T09:40:18.000Z</time>
      </trkpt>
      <trkpt lat="47.43807" lon="6.81907">
        <ele>365</ele>
        <time>2015-06-14T09:40:21.000Z</time>
      </trkpt>
      <trkpt lat="47.43809" lon="6.81905">
        <ele>365</ele>
        <time>2015-06-14T09:40:22.000Z</time>
      </trkpt>
      <trkpt lat="47.43812" lon="6.81901">
        <ele>365</ele>
        <time>2015-06-14T09:40:25.000Z</time>
      </trkpt>
      <trkpt lat="47.43813" lon="6.81901">
        <ele>365</ele>
        <time>2015-06-14T09:40:26.000Z</time>
      </trkpt>
      <trkpt lat="47.43817" lon="6.81898">
        <ele>366</ele>
        <time>2015-06-14T09:40:34.000Z</time>
      </trkpt>
      <trkpt lat="47.43818" lon="6.81898">
        <ele>366</ele>
        <time>2015-06-14T09:40:35.000Z</time>
      </trkpt>
      <trkpt lat="47.43821" lon="6.81897">
        <ele>366</ele>
        <time>2015-06-14T09:40:42.000Z</time>
      </trkpt>
      <trkpt lat="47.43822" lon="6.81897">
        <ele>366</ele>
        <time>2015-06-14T09:40:43.000Z</time>
      </trkpt>
      <trkpt lat="47.43827" lon="6.81897">
        <ele>366</ele>
        <time>2015-06-14T09:40:48.000Z</time>
      </trkpt>
      <trkpt lat="47.43827" lon="6.81898">
        <ele>366</ele>
        <time>2015-06-14T09:40:49.000Z</time>
      </trkpt>
      <trkpt lat="47.4383" lon="6.81901">
        <ele>366</ele>
        <time>2015-06-14T09:40:52.000Z</time>
      </trkpt>
      <trkpt lat="47.43832" lon="6.81903">
        <ele>367</ele>
        <time>2015-06-14T09:40:53.000Z</time>
      </trkpt>
      <trkpt lat="47.43835" lon="6.81905">
        <ele>368</ele>
        <time>2015-06-14T09:40:55.000Z</time>
      </trkpt>
      <trkpt lat="47.43836" lon="6.81907">
        <ele>368</ele>
        <time>2015-06-14T09:40:56.000Z</time>
      </trkpt>
      <trkpt lat="47.43839" lon="6.8191">
        <ele>368</ele>
        <time>2015-06-14T09:41:00.000Z</time>
      </trkpt>
      <trkpt lat="47.4384" lon="6.8191">
        <ele>368</ele>
        <time>2015-06-14T09:41:01.000Z</time>
      </trkpt>
      <trkpt lat="47.43844" lon="6.81912">
        <ele>368</ele>
        <time>2015-06-14T09:41:11.000Z</time>
      </trkpt>
      <trkpt lat="47.43844" lon="6.81912">
        <ele>368</ele>
        <time>2015-06-14T09:41:12.000Z</time>
      </trkpt>
      <trkpt lat="47.43847" lon="6.81916">
        <ele>368</ele>
        <time>2015-06-14T09:41:42.000Z</time>
      </trkpt>
      <trkpt lat="47.43848" lon="6.81917">
        <ele>366</ele>
        <time>2015-06-14T09:41:43.000Z</time>
      </trkpt>
      <trkpt lat="47.4385" lon="6.81919">
        <ele>365</ele>
        <time>2015-06-14T09:41:45.000Z</time>
      </trkpt>
      <trkpt lat="47.43852" lon="6.81921">
        <ele>365</ele>
        <time>2015-06-14T09:41:46.000Z</time>
      </trkpt>
      <trkpt lat="47.43856" lon="6.81923">
        <ele>365</ele>
        <time>2015-06-14T09:41:48.000Z</time>
      </trkpt>
      <trkpt lat="47.43857" lon="6.81925">
        <ele>364</ele>
        <time>2015-06-14T09:41:49.000Z</time>
      </trkpt>
      <trkpt lat="47.43861" lon="6.81927">
        <ele>364</ele>
        <time>2015-06-14T09:41:51.000Z</time>
      </trkpt>
      <trkpt lat="47.43862" lon="6.81928">
        <ele>364</ele>
        <time>2015-06-14T09:41:52.000Z</time>
      </trkpt>
      <trkpt lat="47.43866" lon="6.81929">
        <ele>364</ele>
        <time>2015-06-14T09:41:55.000Z</time>
      </trkpt>
      <trkpt lat="47.43868" lon="6.81928">
        <ele>364</ele>
        <time>2015-06-14T09:41:56.000Z</time>
      </trkpt>
      <trkpt lat="47.43871" lon="6.81927">
        <ele>364</ele>
        <time>2015-06-14T09:41:59.000Z</time>
      </trkpt>
      <trkpt lat="47.43872" lon="6.81927">
        <ele>364</ele>
        <time>2015-06-14T09:42:00.000Z</time>
      </trkpt>
      <trkpt lat="47.43876" lon="6.81927">
        <ele>364</ele>
        <time>2015-06-14T09:42:03.000Z</time>
      </trkpt>
      <trkpt lat="47.43877" lon="6.81928">
        <ele>364</ele>
        <time>2015-06-14T09:42:04.000Z</time>
      </trkpt>
      <trkpt lat="47.43881" lon="6.81928">
        <ele>364</ele>
        <time>2015-06-14T09:42:10.000Z</time>
      </trkpt>
      <trkpt lat="47.43882" lon="6.81928">
        <ele>364</ele>
        <time>2015-06-14T09:42:11.000Z</time>
      </trkpt>
      <trkpt lat="47.43886" lon="6.81928">
        <ele>364</ele>
        <time>2015-06-14T09:42:27.000Z</time>
      </trkpt>
      <trkpt lat="47.43887" lon="6.81928">
        <ele>364</ele>
        <time>2015-06-14T09:42:28.000Z</time>
      </trkpt>
      <trkpt lat="47.43891" lon="6.81929">
        <ele>364</ele>
        <time>2015-06-14T09:42:48.000Z</time>
      </trkpt>
      <trkpt lat="47.43891" lon="6.81928">
        <ele>364</ele>
        <time>2015-06-14T09:42:49.000Z</time>
      </trkpt>
      <trkpt lat="47.43894" lon="6.81925">
        <ele>365</ele>
        <time>2015-06-14T09:42:52.000Z</time>
      </trkpt>
      <trkpt lat="47.43896" lon="6.81923">
        <ele>365</ele>
        <time>2015-06-14T09:42:53.000Z</time>
      </trkpt>
      <trkpt lat="47.43898" lon="6.81919">
        <ele>365</ele>
        <time>2015-06-14T09:42:56.000Z</time>
      </trkpt>
      <trkpt lat="47.43899" lon="6.81918">
        <ele>365</ele>
        <time>2015-06-14T09:42:57.000Z</time>
      </trkpt>
      <trkpt lat="47.43901" lon="6.81916">
        <ele>368</ele>
        <time>2015-06-14T09:42:59.000Z</time>
      </trkpt>
      <trkpt lat="47.43903" lon="6.81914">
        <ele>368</ele>
        <time>2015-06-14T09:43:00.000Z</time>
      </trkpt>
      <trkpt lat="47.43905" lon="6.8191">
        <ele>368</ele>
        <time>2015-06-14T09:43:02.000Z</time>
      </trkpt>
      <trkpt lat="47.43906" lon="6.81908">
        <ele>368</ele>
        <time>2015-06-14T09:43:03.000Z</time>
      </trkpt>
      <trkpt lat="47.43908" lon="6.81904">
        <ele>368</ele>
        <time>2015-06-14T09:43:05.000Z</time>
      </trkpt>
      <trkpt lat="47.43909" lon="6.81901">
        <ele>368</ele>
        <time>2015-06-14T09:43:06.000Z</time>
      </trkpt>
      <trkpt lat="47.4391" lon="6.81896">
        <ele>368</ele>
        <time>2015-06-14T09:43:08.000Z</time>
      </trkpt>
      <trkpt lat="47.43911" lon="6.81894">
        <ele>368</ele>
        <time>2015-06-14T09:43:08.999Z</time>
      </trkpt>
      <trkpt lat="47.43913" lon="6.8189">
        <ele>368</ele>
        <time>2015-06-14T09:43:11.000Z</time>
      </trkpt>
      <trkpt lat="47.43913" lon="6.81887">
        <ele>368</ele>
        <time>2015-06-14T09:43:12.000Z</time>
      </trkpt>
      <trkpt lat="47.43915" lon="6.81883">
        <ele>368</ele>
        <time>2015-06-14T09:43:14.000Z</time>
      </trkpt>
      <trkpt lat="47.43916" lon="6.8188">
        <ele>368</ele>
        <time>2015-06-14T09:43:15.000Z</time>
      </trkpt>
      <trkpt lat="47.43918" lon="6.81876">
        <ele>367</ele>
        <time>2015-06-14T09:43:17.000Z</time>
      </trkpt>
      <trkpt lat="47.43919" lon="6.81873">
        <ele>367</ele>
        <time>2015-06-14T09:43:18.000Z</time>
      </trkpt>
      <trkpt lat="47.4392" lon="6.81868">
        <ele>367</ele>
        <time>2015-06-14T09:43:20.000Z</time>
      </trkpt>
      <trkpt lat="47.43921" lon="6.81865">
        <ele>367</ele>
        <time>2015-06-14T09:43:20.999Z</time>
      </trkpt>
      <trkpt lat="47.43922" lon="6.8186">
        <ele>367</ele>
        <time>2015-06-14T09:43:23.000Z</time>
      </trkpt>
      <trkpt lat="47.43922" lon="6.81858">
        <ele>367</ele>
        <time>2015-06-14T09:43:24.000Z</time>
      </trkpt>
      <trkpt lat="47.43923" lon="6.81853">
        <ele>368</ele>
        <time>2015-06-14T09:43:25.999Z</time>
      </trkpt>
      <trkpt lat="47.43924" lon="6.8185">
        <ele>368</ele>
        <time>2015-06-14T09:43:27.000Z</time>
      </trkpt>
      <trkpt lat="47.43926" lon="6.81845">
        <ele>368</ele>
        <time>2015-06-14T09:43:29.000Z</time>
      </trkpt>
      <trkpt lat="47.43927" lon="6.81842">
        <ele>368</ele>
        <time>2015-06-14T09:43:30.000Z</time>
      </trkpt>
      <trkpt lat="47.43928" lon="6.8184">
        <ele>368</ele>
        <time>2015-06-14T09:43:31.000Z</time>
      </trkpt>
      <trkpt lat="47.4393" lon="6.81836">
        <ele>368</ele>
        <time>2015-06-14T09:43:32.000Z</time>
      </trkpt>
      <trkpt lat="47.43931" lon="6.81833">
        <ele>368</ele>
        <time>2015-06-14T09:43:33.000Z</time>
      </trkpt>
      <trkpt lat="47.43933" lon="6.81829">
        <ele>368</ele>
        <time>2015-06-14T09:43:34.000Z</time>
      </trkpt>
      <trkpt lat="47.43934" lon="6.81826">
        <ele>368</ele>
        <time>2015-06-14T09:43:35.000Z</time>
      </trkpt>
      <trkpt lat="47.43935" lon="6.81823">
        <ele>368</ele>
        <time>2015-06-14T09:43:36.000Z</time>
      </trkpt>
      <trkpt lat="47.43937" lon="6.81817">
        <ele>368</ele>
        <time>2015-06-14T09:43:38.000Z</time>
      </trkpt>
      <trkpt lat="47.43938" lon="6.81814">
        <ele>368</ele>
        <time>2015-06-14T09:43:39.000Z</time>
      </trkpt>
      <trkpt lat="47.43939" lon="6.81811">
        <ele>368</ele>
        <time>2015-06-14T09:43:40.000Z</time>
      </trkpt>
      <trkpt lat="47.4394" lon="6.81807">
        <ele>368</ele>
        <time>2015-06-14T09:43:41.000Z</time>
      </trkpt>
      <trkpt lat="47.43942" lon="6.81804">
        <ele>368</ele>
        <time>2015-06-14T09:43:42.000Z</time>
      </trkpt>
      <trkpt lat="47.43943" lon="6.818">
        <ele>368</ele>
        <time>2015-06-14T09:43:43.000Z</time>
      </trkpt>
      <trkpt lat="47.43945" lon="6.81797">
        <ele>368</ele>
        <time>2015-06-14T09:43:44.000Z</time>
      </trkpt>
      <trkpt lat="47.43946" lon="6.81793">
        <ele>368</ele>
        <time>2015-06-14T09:43:45.000Z</time>
      </trkpt>
      <trkpt lat="47.43949" lon="6.81789">
        <ele>368</ele>
        <time>2015-06-14T09:43:46.000Z</time>
      </trkpt>
      <trkpt lat="47.43951" lon="6.81786">
        <ele>368</ele>
        <time>2015-06-14T09:43:47.000Z</time>
      </trkpt>
      <trkpt lat="47.43953" lon="6.81782">
        <ele>368</ele>
        <time>2015-06-14T09:43:48.000Z</time>
      </trkpt>
      <trkpt lat="47.43955" lon="6.81779">
        <ele>368</ele>
        <time>2015-06-14T09:43:49.000Z</time>
      </trkpt>
      <trkpt lat="47.43957" lon="6.81775">
        <ele>368</ele>
        <time>2015-06-14T09:43:50.000Z</time>
      </trkpt>
      <trkpt lat="47.43959" lon="6.81771">
        <ele>368</ele>
        <time>2015-06-14T09:43:51.000Z</time>
      </trkpt>
      <trkpt lat="47.43961" lon="6.81767">
        <ele>368</ele>
        <time>2015-06-14T09:43:52.000Z</time>
      </trkpt>
      <trkpt lat="47.43963" lon="6.81764">
        <ele>368</ele>
        <time>2015-06-14T09:43:53.000Z</time>
      </trkpt>
      <trkpt lat="47.43964" lon="6.8176">
        <ele>368</ele>
        <time>2015-06-14T09:43:54.000Z</time>
      </trkpt>
      <trkpt lat="47.43966" lon="6.81755">
        <ele>368</ele>
        <time>2015-06-14T09:43:55.000Z</time>
      </trkpt>
      <trkpt lat="47.43968" lon="6.81751">
        <ele>368</ele>
        <time>2015-06-14T09:43:56.000Z</time>
      </trkpt>
      <trkpt lat="47.43969" lon="6.81747">
        <ele>368</ele>
        <time>2015-06-14T09:43:57.000Z</time>
      </trkpt>
      <trkpt lat="47.4397" lon="6.81743">
        <ele>368</ele>
        <time>2015-06-14T09:43:58.000Z</time>
      </trkpt>
      <trkpt lat="47.43972" lon="6.81739">
        <ele>368</ele>
        <time>2015-06-14T09:43:59.000Z</time>
      </trkpt>
      <trkpt lat="47.43973" lon="6.81735">
        <ele>368</ele>
        <time>2015-06-14T09:44:00.000Z</time>
      </trkpt>
      <trkpt lat="47.43975" lon="6.8173">
        <ele>368</ele>
        <time>2015-06-14T09:44:01.000Z</time>
      </trkpt>
      <trkpt lat="47.43977" lon="6.81726">
        <ele>367</ele>
        <time>2015-06-14T09:44:02.000Z</time>
      </trkpt>
      <trkpt lat="47.43979" lon="6.81722">
        <ele>367</ele>
        <time>2015-06-14T09:44:03.000Z</time>
      </trkpt>
      <trkpt lat="47.4398" lon="6.81717">
        <ele>367</ele>
        <time>2015-06-14T09:44:04.000Z</time>
      </trkpt>
      <trkpt lat="47.43982" lon="6.81713">
        <ele>367</ele>
        <time>2015-06-14T09:44:05.000Z</time>
      </trkpt>
      <trkpt lat="47.43983" lon="6.81709">
        <ele>367</ele>
        <time>2015-06-14T09:44:06.000Z</time>
      </trkpt>
      <trkpt lat="47.43985" lon="6.81704">
        <ele>367</ele>
        <time>2015-06-14T09:44:07.000Z</time>
      </trkpt>
      <trkpt lat="47.43987" lon="6.817">
        <ele>367</ele>
        <time>2015-06-14T09:44:08.000Z</time>
      </trkpt>
      <trkpt lat="47.43988" lon="6.81695">
        <ele>367</ele>
        <time>2015-06-14T09:44:09.000Z</time>
      </trkpt>
      <trkpt lat="47.4399" lon="6.81691">
        <ele>367</ele>
        <time>2015-06-14T09:44:10.000Z</time>
      </trkpt>
      <trkpt lat="47.43992" lon="6.81686">
        <ele>367</ele>
        <time>2015-06-14T09:44:11.000Z</time>
      </trkpt>
      <trkpt lat="47.43993" lon="6.81682">
        <ele>367</ele>
        <time>2015-06-14T09:44:12.001Z</time>
      </trkpt>
      <trkpt lat="47.43995" lon="6.81678">
        <ele>367</ele>
        <time>2015-06-14T09:44:13.000Z</time>
      </trkpt>
      <trkpt lat="47.43996" lon="6.81674">
        <ele>367</ele>
        <time>2015-06-14T09:44:14.000Z</time>
      </trkpt>
      <trkpt lat="47.43998" lon="6.8167">
        <ele>366</ele>
        <time>2015-06-14T09:44:15.000Z</time>
      </trkpt>
      <trkpt lat="47.44" lon="6.81666">
        <ele>366</ele>
        <time>2015-06-14T09:44:16.000Z</time>
      </trkpt>
      <trkpt lat="47.44001" lon="6.81662">
        <ele>366</ele>
        <time>2015-06-14T09:44:17.000Z</time>
      </trkpt>
      <trkpt lat="47.44003" lon="6.81658">
        <ele>366</ele>
        <time>2015-06-14T09:44:18.000Z</time>
      </trkpt>
      <trkpt lat="47.44005" lon="6.81654">
        <ele>365</ele>
        <time>2015-06-14T09:44:18.999Z</time>
      </trkpt>
      <trkpt lat="47.44007" lon="6.81651">
        <ele>365</ele>
        <time>2015-06-14T09:44:20.000Z</time>
      </trkpt>
      <trkpt lat="47.44009" lon="6.81647">
        <ele>365</ele>
        <time>2015-06-14T09:44:21.000Z</time>
      </trkpt>
      <trkpt lat="47.44012" lon="6.81643">
        <ele>365</ele>
        <time>2015-06-14T09:44:22.000Z</time>
      </trkpt>
      <trkpt lat="47.44013" lon="6.81638">
        <ele>365</ele>
        <time>2015-06-14T09:44:23.000Z</time>
      </trkpt>
      <trkpt lat="47.44015" lon="6.81635">
        <ele>365</ele>
        <time>2015-06-14T09:44:24.000Z</time>
      </trkpt>
      <trkpt lat="47.44017" lon="6.8163">
        <ele>365</ele>
        <time>2015-06-14T09:44:25.000Z</time>
      </trkpt>
      <trkpt lat="47.44018" lon="6.81626">
        <ele>365</ele>
        <time>2015-06-14T09:44:26.000Z</time>
      </trkpt>
      <trkpt lat="47.4402" lon="6.81622">
        <ele>365</ele>
        <time>2015-06-14T09:44:27.000Z</time>
      </trkpt>
      <trkpt lat="47.44021" lon="6.81618">
        <ele>365</ele>
        <time>2015-06-14T09:44:27.999Z</time>
      </trkpt>
      <trkpt lat="47.44023" lon="6.81615">
        <ele>365</ele>
        <time>2015-06-14T09:44:29.000Z</time>
      </trkpt>
      <trkpt lat="47.44026" lon="6.81612">
        <ele>365</ele>
        <time>2015-06-14T09:44:30.000Z</time>
      </trkpt>
      <trkpt lat="47.4403" lon="6.81612">
        <ele>365</ele>
        <time>2015-06-14T09:44:31.000Z</time>
      </trkpt>
      <trkpt lat="47.44035" lon="6.81611">
        <ele>365</ele>
        <time>2015-06-14T09:44:31.999Z</time>
      </trkpt>
      <trkpt lat="47.4404" lon="6.81613">
        <ele>365</ele>
        <time>2015-06-14T09:44:33.000Z</time>
      </trkpt>
      <trkpt lat="47.44045" lon="6.81616">
        <ele>364</ele>
        <time>2015-06-14T09:44:34.000Z</time>
      </trkpt>
      <trkpt lat="47.4405" lon="6.81618">
        <ele>364</ele>
        <time>2015-06-14T09:44:35.000Z</time>
      </trkpt>
      <trkpt lat="47.44054" lon="6.8162">
        <ele>364</ele>
        <time>2015-06-14T09:44:36.000Z</time>
      </trkpt>
      <trkpt lat="47.44059" lon="6.81623">
        <ele>364</ele>
        <time>2015-06-14T09:44:37.000Z</time>
      </trkpt>
      <trkpt lat="47.44064" lon="6.81626">
        <ele>364</ele>
        <time>2015-06-14T09:44:38.000Z</time>
      </trkpt>
      <trkpt lat="47.44068" lon="6.81629">
        <ele>364</ele>
        <time>2015-06-14T09:44:39.000Z</time>
      </trkpt>
      <trkpt lat="47.44072" lon="6.8163">
        <ele>364</ele>
        <time>2015-06-14T09:44:40.000Z</time>
      </trkpt>
      <trkpt lat="47.44076" lon="6.81633">
        <ele>364</ele>
        <time>2015-06-14T09:44:41.000Z</time>
      </trkpt>
      <trkpt lat="47.4408" lon="6.81637">
        <ele>364</ele>
        <time>2015-06-14T09:44:42.000Z</time>
      </trkpt>
      <trkpt lat="47.44084" lon="6.81638">
        <ele>361</ele>
        <time>2015-06-14T09:44:43.000Z</time>
      </trkpt>
      <trkpt lat="47.44088" lon="6.81641">
        <ele>361</ele>
        <time>2015-06-14T09:44:44.000Z</time>
      </trkpt>
      <trkpt lat="47.44092" lon="6.81644">
        <ele>361</ele>
        <time>2015-06-14T09:44:45.000Z</time>
      </trkpt>
      <trkpt lat="47.44096" lon="6.81647">
        <ele>361</ele>
        <time>2015-06-14T09:44:45.999Z</time>
      </trkpt>
      <trkpt lat="47.44099" lon="6.81649">
        <ele>361</ele>
        <time>2015-06-14T09:44:47.000Z</time>
      </trkpt>
      <trkpt lat="47.44103" lon="6.81651">
        <ele>361</ele>
        <time>2015-06-14T09:44:48.000Z</time>
      </trkpt>
      <trkpt lat="47.44108" lon="6.81657">
        <ele>361</ele>
        <time>2015-06-14T09:44:49.000Z</time>
      </trkpt>
      <trkpt lat="47.44113" lon="6.8166">
        <ele>361</ele>
        <time>2015-06-14T09:44:50.000Z</time>
      </trkpt>
      <trkpt lat="47.44117" lon="6.81663">
        <ele>360</ele>
        <time>2015-06-14T09:44:50.998Z</time>
      </trkpt>
      <trkpt lat="47.44121" lon="6.81667">
        <ele>359</ele>
        <time>2015-06-14T09:44:52.000Z</time>
      </trkpt>
      <trkpt lat="47.44125" lon="6.81671">
        <ele>359</ele>
        <time>2015-06-14T09:44:53.000Z</time>
      </trkpt>
      <trkpt lat="47.44131" lon="6.81667">
        <ele>360</ele>
        <time>2015-06-14T09:44:54.000Z</time>
      </trkpt>
      <trkpt lat="47.44135" lon="6.81664">
        <ele>359</ele>
        <time>2015-06-14T09:44:55.000Z</time>
      </trkpt>
      <trkpt lat="47.44138" lon="6.81664">
        <ele>359</ele>
        <time>2015-06-14T09:44:56.000Z</time>
      </trkpt>
      <trkpt lat="47.44141" lon="6.81663">
        <ele>359</ele>
        <time>2015-06-14T09:44:57.000Z</time>
      </trkpt>
      <trkpt lat="47.44143" lon="6.81663">
        <ele>359</ele>
        <time>2015-06-14T09:44:58.000Z</time>
      </trkpt>
      <trkpt lat="47.44147" lon="6.81662">
        <ele>359</ele>
        <time>2015-06-14T09:45:17.000Z</time>
      </trkpt>
      <trkpt lat="47.44148" lon="6.81663">
        <ele>359</ele>
        <time>2015-06-14T09:45:18.000Z</time>
      </trkpt>
      <trkpt lat="47.44152" lon="6.81659">
        <ele>359</ele>
        <time>2015-06-14T09:45:33.000Z</time>
      </trkpt>
      <trkpt lat="47.44152" lon="6.81658">
        <ele>358</ele>
        <time>2015-06-14T09:45:33.999Z</time>
      </trkpt>
      <trkpt lat="47.44154" lon="6.81655">
        <ele>358</ele>
        <time>2015-06-14T09:45:36.000Z</time>
      </trkpt>
      <trkpt lat="47.44156" lon="6.81653">
        <ele>359</ele>
        <time>2015-06-14T09:45:37.000Z</time>
      </trkpt>
      <trkpt lat="47.44159" lon="6.81649">
        <ele>359</ele>
        <time>2015-06-14T09:45:39.001Z</time>
      </trkpt>
      <trkpt lat="47.44168" lon="6.81647">
        <ele>353</ele>
        <time>2015-06-14T09:45:40.000Z</time>
      </trkpt>
      <trkpt lat="47.44171" lon="6.81645">
        <ele>353</ele>
        <time>2015-06-14T09:45:41.000Z</time>
      </trkpt>
      <trkpt lat="47.44174" lon="6.81642">
        <ele>352</ele>
        <time>2015-06-14T09:45:42.000Z</time>
      </trkpt>
      <trkpt lat="47.44176" lon="6.81639">
        <ele>352</ele>
        <time>2015-06-14T09:45:43.000Z</time>
      </trkpt>
      <trkpt lat="47.44179" lon="6.81636">
        <ele>352</ele>
        <time>2015-06-14T09:45:44.000Z</time>
      </trkpt>
      <trkpt lat="47.44182" lon="6.81633">
        <ele>352</ele>
        <time>2015-06-14T09:45:45.000Z</time>
      </trkpt>
      <trkpt lat="47.44185" lon="6.8163">
        <ele>351</ele>
        <time>2015-06-14T09:45:46.000Z</time>
      </trkpt>
      <trkpt lat="47.44188" lon="6.81626">
        <ele>351</ele>
        <time>2015-06-14T09:45:47.000Z</time>
      </trkpt>
      <trkpt lat="47.44193" lon="6.8163">
        <ele>351</ele>
        <time>2015-06-14T09:45:48.000Z</time>
      </trkpt>
      <trkpt lat="47.44197" lon="6.81631">
        <ele>350</ele>
        <time>2015-06-14T09:45:49.000Z</time>
      </trkpt>
      <trkpt lat="47.44202" lon="6.81625">
        <ele>350</ele>
        <time>2015-06-14T09:45:50.000Z</time>
      </trkpt>
      <trkpt lat="47.44207" lon="6.81624">
        <ele>349</ele>
        <time>2015-06-14T09:45:51.000Z</time>
      </trkpt>
      <trkpt lat="47.44212" lon="6.81621">
        <ele>349</ele>
        <time>2015-06-14T09:45:52.000Z</time>
      </trkpt>
      <trkpt lat="47.44215" lon="6.8162">
        <ele>349</ele>
        <time>2015-06-14T09:45:53.000Z</time>
      </trkpt>
      <trkpt lat="47.44219" lon="6.81619">
        <ele>348</ele>
        <time>2015-06-14T09:45:54.000Z</time>
      </trkpt>
      <trkpt lat="47.44224" lon="6.81617">
        <ele>348</ele>
        <time>2015-06-14T09:45:55.000Z</time>
      </trkpt>
      <trkpt lat="47.44228" lon="6.81614">
        <ele>348</ele>
        <time>2015-06-14T09:45:56.000Z</time>
      </trkpt>
      <trkpt lat="47.44232" lon="6.81611">
        <ele>348</ele>
        <time>2015-06-14T09:45:57.000Z</time>
      </trkpt>
      <trkpt lat="47.44236" lon="6.81609">
        <ele>347</ele>
        <time>2015-06-14T09:45:58.000Z</time>
      </trkpt>
      <trkpt lat="47.4424" lon="6.81606">
        <ele>347</ele>
        <time>2015-06-14T09:45:59.000Z</time>
      </trkpt>
      <trkpt lat="47.44244" lon="6.81601">
        <ele>347</ele>
        <time>2015-06-14T09:46:00.000Z</time>
      </trkpt>
      <trkpt lat="47.44249" lon="6.81596">
        <ele>346</ele>
        <time>2015-06-14T09:46:01.000Z</time>
      </trkpt>
      <trkpt lat="47.44254" lon="6.81587">
        <ele>343</ele>
        <time>2015-06-14T09:46:02.000Z</time>
      </trkpt>
      <trkpt lat="47.44258" lon="6.81579">
        <ele>344</ele>
        <time>2015-06-14T09:46:03.000Z</time>
      </trkpt>
      <trkpt lat="47.44261" lon="6.81566">
        <ele>343</ele>
        <time>2015-06-14T09:46:04.000Z</time>
      </trkpt>
      <trkpt lat="47.44264" lon="6.81558">
        <ele>342</ele>
        <time>2015-06-14T09:46:05.000Z</time>
      </trkpt>
      <trkpt lat="47.44267" lon="6.81549">
        <ele>342</ele>
        <time>2015-06-14T09:46:06.000Z</time>
      </trkpt>
      <trkpt lat="47.4427" lon="6.81543">
        <ele>342</ele>
        <time>2015-06-14T09:46:07.000Z</time>
      </trkpt>
      <trkpt lat="47.44272" lon="6.81538">
        <ele>342</ele>
        <time>2015-06-14T09:46:08.000Z</time>
      </trkpt>
      <trkpt lat="47.44275" lon="6.81533">
        <ele>342</ele>
        <time>2015-06-14T09:46:09.000Z</time>
      </trkpt>
      <trkpt lat="47.44277" lon="6.81528">
        <ele>342</ele>
        <time>2015-06-14T09:46:10.000Z</time>
      </trkpt>
      <trkpt lat="47.4428" lon="6.81523">
        <ele>342</ele>
        <time>2015-06-14T09:46:11.000Z</time>
      </trkpt>
      <trkpt lat="47.44282" lon="6.81519">
        <ele>342</ele>
        <time>2015-06-14T09:46:12.000Z</time>
      </trkpt>
      <trkpt lat="47.44285" lon="6.81514">
        <ele>342</ele>
        <time>2015-06-14T09:46:13.000Z</time>
      </trkpt>
      <trkpt lat="47.44287" lon="6.8151">
        <ele>342</ele>
        <time>2015-06-14T09:46:14.000Z</time>
      </trkpt>
      <trkpt lat="47.44289" lon="6.81506">
        <ele>342</ele>
        <time>2015-06-14T09:46:15.000Z</time>
      </trkpt>
      <trkpt lat="47.44291" lon="6.81501">
        <ele>341</ele>
        <time>2015-06-14T09:46:16.000Z</time>
      </trkpt>
      <trkpt lat="47.44294" lon="6.81497">
        <ele>345</ele>
        <time>2015-06-14T09:46:17.000Z</time>
      </trkpt>
      <trkpt lat="47.44296" lon="6.81492">
        <ele>344</ele>
        <time>2015-06-14T09:46:18.000Z</time>
      </trkpt>
      <trkpt lat="47.44298" lon="6.81487">
        <ele>344</ele>
        <time>2015-06-14T09:46:19.000Z</time>
      </trkpt>
      <trkpt lat="47.44301" lon="6.81484">
        <ele>344</ele>
        <time>2015-06-14T09:46:20.000Z</time>
      </trkpt>
      <trkpt lat="47.44304" lon="6.81482">
        <ele>344</ele>
        <time>2015-06-14T09:46:21.000Z</time>
      </trkpt>
      <trkpt lat="47.44307" lon="6.81482">
        <ele>344</ele>
        <time>2015-06-14T09:46:22.000Z</time>
      </trkpt>
      <trkpt lat="47.4431" lon="6.81486">
        <ele>343</ele>
        <time>2015-06-14T09:46:24.000Z</time>
      </trkpt>
      <trkpt lat="47.4431" lon="6.81488">
        <ele>343</ele>
        <time>2015-06-14T09:46:25.000Z</time>
      </trkpt>
      <trkpt lat="47.44314" lon="6.81485">
        <ele>342</ele>
        <time>2015-06-14T09:46:31.000Z</time>
      </trkpt>
      <trkpt lat="47.44316" lon="6.81482">
        <ele>342</ele>
        <time>2015-06-14T09:46:32.000Z</time>
      </trkpt>
      <trkpt lat="47.44318" lon="6.81478">
        <ele>343</ele>
        <time>2015-06-14T09:46:33.000Z</time>
      </trkpt>
      <trkpt lat="47.44321" lon="6.81475">
        <ele>343</ele>
        <time>2015-06-14T09:46:34.000Z</time>
      </trkpt>
      <trkpt lat="47.44324" lon="6.81471">
        <ele>343</ele>
        <time>2015-06-14T09:46:35.000Z</time>
      </trkpt>
      <trkpt lat="47.44327" lon="6.81466">
        <ele>343</ele>
        <time>2015-06-14T09:46:36.000Z</time>
      </trkpt>
      <trkpt lat="47.4433" lon="6.81462">
        <ele>344</ele>
        <time>2015-06-14T09:46:37.000Z</time>
      </trkpt>
      <trkpt lat="47.44333" lon="6.81458">
        <ele>344</ele>
        <time>2015-06-14T09:46:38.000Z</time>
      </trkpt>
      <trkpt lat="47.44336" lon="6.81453">
        <ele>338</ele>
        <time>2015-06-14T09:46:39.000Z</time>
      </trkpt>
      <trkpt lat="47.44341" lon="6.81448">
        <ele>339</ele>
        <time>2015-06-14T09:46:40.000Z</time>
      </trkpt>
      <trkpt lat="47.44344" lon="6.81443">
        <ele>339</ele>
        <time>2015-06-14T09:46:41.000Z</time>
      </trkpt>
      <trkpt lat="47.44347" lon="6.81439">
        <ele>339</ele>
        <time>2015-06-14T09:46:42.000Z</time>
      </trkpt>
      <trkpt lat="47.44349" lon="6.81434">
        <ele>340</ele>
        <time>2015-06-14T09:46:43.000Z</time>
      </trkpt>
      <trkpt lat="47.44352" lon="6.8143">
        <ele>340</ele>
        <time>2015-06-14T09:46:44.000Z</time>
      </trkpt>
      <trkpt lat="47.44355" lon="6.81426">
        <ele>340</ele>
        <time>2015-06-14T09:46:45.000Z</time>
      </trkpt>
      <trkpt lat="47.44358" lon="6.81421">
        <ele>340</ele>
        <time>2015-06-14T09:46:46.000Z</time>
      </trkpt>
      <trkpt lat="47.44357" lon="6.81414">
        <ele>343</ele>
        <time>2015-06-14T09:46:47.000Z</time>
      </trkpt>
      <trkpt lat="47.44362" lon="6.81408">
        <ele>343</ele>
        <time>2015-06-14T09:46:48.000Z</time>
      </trkpt>
      <trkpt lat="47.44366" lon="6.81402">
        <ele>343</ele>
        <time>2015-06-14T09:46:49.000Z</time>
      </trkpt>
      <trkpt lat="47.44371" lon="6.81397">
        <ele>343</ele>
        <time>2015-06-14T09:46:50.000Z</time>
      </trkpt>
      <trkpt lat="47.44375" lon="6.8139">
        <ele>342</ele>
        <time>2015-06-14T09:46:51.000Z</time>
      </trkpt>
      <trkpt lat="47.44379" lon="6.81386">
        <ele>342</ele>
        <time>2015-06-14T09:46:52.000Z</time>
      </trkpt>
      <trkpt lat="47.44384" lon="6.81382">
        <ele>342</ele>
        <time>2015-06-14T09:46:53.000Z</time>
      </trkpt>
      <trkpt lat="47.44388" lon="6.81376">
        <ele>342</ele>
        <time>2015-06-14T09:46:54.000Z</time>
      </trkpt>
      <trkpt lat="47.44391" lon="6.81369">
        <ele>342</ele>
        <time>2015-06-14T09:46:55.000Z</time>
      </trkpt>
      <trkpt lat="47.44395" lon="6.81362">
        <ele>342</ele>
        <time>2015-06-14T09:46:56.000Z</time>
      </trkpt>
      <trkpt lat="47.44398" lon="6.81355">
        <ele>341</ele>
        <time>2015-06-14T09:46:57.000Z</time>
      </trkpt>
      <trkpt lat="47.44401" lon="6.81348">
        <ele>341</ele>
        <time>2015-06-14T09:46:58.000Z</time>
      </trkpt>
      <trkpt lat="47.44405" lon="6.81342">
        <ele>340</ele>
        <time>2015-06-14T09:46:59.000Z</time>
      </trkpt>
      <trkpt lat="47.44409" lon="6.81336">
        <ele>340</ele>
        <time>2015-06-14T09:47:00.000Z</time>
      </trkpt>
      <trkpt lat="47.44413" lon="6.81331">
        <ele>340</ele>
        <time>2015-06-14T09:47:01.000Z</time>
      </trkpt>
      <trkpt lat="47.44417" lon="6.81326">
        <ele>338</ele>
        <time>2015-06-14T09:47:02.000Z</time>
      </trkpt>
      <trkpt lat="47.44421" lon="6.81321">
        <ele>338</ele>
        <time>2015-06-14T09:47:03.000Z</time>
      </trkpt>
      <trkpt lat="47.44425" lon="6.81314">
        <ele>338</ele>
        <time>2015-06-14T09:47:04.000Z</time>
      </trkpt>
      <trkpt lat="47.44429" lon="6.81309">
        <ele>338</ele>
        <time>2015-06-14T09:47:05.000Z</time>
      </trkpt>
      <trkpt lat="47.44433" lon="6.81304">
        <ele>338</ele>
        <time>2015-06-14T09:47:06.000Z</time>
      </trkpt>
      <trkpt lat="47.44436" lon="6.81298">
        <ele>338</ele>
        <time>2015-06-14T09:47:07.000Z</time>
      </trkpt>
      <trkpt lat="47.44439" lon="6.81293">
        <ele>338</ele>
        <time>2015-06-14T09:47:08.000Z</time>
      </trkpt>
      <trkpt lat="47.44442" lon="6.81287">
        <ele>338</ele>
        <time>2015-06-14T09:47:09.000Z</time>
      </trkpt>
      <trkpt lat="47.44445" lon="6.81281">
        <ele>339</ele>
        <time>2015-06-14T09:47:10.000Z</time>
      </trkpt>
      <trkpt lat="47.44449" lon="6.81275">
        <ele>339</ele>
        <time>2015-06-14T09:47:11.000Z</time>
      </trkpt>
      <trkpt lat="47.44452" lon="6.8127">
        <ele>339</ele>
        <time>2015-06-14T09:47:12.000Z</time>
      </trkpt>
      <trkpt lat="47.44456" lon="6.81266">
        <ele>338</ele>
        <time>2015-06-14T09:47:13.000Z</time>
      </trkpt>
      <trkpt lat="47.44459" lon="6.8126">
        <ele>338</ele>
        <time>2015-06-14T09:47:14.000Z</time>
      </trkpt>
      <trkpt lat="47.44462" lon="6.81254">
        <ele>338</ele>
        <time>2015-06-14T09:47:15.000Z</time>
      </trkpt>
      <trkpt lat="47.44465" lon="6.81249">
        <ele>342</ele>
        <time>2015-06-14T09:47:16.000Z</time>
      </trkpt>
      <trkpt lat="47.44468" lon="6.81245">
        <ele>341</ele>
        <time>2015-06-14T09:47:17.000Z</time>
      </trkpt>
      <trkpt lat="47.44471" lon="6.8124">
        <ele>341</ele>
        <time>2015-06-14T09:47:18.000Z</time>
      </trkpt>
      <trkpt lat="47.44474" lon="6.81235">
        <ele>341</ele>
        <time>2015-06-14T09:47:19.000Z</time>
      </trkpt>
      <trkpt lat="47.44478" lon="6.81231">
        <ele>341</ele>
        <time>2015-06-14T09:47:20.000Z</time>
      </trkpt>
      <trkpt lat="47.44481" lon="6.81226">
        <ele>341</ele>
        <time>2015-06-14T09:47:21.000Z</time>
      </trkpt>
      <trkpt lat="47.44485" lon="6.81221">
        <ele>341</ele>
        <time>2015-06-14T09:47:22.000Z</time>
      </trkpt>
      <trkpt lat="47.44488" lon="6.81218">
        <ele>341</ele>
        <time>2015-06-14T09:47:23.000Z</time>
      </trkpt>
      <trkpt lat="47.44491" lon="6.81212">
        <ele>342</ele>
        <time>2015-06-14T09:47:24.000Z</time>
      </trkpt>
      <trkpt lat="47.44494" lon="6.81206">
        <ele>342</ele>
        <time>2015-06-14T09:47:25.000Z</time>
      </trkpt>
      <trkpt lat="47.44497" lon="6.81202">
        <ele>342</ele>
        <time>2015-06-14T09:47:26.000Z</time>
      </trkpt>
      <trkpt lat="47.44501" lon="6.81196">
        <ele>338</ele>
        <time>2015-06-14T09:47:27.000Z</time>
      </trkpt>
      <trkpt lat="47.44504" lon="6.8119">
        <ele>338</ele>
        <time>2015-06-14T09:47:28.000Z</time>
      </trkpt>
      <trkpt lat="47.44507" lon="6.81184">
        <ele>339</ele>
        <time>2015-06-14T09:47:29.000Z</time>
      </trkpt>
      <trkpt lat="47.4451" lon="6.81178">
        <ele>339</ele>
        <time>2015-06-14T09:47:30.000Z</time>
      </trkpt>
      <trkpt lat="47.44513" lon="6.81172">
        <ele>339</ele>
        <time>2015-06-14T09:47:31.000Z</time>
      </trkpt>
      <trkpt lat="47.44517" lon="6.81166">
        <ele>341</ele>
        <time>2015-06-14T09:47:32.000Z</time>
      </trkpt>
      <trkpt lat="47.4452" lon="6.8116">
        <ele>341</ele>
        <time>2015-06-14T09:47:33.000Z</time>
      </trkpt>
      <trkpt lat="47.44523" lon="6.81159">
        <ele>341</ele>
        <time>2015-06-14T09:47:34.000Z</time>
      </trkpt>
      <trkpt lat="47.44526" lon="6.81155">
        <ele>341</ele>
        <time>2015-06-14T09:47:35.000Z</time>
      </trkpt>
      <trkpt lat="47.44529" lon="6.81147">
        <ele>341</ele>
        <time>2015-06-14T09:47:36.000Z</time>
      </trkpt>
      <trkpt lat="47.44532" lon="6.81142">
        <ele>341</ele>
        <time>2015-06-14T09:47:37.000Z</time>
      </trkpt>
      <trkpt lat="47.44535" lon="6.81136">
        <ele>341</ele>
        <time>2015-06-14T09:47:38.000Z</time>
      </trkpt>
      <trkpt lat="47.44539" lon="6.81131">
        <ele>341</ele>
        <time>2015-06-14T09:47:39.000Z</time>
      </trkpt>
      <trkpt lat="47.44542" lon="6.81126">
        <ele>341</ele>
        <time>2015-06-14T09:47:40.000Z</time>
      </trkpt>
      <trkpt lat="47.44545" lon="6.81121">
        <ele>341</ele>
        <time>2015-06-14T09:47:41.000Z</time>
      </trkpt>
      <trkpt lat="47.44547" lon="6.81116">
        <ele>341</ele>
        <time>2015-06-14T09:47:42.000Z</time>
      </trkpt>
      <trkpt lat="47.44551" lon="6.8111">
        <ele>341</ele>
        <time>2015-06-14T09:47:43.000Z</time>
      </trkpt>
      <trkpt lat="47.44553" lon="6.81106">
        <ele>341</ele>
        <time>2015-06-14T09:47:44.000Z</time>
      </trkpt>
      <trkpt lat="47.44556" lon="6.81101">
        <ele>341</ele>
        <time>2015-06-14T09:47:45.000Z</time>
      </trkpt>
      <trkpt lat="47.44559" lon="6.81096">
        <ele>341</ele>
        <time>2015-06-14T09:47:46.000Z</time>
      </trkpt>
      <trkpt lat="47.44563" lon="6.81091">
        <ele>340</ele>
        <time>2015-06-14T09:47:47.000Z</time>
      </trkpt>
      <trkpt lat="47.44565" lon="6.81086">
        <ele>340</ele>
        <time>2015-06-14T09:47:48.000Z</time>
      </trkpt>
      <trkpt lat="47.44568" lon="6.81082">
        <ele>342</ele>
        <time>2015-06-14T09:47:49.000Z</time>
      </trkpt>
      <trkpt lat="47.44571" lon="6.81078">
        <ele>341</ele>
        <time>2015-06-14T09:47:50.000Z</time>
      </trkpt>
      <trkpt lat="47.44573" lon="6.81074">
        <ele>341</ele>
        <time>2015-06-14T09:47:51.000Z</time>
      </trkpt>
      <trkpt lat="47.44575" lon="6.8107">
        <ele>342</ele>
        <time>2015-06-14T09:47:52.000Z</time>
      </trkpt>
      <trkpt lat="47.44577" lon="6.81065">
        <ele>342</ele>
        <time>2015-06-14T09:47:53.000Z</time>
      </trkpt>
      <trkpt lat="47.44579" lon="6.81061">
        <ele>342</ele>
        <time>2015-06-14T09:47:54.000Z</time>
      </trkpt>
      <trkpt lat="47.44581" lon="6.81059">
        <ele>342</ele>
        <time>2015-06-14T09:47:55.000Z</time>
      </trkpt>
      <trkpt lat="47.44584" lon="6.81056">
        <ele>338</ele>
        <time>2015-06-14T09:47:56.000Z</time>
      </trkpt>
      <trkpt lat="47.44587" lon="6.81054">
        <ele>338</ele>
        <time>2015-06-14T09:47:57.000Z</time>
      </trkpt>
      <trkpt lat="47.4459" lon="6.81054">
        <ele>338</ele>
        <time>2015-06-14T09:47:58.000Z</time>
      </trkpt>
      <trkpt lat="47.44593" lon="6.81054">
        <ele>338</ele>
        <time>2015-06-14T09:47:59.000Z</time>
      </trkpt>
      <trkpt lat="47.44595" lon="6.81056">
        <ele>338</ele>
        <time>2015-06-14T09:48:00.000Z</time>
      </trkpt>
      <trkpt lat="47.44598" lon="6.81054">
        <ele>338</ele>
        <time>2015-06-14T09:48:03.000Z</time>
      </trkpt>
      <trkpt lat="47.44599" lon="6.81053">
        <ele>338</ele>
        <time>2015-06-14T09:48:04.000Z</time>
      </trkpt>
      <trkpt lat="47.446" lon="6.81048">
        <ele>338</ele>
        <time>2015-06-14T09:48:07.000Z</time>
      </trkpt>
      <trkpt lat="47.446" lon="6.81046">
        <ele>338</ele>
        <time>2015-06-14T09:48:08.000Z</time>
      </trkpt>
      <trkpt lat="47.44602" lon="6.8104">
        <ele>338</ele>
        <time>2015-06-14T09:48:10.000Z</time>
      </trkpt>
      <trkpt lat="47.44604" lon="6.81036">
        <ele>338</ele>
        <time>2015-06-14T09:48:11.000Z</time>
      </trkpt>
      <trkpt lat="47.44605" lon="6.81032">
        <ele>338</ele>
        <time>2015-06-14T09:48:12.000Z</time>
      </trkpt>
      <trkpt lat="47.44606" lon="6.81028">
        <ele>338</ele>
        <time>2015-06-14T09:48:13.000Z</time>
      </trkpt>
      <trkpt lat="47.44608" lon="6.81024">
        <ele>338</ele>
        <time>2015-06-14T09:48:14.000Z</time>
      </trkpt>
      <trkpt lat="47.44609" lon="6.81021">
        <ele>338</ele>
        <time>2015-06-14T09:48:15.000Z</time>
      </trkpt>
      <trkpt lat="47.44609" lon="6.81017">
        <ele>338</ele>
        <time>2015-06-14T09:48:16.000Z</time>
      </trkpt>
      <trkpt lat="47.4461" lon="6.81013">
        <ele>338</ele>
        <time>2015-06-14T09:48:17.000Z</time>
      </trkpt>
      <trkpt lat="47.4461" lon="6.81007">
        <ele>339</ele>
        <time>2015-06-14T09:48:19.000Z</time>
      </trkpt>
      <trkpt lat="47.44611" lon="6.81004">
        <ele>339</ele>
        <time>2015-06-14T09:48:20.000Z</time>
      </trkpt>
      <trkpt lat="47.44612" lon="6.80999">
        <ele>340</ele>
        <time>2015-06-14T09:48:22.000Z</time>
      </trkpt>
      <trkpt lat="47.44613" lon="6.80997">
        <ele>340</ele>
        <time>2015-06-14T09:48:23.000Z</time>
      </trkpt>
      <trkpt lat="47.44616" lon="6.80993">
        <ele>340</ele>
        <time>2015-06-14T09:48:25.000Z</time>
      </trkpt>
      <trkpt lat="47.44618" lon="6.8099">
        <ele>340</ele>
        <time>2015-06-14T09:48:26.000Z</time>
      </trkpt>
      <trkpt lat="47.4462" lon="6.80987">
        <ele>339</ele>
        <time>2015-06-14T09:48:27.000Z</time>
      </trkpt>
      <trkpt lat="47.44623" lon="6.80984">
        <ele>339</ele>
        <time>2015-06-14T09:48:28.000Z</time>
      </trkpt>
      <trkpt lat="47.44626" lon="6.80981">
        <ele>339</ele>
        <time>2015-06-14T09:48:29.000Z</time>
      </trkpt>
      <trkpt lat="47.44629" lon="6.80977">
        <ele>339</ele>
        <time>2015-06-14T09:48:30.000Z</time>
      </trkpt>
      <trkpt lat="47.44633" lon="6.80972">
        <ele>339</ele>
        <time>2015-06-14T09:48:31.000Z</time>
      </trkpt>
      <trkpt lat="47.44636" lon="6.80968">
        <ele>339</ele>
        <time>2015-06-14T09:48:32.000Z</time>
      </trkpt>
      <trkpt lat="47.44643" lon="6.8096">
        <ele>339</ele>
        <time>2015-06-14T09:48:33.000Z</time>
      </trkpt>
      <trkpt lat="47.44647" lon="6.80956">
        <ele>339</ele>
        <time>2015-06-14T09:48:34.000Z</time>
      </trkpt>
      <trkpt lat="47.44651" lon="6.80951">
        <ele>339</ele>
        <time>2015-06-14T09:48:35.000Z</time>
      </trkpt>
      <trkpt lat="47.44655" lon="6.80946">
        <ele>338</ele>
        <time>2015-06-14T09:48:36.000Z</time>
      </trkpt>
      <trkpt lat="47.44659" lon="6.80942">
        <ele>338</ele>
        <time>2015-06-14T09:48:37.000Z</time>
      </trkpt>
      <trkpt lat="47.44664" lon="6.80936">
        <ele>338</ele>
        <time>2015-06-14T09:48:38.000Z</time>
      </trkpt>
      <trkpt lat="47.44669" lon="6.80932">
        <ele>336</ele>
        <time>2015-06-14T09:48:39.000Z</time>
      </trkpt>
      <trkpt lat="47.44674" lon="6.80927">
        <ele>336</ele>
        <time>2015-06-14T09:48:40.000Z</time>
      </trkpt>
      <trkpt lat="47.44679" lon="6.80922">
        <ele>336</ele>
        <time>2015-06-14T09:48:41.000Z</time>
      </trkpt>
      <trkpt lat="47.44684" lon="6.80917">
        <ele>336</ele>
        <time>2015-06-14T09:48:42.000Z</time>
      </trkpt>
      <trkpt lat="47.4469" lon="6.80913">
        <ele>337</ele>
        <time>2015-06-14T09:48:43.000Z</time>
      </trkpt>
      <trkpt lat="47.44696" lon="6.8091">
        <ele>336</ele>
        <time>2015-06-14T09:48:44.000Z</time>
      </trkpt>
      <trkpt lat="47.44702" lon="6.80906">
        <ele>336</ele>
        <time>2015-06-14T09:48:45.000Z</time>
      </trkpt>
      <trkpt lat="47.44707" lon="6.80903">
        <ele>336</ele>
        <time>2015-06-14T09:48:46.000Z</time>
      </trkpt>
      <trkpt lat="47.44712" lon="6.809">
        <ele>336</ele>
        <time>2015-06-14T09:48:47.000Z</time>
      </trkpt>
      <trkpt lat="47.44718" lon="6.80898">
        <ele>336</ele>
        <time>2015-06-14T09:48:48.000Z</time>
      </trkpt>
      <trkpt lat="47.44724" lon="6.80897">
        <ele>336</ele>
        <time>2015-06-14T09:48:49.000Z</time>
      </trkpt>
      <trkpt lat="47.4473" lon="6.80896">
        <ele>336</ele>
        <time>2015-06-14T09:48:50.000Z</time>
      </trkpt>
      <trkpt lat="47.44736" lon="6.80895">
        <ele>336</ele>
        <time>2015-06-14T09:48:51.000Z</time>
      </trkpt>
      <trkpt lat="47.44742" lon="6.80895">
        <ele>336</ele>
        <time>2015-06-14T09:48:52.000Z</time>
      </trkpt>
      <trkpt lat="47.44749" lon="6.80895">
        <ele>336</ele>
        <time>2015-06-14T09:48:53.000Z</time>
      </trkpt>
      <trkpt lat="47.44755" lon="6.80894">
        <ele>334</ele>
        <time>2015-06-14T09:48:54.000Z</time>
      </trkpt>
      <trkpt lat="47.44761" lon="6.80894">
        <ele>334</ele>
        <time>2015-06-14T09:48:55.000Z</time>
      </trkpt>
      <trkpt lat="47.44766" lon="6.80896">
        <ele>334</ele>
        <time>2015-06-14T09:48:56.000Z</time>
      </trkpt>
      <trkpt lat="47.44772" lon="6.80898">
        <ele>333</ele>
        <time>2015-06-14T09:48:57.000Z</time>
      </trkpt>
      <trkpt lat="47.44775" lon="6.80896">
        <ele>333</ele>
        <time>2015-06-14T09:48:58.000Z</time>
      </trkpt>
      <trkpt lat="47.44779" lon="6.80895">
        <ele>333</ele>
        <time>2015-06-14T09:48:59.000Z</time>
      </trkpt>
      <trkpt lat="47.44783" lon="6.80893">
        <ele>333</ele>
        <time>2015-06-14T09:49:00.000Z</time>
      </trkpt>
      <trkpt lat="47.44787" lon="6.8089">
        <ele>333</ele>
        <time>2015-06-14T09:49:01.000Z</time>
      </trkpt>
      <trkpt lat="47.4479" lon="6.80885">
        <ele>333</ele>
        <time>2015-06-14T09:49:02.000Z</time>
      </trkpt>
      <trkpt lat="47.44794" lon="6.8088">
        <ele>333</ele>
        <time>2015-06-14T09:49:03.000Z</time>
      </trkpt>
      <trkpt lat="47.44798" lon="6.80876">
        <ele>333</ele>
        <time>2015-06-14T09:49:04.000Z</time>
      </trkpt>
      <trkpt lat="47.44802" lon="6.80871">
        <ele>333</ele>
        <time>2015-06-14T09:49:05.000Z</time>
      </trkpt>
      <trkpt lat="47.44805" lon="6.80867">
        <ele>332</ele>
        <time>2015-06-14T09:49:06.000Z</time>
      </trkpt>
      <trkpt lat="47.44808" lon="6.80862">
        <ele>332</ele>
        <time>2015-06-14T09:49:07.000Z</time>
      </trkpt>
      <trkpt lat="47.44811" lon="6.80857">
        <ele>332</ele>
        <time>2015-06-14T09:49:08.000Z</time>
      </trkpt>
      <trkpt lat="47.44815" lon="6.80852">
        <ele>332</ele>
        <time>2015-06-14T09:49:09.000Z</time>
      </trkpt>
      <trkpt lat="47.44818" lon="6.80847">
        <ele>332</ele>
        <time>2015-06-14T09:49:10.000Z</time>
      </trkpt>
      <trkpt lat="47.44821" lon="6.80843">
        <ele>332</ele>
        <time>2015-06-14T09:49:11.000Z</time>
      </trkpt>
      <trkpt lat="47.44825" lon="6.80836">
        <ele>332</ele>
        <time>2015-06-14T09:49:12.000Z</time>
      </trkpt>
      <trkpt lat="47.44828" lon="6.80831">
        <ele>332</ele>
        <time>2015-06-14T09:49:13.000Z</time>
      </trkpt>
      <trkpt lat="47.44832" lon="6.80826">
        <ele>332</ele>
        <time>2015-06-14T09:49:14.000Z</time>
      </trkpt>
      <trkpt lat="47.44837" lon="6.8082">
        <ele>331</ele>
        <time>2015-06-14T09:49:15.000Z</time>
      </trkpt>
      <trkpt lat="47.4484" lon="6.80815">
        <ele>331</ele>
        <time>2015-06-14T09:49:16.000Z</time>
      </trkpt>
      <trkpt lat="47.44844" lon="6.80811">
        <ele>331</ele>
        <time>2015-06-14T09:49:17.000Z</time>
      </trkpt>
      <trkpt lat="47.44849" lon="6.80807">
        <ele>331</ele>
        <time>2015-06-14T09:49:18.000Z</time>
      </trkpt>
      <trkpt lat="47.44852" lon="6.80802">
        <ele>331</ele>
        <time>2015-06-14T09:49:19.000Z</time>
      </trkpt>
      <trkpt lat="47.44855" lon="6.80797">
        <ele>331</ele>
        <time>2015-06-14T09:49:20.000Z</time>
      </trkpt>
      <trkpt lat="47.44859" lon="6.80793">
        <ele>331</ele>
        <time>2015-06-14T09:49:21.000Z</time>
      </trkpt>
      <trkpt lat="47.44863" lon="6.80789">
        <ele>331</ele>
        <time>2015-06-14T09:49:22.000Z</time>
      </trkpt>
      <trkpt lat="47.44866" lon="6.80784">
        <ele>331</ele>
        <time>2015-06-14T09:49:22.999Z</time>
      </trkpt>
      <trkpt lat="47.44867" lon="6.80782">
        <ele>331</ele>
        <time>2015-06-14T09:49:24.000Z</time>
      </trkpt>
      <trkpt lat="47.4487" lon="6.80779">
        <ele>331</ele>
        <time>2015-06-14T09:49:25.000Z</time>
      </trkpt>
      <trkpt lat="47.44874" lon="6.80775">
        <ele>331</ele>
        <time>2015-06-14T09:49:26.000Z</time>
      </trkpt>
      <trkpt lat="47.44878" lon="6.8077">
        <ele>331</ele>
        <time>2015-06-14T09:49:27.000Z</time>
      </trkpt>
      <trkpt lat="47.44882" lon="6.80766">
        <ele>331</ele>
        <time>2015-06-14T09:49:28.000Z</time>
      </trkpt>
      <trkpt lat="47.44885" lon="6.80763">
        <ele>330</ele>
        <time>2015-06-14T09:49:29.000Z</time>
      </trkpt>
      <trkpt lat="47.44889" lon="6.80757">
        <ele>330</ele>
        <time>2015-06-14T09:49:30.000Z</time>
      </trkpt>
      <trkpt lat="47.44893" lon="6.80752">
        <ele>330</ele>
        <time>2015-06-14T09:49:31.001Z</time>
      </trkpt>
      <trkpt lat="47.44896" lon="6.80749">
        <ele>331</ele>
        <time>2015-06-14T09:49:32.000Z</time>
      </trkpt>
      <trkpt lat="47.44899" lon="6.80744">
        <ele>331</ele>
        <time>2015-06-14T09:49:33.000Z</time>
      </trkpt>
      <trkpt lat="47.44902" lon="6.8074">
        <ele>331</ele>
        <time>2015-06-14T09:49:34.000Z</time>
      </trkpt>
      <trkpt lat="47.44905" lon="6.80736">
        <ele>331</ele>
        <time>2015-06-14T09:49:35.000Z</time>
      </trkpt>
      <trkpt lat="47.44908" lon="6.80732">
        <ele>331</ele>
        <time>2015-06-14T09:49:36.000Z</time>
      </trkpt>
      <trkpt lat="47.44911" lon="6.80733">
        <ele>331</ele>
        <time>2015-06-14T09:49:37.000Z</time>
      </trkpt>
      <trkpt lat="47.44913" lon="6.80728">
        <ele>331</ele>
        <time>2015-06-14T09:49:38.000Z</time>
      </trkpt>
      <trkpt lat="47.44918" lon="6.80722">
        <ele>330</ele>
        <time>2015-06-14T09:49:39.000Z</time>
      </trkpt>
      <trkpt lat="47.44921" lon="6.80718">
        <ele>331</ele>
        <time>2015-06-14T09:49:40.000Z</time>
      </trkpt>
      <trkpt lat="47.44926" lon="6.80713">
        <ele>331</ele>
        <time>2015-06-14T09:49:41.000Z</time>
      </trkpt>
      <trkpt lat="47.44929" lon="6.80708">
        <ele>331</ele>
        <time>2015-06-14T09:49:42.000Z</time>
      </trkpt>
      <trkpt lat="47.44933" lon="6.80703">
        <ele>331</ele>
        <time>2015-06-14T09:49:43.000Z</time>
      </trkpt>
      <trkpt lat="47.44936" lon="6.80698">
        <ele>331</ele>
        <time>2015-06-14T09:49:44.000Z</time>
      </trkpt>
      <trkpt lat="47.4494" lon="6.80694">
        <ele>331</ele>
        <time>2015-06-14T09:49:45.000Z</time>
      </trkpt>
      <trkpt lat="47.44941" lon="6.80684">
        <ele>331</ele>
        <time>2015-06-14T09:49:46.000Z</time>
      </trkpt>
      <trkpt lat="47.44943" lon="6.80677">
        <ele>331</ele>
        <time>2015-06-14T09:49:47.000Z</time>
      </trkpt>
      <trkpt lat="47.44944" lon="6.8067">
        <ele>331</ele>
        <time>2015-06-14T09:49:48.000Z</time>
      </trkpt>
      <trkpt lat="47.44946" lon="6.80663">
        <ele>332</ele>
        <time>2015-06-14T09:49:49.000Z</time>
      </trkpt>
      <trkpt lat="47.44947" lon="6.80656">
        <ele>332</ele>
        <time>2015-06-14T09:49:50.000Z</time>
      </trkpt>
      <trkpt lat="47.44948" lon="6.8065">
        <ele>332</ele>
        <time>2015-06-14T09:49:51.000Z</time>
      </trkpt>
      <trkpt lat="47.44949" lon="6.80643">
        <ele>332</ele>
        <time>2015-06-14T09:49:52.000Z</time>
      </trkpt>
      <trkpt lat="47.4495" lon="6.80637">
        <ele>332</ele>
        <time>2015-06-14T09:49:53.000Z</time>
      </trkpt>
      <trkpt lat="47.44951" lon="6.80629">
        <ele>332</ele>
        <time>2015-06-14T09:49:54.000Z</time>
      </trkpt>
      <trkpt lat="47.44952" lon="6.80623">
        <ele>332</ele>
        <time>2015-06-14T09:49:55.000Z</time>
      </trkpt>
      <trkpt lat="47.44953" lon="6.80617">
        <ele>332</ele>
        <time>2015-06-14T09:49:56.000Z</time>
      </trkpt>
      <trkpt lat="47.44955" lon="6.80612">
        <ele>332</ele>
        <time>2015-06-14T09:49:57.000Z</time>
      </trkpt>
      <trkpt lat="47.44957" lon="6.80609">
        <ele>332</ele>
        <time>2015-06-14T09:49:58.000Z</time>
      </trkpt>
      <trkpt lat="47.44959" lon="6.80606">
        <ele>332</ele>
        <time>2015-06-14T09:49:59.000Z</time>
      </trkpt>
      <trkpt lat="47.44963" lon="6.80603">
        <ele>332</ele>
        <time>2015-06-14T09:50:00.000Z</time>
      </trkpt>
      <trkpt lat="47.44967" lon="6.80601">
        <ele>332</ele>
        <time>2015-06-14T09:50:01.000Z</time>
      </trkpt>
      <trkpt lat="47.44976" lon="6.806">
        <ele>332</ele>
        <time>2015-06-14T09:50:02.000Z</time>
      </trkpt>
      <trkpt lat="47.4498" lon="6.80599">
        <ele>332</ele>
        <time>2015-06-14T09:50:03.000Z</time>
      </trkpt>
      <trkpt lat="47.44984" lon="6.80599">
        <ele>332</ele>
        <time>2015-06-14T09:50:04.000Z</time>
      </trkpt>
      <trkpt lat="47.44989" lon="6.80599">
        <ele>332</ele>
        <time>2015-06-14T09:50:05.000Z</time>
      </trkpt>
      <trkpt lat="47.44994" lon="6.80599">
        <ele>332</ele>
        <time>2015-06-14T09:50:06.000Z</time>
      </trkpt>
      <trkpt lat="47.44998" lon="6.80598">
        <ele>332</ele>
        <time>2015-06-14T09:50:07.000Z</time>
      </trkpt>
      <trkpt lat="47.45003" lon="6.80598">
        <ele>332</ele>
        <time>2015-06-14T09:50:08.000Z</time>
      </trkpt>
      <trkpt lat="47.45008" lon="6.80599">
        <ele>332</ele>
        <time>2015-06-14T09:50:09.000Z</time>
      </trkpt>
      <trkpt lat="47.45012" lon="6.806">
        <ele>332</ele>
        <time>2015-06-14T09:50:10.000Z</time>
      </trkpt>
      <trkpt lat="47.45017" lon="6.806">
        <ele>332</ele>
        <time>2015-06-14T09:50:11.000Z</time>
      </trkpt>
      <trkpt lat="47.45021" lon="6.806">
        <ele>332</ele>
        <time>2015-06-14T09:50:12.000Z</time>
      </trkpt>
      <trkpt lat="47.45026" lon="6.80601">
        <ele>332</ele>
        <time>2015-06-14T09:50:13.000Z</time>
      </trkpt>
      <trkpt lat="47.45031" lon="6.80602">
        <ele>332</ele>
        <time>2015-06-14T09:50:14.000Z</time>
      </trkpt>
      <trkpt lat="47.45035" lon="6.80603">
        <ele>332</ele>
        <time>2015-06-14T09:50:15.000Z</time>
      </trkpt>
      <trkpt lat="47.4504" lon="6.80604">
        <ele>332</ele>
        <time>2015-06-14T09:50:16.000Z</time>
      </trkpt>
      <trkpt lat="47.45044" lon="6.80605">
        <ele>332</ele>
        <time>2015-06-14T09:50:17.000Z</time>
      </trkpt>
      <trkpt lat="47.45048" lon="6.80606">
        <ele>332</ele>
        <time>2015-06-14T09:50:18.000Z</time>
      </trkpt>
      <trkpt lat="47.45052" lon="6.80607">
        <ele>332</ele>
        <time>2015-06-14T09:50:19.000Z</time>
      </trkpt>
      <trkpt lat="47.45055" lon="6.80606">
        <ele>332</ele>
        <time>2015-06-14T09:50:20.000Z</time>
      </trkpt>
      <trkpt lat="47.45059" lon="6.80605">
        <ele>332</ele>
        <time>2015-06-14T09:50:21.000Z</time>
      </trkpt>
      <trkpt lat="47.45062" lon="6.80599">
        <ele>332</ele>
        <time>2015-06-14T09:50:22.000Z</time>
      </trkpt>
      <trkpt lat="47.45065" lon="6.80594">
        <ele>332</ele>
        <time>2015-06-14T09:50:23.000Z</time>
      </trkpt>
      <trkpt lat="47.45066" lon="6.80589">
        <ele>333</ele>
        <time>2015-06-14T09:50:24.000Z</time>
      </trkpt>
      <trkpt lat="47.45068" lon="6.80584">
        <ele>333</ele>
        <time>2015-06-14T09:50:25.000Z</time>
      </trkpt>
      <trkpt lat="47.4507" lon="6.80579">
        <ele>333</ele>
        <time>2015-06-14T09:50:26.000Z</time>
      </trkpt>
      <trkpt lat="47.45072" lon="6.80575">
        <ele>333</ele>
        <time>2015-06-14T09:50:27.000Z</time>
      </trkpt>
      <trkpt lat="47.45073" lon="6.8057">
        <ele>333</ele>
        <time>2015-06-14T09:50:28.000Z</time>
      </trkpt>
      <trkpt lat="47.45075" lon="6.80564">
        <ele>333</ele>
        <time>2015-06-14T09:50:29.000Z</time>
      </trkpt>
      <trkpt lat="47.45077" lon="6.80559">
        <ele>333</ele>
        <time>2015-06-14T09:50:30.000Z</time>
      </trkpt>
      <trkpt lat="47.4508" lon="6.80553">
        <ele>333</ele>
        <time>2015-06-14T09:50:31.000Z</time>
      </trkpt>
      <trkpt lat="47.45082" lon="6.80547">
        <ele>333</ele>
        <time>2015-06-14T09:50:32.000Z</time>
      </trkpt>
      <trkpt lat="47.45084" lon="6.80543">
        <ele>333</ele>
        <time>2015-06-14T09:50:33.000Z</time>
      </trkpt>
      <trkpt lat="47.45086" lon="6.80538">
        <ele>333</ele>
        <time>2015-06-14T09:50:34.000Z</time>
      </trkpt>
      <trkpt lat="47.45088" lon="6.80533">
        <ele>333</ele>
        <time>2015-06-14T09:50:35.000Z</time>
      </trkpt>
      <trkpt lat="47.4509" lon="6.80528">
        <ele>333</ele>
        <time>2015-06-14T09:50:36.000Z</time>
      </trkpt>
      <trkpt lat="47.45092" lon="6.80521">
        <ele>334</ele>
        <time>2015-06-14T09:50:37.000Z</time>
      </trkpt>
      <trkpt lat="47.45093" lon="6.80516">
        <ele>334</ele>
        <time>2015-06-14T09:50:38.001Z</time>
      </trkpt>
      <trkpt lat="47.45096" lon="6.80508">
        <ele>334</ele>
        <time>2015-06-14T09:50:39.000Z</time>
      </trkpt>
      <trkpt lat="47.45097" lon="6.805">
        <ele>334</ele>
        <time>2015-06-14T09:50:40.000Z</time>
      </trkpt>
      <trkpt lat="47.45098" lon="6.80493">
        <ele>334</ele>
        <time>2015-06-14T09:50:41.000Z</time>
      </trkpt>
      <trkpt lat="47.45098" lon="6.80488">
        <ele>334</ele>
        <time>2015-06-14T09:50:42.000Z</time>
      </trkpt>
      <trkpt lat="47.45096" lon="6.80483">
        <ele>334</ele>
        <time>2015-06-14T09:50:43.000Z</time>
      </trkpt>
      <trkpt lat="47.45096" lon="6.80477">
        <ele>334</ele>
        <time>2015-06-14T09:50:44.000Z</time>
      </trkpt>
      <trkpt lat="47.45094" lon="6.80471">
        <ele>334</ele>
        <time>2015-06-14T09:50:45.000Z</time>
      </trkpt>
      <trkpt lat="47.45092" lon="6.80466">
        <ele>334</ele>
        <time>2015-06-14T09:50:46.000Z</time>
      </trkpt>
      <trkpt lat="47.45091" lon="6.80459">
        <ele>334</ele>
        <time>2015-06-14T09:50:47.000Z</time>
      </trkpt>
      <trkpt lat="47.4509" lon="6.80453">
        <ele>334</ele>
        <time>2015-06-14T09:50:48.000Z</time>
      </trkpt>
      <trkpt lat="47.4509" lon="6.80445">
        <ele>334</ele>
        <time>2015-06-14T09:50:49.000Z</time>
      </trkpt>
      <trkpt lat="47.45089" lon="6.80439">
        <ele>334</ele>
        <time>2015-06-14T09:50:49.999Z</time>
      </trkpt>
      <trkpt lat="47.45087" lon="6.80431">
        <ele>335</ele>
        <time>2015-06-14T09:50:51.000Z</time>
      </trkpt>
      <trkpt lat="47.45085" lon="6.80424">
        <ele>335</ele>
        <time>2015-06-14T09:50:52.000Z</time>
      </trkpt>
      <trkpt lat="47.45086" lon="6.80419">
        <ele>335</ele>
        <time>2015-06-14T09:50:53.000Z</time>
      </trkpt>
      <trkpt lat="47.45086" lon="6.80412">
        <ele>335</ele>
        <time>2015-06-14T09:50:54.000Z</time>
      </trkpt>
      <trkpt lat="47.45086" lon="6.80405">
        <ele>335</ele>
        <time>2015-06-14T09:50:55.000Z</time>
      </trkpt>
      <trkpt lat="47.45085" lon="6.80398">
        <ele>335</ele>
        <time>2015-06-14T09:50:56.000Z</time>
      </trkpt>
      <trkpt lat="47.45083" lon="6.80391">
        <ele>334</ele>
        <time>2015-06-14T09:50:57.000Z</time>
      </trkpt>
      <trkpt lat="47.4508" lon="6.80385">
        <ele>334</ele>
        <time>2015-06-14T09:50:58.000Z</time>
      </trkpt>
      <trkpt lat="47.45077" lon="6.80379">
        <ele>334</ele>
        <time>2015-06-14T09:50:59.000Z</time>
      </trkpt>
      <trkpt lat="47.45074" lon="6.80374">
        <ele>334</ele>
        <time>2015-06-14T09:51:00.000Z</time>
      </trkpt>
      <trkpt lat="47.45071" lon="6.80368">
        <ele>334</ele>
        <time>2015-06-14T09:51:01.000Z</time>
      </trkpt>
      <trkpt lat="47.45069" lon="6.80362">
        <ele>334</ele>
        <time>2015-06-14T09:51:02.000Z</time>
      </trkpt>
      <trkpt lat="47.45065" lon="6.80358">
        <ele>334</ele>
        <time>2015-06-14T09:51:03.000Z</time>
      </trkpt>
      <trkpt lat="47.45061" lon="6.80353">
        <ele>334</ele>
        <time>2015-06-14T09:51:04.000Z</time>
      </trkpt>
      <trkpt lat="47.45057" lon="6.80349">
        <ele>334</ele>
        <time>2015-06-14T09:51:05.000Z</time>
      </trkpt>
      <trkpt lat="47.45053" lon="6.80344">
        <ele>334</ele>
        <time>2015-06-14T09:51:06.000Z</time>
      </trkpt>
      <trkpt lat="47.4505" lon="6.80338">
        <ele>334</ele>
        <time>2015-06-14T09:51:07.000Z</time>
      </trkpt>
      <trkpt lat="47.45047" lon="6.80333">
        <ele>334</ele>
        <time>2015-06-14T09:51:08.000Z</time>
      </trkpt>
      <trkpt lat="47.45044" lon="6.80328">
        <ele>334</ele>
        <time>2015-06-14T09:51:09.000Z</time>
      </trkpt>
      <trkpt lat="47.45042" lon="6.80323">
        <ele>334</ele>
        <time>2015-06-14T09:51:10.000Z</time>
      </trkpt>
      <trkpt lat="47.45038" lon="6.80317">
        <ele>334</ele>
        <time>2015-06-14T09:51:11.000Z</time>
      </trkpt>
      <trkpt lat="47.45035" lon="6.80312">
        <ele>334</ele>
        <time>2015-06-14T09:51:12.000Z</time>
      </trkpt>
      <trkpt lat="47.45033" lon="6.80307">
        <ele>334</ele>
        <time>2015-06-14T09:51:13.000Z</time>
      </trkpt>
      <trkpt lat="47.45029" lon="6.80301">
        <ele>334</ele>
        <time>2015-06-14T09:51:14.000Z</time>
      </trkpt>
      <trkpt lat="47.45026" lon="6.80295">
        <ele>334</ele>
        <time>2015-06-14T09:51:15.000Z</time>
      </trkpt>
      <trkpt lat="47.45023" lon="6.80289">
        <ele>334</ele>
        <time>2015-06-14T09:51:16.000Z</time>
      </trkpt>
      <trkpt lat="47.45021" lon="6.80282">
        <ele>334</ele>
        <time>2015-06-14T09:51:17.000Z</time>
      </trkpt>
      <trkpt lat="47.45019" lon="6.80274">
        <ele>334</ele>
        <time>2015-06-14T09:51:18.000Z</time>
      </trkpt>
      <trkpt lat="47.45017" lon="6.80266">
        <ele>334</ele>
        <time>2015-06-14T09:51:19.000Z</time>
      </trkpt>
      <trkpt lat="47.45015" lon="6.8026">
        <ele>334</ele>
        <time>2015-06-14T09:51:20.000Z</time>
      </trkpt>
      <trkpt lat="47.45013" lon="6.80253">
        <ele>335</ele>
        <time>2015-06-14T09:51:21.000Z</time>
      </trkpt>
      <trkpt lat="47.45009" lon="6.80247">
        <ele>335</ele>
        <time>2015-06-14T09:51:22.000Z</time>
      </trkpt>
      <trkpt lat="47.45007" lon="6.80241">
        <ele>335</ele>
        <time>2015-06-14T09:51:23.000Z</time>
      </trkpt>
      <trkpt lat="47.45005" lon="6.80234">
        <ele>335</ele>
        <time>2015-06-14T09:51:24.000Z</time>
      </trkpt>
      <trkpt lat="47.45003" lon="6.80228">
        <ele>335</ele>
        <time>2015-06-14T09:51:25.000Z</time>
      </trkpt>
      <trkpt lat="47.45002" lon="6.80222">
        <ele>335</ele>
        <time>2015-06-14T09:51:26.000Z</time>
      </trkpt>
      <trkpt lat="47.44998" lon="6.80216">
        <ele>336</ele>
        <time>2015-06-14T09:51:27.000Z</time>
      </trkpt>
      <trkpt lat="47.44996" lon="6.80209">
        <ele>336</ele>
        <time>2015-06-14T09:51:28.000Z</time>
      </trkpt>
      <trkpt lat="47.44994" lon="6.80201">
        <ele>336</ele>
        <time>2015-06-14T09:51:29.000Z</time>
      </trkpt>
      <trkpt lat="47.44992" lon="6.80196">
        <ele>336</ele>
        <time>2015-06-14T09:51:30.000Z</time>
      </trkpt>
      <trkpt lat="47.44991" lon="6.80191">
        <ele>336</ele>
        <time>2015-06-14T09:51:31.000Z</time>
      </trkpt>
      <trkpt lat="47.44993" lon="6.80188">
        <ele>336</ele>
        <time>2015-06-14T09:51:32.000Z</time>
      </trkpt>
      <trkpt lat="47.44993" lon="6.80183">
        <ele>336</ele>
        <time>2015-06-14T09:51:33.000Z</time>
      </trkpt>
      <trkpt lat="47.44993" lon="6.80179">
        <ele>335</ele>
        <time>2015-06-14T09:51:34.000Z</time>
      </trkpt>
      <trkpt lat="47.4499" lon="6.80175">
        <ele>335</ele>
        <time>2015-06-14T09:51:35.000Z</time>
      </trkpt>
      <trkpt lat="47.4499" lon="6.80169">
        <ele>335</ele>
        <time>2015-06-14T09:51:37.000Z</time>
      </trkpt>
      <trkpt lat="47.44989" lon="6.80167">
        <ele>335</ele>
        <time>2015-06-14T09:51:38.000Z</time>
      </trkpt>
      <trkpt lat="47.44988" lon="6.80161">
        <ele>336</ele>
        <time>2015-06-14T09:51:40.000Z</time>
      </trkpt>
      <trkpt lat="47.44988" lon="6.80158">
        <ele>337</ele>
        <time>2015-06-14T09:51:41.000Z</time>
      </trkpt>
      <trkpt lat="47.44986" lon="6.80155">
        <ele>337</ele>
        <time>2015-06-14T09:51:42.000Z</time>
      </trkpt>
      <trkpt lat="47.44984" lon="6.80152">
        <ele>337</ele>
        <time>2015-06-14T09:51:43.000Z</time>
      </trkpt>
      <trkpt lat="47.44982" lon="6.80148">
        <ele>337</ele>
        <time>2015-06-14T09:51:44.000Z</time>
      </trkpt>
      <trkpt lat="47.44981" lon="6.80145">
        <ele>337</ele>
        <time>2015-06-14T09:51:45.000Z</time>
      </trkpt>
      <trkpt lat="47.44979" lon="6.80142">
        <ele>338</ele>
        <time>2015-06-14T09:51:46.000Z</time>
      </trkpt>
      <trkpt lat="47.44978" lon="6.80138">
        <ele>338</ele>
        <time>2015-06-14T09:51:47.000Z</time>
      </trkpt>
      <trkpt lat="47.44976" lon="6.80135">
        <ele>338</ele>
        <time>2015-06-14T09:51:48.000Z</time>
      </trkpt>
      <trkpt lat="47.44974" lon="6.80132">
        <ele>338</ele>
        <time>2015-06-14T09:51:48.999Z</time>
      </trkpt>
      <trkpt lat="47.44971" lon="6.8013">
        <ele>338</ele>
        <time>2015-06-14T09:51:50.000Z</time>
      </trkpt>
      <trkpt lat="47.44968" lon="6.80128">
        <ele>338</ele>
        <time>2015-06-14T09:51:50.999Z</time>
      </trkpt>
      <trkpt lat="47.44966" lon="6.80125">
        <ele>338</ele>
        <time>2015-06-14T09:51:52.000Z</time>
      </trkpt>
      <trkpt lat="47.44964" lon="6.80122">
        <ele>338</ele>
        <time>2015-06-14T09:51:53.000Z</time>
      </trkpt>
      <trkpt lat="47.44962" lon="6.80119">
        <ele>338</ele>
        <time>2015-06-14T09:51:54.000Z</time>
      </trkpt>
      <trkpt lat="47.4496" lon="6.80116">
        <ele>339</ele>
        <time>2015-06-14T09:51:55.000Z</time>
      </trkpt>
      <trkpt lat="47.44958" lon="6.80113">
        <ele>339</ele>
        <time>2015-06-14T09:51:56.000Z</time>
      </trkpt>
      <trkpt lat="47.44955" lon="6.8011">
        <ele>339</ele>
        <time>2015-06-14T09:51:57.000Z</time>
      </trkpt>
      <trkpt lat="47.44953" lon="6.80107">
        <ele>339</ele>
        <time>2015-06-14T09:51:58.000Z</time>
      </trkpt>
      <trkpt lat="47.4495" lon="6.80104">
        <ele>339</ele>
        <time>2015-06-14T09:51:59.000Z</time>
      </trkpt>
      <trkpt lat="47.44948" lon="6.80102">
        <ele>339</ele>
        <time>2015-06-14T09:52:00.000Z</time>
      </trkpt>
      <trkpt lat="47.44946" lon="6.80099">
        <ele>340</ele>
        <time>2015-06-14T09:52:01.000Z</time>
      </trkpt>
      <trkpt lat="47.44943" lon="6.80097">
        <ele>340</ele>
        <time>2015-06-14T09:52:02.000Z</time>
      </trkpt>
      <trkpt lat="47.44941" lon="6.80095">
        <ele>340</ele>
        <time>2015-06-14T09:52:03.000Z</time>
      </trkpt>
      <trkpt lat="47.44938" lon="6.80092">
        <ele>340</ele>
        <time>2015-06-14T09:52:04.000Z</time>
      </trkpt>
      <trkpt lat="47.44935" lon="6.8009">
        <ele>340</ele>
        <time>2015-06-14T09:52:05.000Z</time>
      </trkpt>
      <trkpt lat="47.44933" lon="6.80087">
        <ele>341</ele>
        <time>2015-06-14T09:52:05.999Z</time>
      </trkpt>
      <trkpt lat="47.44932" lon="6.80084">
        <ele>341</ele>
        <time>2015-06-14T09:52:07.000Z</time>
      </trkpt>
      <trkpt lat="47.44931" lon="6.80081">
        <ele>342</ele>
        <time>2015-06-14T09:52:07.999Z</time>
      </trkpt>
      <trkpt lat="47.4493" lon="6.80077">
        <ele>342</ele>
        <time>2015-06-14T09:52:09.000Z</time>
      </trkpt>
      <trkpt lat="47.44929" lon="6.80074">
        <ele>342</ele>
        <time>2015-06-14T09:52:10.000Z</time>
      </trkpt>
      <trkpt lat="47.44928" lon="6.8007">
        <ele>342</ele>
        <time>2015-06-14T09:52:11.000Z</time>
      </trkpt>
      <trkpt lat="47.44928" lon="6.80067">
        <ele>342</ele>
        <time>2015-06-14T09:52:12.000Z</time>
      </trkpt>
      <trkpt lat="47.44927" lon="6.80063">
        <ele>342</ele>
        <time>2015-06-14T09:52:13.000Z</time>
      </trkpt>
      <trkpt lat="47.44927" lon="6.8006">
        <ele>342</ele>
        <time>2015-06-14T09:52:14.000Z</time>
      </trkpt>
      <trkpt lat="47.44926" lon="6.80056">
        <ele>342</ele>
        <time>2015-06-14T09:52:15.000Z</time>
      </trkpt>
      <trkpt lat="47.44925" lon="6.8005">
        <ele>342</ele>
        <time>2015-06-14T09:52:17.000Z</time>
      </trkpt>
      <trkpt lat="47.44924" lon="6.80047">
        <ele>342</ele>
        <time>2015-06-14T09:52:18.000Z</time>
      </trkpt>
      <trkpt lat="47.44923" lon="6.80045">
        <ele>342</ele>
        <time>2015-06-14T09:52:19.000Z</time>
      </trkpt>
      <trkpt lat="47.44922" lon="6.80042">
        <ele>343</ele>
        <time>2015-06-14T09:52:19.999Z</time>
      </trkpt>
      <trkpt lat="47.44919" lon="6.80039">
        <ele>343</ele>
        <time>2015-06-14T09:52:21.000Z</time>
      </trkpt>
      <trkpt lat="47.44917" lon="6.80037">
        <ele>343</ele>
        <time>2015-06-14T09:52:22.000Z</time>
      </trkpt>
      <trkpt lat="47.44916" lon="6.80034">
        <ele>348</ele>
        <time>2015-06-14T09:52:23.000Z</time>
      </trkpt>
      <trkpt lat="47.44914" lon="6.80032">
        <ele>348</ele>
        <time>2015-06-14T09:52:23.999Z</time>
      </trkpt>
      <trkpt lat="47.44912" lon="6.80027">
        <ele>348</ele>
        <time>2015-06-14T09:52:26.000Z</time>
      </trkpt>
      <trkpt lat="47.44911" lon="6.80025">
        <ele>348</ele>
        <time>2015-06-14T09:52:27.000Z</time>
      </trkpt>
      <trkpt lat="47.4491" lon="6.80019">
        <ele>348</ele>
        <time>2015-06-14T09:52:30.000Z</time>
      </trkpt>
      <trkpt lat="47.44909" lon="6.80017">
        <ele>348</ele>
        <time>2015-06-14T09:52:31.000Z</time>
      </trkpt>
      <trkpt lat="47.44908" lon="6.80012">
        <ele>348</ele>
        <time>2015-06-14T09:52:33.000Z</time>
      </trkpt>
      <trkpt lat="47.44907" lon="6.80009">
        <ele>348</ele>
        <time>2015-06-14T09:52:34.000Z</time>
      </trkpt>
      <trkpt lat="47.44906" lon="6.80003">
        <ele>348</ele>
        <time>2015-06-14T09:52:36.000Z</time>
      </trkpt>
      <trkpt lat="47.44906" lon="6.8">
        <ele>348</ele>
        <time>2015-06-14T09:52:37.000Z</time>
      </trkpt>
      <trkpt lat="47.44907" lon="6.79996">
        <ele>348</ele>
        <time>2015-06-14T09:52:38.000Z</time>
      </trkpt>
      <trkpt lat="47.44907" lon="6.79992">
        <ele>349</ele>
        <time>2015-06-14T09:52:39.000Z</time>
      </trkpt>
      <trkpt lat="47.44908" lon="6.79988">
        <ele>349</ele>
        <time>2015-06-14T09:52:40.000Z</time>
      </trkpt>
      <trkpt lat="47.44908" lon="6.79984">
        <ele>349</ele>
        <time>2015-06-14T09:52:41.000Z</time>
      </trkpt>
      <trkpt lat="47.44909" lon="6.7998">
        <ele>349</ele>
        <time>2015-06-14T09:52:42.000Z</time>
      </trkpt>
      <trkpt lat="47.44909" lon="6.79976">
        <ele>349</ele>
        <time>2015-06-14T09:52:43.000Z</time>
      </trkpt>
      <trkpt lat="47.4491" lon="6.79972">
        <ele>350</ele>
        <time>2015-06-14T09:52:44.000Z</time>
      </trkpt>
      <trkpt lat="47.44911" lon="6.79968">
        <ele>350</ele>
        <time>2015-06-14T09:52:45.000Z</time>
      </trkpt>
      <trkpt lat="47.44912" lon="6.79964">
        <ele>350</ele>
        <time>2015-06-14T09:52:46.000Z</time>
      </trkpt>
      <trkpt lat="47.44912" lon="6.7996">
        <ele>350</ele>
        <time>2015-06-14T09:52:47.000Z</time>
      </trkpt>
      <trkpt lat="47.44913" lon="6.79955">
        <ele>350</ele>
        <time>2015-06-14T09:52:48.000Z</time>
      </trkpt>
      <trkpt lat="47.44913" lon="6.79951">
        <ele>350</ele>
        <time>2015-06-14T09:52:49.000Z</time>
      </trkpt>
      <trkpt lat="47.44914" lon="6.79947">
        <ele>350</ele>
        <time>2015-06-14T09:52:50.000Z</time>
      </trkpt>
      <trkpt lat="47.44914" lon="6.79943">
        <ele>350</ele>
        <time>2015-06-14T09:52:51.000Z</time>
      </trkpt>
      <trkpt lat="47.44915" lon="6.7994">
        <ele>350</ele>
        <time>2015-06-14T09:52:52.000Z</time>
      </trkpt>
      <trkpt lat="47.44915" lon="6.79936">
        <ele>350</ele>
        <time>2015-06-14T09:52:53.000Z</time>
      </trkpt>
      <trkpt lat="47.44916" lon="6.79933">
        <ele>350</ele>
        <time>2015-06-14T09:52:54.000Z</time>
      </trkpt>
      <trkpt lat="47.44916" lon="6.79929">
        <ele>350</ele>
        <time>2015-06-14T09:52:55.000Z</time>
      </trkpt>
      <trkpt lat="47.44916" lon="6.79922">
        <ele>349</ele>
        <time>2015-06-14T09:52:57.000Z</time>
      </trkpt>
      <trkpt lat="47.44916" lon="6.79919">
        <ele>349</ele>
        <time>2015-06-14T09:52:58.000Z</time>
      </trkpt>
      <trkpt lat="47.44917" lon="6.79913">
        <ele>349</ele>
        <time>2015-06-14T09:53:00.000Z</time>
      </trkpt>
      <trkpt lat="47.44917" lon="6.7991">
        <ele>348</ele>
        <time>2015-06-14T09:53:01.000Z</time>
      </trkpt>
      <trkpt lat="47.44919" lon="6.79905">
        <ele>348</ele>
        <time>2015-06-14T09:53:03.000Z</time>
      </trkpt>
      <trkpt lat="47.4492" lon="6.79902">
        <ele>348</ele>
        <time>2015-06-14T09:53:04.000Z</time>
      </trkpt>
      <trkpt lat="47.44921" lon="6.79897">
        <ele>348</ele>
        <time>2015-06-14T09:53:06.000Z</time>
      </trkpt>
      <trkpt lat="47.44922" lon="6.79894">
        <ele>348</ele>
        <time>2015-06-14T09:53:07.000Z</time>
      </trkpt>
      <trkpt lat="47.44923" lon="6.79889">
        <ele>348</ele>
        <time>2015-06-14T09:53:09.000Z</time>
      </trkpt>
      <trkpt lat="47.44924" lon="6.79887">
        <ele>348</ele>
        <time>2015-06-14T09:53:10.000Z</time>
      </trkpt>
      <trkpt lat="47.44926" lon="6.79882">
        <ele>348</ele>
        <time>2015-06-14T09:53:12.000Z</time>
      </trkpt>
      <trkpt lat="47.44927" lon="6.7988">
        <ele>348</ele>
        <time>2015-06-14T09:53:13.000Z</time>
      </trkpt>
      <trkpt lat="47.44929" lon="6.79876">
        <ele>348</ele>
        <time>2015-06-14T09:53:15.000Z</time>
      </trkpt>
      <trkpt lat="47.4493" lon="6.79875">
        <ele>348</ele>
        <time>2015-06-14T09:53:16.000Z</time>
      </trkpt>
      <trkpt lat="47.44934" lon="6.79871">
        <ele>348</ele>
        <time>2015-06-14T09:53:19.000Z</time>
      </trkpt>
      <trkpt lat="47.44935" lon="6.79869">
        <ele>348</ele>
        <time>2015-06-14T09:53:20.000Z</time>
      </trkpt>
      <trkpt lat="47.44938" lon="6.79866">
        <ele>348</ele>
        <time>2015-06-14T09:53:22.000Z</time>
      </trkpt>
      <trkpt lat="47.4494" lon="6.79865">
        <ele>348</ele>
        <time>2015-06-14T09:53:23.000Z</time>
      </trkpt>
      <trkpt lat="47.44943" lon="6.79862">
        <ele>348</ele>
        <time>2015-06-14T09:53:26.000Z</time>
      </trkpt>
      <trkpt lat="47.44943" lon="6.7986">
        <ele>348</ele>
        <time>2015-06-14T09:53:27.000Z</time>
      </trkpt>
      <trkpt lat="47.44945" lon="6.79857">
        <ele>348</ele>
        <time>2015-06-14T09:53:29.000Z</time>
      </trkpt>
      <trkpt lat="47.44947" lon="6.79855">
        <ele>348</ele>
        <time>2015-06-14T09:53:30.000Z</time>
      </trkpt>
      <trkpt lat="47.4495" lon="6.79851">
        <ele>348</ele>
        <time>2015-06-14T09:53:32.000Z</time>
      </trkpt>
      <trkpt lat="47.44951" lon="6.79848">
        <ele>347</ele>
        <time>2015-06-14T09:53:33.000Z</time>
      </trkpt>
      <trkpt lat="47.44954" lon="6.79844">
        <ele>347</ele>
        <time>2015-06-14T09:53:35.000Z</time>
      </trkpt>
      <trkpt lat="47.44955" lon="6.79841">
        <ele>347</ele>
        <time>2015-06-14T09:53:36.000Z</time>
      </trkpt>
      <trkpt lat="47.44957" lon="6.79836">
        <ele>347</ele>
        <time>2015-06-14T09:53:38.000Z</time>
      </trkpt>
      <trkpt lat="47.44958" lon="6.79834">
        <ele>347</ele>
        <time>2015-06-14T09:53:39.000Z</time>
      </trkpt>
      <trkpt lat="47.4496" lon="6.79829">
        <ele>348</ele>
        <time>2015-06-14T09:53:41.000Z</time>
      </trkpt>
      <trkpt lat="47.44962" lon="6.79826">
        <ele>348</ele>
        <time>2015-06-14T09:53:42.000Z</time>
      </trkpt>
      <trkpt lat="47.44963" lon="6.79823">
        <ele>348</ele>
        <time>2015-06-14T09:53:43.000Z</time>
      </trkpt>
      <trkpt lat="47.44964" lon="6.7982">
        <ele>348</ele>
        <time>2015-06-14T09:53:44.000Z</time>
      </trkpt>
      <trkpt lat="47.44965" lon="6.79816">
        <ele>348</ele>
        <time>2015-06-14T09:53:45.000Z</time>
      </trkpt>
      <trkpt lat="47.44966" lon="6.79813">
        <ele>347</ele>
        <time>2015-06-14T09:53:45.999Z</time>
      </trkpt>
      <trkpt lat="47.44968" lon="6.79809">
        <ele>347</ele>
        <time>2015-06-14T09:53:47.000Z</time>
      </trkpt>
      <trkpt lat="47.44969" lon="6.79806">
        <ele>347</ele>
        <time>2015-06-14T09:53:48.001Z</time>
      </trkpt>
      <trkpt lat="47.44971" lon="6.79802">
        <ele>347</ele>
        <time>2015-06-14T09:53:49.000Z</time>
      </trkpt>
      <trkpt lat="47.44971" lon="6.79799">
        <ele>347</ele>
        <time>2015-06-14T09:53:50.000Z</time>
      </trkpt>
      <trkpt lat="47.44972" lon="6.79793">
        <ele>347</ele>
        <time>2015-06-14T09:53:52.000Z</time>
      </trkpt>
      <trkpt lat="47.44973" lon="6.79791">
        <ele>347</ele>
        <time>2015-06-14T09:53:53.000Z</time>
      </trkpt>
      <trkpt lat="47.44974" lon="6.79785">
        <ele>347</ele>
        <time>2015-06-14T09:53:55.001Z</time>
      </trkpt>
      <trkpt lat="47.44974" lon="6.79781">
        <ele>347</ele>
        <time>2015-06-14T09:53:56.000Z</time>
      </trkpt>
      <trkpt lat="47.44975" lon="6.79776">
        <ele>347</ele>
        <time>2015-06-14T09:53:57.000Z</time>
      </trkpt>
      <trkpt lat="47.44977" lon="6.79771">
        <ele>347</ele>
        <time>2015-06-14T09:53:58.000Z</time>
      </trkpt>
      <trkpt lat="47.44978" lon="6.79766">
        <ele>347</ele>
        <time>2015-06-14T09:53:59.000Z</time>
      </trkpt>
      <trkpt lat="47.4498" lon="6.79762">
        <ele>347</ele>
        <time>2015-06-14T09:54:00.000Z</time>
      </trkpt>
      <trkpt lat="47.44982" lon="6.79758">
        <ele>347</ele>
        <time>2015-06-14T09:54:01.000Z</time>
      </trkpt>
      <trkpt lat="47.44984" lon="6.79754">
        <ele>346</ele>
        <time>2015-06-14T09:54:02.000Z</time>
      </trkpt>
      <trkpt lat="47.44986" lon="6.79749">
        <ele>345</ele>
        <time>2015-06-14T09:54:03.000Z</time>
      </trkpt>
      <trkpt lat="47.44988" lon="6.79745">
        <ele>345</ele>
        <time>2015-06-14T09:54:04.000Z</time>
      </trkpt>
      <trkpt lat="47.44989" lon="6.79741">
        <ele>344</ele>
        <time>2015-06-14T09:54:05.000Z</time>
      </trkpt>
      <trkpt lat="47.44991" lon="6.79737">
        <ele>344</ele>
        <time>2015-06-14T09:54:06.000Z</time>
      </trkpt>
      <trkpt lat="47.44993" lon="6.79732">
        <ele>344</ele>
        <time>2015-06-14T09:54:07.000Z</time>
      </trkpt>
      <trkpt lat="47.44995" lon="6.79728">
        <ele>344</ele>
        <time>2015-06-14T09:54:08.000Z</time>
      </trkpt>
      <trkpt lat="47.44997" lon="6.79724">
        <ele>344</ele>
        <time>2015-06-14T09:54:09.000Z</time>
      </trkpt>
      <trkpt lat="47.44999" lon="6.79719">
        <ele>343</ele>
        <time>2015-06-14T09:54:10.000Z</time>
      </trkpt>
      <trkpt lat="47.45002" lon="6.79716">
        <ele>340</ele>
        <time>2015-06-14T09:54:11.000Z</time>
      </trkpt>
      <trkpt lat="47.45005" lon="6.79713">
        <ele>340</ele>
        <time>2015-06-14T09:54:12.000Z</time>
      </trkpt>
      <trkpt lat="47.45008" lon="6.79712">
        <ele>340</ele>
        <time>2015-06-14T09:54:13.000Z</time>
      </trkpt>
      <trkpt lat="47.45011" lon="6.79711">
        <ele>340</ele>
        <time>2015-06-14T09:54:14.000Z</time>
      </trkpt>
      <trkpt lat="47.45014" lon="6.79709">
        <ele>340</ele>
        <time>2015-06-14T09:54:15.000Z</time>
      </trkpt>
      <trkpt lat="47.45017" lon="6.79708">
        <ele>340</ele>
        <time>2015-06-14T09:54:16.000Z</time>
      </trkpt>
      <trkpt lat="47.45024" lon="6.79708">
        <ele>339</ele>
        <time>2015-06-14T09:54:17.000Z</time>
      </trkpt>
      <trkpt lat="47.45028" lon="6.79708">
        <ele>339</ele>
        <time>2015-06-14T09:54:18.000Z</time>
      </trkpt>
      <trkpt lat="47.45032" lon="6.79708">
        <ele>339</ele>
        <time>2015-06-14T09:54:19.000Z</time>
      </trkpt>
      <trkpt lat="47.45035" lon="6.79704">
        <ele>339</ele>
        <time>2015-06-14T09:54:20.000Z</time>
      </trkpt>
      <trkpt lat="47.45036" lon="6.79698">
        <ele>339</ele>
        <time>2015-06-14T09:54:21.000Z</time>
      </trkpt>
      <trkpt lat="47.45038" lon="6.79688">
        <ele>338</ele>
        <time>2015-06-14T09:54:22.000Z</time>
      </trkpt>
      <trkpt lat="47.45039" lon="6.79677">
        <ele>338</ele>
        <time>2015-06-14T09:54:23.000Z</time>
      </trkpt>
      <trkpt lat="47.45041" lon="6.79667">
        <ele>338</ele>
        <time>2015-06-14T09:54:24.000Z</time>
      </trkpt>
      <trkpt lat="47.45043" lon="6.79658">
        <ele>335</ele>
        <time>2015-06-14T09:54:25.000Z</time>
      </trkpt>
      <trkpt lat="47.45046" lon="6.79648">
        <ele>335</ele>
        <time>2015-06-14T09:54:26.000Z</time>
      </trkpt>
      <trkpt lat="47.45047" lon="6.79641">
        <ele>335</ele>
        <time>2015-06-14T09:54:27.000Z</time>
      </trkpt>
      <trkpt lat="47.4505" lon="6.79635">
        <ele>335</ele>
        <time>2015-06-14T09:54:28.000Z</time>
      </trkpt>
      <trkpt lat="47.45052" lon="6.79631">
        <ele>335</ele>
        <time>2015-06-14T09:54:29.000Z</time>
      </trkpt>
      <trkpt lat="47.45053" lon="6.79628">
        <ele>334</ele>
        <time>2015-06-14T09:54:30.000Z</time>
      </trkpt>
      <trkpt lat="47.45054" lon="6.79625">
        <ele>334</ele>
        <time>2015-06-14T09:54:31.000Z</time>
      </trkpt>
      <trkpt lat="47.45056" lon="6.7962">
        <ele>334</ele>
        <time>2015-06-14T09:54:33.000Z</time>
      </trkpt>
      <trkpt lat="47.45058" lon="6.79618">
        <ele>334</ele>
        <time>2015-06-14T09:54:34.000Z</time>
      </trkpt>
      <trkpt lat="47.45059" lon="6.79614">
        <ele>334</ele>
        <time>2015-06-14T09:54:35.000Z</time>
      </trkpt>
      <trkpt lat="47.45061" lon="6.79611">
        <ele>334</ele>
        <time>2015-06-14T09:54:36.000Z</time>
      </trkpt>
      <trkpt lat="47.45064" lon="6.79608">
        <ele>334</ele>
        <time>2015-06-14T09:54:37.000Z</time>
      </trkpt>
      <trkpt lat="47.45066" lon="6.79604">
        <ele>334</ele>
        <time>2015-06-14T09:54:38.000Z</time>
      </trkpt>
      <trkpt lat="47.45068" lon="6.79601">
        <ele>334</ele>
        <time>2015-06-14T09:54:39.000Z</time>
      </trkpt>
      <trkpt lat="47.45071" lon="6.79597">
        <ele>334</ele>
        <time>2015-06-14T09:54:40.000Z</time>
      </trkpt>
      <trkpt lat="47.45074" lon="6.79593">
        <ele>334</ele>
        <time>2015-06-14T09:54:41.000Z</time>
      </trkpt>
      <trkpt lat="47.45077" lon="6.79589">
        <ele>333</ele>
        <time>2015-06-14T09:54:42.000Z</time>
      </trkpt>
      <trkpt lat="47.45081" lon="6.79584">
        <ele>333</ele>
        <time>2015-06-14T09:54:43.000Z</time>
      </trkpt>
      <trkpt lat="47.45084" lon="6.7958">
        <ele>333</ele>
        <time>2015-06-14T09:54:44.000Z</time>
      </trkpt>
      <trkpt lat="47.45087" lon="6.79577">
        <ele>333</ele>
        <time>2015-06-14T09:54:45.000Z</time>
      </trkpt>
      <trkpt lat="47.4509" lon="6.79573">
        <ele>333</ele>
        <time>2015-06-14T09:54:46.000Z</time>
      </trkpt>
      <trkpt lat="47.45093" lon="6.79569">
        <ele>333</ele>
        <time>2015-06-14T09:54:47.000Z</time>
      </trkpt>
      <trkpt lat="47.45096" lon="6.79566">
        <ele>333</ele>
        <time>2015-06-14T09:54:48.000Z</time>
      </trkpt>
      <trkpt lat="47.45099" lon="6.79562">
        <ele>333</ele>
        <time>2015-06-14T09:54:49.000Z</time>
      </trkpt>
      <trkpt lat="47.451" lon="6.79559">
        <ele>333</ele>
        <time>2015-06-14T09:54:50.000Z</time>
      </trkpt>
      <trkpt lat="47.45103" lon="6.79555">
        <ele>333</ele>
        <time>2015-06-14T09:54:51.000Z</time>
      </trkpt>
      <trkpt lat="47.45106" lon="6.79551">
        <ele>333</ele>
        <time>2015-06-14T09:54:51.999Z</time>
      </trkpt>
      <trkpt lat="47.4511" lon="6.79547">
        <ele>333</ele>
        <time>2015-06-14T09:54:53.000Z</time>
      </trkpt>
      <trkpt lat="47.45112" lon="6.79544">
        <ele>333</ele>
        <time>2015-06-14T09:54:54.000Z</time>
      </trkpt>
      <trkpt lat="47.45115" lon="6.79541">
        <ele>333</ele>
        <time>2015-06-14T09:54:55.000Z</time>
      </trkpt>
      <trkpt lat="47.45117" lon="6.79538">
        <ele>333</ele>
        <time>2015-06-14T09:54:56.000Z</time>
      </trkpt>
      <trkpt lat="47.4512" lon="6.79535">
        <ele>333</ele>
        <time>2015-06-14T09:54:57.001Z</time>
      </trkpt>
      <trkpt lat="47.45122" lon="6.79532">
        <ele>333</ele>
        <time>2015-06-14T09:54:58.000Z</time>
      </trkpt>
      <trkpt lat="47.45124" lon="6.79529">
        <ele>333</ele>
        <time>2015-06-14T09:54:59.000Z</time>
      </trkpt>
      <trkpt lat="47.45125" lon="6.79526">
        <ele>333</ele>
        <time>2015-06-14T09:54:59.999Z</time>
      </trkpt>
      <trkpt lat="47.45125" lon="6.79521">
        <ele>333</ele>
        <time>2015-06-14T09:55:01.000Z</time>
      </trkpt>
      <trkpt lat="47.45126" lon="6.79518">
        <ele>333</ele>
        <time>2015-06-14T09:55:02.000Z</time>
      </trkpt>
      <trkpt lat="47.45126" lon="6.79513">
        <ele>333</ele>
        <time>2015-06-14T09:55:03.000Z</time>
      </trkpt>
      <trkpt lat="47.45126" lon="6.79507">
        <ele>333</ele>
        <time>2015-06-14T09:55:04.000Z</time>
      </trkpt>
      <trkpt lat="47.45127" lon="6.79501">
        <ele>333</ele>
        <time>2015-06-14T09:55:05.000Z</time>
      </trkpt>
      <trkpt lat="47.45128" lon="6.79495">
        <ele>333</ele>
        <time>2015-06-14T09:55:06.000Z</time>
      </trkpt>
      <trkpt lat="47.4513" lon="6.79489">
        <ele>333</ele>
        <time>2015-06-14T09:55:07.000Z</time>
      </trkpt>
      <trkpt lat="47.45131" lon="6.7948">
        <ele>333</ele>
        <time>2015-06-14T09:55:08.000Z</time>
      </trkpt>
      <trkpt lat="47.45133" lon="6.79474">
        <ele>333</ele>
        <time>2015-06-14T09:55:09.001Z</time>
      </trkpt>
      <trkpt lat="47.45135" lon="6.79467">
        <ele>333</ele>
        <time>2015-06-14T09:55:10.000Z</time>
      </trkpt>
      <trkpt lat="47.45135" lon="6.79462">
        <ele>333</ele>
        <time>2015-06-14T09:55:11.000Z</time>
      </trkpt>
      <trkpt lat="47.45136" lon="6.79456">
        <ele>333</ele>
        <time>2015-06-14T09:55:12.000Z</time>
      </trkpt>
      <trkpt lat="47.45138" lon="6.7945">
        <ele>333</ele>
        <time>2015-06-14T09:55:13.001Z</time>
      </trkpt>
      <trkpt lat="47.45139" lon="6.79443">
        <ele>333</ele>
        <time>2015-06-14T09:55:14.001Z</time>
      </trkpt>
      <trkpt lat="47.45141" lon="6.79437">
        <ele>333</ele>
        <time>2015-06-14T09:55:15.000Z</time>
      </trkpt>
      <trkpt lat="47.45141" lon="6.79431">
        <ele>333</ele>
        <time>2015-06-14T09:55:16.000Z</time>
      </trkpt>
      <trkpt lat="47.45143" lon="6.79428">
        <ele>333</ele>
        <time>2015-06-14T09:55:17.000Z</time>
      </trkpt>
      <trkpt lat="47.45147" lon="6.79427">
        <ele>333</ele>
        <time>2015-06-14T09:55:18.000Z</time>
      </trkpt>
      <trkpt lat="47.45151" lon="6.79424">
        <ele>333</ele>
        <time>2015-06-14T09:55:19.000Z</time>
      </trkpt>
      <trkpt lat="47.45154" lon="6.7942">
        <ele>333</ele>
        <time>2015-06-14T09:55:20.000Z</time>
      </trkpt>
      <trkpt lat="47.45156" lon="6.79417">
        <ele>333</ele>
        <time>2015-06-14T09:55:21.000Z</time>
      </trkpt>
      <trkpt lat="47.45159" lon="6.79413">
        <ele>333</ele>
        <time>2015-06-14T09:55:22.000Z</time>
      </trkpt>
      <trkpt lat="47.45161" lon="6.79407">
        <ele>333</ele>
        <time>2015-06-14T09:55:23.000Z</time>
      </trkpt>
      <trkpt lat="47.45162" lon="6.79398">
        <ele>333</ele>
        <time>2015-06-14T09:55:24.000Z</time>
      </trkpt>
      <trkpt lat="47.45164" lon="6.79391">
        <ele>334</ele>
        <time>2015-06-14T09:55:25.000Z</time>
      </trkpt>
      <trkpt lat="47.45166" lon="6.79385">
        <ele>334</ele>
        <time>2015-06-14T09:55:26.000Z</time>
      </trkpt>
      <trkpt lat="47.45167" lon="6.79379">
        <ele>333</ele>
        <time>2015-06-14T09:55:27.001Z</time>
      </trkpt>
      <trkpt lat="47.45169" lon="6.79372">
        <ele>333</ele>
        <time>2015-06-14T09:55:28.000Z</time>
      </trkpt>
      <trkpt lat="47.4517" lon="6.79365">
        <ele>334</ele>
        <time>2015-06-14T09:55:29.000Z</time>
      </trkpt>
      <trkpt lat="47.45172" lon="6.79357">
        <ele>334</ele>
        <time>2015-06-14T09:55:30.000Z</time>
      </trkpt>
      <trkpt lat="47.45173" lon="6.79351">
        <ele>334</ele>
        <time>2015-06-14T09:55:31.000Z</time>
      </trkpt>
      <trkpt lat="47.45174" lon="6.79344">
        <ele>334</ele>
        <time>2015-06-14T09:55:32.000Z</time>
      </trkpt>
      <trkpt lat="47.45176" lon="6.79338">
        <ele>334</ele>
        <time>2015-06-14T09:55:33.000Z</time>
      </trkpt>
      <trkpt lat="47.45178" lon="6.79331">
        <ele>335</ele>
        <time>2015-06-14T09:55:34.000Z</time>
      </trkpt>
      <trkpt lat="47.45181" lon="6.79323">
        <ele>334</ele>
        <time>2015-06-14T09:55:35.000Z</time>
      </trkpt>
      <trkpt lat="47.45183" lon="6.79317">
        <ele>334</ele>
        <time>2015-06-14T09:55:36.000Z</time>
      </trkpt>
      <trkpt lat="47.45184" lon="6.7931">
        <ele>334</ele>
        <time>2015-06-14T09:55:37.000Z</time>
      </trkpt>
      <trkpt lat="47.45186" lon="6.79302">
        <ele>334</ele>
        <time>2015-06-14T09:55:38.000Z</time>
      </trkpt>
      <trkpt lat="47.45188" lon="6.79295">
        <ele>334</ele>
        <time>2015-06-14T09:55:39.000Z</time>
      </trkpt>
      <trkpt lat="47.45189" lon="6.79289">
        <ele>334</ele>
        <time>2015-06-14T09:55:40.000Z</time>
      </trkpt>
      <trkpt lat="47.45192" lon="6.79283">
        <ele>334</ele>
        <time>2015-06-14T09:55:41.000Z</time>
      </trkpt>
      <trkpt lat="47.45194" lon="6.79278">
        <ele>334</ele>
        <time>2015-06-14T09:55:42.000Z</time>
      </trkpt>
      <trkpt lat="47.45196" lon="6.79271">
        <ele>334</ele>
        <time>2015-06-14T09:55:43.000Z</time>
      </trkpt>
      <trkpt lat="47.45197" lon="6.79265">
        <ele>334</ele>
        <time>2015-06-14T09:55:44.000Z</time>
      </trkpt>
      <trkpt lat="47.45198" lon="6.7926">
        <ele>334</ele>
        <time>2015-06-14T09:55:45.000Z</time>
      </trkpt>
      <trkpt lat="47.452" lon="6.79253">
        <ele>334</ele>
        <time>2015-06-14T09:55:46.000Z</time>
      </trkpt>
      <trkpt lat="47.45202" lon="6.79247">
        <ele>334</ele>
        <time>2015-06-14T09:55:47.000Z</time>
      </trkpt>
      <trkpt lat="47.45202" lon="6.79241">
        <ele>334</ele>
        <time>2015-06-14T09:55:48.000Z</time>
      </trkpt>
      <trkpt lat="47.45203" lon="6.79234">
        <ele>334</ele>
        <time>2015-06-14T09:55:49.000Z</time>
      </trkpt>
      <trkpt lat="47.45203" lon="6.79227">
        <ele>334</ele>
        <time>2015-06-14T09:55:50.000Z</time>
      </trkpt>
      <trkpt lat="47.45205" lon="6.79221">
        <ele>334</ele>
        <time>2015-06-14T09:55:51.000Z</time>
      </trkpt>
      <trkpt lat="47.45206" lon="6.79215">
        <ele>334</ele>
        <time>2015-06-14T09:55:52.000Z</time>
      </trkpt>
      <trkpt lat="47.45207" lon="6.7921">
        <ele>334</ele>
        <time>2015-06-14T09:55:53.000Z</time>
      </trkpt>
      <trkpt lat="47.45209" lon="6.79205">
        <ele>334</ele>
        <time>2015-06-14T09:55:54.001Z</time>
      </trkpt>
      <trkpt lat="47.45209" lon="6.79199">
        <ele>334</ele>
        <time>2015-06-14T09:55:55.000Z</time>
      </trkpt>
      <trkpt lat="47.45211" lon="6.79195">
        <ele>334</ele>
        <time>2015-06-14T09:55:56.000Z</time>
      </trkpt>
      <trkpt lat="47.45212" lon="6.79191">
        <ele>334</ele>
        <time>2015-06-14T09:55:57.000Z</time>
      </trkpt>
      <trkpt lat="47.45212" lon="6.79187">
        <ele>334</ele>
        <time>2015-06-14T09:55:58.000Z</time>
      </trkpt>
      <trkpt lat="47.45213" lon="6.79184">
        <ele>333</ele>
        <time>2015-06-14T09:55:59.000Z</time>
      </trkpt>
      <trkpt lat="47.45214" lon="6.79179">
        <ele>333</ele>
        <time>2015-06-14T09:56:00.000Z</time>
      </trkpt>
      <trkpt lat="47.45215" lon="6.79175">
        <ele>333</ele>
        <time>2015-06-14T09:56:01.000Z</time>
      </trkpt>
      <trkpt lat="47.45216" lon="6.79171">
        <ele>333</ele>
        <time>2015-06-14T09:56:02.000Z</time>
      </trkpt>
      <trkpt lat="47.45217" lon="6.79167">
        <ele>333</ele>
        <time>2015-06-14T09:56:03.000Z</time>
      </trkpt>
      <trkpt lat="47.45218" lon="6.79164">
        <ele>333</ele>
        <time>2015-06-14T09:56:04.000Z</time>
      </trkpt>
      <trkpt lat="47.45219" lon="6.7916">
        <ele>333</ele>
        <time>2015-06-14T09:56:05.000Z</time>
      </trkpt>
      <trkpt lat="47.4522" lon="6.79156">
        <ele>333</ele>
        <time>2015-06-14T09:56:06.000Z</time>
      </trkpt>
      <trkpt lat="47.45221" lon="6.79152">
        <ele>333</ele>
        <time>2015-06-14T09:56:07.000Z</time>
      </trkpt>
      <trkpt lat="47.45222" lon="6.79148">
        <ele>333</ele>
        <time>2015-06-14T09:56:08.000Z</time>
      </trkpt>
      <trkpt lat="47.45223" lon="6.79144">
        <ele>333</ele>
        <time>2015-06-14T09:56:09.000Z</time>
      </trkpt>
      <trkpt lat="47.45224" lon="6.7914">
        <ele>333</ele>
        <time>2015-06-14T09:56:10.000Z</time>
      </trkpt>
      <trkpt lat="47.45226" lon="6.79136">
        <ele>333</ele>
        <time>2015-06-14T09:56:11.000Z</time>
      </trkpt>
      <trkpt lat="47.45228" lon="6.79133">
        <ele>333</ele>
        <time>2015-06-14T09:56:12.000Z</time>
      </trkpt>
      <trkpt lat="47.45231" lon="6.7913">
        <ele>333</ele>
        <time>2015-06-14T09:56:13.000Z</time>
      </trkpt>
      <trkpt lat="47.45234" lon="6.79129">
        <ele>333</ele>
        <time>2015-06-14T09:56:14.000Z</time>
      </trkpt>
      <trkpt lat="47.45238" lon="6.79127">
        <ele>333</ele>
        <time>2015-06-14T09:56:15.000Z</time>
      </trkpt>
      <trkpt lat="47.45245" lon="6.79125">
        <ele>333</ele>
        <time>2015-06-14T09:56:16.000Z</time>
      </trkpt>
      <trkpt lat="47.45248" lon="6.7912">
        <ele>333</ele>
        <time>2015-06-14T09:56:17.000Z</time>
      </trkpt>
      <trkpt lat="47.45251" lon="6.79115">
        <ele>332</ele>
        <time>2015-06-14T09:56:18.000Z</time>
      </trkpt>
      <trkpt lat="47.45254" lon="6.79109">
        <ele>332</ele>
        <time>2015-06-14T09:56:19.000Z</time>
      </trkpt>
      <trkpt lat="47.45256" lon="6.79102">
        <ele>332</ele>
        <time>2015-06-14T09:56:20.000Z</time>
      </trkpt>
      <trkpt lat="47.45259" lon="6.79096">
        <ele>332</ele>
        <time>2015-06-14T09:56:21.000Z</time>
      </trkpt>
      <trkpt lat="47.45261" lon="6.7909">
        <ele>332</ele>
        <time>2015-06-14T09:56:22.000Z</time>
      </trkpt>
      <trkpt lat="47.45263" lon="6.79084">
        <ele>332</ele>
        <time>2015-06-14T09:56:23.000Z</time>
      </trkpt>
      <trkpt lat="47.45265" lon="6.79078">
        <ele>332</ele>
        <time>2015-06-14T09:56:24.000Z</time>
      </trkpt>
      <trkpt lat="47.45267" lon="6.79071">
        <ele>332</ele>
        <time>2015-06-14T09:56:25.000Z</time>
      </trkpt>
      <trkpt lat="47.45269" lon="6.79065">
        <ele>332</ele>
        <time>2015-06-14T09:56:26.000Z</time>
      </trkpt>
      <trkpt lat="47.45271" lon="6.79058">
        <ele>331</ele>
        <time>2015-06-14T09:56:27.000Z</time>
      </trkpt>
      <trkpt lat="47.45273" lon="6.79051">
        <ele>331</ele>
        <time>2015-06-14T09:56:28.000Z</time>
      </trkpt>
      <trkpt lat="47.45275" lon="6.79044">
        <ele>331</ele>
        <time>2015-06-14T09:56:29.000Z</time>
      </trkpt>
      <trkpt lat="47.4528" lon="6.79032">
        <ele>331</ele>
        <time>2015-06-14T09:56:31.000Z</time>
      </trkpt>
      <trkpt lat="47.45283" lon="6.79026">
        <ele>331</ele>
        <time>2015-06-14T09:56:32.000Z</time>
      </trkpt>
      <trkpt lat="47.45287" lon="6.79019">
        <ele>331</ele>
        <time>2015-06-14T09:56:33.000Z</time>
      </trkpt>
      <trkpt lat="47.4529" lon="6.79014">
        <ele>331</ele>
        <time>2015-06-14T09:56:34.000Z</time>
      </trkpt>
      <trkpt lat="47.45294" lon="6.79008">
        <ele>331</ele>
        <time>2015-06-14T09:56:35.000Z</time>
      </trkpt>
      <trkpt lat="47.45296" lon="6.79003">
        <ele>331</ele>
        <time>2015-06-14T09:56:36.000Z</time>
      </trkpt>
      <trkpt lat="47.453" lon="6.78997">
        <ele>331</ele>
        <time>2015-06-14T09:56:37.000Z</time>
      </trkpt>
      <trkpt lat="47.45303" lon="6.78992">
        <ele>331</ele>
        <time>2015-06-14T09:56:38.000Z</time>
      </trkpt>
      <trkpt lat="47.45306" lon="6.78988">
        <ele>331</ele>
        <time>2015-06-14T09:56:39.000Z</time>
      </trkpt>
      <trkpt lat="47.45308" lon="6.78983">
        <ele>331</ele>
        <time>2015-06-14T09:56:40.000Z</time>
      </trkpt>
      <trkpt lat="47.45311" lon="6.78978">
        <ele>331</ele>
        <time>2015-06-14T09:56:41.000Z</time>
      </trkpt>
      <trkpt lat="47.45315" lon="6.78973">
        <ele>331</ele>
        <time>2015-06-14T09:56:42.000Z</time>
      </trkpt>
      <trkpt lat="47.45318" lon="6.78967">
        <ele>331</ele>
        <time>2015-06-14T09:56:43.000Z</time>
      </trkpt>
      <trkpt lat="47.45322" lon="6.78963">
        <ele>331</ele>
        <time>2015-06-14T09:56:44.000Z</time>
      </trkpt>
      <trkpt lat="47.45325" lon="6.78959">
        <ele>331</ele>
        <time>2015-06-14T09:56:45.000Z</time>
      </trkpt>
      <trkpt lat="47.45329" lon="6.78956">
        <ele>331</ele>
        <time>2015-06-14T09:56:46.000Z</time>
      </trkpt>
      <trkpt lat="47.45332" lon="6.78952">
        <ele>331</ele>
        <time>2015-06-14T09:56:47.000Z</time>
      </trkpt>
      <trkpt lat="47.45334" lon="6.78948">
        <ele>331</ele>
        <time>2015-06-14T09:56:48.000Z</time>
      </trkpt>
      <trkpt lat="47.45337" lon="6.78942">
        <ele>331</ele>
        <time>2015-06-14T09:56:49.000Z</time>
      </trkpt>
      <trkpt lat="47.4534" lon="6.78937">
        <ele>331</ele>
        <time>2015-06-14T09:56:50.000Z</time>
      </trkpt>
      <trkpt lat="47.45344" lon="6.78933">
        <ele>331</ele>
        <time>2015-06-14T09:56:51.000Z</time>
      </trkpt>
      <trkpt lat="47.45347" lon="6.78928">
        <ele>331</ele>
        <time>2015-06-14T09:56:52.000Z</time>
      </trkpt>
      <trkpt lat="47.45351" lon="6.78922">
        <ele>331</ele>
        <time>2015-06-14T09:56:53.000Z</time>
      </trkpt>
      <trkpt lat="47.45354" lon="6.78917">
        <ele>331</ele>
        <time>2015-06-14T09:56:54.000Z</time>
      </trkpt>
      <trkpt lat="47.45358" lon="6.78914">
        <ele>332</ele>
        <time>2015-06-14T09:56:55.000Z</time>
      </trkpt>
      <trkpt lat="47.45361" lon="6.7891">
        <ele>332</ele>
        <time>2015-06-14T09:56:56.000Z</time>
      </trkpt>
      <trkpt lat="47.45365" lon="6.78906">
        <ele>332</ele>
        <time>2015-06-14T09:56:57.000Z</time>
      </trkpt>
      <trkpt lat="47.45368" lon="6.78902">
        <ele>332</ele>
        <time>2015-06-14T09:56:58.000Z</time>
      </trkpt>
      <trkpt lat="47.45371" lon="6.78898">
        <ele>332</ele>
        <time>2015-06-14T09:56:59.000Z</time>
      </trkpt>
      <trkpt lat="47.45374" lon="6.78894">
        <ele>332</ele>
        <time>2015-06-14T09:57:00.000Z</time>
      </trkpt>
      <trkpt lat="47.45378" lon="6.7889">
        <ele>332</ele>
        <time>2015-06-14T09:57:01.000Z</time>
      </trkpt>
      <trkpt lat="47.45381" lon="6.78886">
        <ele>332</ele>
        <time>2015-06-14T09:57:02.000Z</time>
      </trkpt>
      <trkpt lat="47.45384" lon="6.78882">
        <ele>332</ele>
        <time>2015-06-14T09:57:03.000Z</time>
      </trkpt>
      <trkpt lat="47.45388" lon="6.78877">
        <ele>332</ele>
        <time>2015-06-14T09:57:04.000Z</time>
      </trkpt>
      <trkpt lat="47.45391" lon="6.78872">
        <ele>332</ele>
        <time>2015-06-14T09:57:05.000Z</time>
      </trkpt>
      <trkpt lat="47.45394" lon="6.78869">
        <ele>332</ele>
        <time>2015-06-14T09:57:06.000Z</time>
      </trkpt>
      <trkpt lat="47.45397" lon="6.78866">
        <ele>332</ele>
        <time>2015-06-14T09:57:07.000Z</time>
      </trkpt>
      <trkpt lat="47.45401" lon="6.78861">
        <ele>332</ele>
        <time>2015-06-14T09:57:08.000Z</time>
      </trkpt>
      <trkpt lat="47.45404" lon="6.78857">
        <ele>332</ele>
        <time>2015-06-14T09:57:09.000Z</time>
      </trkpt>
      <trkpt lat="47.45407" lon="6.78854">
        <ele>332</ele>
        <time>2015-06-14T09:57:10.000Z</time>
      </trkpt>
      <trkpt lat="47.4541" lon="6.78851">
        <ele>332</ele>
        <time>2015-06-14T09:57:11.000Z</time>
      </trkpt>
      <trkpt lat="47.45413" lon="6.78847">
        <ele>332</ele>
        <time>2015-06-14T09:57:12.000Z</time>
      </trkpt>
      <trkpt lat="47.45416" lon="6.78842">
        <ele>332</ele>
        <time>2015-06-14T09:57:13.000Z</time>
      </trkpt>
      <trkpt lat="47.45419" lon="6.78838">
        <ele>332</ele>
        <time>2015-06-14T09:57:14.000Z</time>
      </trkpt>
      <trkpt lat="47.45422" lon="6.78834">
        <ele>332</ele>
        <time>2015-06-14T09:57:15.000Z</time>
      </trkpt>
      <trkpt lat="47.45425" lon="6.7883">
        <ele>332</ele>
        <time>2015-06-14T09:57:16.000Z</time>
      </trkpt>
      <trkpt lat="47.45428" lon="6.78826">
        <ele>333</ele>
        <time>2015-06-14T09:57:17.000Z</time>
      </trkpt>
      <trkpt lat="47.45431" lon="6.78822">
        <ele>333</ele>
        <time>2015-06-14T09:57:18.000Z</time>
      </trkpt>
      <trkpt lat="47.45433" lon="6.78819">
        <ele>333</ele>
        <time>2015-06-14T09:57:19.000Z</time>
      </trkpt>
      <trkpt lat="47.45436" lon="6.78817">
        <ele>333</ele>
        <time>2015-06-14T09:57:20.000Z</time>
      </trkpt>
      <trkpt lat="47.45439" lon="6.78814">
        <ele>333</ele>
        <time>2015-06-14T09:57:21.000Z</time>
      </trkpt>
      <trkpt lat="47.45442" lon="6.7881">
        <ele>333</ele>
        <time>2015-06-14T09:57:22.000Z</time>
      </trkpt>
      <trkpt lat="47.45444" lon="6.78806">
        <ele>333</ele>
        <time>2015-06-14T09:57:23.000Z</time>
      </trkpt>
      <trkpt lat="47.45447" lon="6.78803">
        <ele>333</ele>
        <time>2015-06-14T09:57:24.000Z</time>
      </trkpt>
      <trkpt lat="47.4545" lon="6.78801">
        <ele>333</ele>
        <time>2015-06-14T09:57:25.000Z</time>
      </trkpt>
      <trkpt lat="47.45453" lon="6.78798">
        <ele>333</ele>
        <time>2015-06-14T09:57:26.000Z</time>
      </trkpt>
      <trkpt lat="47.45455" lon="6.78796">
        <ele>333</ele>
        <time>2015-06-14T09:57:27.000Z</time>
      </trkpt>
      <trkpt lat="47.45457" lon="6.78793">
        <ele>333</ele>
        <time>2015-06-14T09:57:28.000Z</time>
      </trkpt>
      <trkpt lat="47.45459" lon="6.7879">
        <ele>333</ele>
        <time>2015-06-14T09:57:29.000Z</time>
      </trkpt>
      <trkpt lat="47.45464" lon="6.78784">
        <ele>333</ele>
        <time>2015-06-14T09:57:31.000Z</time>
      </trkpt>
      <trkpt lat="47.45466" lon="6.78781">
        <ele>333</ele>
        <time>2015-06-14T09:57:32.000Z</time>
      </trkpt>
      <trkpt lat="47.45469" lon="6.78778">
        <ele>333</ele>
        <time>2015-06-14T09:57:33.000Z</time>
      </trkpt>
      <trkpt lat="47.45472" lon="6.78775">
        <ele>334</ele>
        <time>2015-06-14T09:57:34.000Z</time>
      </trkpt>
      <trkpt lat="47.45474" lon="6.78772">
        <ele>334</ele>
        <time>2015-06-14T09:57:35.000Z</time>
      </trkpt>
      <trkpt lat="47.45477" lon="6.78769">
        <ele>334</ele>
        <time>2015-06-14T09:57:36.000Z</time>
      </trkpt>
      <trkpt lat="47.4548" lon="6.78767">
        <ele>334</ele>
        <time>2015-06-14T09:57:37.000Z</time>
      </trkpt>
      <trkpt lat="47.45483" lon="6.78764">
        <ele>334</ele>
        <time>2015-06-14T09:57:38.000Z</time>
      </trkpt>
      <trkpt lat="47.45485" lon="6.78762">
        <ele>334</ele>
        <time>2015-06-14T09:57:39.000Z</time>
      </trkpt>
      <trkpt lat="47.45488" lon="6.78759">
        <ele>334</ele>
        <time>2015-06-14T09:57:41.000Z</time>
      </trkpt>
      <trkpt lat="47.45489" lon="6.78757">
        <ele>334</ele>
        <time>2015-06-14T09:57:42.000Z</time>
      </trkpt>
      <trkpt lat="47.45491" lon="6.78751">
        <ele>334</ele>
        <time>2015-06-14T09:57:44.000Z</time>
      </trkpt>
      <trkpt lat="47.45491" lon="6.78748">
        <ele>335</ele>
        <time>2015-06-14T09:57:45.000Z</time>
      </trkpt>
      <trkpt lat="47.4549" lon="6.78744">
        <ele>335</ele>
        <time>2015-06-14T09:57:46.000Z</time>
      </trkpt>
      <trkpt lat="47.45489" lon="6.7874">
        <ele>335</ele>
        <time>2015-06-14T09:57:47.000Z</time>
      </trkpt>
      <trkpt lat="47.45487" lon="6.78735">
        <ele>335</ele>
        <time>2015-06-14T09:57:48.000Z</time>
      </trkpt>
      <trkpt lat="47.45486" lon="6.78731">
        <ele>335</ele>
        <time>2015-06-14T09:57:49.000Z</time>
      </trkpt>
      <trkpt lat="47.45484" lon="6.78727">
        <ele>335</ele>
        <time>2015-06-14T09:57:50.000Z</time>
      </trkpt>
      <trkpt lat="47.45481" lon="6.78723">
        <ele>335</ele>
        <time>2015-06-14T09:57:51.000Z</time>
      </trkpt>
      <trkpt lat="47.45479" lon="6.78719">
        <ele>335</ele>
        <time>2015-06-14T09:57:52.000Z</time>
      </trkpt>
      <trkpt lat="47.45477" lon="6.78715">
        <ele>335</ele>
        <time>2015-06-14T09:57:53.000Z</time>
      </trkpt>
      <trkpt lat="47.45475" lon="6.78711">
        <ele>335</ele>
        <time>2015-06-14T09:57:54.000Z</time>
      </trkpt>
      <trkpt lat="47.45472" lon="6.78707">
        <ele>335</ele>
        <time>2015-06-14T09:57:55.000Z</time>
      </trkpt>
      <trkpt lat="47.4547" lon="6.78702">
        <ele>335</ele>
        <time>2015-06-14T09:57:56.000Z</time>
      </trkpt>
      <trkpt lat="47.45467" lon="6.78697">
        <ele>335</ele>
        <time>2015-06-14T09:57:57.000Z</time>
      </trkpt>
      <trkpt lat="47.45464" lon="6.78692">
        <ele>335</ele>
        <time>2015-06-14T09:57:58.000Z</time>
      </trkpt>
      <trkpt lat="47.45462" lon="6.78688">
        <ele>335</ele>
        <time>2015-06-14T09:57:59.000Z</time>
      </trkpt>
      <trkpt lat="47.45459" lon="6.78683">
        <ele>335</ele>
        <time>2015-06-14T09:58:00.000Z</time>
      </trkpt>
      <trkpt lat="47.45457" lon="6.78679">
        <ele>335</ele>
        <time>2015-06-14T09:58:01.000Z</time>
      </trkpt>
      <trkpt lat="47.45454" lon="6.78674">
        <ele>335</ele>
        <time>2015-06-14T09:58:02.000Z</time>
      </trkpt>
      <trkpt lat="47.45452" lon="6.78669">
        <ele>335</ele>
        <time>2015-06-14T09:58:03.000Z</time>
      </trkpt>
      <trkpt lat="47.4545" lon="6.78665">
        <ele>337</ele>
        <time>2015-06-14T09:58:04.000Z</time>
      </trkpt>
      <trkpt lat="47.45447" lon="6.7866">
        <ele>337</ele>
        <time>2015-06-14T09:58:05.000Z</time>
      </trkpt>
      <trkpt lat="47.45445" lon="6.78655">
        <ele>337</ele>
        <time>2015-06-14T09:58:06.000Z</time>
      </trkpt>
      <trkpt lat="47.45442" lon="6.78651">
        <ele>337</ele>
        <time>2015-06-14T09:58:07.000Z</time>
      </trkpt>
      <trkpt lat="47.45439" lon="6.78647">
        <ele>337</ele>
        <time>2015-06-14T09:58:08.000Z</time>
      </trkpt>
      <trkpt lat="47.45437" lon="6.78642">
        <ele>338</ele>
        <time>2015-06-14T09:58:09.000Z</time>
      </trkpt>
      <trkpt lat="47.45435" lon="6.78638">
        <ele>338</ele>
        <time>2015-06-14T09:58:10.000Z</time>
      </trkpt>
      <trkpt lat="47.45432" lon="6.78634">
        <ele>338</ele>
        <time>2015-06-14T09:58:11.000Z</time>
      </trkpt>
      <trkpt lat="47.4543" lon="6.78629">
        <ele>338</ele>
        <time>2015-06-14T09:58:12.000Z</time>
      </trkpt>
      <trkpt lat="47.45427" lon="6.78625">
        <ele>338</ele>
        <time>2015-06-14T09:58:13.000Z</time>
      </trkpt>
      <trkpt lat="47.45425" lon="6.7862">
        <ele>338</ele>
        <time>2015-06-14T09:58:14.000Z</time>
      </trkpt>
      <trkpt lat="47.45422" lon="6.78616">
        <ele>338</ele>
        <time>2015-06-14T09:58:15.000Z</time>
      </trkpt>
      <trkpt lat="47.4542" lon="6.78612">
        <ele>338</ele>
        <time>2015-06-14T09:58:16.000Z</time>
      </trkpt>
      <trkpt lat="47.45418" lon="6.78609">
        <ele>338</ele>
        <time>2015-06-14T09:58:17.000Z</time>
      </trkpt>
      <trkpt lat="47.45416" lon="6.78605">
        <ele>337</ele>
        <time>2015-06-14T09:58:18.000Z</time>
      </trkpt>
      <trkpt lat="47.45414" lon="6.78601">
        <ele>337</ele>
        <time>2015-06-14T09:58:19.000Z</time>
      </trkpt>
      <trkpt lat="47.45412" lon="6.78597">
        <ele>337</ele>
        <time>2015-06-14T09:58:20.000Z</time>
      </trkpt>
      <trkpt lat="47.4541" lon="6.78593">
        <ele>337</ele>
        <time>2015-06-14T09:58:21.000Z</time>
      </trkpt>
      <trkpt lat="47.45408" lon="6.78589">
        <ele>338</ele>
        <time>2015-06-14T09:58:22.000Z</time>
      </trkpt>
      <trkpt lat="47.45406" lon="6.78585">
        <ele>338</ele>
        <time>2015-06-14T09:58:23.000Z</time>
      </trkpt>
      <trkpt lat="47.45404" lon="6.78581">
        <ele>339</ele>
        <time>2015-06-14T09:58:24.000Z</time>
      </trkpt>
      <trkpt lat="47.45402" lon="6.78576">
        <ele>339</ele>
        <time>2015-06-14T09:58:25.000Z</time>
      </trkpt>
      <trkpt lat="47.454" lon="6.78572">
        <ele>339</ele>
        <time>2015-06-14T09:58:26.000Z</time>
      </trkpt>
      <trkpt lat="47.45397" lon="6.78568">
        <ele>339</ele>
        <time>2015-06-14T09:58:27.000Z</time>
      </trkpt>
      <trkpt lat="47.45395" lon="6.78563">
        <ele>339</ele>
        <time>2015-06-14T09:58:28.000Z</time>
      </trkpt>
      <trkpt lat="47.45392" lon="6.78559">
        <ele>339</ele>
        <time>2015-06-14T09:58:28.999Z</time>
      </trkpt>
      <trkpt lat="47.4539" lon="6.78554">
        <ele>339</ele>
        <time>2015-06-14T09:58:30.000Z</time>
      </trkpt>
      <trkpt lat="47.45388" lon="6.78549">
        <ele>339</ele>
        <time>2015-06-14T09:58:31.000Z</time>
      </trkpt>
      <trkpt lat="47.45386" lon="6.78543">
        <ele>339</ele>
        <time>2015-06-14T09:58:32.000Z</time>
      </trkpt>
      <trkpt lat="47.45385" lon="6.78537">
        <ele>339</ele>
        <time>2015-06-14T09:58:33.000Z</time>
      </trkpt>
      <trkpt lat="47.45383" lon="6.78533">
        <ele>339</ele>
        <time>2015-06-14T09:58:34.000Z</time>
      </trkpt>
      <trkpt lat="47.45382" lon="6.78528">
        <ele>339</ele>
        <time>2015-06-14T09:58:35.000Z</time>
      </trkpt>
      <trkpt lat="47.4538" lon="6.78524">
        <ele>339</ele>
        <time>2015-06-14T09:58:36.000Z</time>
      </trkpt>
      <trkpt lat="47.4538" lon="6.7852">
        <ele>339</ele>
        <time>2015-06-14T09:58:37.000Z</time>
      </trkpt>
      <trkpt lat="47.45379" lon="6.78516">
        <ele>339</ele>
        <time>2015-06-14T09:58:38.000Z</time>
      </trkpt>
      <trkpt lat="47.45379" lon="6.78513">
        <ele>339</ele>
        <time>2015-06-14T09:58:39.000Z</time>
      </trkpt>
      <trkpt lat="47.45378" lon="6.78509">
        <ele>339</ele>
        <time>2015-06-14T09:58:40.001Z</time>
      </trkpt>
      <trkpt lat="47.45377" lon="6.78505">
        <ele>339</ele>
        <time>2015-06-14T09:58:41.000Z</time>
      </trkpt>
      <trkpt lat="47.45376" lon="6.78502">
        <ele>339</ele>
        <time>2015-06-14T09:58:42.000Z</time>
      </trkpt>
      <trkpt lat="47.45376" lon="6.78498">
        <ele>342</ele>
        <time>2015-06-14T09:58:43.000Z</time>
      </trkpt>
      <trkpt lat="47.45376" lon="6.78494">
        <ele>342</ele>
        <time>2015-06-14T09:58:44.000Z</time>
      </trkpt>
      <trkpt lat="47.45376" lon="6.7849">
        <ele>342</ele>
        <time>2015-06-14T09:58:45.000Z</time>
      </trkpt>
      <trkpt lat="47.45377" lon="6.78486">
        <ele>342</ele>
        <time>2015-06-14T09:58:46.000Z</time>
      </trkpt>
      <trkpt lat="47.45378" lon="6.78483">
        <ele>342</ele>
        <time>2015-06-14T09:58:47.000Z</time>
      </trkpt>
      <trkpt lat="47.45381" lon="6.78481">
        <ele>342</ele>
        <time>2015-06-14T09:58:48.000Z</time>
      </trkpt>
      <trkpt lat="47.45383" lon="6.78481">
        <ele>342</ele>
        <time>2015-06-14T09:58:49.000Z</time>
      </trkpt>
      <trkpt lat="47.45386" lon="6.78481">
        <ele>342</ele>
        <time>2015-06-14T09:58:50.000Z</time>
      </trkpt>
      <trkpt lat="47.45389" lon="6.78482">
        <ele>342</ele>
        <time>2015-06-14T09:58:51.000Z</time>
      </trkpt>
      <trkpt lat="47.45391" lon="6.78484">
        <ele>343</ele>
        <time>2015-06-14T09:58:52.000Z</time>
      </trkpt>
      <trkpt lat="47.45393" lon="6.78486">
        <ele>343</ele>
        <time>2015-06-14T09:58:53.000Z</time>
      </trkpt>
      <trkpt lat="47.45395" lon="6.78488">
        <ele>343</ele>
        <time>2015-06-14T09:58:54.000Z</time>
      </trkpt>
      <trkpt lat="47.45397" lon="6.7849">
        <ele>343</ele>
        <time>2015-06-14T09:58:55.000Z</time>
      </trkpt>
      <trkpt lat="47.45399" lon="6.78492">
        <ele>343</ele>
        <time>2015-06-14T09:58:56.000Z</time>
      </trkpt>
      <trkpt lat="47.45401" lon="6.78495">
        <ele>343</ele>
        <time>2015-06-14T09:58:57.000Z</time>
      </trkpt>
      <trkpt lat="47.45404" lon="6.78497">
        <ele>343</ele>
        <time>2015-06-14T09:58:58.000Z</time>
      </trkpt>
      <trkpt lat="47.45406" lon="6.78499">
        <ele>343</ele>
        <time>2015-06-14T09:58:59.000Z</time>
      </trkpt>
      <trkpt lat="47.45408" lon="6.78501">
        <ele>342</ele>
        <time>2015-06-14T09:59:00.000Z</time>
      </trkpt>
      <trkpt lat="47.4541" lon="6.78503">
        <ele>343</ele>
        <time>2015-06-14T09:59:01.000Z</time>
      </trkpt>
      <trkpt lat="47.45412" lon="6.78504">
        <ele>343</ele>
        <time>2015-06-14T09:59:02.000Z</time>
      </trkpt>
      <trkpt lat="47.45416" lon="6.78507">
        <ele>343</ele>
        <time>2015-06-14T09:59:04.000Z</time>
      </trkpt>
      <trkpt lat="47.45418" lon="6.78508">
        <ele>344</ele>
        <time>2015-06-14T09:59:05.000Z</time>
      </trkpt>
      <trkpt lat="47.4542" lon="6.78508">
        <ele>344</ele>
        <time>2015-06-14T09:59:06.000Z</time>
      </trkpt>
      <trkpt lat="47.45422" lon="6.78509">
        <ele>344</ele>
        <time>2015-06-14T09:59:07.000Z</time>
      </trkpt>
      <trkpt lat="47.45425" lon="6.7851">
        <ele>344</ele>
        <time>2015-06-14T09:59:08.000Z</time>
      </trkpt>
      <trkpt lat="47.45427" lon="6.7851">
        <ele>344</ele>
        <time>2015-06-14T09:59:09.000Z</time>
      </trkpt>
      <trkpt lat="47.4543" lon="6.7851">
        <ele>344</ele>
        <time>2015-06-14T09:59:10.000Z</time>
      </trkpt>
      <trkpt lat="47.45432" lon="6.7851">
        <ele>344</ele>
        <time>2015-06-14T09:59:11.000Z</time>
      </trkpt>
      <trkpt lat="47.45434" lon="6.78509">
        <ele>344</ele>
        <time>2015-06-14T09:59:12.000Z</time>
      </trkpt>
      <trkpt lat="47.45437" lon="6.78509">
        <ele>344</ele>
        <time>2015-06-14T09:59:13.000Z</time>
      </trkpt>
      <trkpt lat="47.4544" lon="6.78508">
        <ele>344</ele>
        <time>2015-06-14T09:59:14.000Z</time>
      </trkpt>
      <trkpt lat="47.45442" lon="6.78507">
        <ele>344</ele>
        <time>2015-06-14T09:59:15.000Z</time>
      </trkpt>
      <trkpt lat="47.45444" lon="6.78507">
        <ele>344</ele>
        <time>2015-06-14T09:59:16.000Z</time>
      </trkpt>
      <trkpt lat="47.45446" lon="6.78506">
        <ele>344</ele>
        <time>2015-06-14T09:59:17.000Z</time>
      </trkpt>
      <trkpt lat="47.45449" lon="6.78505">
        <ele>344</ele>
        <time>2015-06-14T09:59:18.000Z</time>
      </trkpt>
      <trkpt lat="47.45451" lon="6.78505">
        <ele>344</ele>
        <time>2015-06-14T09:59:19.000Z</time>
      </trkpt>
      <trkpt lat="47.45454" lon="6.78505">
        <ele>344</ele>
        <time>2015-06-14T09:59:20.000Z</time>
      </trkpt>
      <trkpt lat="47.45456" lon="6.78505">
        <ele>344</ele>
        <time>2015-06-14T09:59:21.000Z</time>
      </trkpt>
      <trkpt lat="47.45458" lon="6.78504">
        <ele>344</ele>
        <time>2015-06-14T09:59:22.000Z</time>
      </trkpt>
      <trkpt lat="47.4546" lon="6.78501">
        <ele>344</ele>
        <time>2015-06-14T09:59:23.000Z</time>
      </trkpt>
      <trkpt lat="47.45462" lon="6.78499">
        <ele>347</ele>
        <time>2015-06-14T09:59:24.000Z</time>
      </trkpt>
      <trkpt lat="47.45464" lon="6.78497">
        <ele>347</ele>
        <time>2015-06-14T09:59:25.000Z</time>
      </trkpt>
      <trkpt lat="47.45466" lon="6.78495">
        <ele>347</ele>
        <time>2015-06-14T09:59:26.000Z</time>
      </trkpt>
      <trkpt lat="47.45468" lon="6.78494">
        <ele>347</ele>
        <time>2015-06-14T09:59:27.000Z</time>
      </trkpt>
      <trkpt lat="47.4547" lon="6.78493">
        <ele>348</ele>
        <time>2015-06-14T09:59:28.000Z</time>
      </trkpt>
      <trkpt lat="47.45472" lon="6.78491">
        <ele>348</ele>
        <time>2015-06-14T09:59:29.000Z</time>
      </trkpt>
      <trkpt lat="47.45474" lon="6.7849">
        <ele>348</ele>
        <time>2015-06-14T09:59:30.000Z</time>
      </trkpt>
      <trkpt lat="47.45477" lon="6.78488">
        <ele>348</ele>
        <time>2015-06-14T09:59:31.000Z</time>
      </trkpt>
      <trkpt lat="47.45479" lon="6.78487">
        <ele>348</ele>
        <time>2015-06-14T09:59:32.000Z</time>
      </trkpt>
      <trkpt lat="47.45481" lon="6.78485">
        <ele>348</ele>
        <time>2015-06-14T09:59:33.000Z</time>
      </trkpt>
      <trkpt lat="47.45484" lon="6.78484">
        <ele>348</ele>
        <time>2015-06-14T09:59:34.000Z</time>
      </trkpt>
      <trkpt lat="47.45486" lon="6.78482">
        <ele>348</ele>
        <time>2015-06-14T09:59:35.000Z</time>
      </trkpt>
      <trkpt lat="47.45488" lon="6.7848">
        <ele>348</ele>
        <time>2015-06-14T09:59:36.000Z</time>
      </trkpt>
      <trkpt lat="47.45491" lon="6.78479">
        <ele>348</ele>
        <time>2015-06-14T09:59:37.000Z</time>
      </trkpt>
      <trkpt lat="47.45493" lon="6.78477">
        <ele>348</ele>
        <time>2015-06-14T09:59:38.000Z</time>
      </trkpt>
      <trkpt lat="47.45496" lon="6.78475">
        <ele>348</ele>
        <time>2015-06-14T09:59:39.000Z</time>
      </trkpt>
      <trkpt lat="47.45498" lon="6.78473">
        <ele>348</ele>
        <time>2015-06-14T09:59:40.000Z</time>
      </trkpt>
      <trkpt lat="47.45501" lon="6.78472">
        <ele>350</ele>
        <time>2015-06-14T09:59:41.000Z</time>
      </trkpt>
      <trkpt lat="47.45503" lon="6.78471">
        <ele>350</ele>
        <time>2015-06-14T09:59:42.000Z</time>
      </trkpt>
      <trkpt lat="47.45506" lon="6.7847">
        <ele>350</ele>
        <time>2015-06-14T09:59:43.000Z</time>
      </trkpt>
      <trkpt lat="47.45508" lon="6.78469">
        <ele>350</ele>
        <time>2015-06-14T09:59:44.000Z</time>
      </trkpt>
      <trkpt lat="47.45511" lon="6.78467">
        <ele>350</ele>
        <time>2015-06-14T09:59:45.000Z</time>
      </trkpt>
      <trkpt lat="47.45514" lon="6.78466">
        <ele>350</ele>
        <time>2015-06-14T09:59:46.000Z</time>
      </trkpt>
      <trkpt lat="47.45516" lon="6.78464">
        <ele>351</ele>
        <time>2015-06-14T09:59:47.000Z</time>
      </trkpt>
      <trkpt lat="47.45519" lon="6.78462">
        <ele>351</ele>
        <time>2015-06-14T09:59:48.000Z</time>
      </trkpt>
      <trkpt lat="47.45521" lon="6.78461">
        <ele>351</ele>
        <time>2015-06-14T09:59:49.000Z</time>
      </trkpt>
      <trkpt lat="47.45524" lon="6.78459">
        <ele>351</ele>
        <time>2015-06-14T09:59:50.000Z</time>
      </trkpt>
      <trkpt lat="47.45527" lon="6.78458">
        <ele>351</ele>
        <time>2015-06-14T09:59:51.000Z</time>
      </trkpt>
      <trkpt lat="47.45529" lon="6.78457">
        <ele>351</ele>
        <time>2015-06-14T09:59:52.000Z</time>
      </trkpt>
      <trkpt lat="47.45532" lon="6.78456">
        <ele>351</ele>
        <time>2015-06-14T09:59:53.000Z</time>
      </trkpt>
      <trkpt lat="47.45535" lon="6.78454">
        <ele>351</ele>
        <time>2015-06-14T09:59:54.000Z</time>
      </trkpt>
      <trkpt lat="47.45537" lon="6.78453">
        <ele>351</ele>
        <time>2015-06-14T09:59:55.000Z</time>
      </trkpt>
      <trkpt lat="47.4554" lon="6.78452">
        <ele>351</ele>
        <time>2015-06-14T09:59:56.000Z</time>
      </trkpt>
      <trkpt lat="47.45543" lon="6.7845">
        <ele>351</ele>
        <time>2015-06-14T09:59:57.000Z</time>
      </trkpt>
      <trkpt lat="47.45545" lon="6.78449">
        <ele>351</ele>
        <time>2015-06-14T09:59:58.000Z</time>
      </trkpt>
      <trkpt lat="47.45548" lon="6.78446">
        <ele>351</ele>
        <time>2015-06-14T09:59:59.000Z</time>
      </trkpt>
      <trkpt lat="47.45551" lon="6.78444">
        <ele>351</ele>
        <time>2015-06-14T10:00:00.000Z</time>
      </trkpt>
      <trkpt lat="47.45554" lon="6.78442">
        <ele>352</ele>
        <time>2015-06-14T10:00:01.000Z</time>
      </trkpt>
      <trkpt lat="47.45557" lon="6.78439">
        <ele>352</ele>
        <time>2015-06-14T10:00:02.000Z</time>
      </trkpt>
      <trkpt lat="47.4556" lon="6.78438">
        <ele>352</ele>
        <time>2015-06-14T10:00:03.000Z</time>
      </trkpt>
      <trkpt lat="47.45563" lon="6.78436">
        <ele>352</ele>
        <time>2015-06-14T10:00:04.000Z</time>
      </trkpt>
      <trkpt lat="47.45566" lon="6.78434">
        <ele>352</ele>
        <time>2015-06-14T10:00:05.000Z</time>
      </trkpt>
      <trkpt lat="47.45569" lon="6.78433">
        <ele>352</ele>
        <time>2015-06-14T10:00:06.000Z</time>
      </trkpt>
      <trkpt lat="47.45573" lon="6.78431">
        <ele>352</ele>
        <time>2015-06-14T10:00:07.000Z</time>
      </trkpt>
      <trkpt lat="47.45576" lon="6.7843">
        <ele>353</ele>
        <time>2015-06-14T10:00:08.000Z</time>
      </trkpt>
      <trkpt lat="47.4558" lon="6.78428">
        <ele>353</ele>
        <time>2015-06-14T10:00:09.000Z</time>
      </trkpt>
      <trkpt lat="47.45583" lon="6.78426">
        <ele>353</ele>
        <time>2015-06-14T10:00:10.000Z</time>
      </trkpt>
      <trkpt lat="47.45587" lon="6.78424">
        <ele>354</ele>
        <time>2015-06-14T10:00:11.000Z</time>
      </trkpt>
      <trkpt lat="47.4559" lon="6.78423">
        <ele>354</ele>
        <time>2015-06-14T10:00:12.000Z</time>
      </trkpt>
      <trkpt lat="47.45593" lon="6.78421">
        <ele>354</ele>
        <time>2015-06-14T10:00:13.000Z</time>
      </trkpt>
      <trkpt lat="47.45596" lon="6.7842">
        <ele>354</ele>
        <time>2015-06-14T10:00:14.000Z</time>
      </trkpt>
      <trkpt lat="47.456" lon="6.78418">
        <ele>354</ele>
        <time>2015-06-14T10:00:15.000Z</time>
      </trkpt>
      <trkpt lat="47.45603" lon="6.78416">
        <ele>355</ele>
        <time>2015-06-14T10:00:16.000Z</time>
      </trkpt>
      <trkpt lat="47.45606" lon="6.78414">
        <ele>355</ele>
        <time>2015-06-14T10:00:17.000Z</time>
      </trkpt>
      <trkpt lat="47.45609" lon="6.78412">
        <ele>355</ele>
        <time>2015-06-14T10:00:18.000Z</time>
      </trkpt>
      <trkpt lat="47.45612" lon="6.78411">
        <ele>355</ele>
        <time>2015-06-14T10:00:19.000Z</time>
      </trkpt>
      <trkpt lat="47.45615" lon="6.78409">
        <ele>355</ele>
        <time>2015-06-14T10:00:20.000Z</time>
      </trkpt>
      <trkpt lat="47.45618" lon="6.78407">
        <ele>355</ele>
        <time>2015-06-14T10:00:21.000Z</time>
      </trkpt>
      <trkpt lat="47.45621" lon="6.78405">
        <ele>355</ele>
        <time>2015-06-14T10:00:22.000Z</time>
      </trkpt>
      <trkpt lat="47.45624" lon="6.78403">
        <ele>355</ele>
        <time>2015-06-14T10:00:23.000Z</time>
      </trkpt>
      <trkpt lat="47.45627" lon="6.78402">
        <ele>355</ele>
        <time>2015-06-14T10:00:24.000Z</time>
      </trkpt>
      <trkpt lat="47.4563" lon="6.784">
        <ele>355</ele>
        <time>2015-06-14T10:00:25.000Z</time>
      </trkpt>
      <trkpt lat="47.45633" lon="6.78398">
        <ele>355</ele>
        <time>2015-06-14T10:00:26.000Z</time>
      </trkpt>
      <trkpt lat="47.45636" lon="6.78397">
        <ele>355</ele>
        <time>2015-06-14T10:00:27.000Z</time>
      </trkpt>
      <trkpt lat="47.45639" lon="6.78395">
        <ele>355</ele>
        <time>2015-06-14T10:00:28.000Z</time>
      </trkpt>
      <trkpt lat="47.45642" lon="6.78394">
        <ele>355</ele>
        <time>2015-06-14T10:00:29.000Z</time>
      </trkpt>
      <trkpt lat="47.45645" lon="6.78392">
        <ele>355</ele>
        <time>2015-06-14T10:00:30.000Z</time>
      </trkpt>
      <trkpt lat="47.45648" lon="6.78391">
        <ele>356</ele>
        <time>2015-06-14T10:00:31.000Z</time>
      </trkpt>
      <trkpt lat="47.45651" lon="6.7839">
        <ele>356</ele>
        <time>2015-06-14T10:00:32.000Z</time>
      </trkpt>
      <trkpt lat="47.45654" lon="6.78389">
        <ele>356</ele>
        <time>2015-06-14T10:00:33.000Z</time>
      </trkpt>
      <trkpt lat="47.45657" lon="6.78388">
        <ele>356</ele>
        <time>2015-06-14T10:00:34.000Z</time>
      </trkpt>
      <trkpt lat="47.45659" lon="6.78387">
        <ele>356</ele>
        <time>2015-06-14T10:00:35.000Z</time>
      </trkpt>
      <trkpt lat="47.45662" lon="6.78387">
        <ele>356</ele>
        <time>2015-06-14T10:00:36.000Z</time>
      </trkpt>
      <trkpt lat="47.45665" lon="6.78386">
        <ele>356</ele>
        <time>2015-06-14T10:00:37.000Z</time>
      </trkpt>
      <trkpt lat="47.45668" lon="6.78384">
        <ele>358</ele>
        <time>2015-06-14T10:00:38.000Z</time>
      </trkpt>
      <trkpt lat="47.45671" lon="6.78383">
        <ele>358</ele>
        <time>2015-06-14T10:00:39.000Z</time>
      </trkpt>
      <trkpt lat="47.45674" lon="6.78382">
        <ele>358</ele>
        <time>2015-06-14T10:00:40.000Z</time>
      </trkpt>
      <trkpt lat="47.45677" lon="6.78381">
        <ele>358</ele>
        <time>2015-06-14T10:00:41.000Z</time>
      </trkpt>
      <trkpt lat="47.45679" lon="6.7838">
        <ele>358</ele>
        <time>2015-06-14T10:00:42.000Z</time>
      </trkpt>
      <trkpt lat="47.45682" lon="6.7838">
        <ele>358</ele>
        <time>2015-06-14T10:00:43.000Z</time>
      </trkpt>
      <trkpt lat="47.45685" lon="6.78379">
        <ele>358</ele>
        <time>2015-06-14T10:00:44.000Z</time>
      </trkpt>
      <trkpt lat="47.45688" lon="6.78379">
        <ele>358</ele>
        <time>2015-06-14T10:00:45.000Z</time>
      </trkpt>
      <trkpt lat="47.45691" lon="6.78378">
        <ele>358</ele>
        <time>2015-06-14T10:00:46.000Z</time>
      </trkpt>
      <trkpt lat="47.45694" lon="6.78378">
        <ele>359</ele>
        <time>2015-06-14T10:00:47.000Z</time>
      </trkpt>
      <trkpt lat="47.45697" lon="6.78378">
        <ele>359</ele>
        <time>2015-06-14T10:00:48.000Z</time>
      </trkpt>
      <trkpt lat="47.457" lon="6.78379">
        <ele>359</ele>
        <time>2015-06-14T10:00:49.000Z</time>
      </trkpt>
      <trkpt lat="47.45703" lon="6.78379">
        <ele>359</ele>
        <time>2015-06-14T10:00:50.000Z</time>
      </trkpt>
      <trkpt lat="47.45706" lon="6.7838">
        <ele>359</ele>
        <time>2015-06-14T10:00:51.000Z</time>
      </trkpt>
      <trkpt lat="47.45709" lon="6.7838">
        <ele>359</ele>
        <time>2015-06-14T10:00:52.000Z</time>
      </trkpt>
      <trkpt lat="47.45712" lon="6.78381">
        <ele>359</ele>
        <time>2015-06-14T10:00:53.000Z</time>
      </trkpt>
      <trkpt lat="47.45716" lon="6.78381">
        <ele>359</ele>
        <time>2015-06-14T10:00:53.998Z</time>
      </trkpt>
      <trkpt lat="47.45719" lon="6.78381">
        <ele>359</ele>
        <time>2015-06-14T10:00:55.000Z</time>
      </trkpt>
      <trkpt lat="47.45722" lon="6.78381">
        <ele>359</ele>
        <time>2015-06-14T10:00:56.000Z</time>
      </trkpt>
      <trkpt lat="47.45725" lon="6.78381">
        <ele>359</ele>
        <time>2015-06-14T10:00:57.000Z</time>
      </trkpt>
      <trkpt lat="47.45727" lon="6.78381">
        <ele>359</ele>
        <time>2015-06-14T10:00:58.000Z</time>
      </trkpt>
      <trkpt lat="47.4573" lon="6.78381">
        <ele>360</ele>
        <time>2015-06-14T10:00:58.999Z</time>
      </trkpt>
      <trkpt lat="47.45734" lon="6.78382">
        <ele>360</ele>
        <time>2015-06-14T10:01:01.000Z</time>
      </trkpt>
      <trkpt lat="47.45736" lon="6.78382">
        <ele>360</ele>
        <time>2015-06-14T10:01:02.000Z</time>
      </trkpt>
      <trkpt lat="47.45739" lon="6.78383">
        <ele>360</ele>
        <time>2015-06-14T10:01:03.000Z</time>
      </trkpt>
      <trkpt lat="47.45741" lon="6.78383">
        <ele>360</ele>
        <time>2015-06-14T10:01:04.000Z</time>
      </trkpt>
      <trkpt lat="47.45744" lon="6.78383">
        <ele>360</ele>
        <time>2015-06-14T10:01:05.000Z</time>
      </trkpt>
      <trkpt lat="47.45746" lon="6.78384">
        <ele>360</ele>
        <time>2015-06-14T10:01:06.000Z</time>
      </trkpt>
      <trkpt lat="47.45749" lon="6.78384">
        <ele>360</ele>
        <time>2015-06-14T10:01:07.001Z</time>
      </trkpt>
      <trkpt lat="47.45752" lon="6.78385">
        <ele>365</ele>
        <time>2015-06-14T10:01:08.000Z</time>
      </trkpt>
      <trkpt lat="47.45755" lon="6.78385">
        <ele>365</ele>
        <time>2015-06-14T10:01:09.000Z</time>
      </trkpt>
      <trkpt lat="47.45758" lon="6.78386">
        <ele>365</ele>
        <time>2015-06-14T10:01:10.000Z</time>
      </trkpt>
      <trkpt lat="47.45761" lon="6.78386">
        <ele>365</ele>
        <time>2015-06-14T10:01:11.000Z</time>
      </trkpt>
      <trkpt lat="47.45764" lon="6.78387">
        <ele>365</ele>
        <time>2015-06-14T10:01:11.999Z</time>
      </trkpt>
      <trkpt lat="47.45768" lon="6.78388">
        <ele>365</ele>
        <time>2015-06-14T10:01:13.000Z</time>
      </trkpt>
      <trkpt lat="47.45771" lon="6.78389">
        <ele>365</ele>
        <time>2015-06-14T10:01:14.000Z</time>
      </trkpt>
      <trkpt lat="47.45774" lon="6.7839">
        <ele>366</ele>
        <time>2015-06-14T10:01:15.000Z</time>
      </trkpt>
      <trkpt lat="47.45778" lon="6.78392">
        <ele>366</ele>
        <time>2015-06-14T10:01:16.000Z</time>
      </trkpt>
      <trkpt lat="47.45781" lon="6.78393">
        <ele>366</ele>
        <time>2015-06-14T10:01:17.000Z</time>
      </trkpt>
      <trkpt lat="47.45784" lon="6.78396">
        <ele>366</ele>
        <time>2015-06-14T10:01:18.000Z</time>
      </trkpt>
      <trkpt lat="47.45787" lon="6.78398">
        <ele>366</ele>
        <time>2015-06-14T10:01:19.000Z</time>
      </trkpt>
      <trkpt lat="47.4579" lon="6.784">
        <ele>367</ele>
        <time>2015-06-14T10:01:20.000Z</time>
      </trkpt>
      <trkpt lat="47.45793" lon="6.78404">
        <ele>367</ele>
        <time>2015-06-14T10:01:21.000Z</time>
      </trkpt>
      <trkpt lat="47.45796" lon="6.78407">
        <ele>367</ele>
        <time>2015-06-14T10:01:22.000Z</time>
      </trkpt>
      <trkpt lat="47.45799" lon="6.7841">
        <ele>367</ele>
        <time>2015-06-14T10:01:23.000Z</time>
      </trkpt>
      <trkpt lat="47.45801" lon="6.78413">
        <ele>367</ele>
        <time>2015-06-14T10:01:24.000Z</time>
      </trkpt>
      <trkpt lat="47.45803" lon="6.78416">
        <ele>368</ele>
        <time>2015-06-14T10:01:25.000Z</time>
      </trkpt>
      <trkpt lat="47.45806" lon="6.78418">
        <ele>366</ele>
        <time>2015-06-14T10:01:26.000Z</time>
      </trkpt>
      <trkpt lat="47.45809" lon="6.78423">
        <ele>367</ele>
        <time>2015-06-14T10:01:27.000Z</time>
      </trkpt>
      <trkpt lat="47.45812" lon="6.78426">
        <ele>367</ele>
        <time>2015-06-14T10:01:28.000Z</time>
      </trkpt>
      <trkpt lat="47.45815" lon="6.78429">
        <ele>367</ele>
        <time>2015-06-14T10:01:29.000Z</time>
      </trkpt>
      <trkpt lat="47.45818" lon="6.78432">
        <ele>367</ele>
        <time>2015-06-14T10:01:30.000Z</time>
      </trkpt>
      <trkpt lat="47.45821" lon="6.78435">
        <ele>367</ele>
        <time>2015-06-14T10:01:30.999Z</time>
      </trkpt>
      <trkpt lat="47.45823" lon="6.78439">
        <ele>367</ele>
        <time>2015-06-14T10:01:32.000Z</time>
      </trkpt>
      <trkpt lat="47.45826" lon="6.78442">
        <ele>367</ele>
        <time>2015-06-14T10:01:33.001Z</time>
      </trkpt>
      <trkpt lat="47.45828" lon="6.78446">
        <ele>367</ele>
        <time>2015-06-14T10:01:34.000Z</time>
      </trkpt>
      <trkpt lat="47.45831" lon="6.78449">
        <ele>367</ele>
        <time>2015-06-14T10:01:35.000Z</time>
      </trkpt>
      <trkpt lat="47.45833" lon="6.78451">
        <ele>374</ele>
        <time>2015-06-14T10:01:36.000Z</time>
      </trkpt>
      <trkpt lat="47.45836" lon="6.78454">
        <ele>374</ele>
        <time>2015-06-14T10:01:37.000Z</time>
      </trkpt>
      <trkpt lat="47.45838" lon="6.78457">
        <ele>374</ele>
        <time>2015-06-14T10:01:38.000Z</time>
      </trkpt>
      <trkpt lat="47.45841" lon="6.78459">
        <ele>374</ele>
        <time>2015-06-14T10:01:39.000Z</time>
      </trkpt>
      <trkpt lat="47.45844" lon="6.78462">
        <ele>374</ele>
        <time>2015-06-14T10:01:40.000Z</time>
      </trkpt>
      <trkpt lat="47.45847" lon="6.78464">
        <ele>375</ele>
        <time>2015-06-14T10:01:41.001Z</time>
      </trkpt>
      <trkpt lat="47.4585" lon="6.78467">
        <ele>375</ele>
        <time>2015-06-14T10:01:42.000Z</time>
      </trkpt>
      <trkpt lat="47.45852" lon="6.7847">
        <ele>375</ele>
        <time>2015-06-14T10:01:43.000Z</time>
      </trkpt>
      <trkpt lat="47.45855" lon="6.78472">
        <ele>375</ele>
        <time>2015-06-14T10:01:44.000Z</time>
      </trkpt>
      <trkpt lat="47.45857" lon="6.78474">
        <ele>375</ele>
        <time>2015-06-14T10:01:45.000Z</time>
      </trkpt>
      <trkpt lat="47.45859" lon="6.78477">
        <ele>375</ele>
        <time>2015-06-14T10:01:46.000Z</time>
      </trkpt>
      <trkpt lat="47.45862" lon="6.78484">
        <ele>375</ele>
        <time>2015-06-14T10:01:47.000Z</time>
      </trkpt>
      <trkpt lat="47.45865" lon="6.78485">
        <ele>375</ele>
        <time>2015-06-14T10:01:49.000Z</time>
      </trkpt>
      <trkpt lat="47.45868" lon="6.78488">
        <ele>376</ele>
        <time>2015-06-14T10:01:50.000Z</time>
      </trkpt>
      <trkpt lat="47.45869" lon="6.78493">
        <ele>376</ele>
        <time>2015-06-14T10:01:51.000Z</time>
      </trkpt>
      <trkpt lat="47.45872" lon="6.78495">
        <ele>376</ele>
        <time>2015-06-14T10:01:52.000Z</time>
      </trkpt>
      <trkpt lat="47.45874" lon="6.78497">
        <ele>376</ele>
        <time>2015-06-14T10:01:53.000Z</time>
      </trkpt>
      <trkpt lat="47.45876" lon="6.78499">
        <ele>376</ele>
        <time>2015-06-14T10:01:54.000Z</time>
      </trkpt>
      <trkpt lat="47.45879" lon="6.78502">
        <ele>375</ele>
        <time>2015-06-14T10:01:55.000Z</time>
      </trkpt>
      <trkpt lat="47.45881" lon="6.78503">
        <ele>375</ele>
        <time>2015-06-14T10:01:56.000Z</time>
      </trkpt>
      <trkpt lat="47.45883" lon="6.78506">
        <ele>376</ele>
        <time>2015-06-14T10:01:57.000Z</time>
      </trkpt>
      <trkpt lat="47.45887" lon="6.78509">
        <ele>376</ele>
        <time>2015-06-14T10:01:58.000Z</time>
      </trkpt>
      <trkpt lat="47.4589" lon="6.78512">
        <ele>376</ele>
        <time>2015-06-14T10:01:59.000Z</time>
      </trkpt>
      <trkpt lat="47.45892" lon="6.78514">
        <ele>376</ele>
        <time>2015-06-14T10:02:00.000Z</time>
      </trkpt>
      <trkpt lat="47.45894" lon="6.78517">
        <ele>377</ele>
        <time>2015-06-14T10:02:01.000Z</time>
      </trkpt>
      <trkpt lat="47.45895" lon="6.78519">
        <ele>377</ele>
        <time>2015-06-14T10:02:02.000Z</time>
      </trkpt>
      <trkpt lat="47.45899" lon="6.78523">
        <ele>377</ele>
        <time>2015-06-14T10:02:04.000Z</time>
      </trkpt>
      <trkpt lat="47.45901" lon="6.78526">
        <ele>377</ele>
        <time>2015-06-14T10:02:05.000Z</time>
      </trkpt>
      <trkpt lat="47.45902" lon="6.78528">
        <ele>377</ele>
        <time>2015-06-14T10:02:06.000Z</time>
      </trkpt>
      <trkpt lat="47.45904" lon="6.7853">
        <ele>377</ele>
        <time>2015-06-14T10:02:07.000Z</time>
      </trkpt>
      <trkpt lat="47.45906" lon="6.78532">
        <ele>377</ele>
        <time>2015-06-14T10:02:08.000Z</time>
      </trkpt>
      <trkpt lat="47.45908" lon="6.78534">
        <ele>377</ele>
        <time>2015-06-14T10:02:09.000Z</time>
      </trkpt>
      <trkpt lat="47.45911" lon="6.78536">
        <ele>377</ele>
        <time>2015-06-14T10:02:10.000Z</time>
      </trkpt>
      <trkpt lat="47.45914" lon="6.78538">
        <ele>377</ele>
        <time>2015-06-14T10:02:11.000Z</time>
      </trkpt>
      <trkpt lat="47.45917" lon="6.78539">
        <ele>386</ele>
        <time>2015-06-14T10:02:12.000Z</time>
      </trkpt>
      <trkpt lat="47.4592" lon="6.7854">
        <ele>386</ele>
        <time>2015-06-14T10:02:13.000Z</time>
      </trkpt>
      <trkpt lat="47.45923" lon="6.78541">
        <ele>386</ele>
        <time>2015-06-14T10:02:14.000Z</time>
      </trkpt>
      <trkpt lat="47.45926" lon="6.7854">
        <ele>386</ele>
        <time>2015-06-14T10:02:15.000Z</time>
      </trkpt>
      <trkpt lat="47.4593" lon="6.7854">
        <ele>387</ele>
        <time>2015-06-14T10:02:16.000Z</time>
      </trkpt>
      <trkpt lat="47.45933" lon="6.78538">
        <ele>387</ele>
        <time>2015-06-14T10:02:17.000Z</time>
      </trkpt>
      <trkpt lat="47.45936" lon="6.78537">
        <ele>387</ele>
        <time>2015-06-14T10:02:18.000Z</time>
      </trkpt>
      <trkpt lat="47.45939" lon="6.78535">
        <ele>387</ele>
        <time>2015-06-14T10:02:19.000Z</time>
      </trkpt>
      <trkpt lat="47.45941" lon="6.78532">
        <ele>388</ele>
        <time>2015-06-14T10:02:20.000Z</time>
      </trkpt>
      <trkpt lat="47.45942" lon="6.78528">
        <ele>388</ele>
        <time>2015-06-14T10:02:21.000Z</time>
      </trkpt>
      <trkpt lat="47.45943" lon="6.78523">
        <ele>388</ele>
        <time>2015-06-14T10:02:22.000Z</time>
      </trkpt>
      <trkpt lat="47.45943" lon="6.78517">
        <ele>388</ele>
        <time>2015-06-14T10:02:23.000Z</time>
      </trkpt>
      <trkpt lat="47.45944" lon="6.78511">
        <ele>388</ele>
        <time>2015-06-14T10:02:24.000Z</time>
      </trkpt>
      <trkpt lat="47.45942" lon="6.785">
        <ele>389</ele>
        <time>2015-06-14T10:02:25.000Z</time>
      </trkpt>
      <trkpt lat="47.45942" lon="6.78497">
        <ele>389</ele>
        <time>2015-06-14T10:02:26.000Z</time>
      </trkpt>
      <trkpt lat="47.45942" lon="6.78493">
        <ele>389</ele>
        <time>2015-06-14T10:02:27.000Z</time>
      </trkpt>
      <trkpt lat="47.45942" lon="6.78489">
        <ele>390</ele>
        <time>2015-06-14T10:02:28.000Z</time>
      </trkpt>
      <trkpt lat="47.45942" lon="6.78486">
        <ele>390</ele>
        <time>2015-06-14T10:02:29.000Z</time>
      </trkpt>
      <trkpt lat="47.45941" lon="6.78481">
        <ele>390</ele>
        <time>2015-06-14T10:02:30.000Z</time>
      </trkpt>
      <trkpt lat="47.45942" lon="6.78477">
        <ele>390</ele>
        <time>2015-06-14T10:02:31.000Z</time>
      </trkpt>
      <trkpt lat="47.45943" lon="6.78471">
        <ele>391</ele>
        <time>2015-06-14T10:02:32.000Z</time>
      </trkpt>
      <trkpt lat="47.45942" lon="6.78469">
        <ele>391</ele>
        <time>2015-06-14T10:02:33.000Z</time>
      </trkpt>
      <trkpt lat="47.45941" lon="6.78465">
        <ele>391</ele>
        <time>2015-06-14T10:02:34.000Z</time>
      </trkpt>
      <trkpt lat="47.4594" lon="6.78462">
        <ele>391</ele>
        <time>2015-06-14T10:02:35.000Z</time>
      </trkpt>
      <trkpt lat="47.45942" lon="6.78456">
        <ele>391</ele>
        <time>2015-06-14T10:02:39.000Z</time>
      </trkpt>
      <trkpt lat="47.45944" lon="6.78454">
        <ele>391</ele>
        <time>2015-06-14T10:02:40.000Z</time>
      </trkpt>
      <trkpt lat="47.45947" lon="6.78451">
        <ele>392</ele>
        <time>2015-06-14T10:02:41.000Z</time>
      </trkpt>
      <trkpt lat="47.4595" lon="6.78449">
        <ele>392</ele>
        <time>2015-06-14T10:02:42.000Z</time>
      </trkpt>
      <trkpt lat="47.45953" lon="6.78446">
        <ele>392</ele>
        <time>2015-06-14T10:02:43.000Z</time>
      </trkpt>
      <trkpt lat="47.45956" lon="6.78443">
        <ele>393</ele>
        <time>2015-06-14T10:02:44.000Z</time>
      </trkpt>
      <trkpt lat="47.45959" lon="6.7844">
        <ele>393</ele>
        <time>2015-06-14T10:02:45.000Z</time>
      </trkpt>
      <trkpt lat="47.45961" lon="6.78438">
        <ele>393</ele>
        <time>2015-06-14T10:02:46.000Z</time>
      </trkpt>
      <trkpt lat="47.45964" lon="6.78437">
        <ele>394</ele>
        <time>2015-06-14T10:02:47.000Z</time>
      </trkpt>
      <trkpt lat="47.45966" lon="6.78437">
        <ele>394</ele>
        <time>2015-06-14T10:02:48.000Z</time>
      </trkpt>
      <trkpt lat="47.4597" lon="6.78438">
        <ele>395</ele>
        <time>2015-06-14T10:02:50.000Z</time>
      </trkpt>
      <trkpt lat="47.45972" lon="6.78437">
        <ele>395</ele>
        <time>2015-06-14T10:02:51.000Z</time>
      </trkpt>
      <trkpt lat="47.45976" lon="6.78435">
        <ele>395</ele>
        <time>2015-06-14T10:02:53.000Z</time>
      </trkpt>
      <trkpt lat="47.45978" lon="6.78434">
        <ele>396</ele>
        <time>2015-06-14T10:02:54.000Z</time>
      </trkpt>
      <trkpt lat="47.4598" lon="6.78432">
        <ele>396</ele>
        <time>2015-06-14T10:02:55.000Z</time>
      </trkpt>
      <trkpt lat="47.45982" lon="6.78431">
        <ele>396</ele>
        <time>2015-06-14T10:02:56.000Z</time>
      </trkpt>
      <trkpt lat="47.45985" lon="6.7843">
        <ele>397</ele>
        <time>2015-06-14T10:02:57.000Z</time>
      </trkpt>
      <trkpt lat="47.45987" lon="6.78429">
        <ele>397</ele>
        <time>2015-06-14T10:02:58.000Z</time>
      </trkpt>
      <trkpt lat="47.45989" lon="6.78428">
        <ele>398</ele>
        <time>2015-06-14T10:02:59.000Z</time>
      </trkpt>
      <trkpt lat="47.45992" lon="6.78426">
        <ele>398</ele>
        <time>2015-06-14T10:03:00.000Z</time>
      </trkpt>
      <trkpt lat="47.45994" lon="6.78424">
        <ele>399</ele>
        <time>2015-06-14T10:03:01.000Z</time>
      </trkpt>
      <trkpt lat="47.45996" lon="6.78423">
        <ele>400</ele>
        <time>2015-06-14T10:03:02.000Z</time>
      </trkpt>
      <trkpt lat="47.45998" lon="6.78421">
        <ele>400</ele>
        <time>2015-06-14T10:03:03.000Z</time>
      </trkpt>
      <trkpt lat="47.46001" lon="6.7842">
        <ele>402</ele>
        <time>2015-06-14T10:03:04.000Z</time>
      </trkpt>
      <trkpt lat="47.46003" lon="6.78419">
        <ele>403</ele>
        <time>2015-06-14T10:03:05.000Z</time>
      </trkpt>
      <trkpt lat="47.46006" lon="6.78417">
        <ele>403</ele>
        <time>2015-06-14T10:03:06.000Z</time>
      </trkpt>
      <trkpt lat="47.46008" lon="6.78415">
        <ele>403</ele>
        <time>2015-06-14T10:03:07.000Z</time>
      </trkpt>
      <trkpt lat="47.46011" lon="6.78413">
        <ele>403</ele>
        <time>2015-06-14T10:03:08.000Z</time>
      </trkpt>
      <trkpt lat="47.46013" lon="6.78411">
        <ele>404</ele>
        <time>2015-06-14T10:03:09.000Z</time>
      </trkpt>
      <trkpt lat="47.46015" lon="6.78409">
        <ele>404</ele>
        <time>2015-06-14T10:03:10.000Z</time>
      </trkpt>
      <trkpt lat="47.46017" lon="6.78408">
        <ele>404</ele>
        <time>2015-06-14T10:03:11.000Z</time>
      </trkpt>
      <trkpt lat="47.4602" lon="6.78405">
        <ele>404</ele>
        <time>2015-06-14T10:03:12.000Z</time>
      </trkpt>
      <trkpt lat="47.46022" lon="6.78404">
        <ele>404</ele>
        <time>2015-06-14T10:03:13.000Z</time>
      </trkpt>
      <trkpt lat="47.46025" lon="6.78402">
        <ele>405</ele>
        <time>2015-06-14T10:03:14.000Z</time>
      </trkpt>
      <trkpt lat="47.46028" lon="6.784">
        <ele>405</ele>
        <time>2015-06-14T10:03:15.000Z</time>
      </trkpt>
      <trkpt lat="47.4603" lon="6.78398">
        <ele>405</ele>
        <time>2015-06-14T10:03:16.000Z</time>
      </trkpt>
      <trkpt lat="47.46033" lon="6.78397">
        <ele>405</ele>
        <time>2015-06-14T10:03:17.000Z</time>
      </trkpt>
      <trkpt lat="47.46036" lon="6.78396">
        <ele>405</ele>
        <time>2015-06-14T10:03:18.000Z</time>
      </trkpt>
      <trkpt lat="47.46038" lon="6.78394">
        <ele>406</ele>
        <time>2015-06-14T10:03:19.000Z</time>
      </trkpt>
      <trkpt lat="47.46041" lon="6.78393">
        <ele>406</ele>
        <time>2015-06-14T10:03:20.000Z</time>
      </trkpt>
      <trkpt lat="47.46043" lon="6.78391">
        <ele>406</ele>
        <time>2015-06-14T10:03:21.000Z</time>
      </trkpt>
      <trkpt lat="47.46045" lon="6.7839">
        <ele>406</ele>
        <time>2015-06-14T10:03:22.000Z</time>
      </trkpt>
      <trkpt lat="47.46047" lon="6.78388">
        <ele>406</ele>
        <time>2015-06-14T10:03:23.000Z</time>
      </trkpt>
      <trkpt lat="47.46049" lon="6.78386">
        <ele>406</ele>
        <time>2015-06-14T10:03:24.000Z</time>
      </trkpt>
      <trkpt lat="47.46051" lon="6.78384">
        <ele>406</ele>
        <time>2015-06-14T10:03:25.000Z</time>
      </trkpt>
      <trkpt lat="47.46053" lon="6.78383">
        <ele>406</ele>
        <time>2015-06-14T10:03:26.000Z</time>
      </trkpt>
      <trkpt lat="47.46055" lon="6.78381">
        <ele>406</ele>
        <time>2015-06-14T10:03:27.000Z</time>
      </trkpt>
      <trkpt lat="47.46058" lon="6.7838">
        <ele>406</ele>
        <time>2015-06-14T10:03:28.000Z</time>
      </trkpt>
      <trkpt lat="47.4606" lon="6.78377">
        <ele>406</ele>
        <time>2015-06-14T10:03:29.000Z</time>
      </trkpt>
      <trkpt lat="47.46063" lon="6.78374">
        <ele>406</ele>
        <time>2015-06-14T10:03:30.000Z</time>
      </trkpt>
      <trkpt lat="47.46066" lon="6.78371">
        <ele>407</ele>
        <time>2015-06-14T10:03:31.000Z</time>
      </trkpt>
      <trkpt lat="47.46069" lon="6.78368">
        <ele>407</ele>
        <time>2015-06-14T10:03:32.000Z</time>
      </trkpt>
      <trkpt lat="47.46072" lon="6.78366">
        <ele>407</ele>
        <time>2015-06-14T10:03:33.000Z</time>
      </trkpt>
      <trkpt lat="47.46074" lon="6.78364">
        <ele>407</ele>
        <time>2015-06-14T10:03:34.000Z</time>
      </trkpt>
      <trkpt lat="47.46078" lon="6.78362">
        <ele>407</ele>
        <time>2015-06-14T10:03:36.000Z</time>
      </trkpt>
      <trkpt lat="47.4608" lon="6.78361">
        <ele>407</ele>
        <time>2015-06-14T10:03:37.000Z</time>
      </trkpt>
      <trkpt lat="47.46083" lon="6.7836">
        <ele>407</ele>
        <time>2015-06-14T10:03:40.000Z</time>
      </trkpt>
      <trkpt lat="47.46084" lon="6.7836">
        <ele>409</ele>
        <time>2015-06-14T10:03:41.000Z</time>
      </trkpt>
      <trkpt lat="47.46088" lon="6.78359">
        <ele>409</ele>
        <time>2015-06-14T10:03:44.000Z</time>
      </trkpt>
      <trkpt lat="47.4609" lon="6.78359">
        <ele>409</ele>
        <time>2015-06-14T10:03:45.000Z</time>
      </trkpt>
      <trkpt lat="47.46093" lon="6.78357">
        <ele>409</ele>
        <time>2015-06-14T10:03:48.000Z</time>
      </trkpt>
      <trkpt lat="47.46094" lon="6.78356">
        <ele>409</ele>
        <time>2015-06-14T10:03:49.000Z</time>
      </trkpt>
      <trkpt lat="47.46096" lon="6.78352">
        <ele>409</ele>
        <time>2015-06-14T10:03:51.000Z</time>
      </trkpt>
      <trkpt lat="47.46095" lon="6.78349">
        <ele>409</ele>
        <time>2015-06-14T10:03:52.000Z</time>
      </trkpt>
      <trkpt lat="47.46094" lon="6.78344">
        <ele>409</ele>
        <time>2015-06-14T10:03:54.000Z</time>
      </trkpt>
      <trkpt lat="47.46092" lon="6.78342">
        <ele>409</ele>
        <time>2015-06-14T10:03:55.000Z</time>
      </trkpt>
      <trkpt lat="47.46089" lon="6.78341">
        <ele>409</ele>
        <time>2015-06-14T10:03:56.000Z</time>
      </trkpt>
      <trkpt lat="47.46086" lon="6.7834">
        <ele>408</ele>
        <time>2015-06-14T10:03:57.000Z</time>
      </trkpt>
      <trkpt lat="47.46083" lon="6.7834">
        <ele>407</ele>
        <time>2015-06-14T10:03:58.000Z</time>
      </trkpt>
      <trkpt lat="47.46079" lon="6.7834">
        <ele>407</ele>
        <time>2015-06-14T10:03:59.000Z</time>
      </trkpt>
      <trkpt lat="47.46076" lon="6.78341">
        <ele>407</ele>
        <time>2015-06-14T10:04:00.000Z</time>
      </trkpt>
      <trkpt lat="47.46074" lon="6.78341">
        <ele>407</ele>
        <time>2015-06-14T10:04:01.000Z</time>
      </trkpt>
      <trkpt lat="47.4607" lon="6.78341">
        <ele>407</ele>
        <time>2015-06-14T10:04:03.000Z</time>
      </trkpt>
      <trkpt lat="47.46068" lon="6.78341">
        <ele>407</ele>
        <time>2015-06-14T10:04:04.000Z</time>
      </trkpt>
      <trkpt lat="47.46064" lon="6.78341">
        <ele>406</ele>
        <time>2015-06-14T10:04:06.000Z</time>
      </trkpt>
      <trkpt lat="47.46062" lon="6.78341">
        <ele>406</ele>
        <time>2015-06-14T10:04:07.000Z</time>
      </trkpt>
      <trkpt lat="47.46058" lon="6.78342">
        <ele>406</ele>
        <time>2015-06-14T10:04:11.000Z</time>
      </trkpt>
      <trkpt lat="47.46058" lon="6.78343">
        <ele>406</ele>
        <time>2015-06-14T10:04:12.000Z</time>
      </trkpt>
      <trkpt lat="47.4606" lon="6.78348">
        <ele>406</ele>
        <time>2015-06-14T10:04:20.000Z</time>
      </trkpt>
      <trkpt lat="47.46062" lon="6.78347">
        <ele>406</ele>
        <time>2015-06-14T10:04:21.000Z</time>
      </trkpt>
      <trkpt lat="47.46066" lon="6.78346">
        <ele>407</ele>
        <time>2015-06-14T10:04:23.000Z</time>
      </trkpt>
      <trkpt lat="47.46067" lon="6.78346">
        <ele>407</ele>
        <time>2015-06-14T10:04:24.000Z</time>
      </trkpt>
      <trkpt lat="47.46071" lon="6.78345">
        <ele>407</ele>
        <time>2015-06-14T10:04:27.000Z</time>
      </trkpt>
      <trkpt lat="47.46073" lon="6.78344">
        <ele>407</ele>
        <time>2015-06-14T10:04:28.000Z</time>
      </trkpt>
      <trkpt lat="47.46075" lon="6.78342">
        <ele>407</ele>
        <time>2015-06-14T10:04:29.000Z</time>
      </trkpt>
      <trkpt lat="47.46078" lon="6.7834">
        <ele>407</ele>
        <time>2015-06-14T10:04:30.000Z</time>
      </trkpt>
      <trkpt lat="47.4608" lon="6.7834">
        <ele>407</ele>
        <time>2015-06-14T10:04:31.000Z</time>
      </trkpt>
      <trkpt lat="47.46082" lon="6.7834">
        <ele>407</ele>
        <time>2015-06-14T10:04:32.000Z</time>
      </trkpt>
      <trkpt lat="47.46086" lon="6.78341">
        <ele>408</ele>
        <time>2015-06-14T10:04:34.000Z</time>
      </trkpt>
      <trkpt lat="47.46088" lon="6.78341">
        <ele>409</ele>
        <time>2015-06-14T10:04:35.000Z</time>
      </trkpt>
      <trkpt lat="47.46092" lon="6.78341">
        <ele>409</ele>
        <time>2015-06-14T10:04:37.000Z</time>
      </trkpt>
      <trkpt lat="47.46095" lon="6.78342">
        <ele>409</ele>
        <time>2015-06-14T10:04:38.000Z</time>
      </trkpt>
      <trkpt lat="47.46098" lon="6.78343">
        <ele>409</ele>
        <time>2015-06-14T10:04:39.000Z</time>
      </trkpt>
      <trkpt lat="47.461" lon="6.78344">
        <ele>409</ele>
        <time>2015-06-14T10:04:40.000Z</time>
      </trkpt>
      <trkpt lat="47.46103" lon="6.78345">
        <ele>409</ele>
        <time>2015-06-14T10:04:41.000Z</time>
      </trkpt>
      <trkpt lat="47.46105" lon="6.78346">
        <ele>409</ele>
        <time>2015-06-14T10:04:42.000Z</time>
      </trkpt>
      <trkpt lat="47.46108" lon="6.78347">
        <ele>409</ele>
        <time>2015-06-14T10:04:43.000Z</time>
      </trkpt>
      <trkpt lat="47.46111" lon="6.78346">
        <ele>409</ele>
        <time>2015-06-14T10:04:44.000Z</time>
      </trkpt>
      <trkpt lat="47.46114" lon="6.78345">
        <ele>409</ele>
        <time>2015-06-14T10:04:45.000Z</time>
      </trkpt>
      <trkpt lat="47.46117" lon="6.78344">
        <ele>409</ele>
        <time>2015-06-14T10:04:46.000Z</time>
      </trkpt>
      <trkpt lat="47.46128" lon="6.78336">
        <ele>409</ele>
        <time>2015-06-14T10:04:47.000Z</time>
      </trkpt>
      <trkpt lat="47.46133" lon="6.78333">
        <ele>409</ele>
        <time>2015-06-14T10:04:48.000Z</time>
      </trkpt>
      <trkpt lat="47.46137" lon="6.78332">
        <ele>409</ele>
        <time>2015-06-14T10:04:49.000Z</time>
      </trkpt>
      <trkpt lat="47.4614" lon="6.78334">
        <ele>409</ele>
        <time>2015-06-14T10:04:50.000Z</time>
      </trkpt>
      <trkpt lat="47.46144" lon="6.78334">
        <ele>409</ele>
        <time>2015-06-14T10:04:51.000Z</time>
      </trkpt>
      <trkpt lat="47.4615" lon="6.78336">
        <ele>409</ele>
        <time>2015-06-14T10:04:52.000Z</time>
      </trkpt>
      <trkpt lat="47.46158" lon="6.78331">
        <ele>409</ele>
        <time>2015-06-14T10:04:53.000Z</time>
      </trkpt>
      <trkpt lat="47.46168" lon="6.78334">
        <ele>408</ele>
        <time>2015-06-14T10:04:54.000Z</time>
      </trkpt>
      <trkpt lat="47.46176" lon="6.78337">
        <ele>408</ele>
        <time>2015-06-14T10:04:55.000Z</time>
      </trkpt>
      <trkpt lat="47.46184" lon="6.78338">
        <ele>407</ele>
        <time>2015-06-14T10:04:56.000Z</time>
      </trkpt>
      <trkpt lat="47.46191" lon="6.78334">
        <ele>407</ele>
        <time>2015-06-14T10:04:57.000Z</time>
      </trkpt>
      <trkpt lat="47.46198" lon="6.78332">
        <ele>406</ele>
        <time>2015-06-14T10:04:58.000Z</time>
      </trkpt>
      <trkpt lat="47.46205" lon="6.78333">
        <ele>406</ele>
        <time>2015-06-14T10:04:59.000Z</time>
      </trkpt>
      <trkpt lat="47.46213" lon="6.78334">
        <ele>406</ele>
        <time>2015-06-14T10:05:00.000Z</time>
      </trkpt>
      <trkpt lat="47.46223" lon="6.78331">
        <ele>404</ele>
        <time>2015-06-14T10:05:01.000Z</time>
      </trkpt>
      <trkpt lat="47.46232" lon="6.78329">
        <ele>404</ele>
        <time>2015-06-14T10:05:02.000Z</time>
      </trkpt>
      <trkpt lat="47.46241" lon="6.78327">
        <ele>403</ele>
        <time>2015-06-14T10:05:03.000Z</time>
      </trkpt>
      <trkpt lat="47.4625" lon="6.78324">
        <ele>403</ele>
        <time>2015-06-14T10:05:04.000Z</time>
      </trkpt>
      <trkpt lat="47.46258" lon="6.78323">
        <ele>400</ele>
        <time>2015-06-14T10:05:05.000Z</time>
      </trkpt>
      <trkpt lat="47.46269" lon="6.78319">
        <ele>398</ele>
        <time>2015-06-14T10:05:06.000Z</time>
      </trkpt>
      <trkpt lat="47.46279" lon="6.78315">
        <ele>397</ele>
        <time>2015-06-14T10:05:07.000Z</time>
      </trkpt>
      <trkpt lat="47.46288" lon="6.78315">
        <ele>397</ele>
        <time>2015-06-14T10:05:08.000Z</time>
      </trkpt>
      <trkpt lat="47.46298" lon="6.78313">
        <ele>396</ele>
        <time>2015-06-14T10:05:09.000Z</time>
      </trkpt>
      <trkpt lat="47.46307" lon="6.7831">
        <ele>395</ele>
        <time>2015-06-14T10:05:10.000Z</time>
      </trkpt>
      <trkpt lat="47.46316" lon="6.78308">
        <ele>395</ele>
        <time>2015-06-14T10:05:11.000Z</time>
      </trkpt>
      <trkpt lat="47.46326" lon="6.78306">
        <ele>394</ele>
        <time>2015-06-14T10:05:12.000Z</time>
      </trkpt>
      <trkpt lat="47.46335" lon="6.78305">
        <ele>389</ele>
        <time>2015-06-14T10:05:13.000Z</time>
      </trkpt>
      <trkpt lat="47.46343" lon="6.78302">
        <ele>389</ele>
        <time>2015-06-14T10:05:14.000Z</time>
      </trkpt>
      <trkpt lat="47.46353" lon="6.78299">
        <ele>388</ele>
        <time>2015-06-14T10:05:15.000Z</time>
      </trkpt>
      <trkpt lat="47.46361" lon="6.78299">
        <ele>388</ele>
        <time>2015-06-14T10:05:16.000Z</time>
      </trkpt>
      <trkpt lat="47.4637" lon="6.78298">
        <ele>388</ele>
        <time>2015-06-14T10:05:17.000Z</time>
      </trkpt>
      <trkpt lat="47.46378" lon="6.78298">
        <ele>387</ele>
        <time>2015-06-14T10:05:18.000Z</time>
      </trkpt>
      <trkpt lat="47.46387" lon="6.78294">
        <ele>387</ele>
        <time>2015-06-14T10:05:19.000Z</time>
      </trkpt>
      <trkpt lat="47.46397" lon="6.78291">
        <ele>386</ele>
        <time>2015-06-14T10:05:20.000Z</time>
      </trkpt>
      <trkpt lat="47.46405" lon="6.78291">
        <ele>386</ele>
        <time>2015-06-14T10:05:21.000Z</time>
      </trkpt>
      <trkpt lat="47.46413" lon="6.78292">
        <ele>386</ele>
        <time>2015-06-14T10:05:22.000Z</time>
      </trkpt>
      <trkpt lat="47.46422" lon="6.7829">
        <ele>383</ele>
        <time>2015-06-14T10:05:23.000Z</time>
      </trkpt>
      <trkpt lat="47.4643" lon="6.78291">
        <ele>383</ele>
        <time>2015-06-14T10:05:24.000Z</time>
      </trkpt>
      <trkpt lat="47.46438" lon="6.78292">
        <ele>383</ele>
        <time>2015-06-14T10:05:25.000Z</time>
      </trkpt>
      <trkpt lat="47.46446" lon="6.78292">
        <ele>383</ele>
        <time>2015-06-14T10:05:26.000Z</time>
      </trkpt>
      <trkpt lat="47.46455" lon="6.78294">
        <ele>383</ele>
        <time>2015-06-14T10:05:27.000Z</time>
      </trkpt>
      <trkpt lat="47.46463" lon="6.78296">
        <ele>383</ele>
        <time>2015-06-14T10:05:28.000Z</time>
      </trkpt>
      <trkpt lat="47.46474" lon="6.78296">
        <ele>383</ele>
        <time>2015-06-14T10:05:29.000Z</time>
      </trkpt>
      <trkpt lat="47.46482" lon="6.78299">
        <ele>383</ele>
        <time>2015-06-14T10:05:30.000Z</time>
      </trkpt>
      <trkpt lat="47.46491" lon="6.78299">
        <ele>383</ele>
        <time>2015-06-14T10:05:31.000Z</time>
      </trkpt>
      <trkpt lat="47.46501" lon="6.783">
        <ele>380</ele>
        <time>2015-06-14T10:05:32.000Z</time>
      </trkpt>
      <trkpt lat="47.4651" lon="6.78299">
        <ele>380</ele>
        <time>2015-06-14T10:05:33.000Z</time>
      </trkpt>
      <trkpt lat="47.46519" lon="6.783">
        <ele>380</ele>
        <time>2015-06-14T10:05:34.000Z</time>
      </trkpt>
      <trkpt lat="47.46528" lon="6.78299">
        <ele>379</ele>
        <time>2015-06-14T10:05:35.000Z</time>
      </trkpt>
      <trkpt lat="47.46538" lon="6.78299">
        <ele>379</ele>
        <time>2015-06-14T10:05:36.000Z</time>
      </trkpt>
      <trkpt lat="47.46547" lon="6.78298">
        <ele>378</ele>
        <time>2015-06-14T10:05:37.000Z</time>
      </trkpt>
      <trkpt lat="47.46557" lon="6.78298">
        <ele>378</ele>
        <time>2015-06-14T10:05:38.000Z</time>
      </trkpt>
      <trkpt lat="47.46567" lon="6.78298">
        <ele>378</ele>
        <time>2015-06-14T10:05:39.000Z</time>
      </trkpt>
      <trkpt lat="47.46576" lon="6.783">
        <ele>378</ele>
        <time>2015-06-14T10:05:40.000Z</time>
      </trkpt>
      <trkpt lat="47.46586" lon="6.78301">
        <ele>373</ele>
        <time>2015-06-14T10:05:41.000Z</time>
      </trkpt>
      <trkpt lat="47.46596" lon="6.78302">
        <ele>373</ele>
        <time>2015-06-14T10:05:42.000Z</time>
      </trkpt>
      <trkpt lat="47.46606" lon="6.78301">
        <ele>373</ele>
        <time>2015-06-14T10:05:43.000Z</time>
      </trkpt>
      <trkpt lat="47.46616" lon="6.78301">
        <ele>372</ele>
        <time>2015-06-14T10:05:44.000Z</time>
      </trkpt>
      <trkpt lat="47.46627" lon="6.78301">
        <ele>372</ele>
        <time>2015-06-14T10:05:45.000Z</time>
      </trkpt>
      <trkpt lat="47.46637" lon="6.78302">
        <ele>372</ele>
        <time>2015-06-14T10:05:46.000Z</time>
      </trkpt>
      <trkpt lat="47.46648" lon="6.783">
        <ele>371</ele>
        <time>2015-06-14T10:05:47.000Z</time>
      </trkpt>
      <trkpt lat="47.46659" lon="6.78298">
        <ele>371</ele>
        <time>2015-06-14T10:05:48.000Z</time>
      </trkpt>
      <trkpt lat="47.46669" lon="6.78293">
        <ele>369</ele>
        <time>2015-06-14T10:05:49.000Z</time>
      </trkpt>
      <trkpt lat="47.46679" lon="6.78288">
        <ele>369</ele>
        <time>2015-06-14T10:05:50.000Z</time>
      </trkpt>
      <trkpt lat="47.46688" lon="6.78282">
        <ele>368</ele>
        <time>2015-06-14T10:05:51.000Z</time>
      </trkpt>
      <trkpt lat="47.46698" lon="6.78276">
        <ele>368</ele>
        <time>2015-06-14T10:05:52.000Z</time>
      </trkpt>
      <trkpt lat="47.46707" lon="6.78269">
        <ele>368</ele>
        <time>2015-06-14T10:05:53.000Z</time>
      </trkpt>
      <trkpt lat="47.46715" lon="6.78259">
        <ele>368</ele>
        <time>2015-06-14T10:05:54.000Z</time>
      </trkpt>
      <trkpt lat="47.46723" lon="6.78251">
        <ele>368</ele>
        <time>2015-06-14T10:05:55.000Z</time>
      </trkpt>
      <trkpt lat="47.4673" lon="6.78243">
        <ele>364</ele>
        <time>2015-06-14T10:05:56.000Z</time>
      </trkpt>
      <trkpt lat="47.46737" lon="6.78237">
        <ele>364</ele>
        <time>2015-06-14T10:05:57.000Z</time>
      </trkpt>
      <trkpt lat="47.46744" lon="6.7823">
        <ele>364</ele>
        <time>2015-06-14T10:05:58.000Z</time>
      </trkpt>
      <trkpt lat="47.46752" lon="6.7822">
        <ele>366</ele>
        <time>2015-06-14T10:05:59.000Z</time>
      </trkpt>
      <trkpt lat="47.46758" lon="6.78209">
        <ele>365</ele>
        <time>2015-06-14T10:06:00.000Z</time>
      </trkpt>
      <trkpt lat="47.46764" lon="6.78201">
        <ele>365</ele>
        <time>2015-06-14T10:06:01.000Z</time>
      </trkpt>
      <trkpt lat="47.46771" lon="6.78192">
        <ele>365</ele>
        <time>2015-06-14T10:06:02.000Z</time>
      </trkpt>
      <trkpt lat="47.46777" lon="6.78184">
        <ele>364</ele>
        <time>2015-06-14T10:06:03.000Z</time>
      </trkpt>
      <trkpt lat="47.46783" lon="6.78175">
        <ele>364</ele>
        <time>2015-06-14T10:06:03.999Z</time>
      </trkpt>
      <trkpt lat="47.46791" lon="6.78164">
        <ele>360</ele>
        <time>2015-06-14T10:06:05.000Z</time>
      </trkpt>
      <trkpt lat="47.46799" lon="6.78157">
        <ele>360</ele>
        <time>2015-06-14T10:06:06.000Z</time>
      </trkpt>
      <trkpt lat="47.46807" lon="6.78146">
        <ele>359</ele>
        <time>2015-06-14T10:06:07.000Z</time>
      </trkpt>
      <trkpt lat="47.46815" lon="6.78135">
        <ele>359</ele>
        <time>2015-06-14T10:06:08.000Z</time>
      </trkpt>
      <trkpt lat="47.46823" lon="6.78125">
        <ele>358</ele>
        <time>2015-06-14T10:06:09.000Z</time>
      </trkpt>
      <trkpt lat="47.4683" lon="6.78114">
        <ele>357</ele>
        <time>2015-06-14T10:06:10.000Z</time>
      </trkpt>
      <trkpt lat="47.46837" lon="6.78104">
        <ele>354</ele>
        <time>2015-06-14T10:06:11.000Z</time>
      </trkpt>
      <trkpt lat="47.46845" lon="6.78095">
        <ele>353</ele>
        <time>2015-06-14T10:06:12.000Z</time>
      </trkpt>
      <trkpt lat="47.46853" lon="6.78086">
        <ele>353</ele>
        <time>2015-06-14T10:06:13.000Z</time>
      </trkpt>
      <trkpt lat="47.46861" lon="6.78078">
        <ele>348</ele>
        <time>2015-06-14T10:06:14.000Z</time>
      </trkpt>
      <trkpt lat="47.4687" lon="6.78072">
        <ele>348</ele>
        <time>2015-06-14T10:06:15.000Z</time>
      </trkpt>
      <trkpt lat="47.4688" lon="6.78066">
        <ele>347</ele>
        <time>2015-06-14T10:06:16.000Z</time>
      </trkpt>
      <trkpt lat="47.46891" lon="6.78063">
        <ele>347</ele>
        <time>2015-06-14T10:06:17.000Z</time>
      </trkpt>
      <trkpt lat="47.46901" lon="6.7806">
        <ele>347</ele>
        <time>2015-06-14T10:06:18.000Z</time>
      </trkpt>
      <trkpt lat="47.4691" lon="6.78057">
        <ele>346</ele>
        <time>2015-06-14T10:06:19.000Z</time>
      </trkpt>
      <trkpt lat="47.4692" lon="6.78054">
        <ele>344</ele>
        <time>2015-06-14T10:06:20.000Z</time>
      </trkpt>
      <trkpt lat="47.4693" lon="6.78051">
        <ele>343</ele>
        <time>2015-06-14T10:06:21.000Z</time>
      </trkpt>
      <trkpt lat="47.46942" lon="6.78038">
        <ele>342</ele>
        <time>2015-06-14T10:06:22.000Z</time>
      </trkpt>
      <trkpt lat="47.46952" lon="6.78033">
        <ele>342</ele>
        <time>2015-06-14T10:06:23.000Z</time>
      </trkpt>
      <trkpt lat="47.46962" lon="6.78027">
        <ele>341</ele>
        <time>2015-06-14T10:06:24.000Z</time>
      </trkpt>
      <trkpt lat="47.46972" lon="6.78021">
        <ele>341</ele>
        <time>2015-06-14T10:06:25.000Z</time>
      </trkpt>
      <trkpt lat="47.4698" lon="6.78015">
        <ele>340</ele>
        <time>2015-06-14T10:06:26.000Z</time>
      </trkpt>
      <trkpt lat="47.46989" lon="6.78009">
        <ele>340</ele>
        <time>2015-06-14T10:06:27.000Z</time>
      </trkpt>
      <trkpt lat="47.46997" lon="6.78002">
        <ele>339</ele>
        <time>2015-06-14T10:06:28.000Z</time>
      </trkpt>
      <trkpt lat="47.47005" lon="6.77996">
        <ele>339</ele>
        <time>2015-06-14T10:06:29.000Z</time>
      </trkpt>
      <trkpt lat="47.47013" lon="6.77986">
        <ele>340</ele>
        <time>2015-06-14T10:06:30.000Z</time>
      </trkpt>
      <trkpt lat="47.47019" lon="6.77976">
        <ele>340</ele>
        <time>2015-06-14T10:06:31.000Z</time>
      </trkpt>
      <trkpt lat="47.47025" lon="6.77964">
        <ele>341</ele>
        <time>2015-06-14T10:06:32.000Z</time>
      </trkpt>
      <trkpt lat="47.4703" lon="6.77954">
        <ele>341</ele>
        <time>2015-06-14T10:06:33.000Z</time>
      </trkpt>
      <trkpt lat="47.47035" lon="6.77943">
        <ele>341</ele>
        <time>2015-06-14T10:06:34.000Z</time>
      </trkpt>
      <trkpt lat="47.47038" lon="6.77932">
        <ele>341</ele>
        <time>2015-06-14T10:06:35.000Z</time>
      </trkpt>
      <trkpt lat="47.47041" lon="6.77922">
        <ele>341</ele>
        <time>2015-06-14T10:06:36.000Z</time>
      </trkpt>
      <trkpt lat="47.47044" lon="6.77913">
        <ele>339</ele>
        <time>2015-06-14T10:06:37.000Z</time>
      </trkpt>
      <trkpt lat="47.47047" lon="6.77903">
        <ele>339</ele>
        <time>2015-06-14T10:06:38.000Z</time>
      </trkpt>
      <trkpt lat="47.4705" lon="6.77895">
        <ele>339</ele>
        <time>2015-06-14T10:06:39.000Z</time>
      </trkpt>
      <trkpt lat="47.47054" lon="6.77886">
        <ele>339</ele>
        <time>2015-06-14T10:06:40.000Z</time>
      </trkpt>
      <trkpt lat="47.47055" lon="6.77877">
        <ele>339</ele>
        <time>2015-06-14T10:06:41.000Z</time>
      </trkpt>
      <trkpt lat="47.47058" lon="6.77868">
        <ele>339</ele>
        <time>2015-06-14T10:06:42.000Z</time>
      </trkpt>
      <trkpt lat="47.47062" lon="6.7786">
        <ele>339</ele>
        <time>2015-06-14T10:06:43.000Z</time>
      </trkpt>
      <trkpt lat="47.47064" lon="6.77851">
        <ele>339</ele>
        <time>2015-06-14T10:06:44.000Z</time>
      </trkpt>
      <trkpt lat="47.47068" lon="6.77841">
        <ele>340</ele>
        <time>2015-06-14T10:06:45.000Z</time>
      </trkpt>
      <trkpt lat="47.47071" lon="6.77832">
        <ele>339</ele>
        <time>2015-06-14T10:06:46.000Z</time>
      </trkpt>
      <trkpt lat="47.47074" lon="6.77823">
        <ele>338</ele>
        <time>2015-06-14T10:06:47.000Z</time>
      </trkpt>
      <trkpt lat="47.47078" lon="6.77815">
        <ele>338</ele>
        <time>2015-06-14T10:06:48.000Z</time>
      </trkpt>
      <trkpt lat="47.4708" lon="6.77806">
        <ele>337</ele>
        <time>2015-06-14T10:06:49.000Z</time>
      </trkpt>
      <trkpt lat="47.47083" lon="6.77798">
        <ele>337</ele>
        <time>2015-06-14T10:06:50.000Z</time>
      </trkpt>
      <trkpt lat="47.47086" lon="6.77788">
        <ele>339</ele>
        <time>2015-06-14T10:06:51.000Z</time>
      </trkpt>
      <trkpt lat="47.47089" lon="6.77779">
        <ele>339</ele>
        <time>2015-06-14T10:06:52.000Z</time>
      </trkpt>
      <trkpt lat="47.47092" lon="6.77771">
        <ele>338</ele>
        <time>2015-06-14T10:06:53.000Z</time>
      </trkpt>
      <trkpt lat="47.47096" lon="6.77762">
        <ele>337</ele>
        <time>2015-06-14T10:06:54.000Z</time>
      </trkpt>
      <trkpt lat="47.47099" lon="6.77753">
        <ele>337</ele>
        <time>2015-06-14T10:06:55.000Z</time>
      </trkpt>
      <trkpt lat="47.47103" lon="6.77743">
        <ele>335</ele>
        <time>2015-06-14T10:06:56.000Z</time>
      </trkpt>
      <trkpt lat="47.47106" lon="6.77735">
        <ele>335</ele>
        <time>2015-06-14T10:06:57.000Z</time>
      </trkpt>
      <trkpt lat="47.47109" lon="6.77725">
        <ele>336</ele>
        <time>2015-06-14T10:06:58.000Z</time>
      </trkpt>
      <trkpt lat="47.47112" lon="6.77716">
        <ele>336</ele>
        <time>2015-06-14T10:06:59.000Z</time>
      </trkpt>
      <trkpt lat="47.47115" lon="6.77707">
        <ele>336</ele>
        <time>2015-06-14T10:07:00.000Z</time>
      </trkpt>
      <trkpt lat="47.47117" lon="6.77698">
        <ele>336</ele>
        <time>2015-06-14T10:07:01.000Z</time>
      </trkpt>
      <trkpt lat="47.47121" lon="6.77689">
        <ele>336</ele>
        <time>2015-06-14T10:07:02.000Z</time>
      </trkpt>
      <trkpt lat="47.47124" lon="6.77683">
        <ele>336</ele>
        <time>2015-06-14T10:07:03.000Z</time>
      </trkpt>
      <trkpt lat="47.47126" lon="6.77675">
        <ele>336</ele>
        <time>2015-06-14T10:07:04.000Z</time>
      </trkpt>
      <trkpt lat="47.47129" lon="6.77666">
        <ele>335</ele>
        <time>2015-06-14T10:07:05.000Z</time>
      </trkpt>
      <trkpt lat="47.47132" lon="6.77659">
        <ele>335</ele>
        <time>2015-06-14T10:07:06.000Z</time>
      </trkpt>
      <trkpt lat="47.47135" lon="6.77651">
        <ele>335</ele>
        <time>2015-06-14T10:07:07.000Z</time>
      </trkpt>
      <trkpt lat="47.47138" lon="6.77642">
        <ele>335</ele>
        <time>2015-06-14T10:07:08.000Z</time>
      </trkpt>
      <trkpt lat="47.47142" lon="6.77633">
        <ele>335</ele>
        <time>2015-06-14T10:07:09.000Z</time>
      </trkpt>
      <trkpt lat="47.47145" lon="6.77626">
        <ele>335</ele>
        <time>2015-06-14T10:07:10.000Z</time>
      </trkpt>
      <trkpt lat="47.47148" lon="6.77617">
        <ele>334</ele>
        <time>2015-06-14T10:07:11.000Z</time>
      </trkpt>
      <trkpt lat="47.4715" lon="6.7761">
        <ele>334</ele>
        <time>2015-06-14T10:07:12.000Z</time>
      </trkpt>
      <trkpt lat="47.47153" lon="6.77603">
        <ele>334</ele>
        <time>2015-06-14T10:07:13.000Z</time>
      </trkpt>
      <trkpt lat="47.47157" lon="6.77597">
        <ele>334</ele>
        <time>2015-06-14T10:07:14.000Z</time>
      </trkpt>
      <trkpt lat="47.4716" lon="6.77589">
        <ele>334</ele>
        <time>2015-06-14T10:07:15.000Z</time>
      </trkpt>
      <trkpt lat="47.47162" lon="6.77582">
        <ele>334</ele>
        <time>2015-06-14T10:07:16.000Z</time>
      </trkpt>
      <trkpt lat="47.47165" lon="6.77574">
        <ele>334</ele>
        <time>2015-06-14T10:07:17.000Z</time>
      </trkpt>
      <trkpt lat="47.47168" lon="6.7757">
        <ele>333</ele>
        <time>2015-06-14T10:07:18.000Z</time>
      </trkpt>
      <trkpt lat="47.47174" lon="6.77568">
        <ele>333</ele>
        <time>2015-06-14T10:07:19.000Z</time>
      </trkpt>
      <trkpt lat="47.47179" lon="6.77567">
        <ele>332</ele>
        <time>2015-06-14T10:07:20.000Z</time>
      </trkpt>
      <trkpt lat="47.47184" lon="6.77567">
        <ele>332</ele>
        <time>2015-06-14T10:07:21.000Z</time>
      </trkpt>
      <trkpt lat="47.47188" lon="6.77566">
        <ele>332</ele>
        <time>2015-06-14T10:07:22.000Z</time>
      </trkpt>
      <trkpt lat="47.47192" lon="6.77566">
        <ele>332</ele>
        <time>2015-06-14T10:07:23.000Z</time>
      </trkpt>
      <trkpt lat="47.47195" lon="6.77564">
        <ele>332</ele>
        <time>2015-06-14T10:07:25.000Z</time>
      </trkpt>
      <trkpt lat="47.47198" lon="6.77564">
        <ele>332</ele>
        <time>2015-06-14T10:07:26.000Z</time>
      </trkpt>
      <trkpt lat="47.47202" lon="6.77564">
        <ele>332</ele>
        <time>2015-06-14T10:08:03.000Z</time>
      </trkpt>
      <trkpt lat="47.47204" lon="6.77564">
        <ele>332</ele>
        <time>2015-06-14T10:08:04.000Z</time>
      </trkpt>
      <trkpt lat="47.47207" lon="6.77564">
        <ele>331</ele>
        <time>2015-06-14T10:08:06.000Z</time>
      </trkpt>
      <trkpt lat="47.4721" lon="6.77565">
        <ele>331</ele>
        <time>2015-06-14T10:08:07.000Z</time>
      </trkpt>
      <trkpt lat="47.47212" lon="6.77566">
        <ele>331</ele>
        <time>2015-06-14T10:08:08.000Z</time>
      </trkpt>
      <trkpt lat="47.47216" lon="6.77567">
        <ele>331</ele>
        <time>2015-06-14T10:08:09.000Z</time>
      </trkpt>
      <trkpt lat="47.47223" lon="6.77571">
        <ele>331</ele>
        <time>2015-06-14T10:08:10.000Z</time>
      </trkpt>
      <trkpt lat="47.47229" lon="6.77571">
        <ele>331</ele>
        <time>2015-06-14T10:08:11.000Z</time>
      </trkpt>
      <trkpt lat="47.47235" lon="6.77571">
        <ele>331</ele>
        <time>2015-06-14T10:08:12.000Z</time>
      </trkpt>
      <trkpt lat="47.47241" lon="6.77571">
        <ele>331</ele>
        <time>2015-06-14T10:08:13.000Z</time>
      </trkpt>
      <trkpt lat="47.47248" lon="6.77572">
        <ele>330</ele>
        <time>2015-06-14T10:08:14.000Z</time>
      </trkpt>
      <trkpt lat="47.47254" lon="6.77573">
        <ele>329</ele>
        <time>2015-06-14T10:08:15.000Z</time>
      </trkpt>
      <trkpt lat="47.47262" lon="6.77573">
        <ele>328</ele>
        <time>2015-06-14T10:08:16.000Z</time>
      </trkpt>
      <trkpt lat="47.4727" lon="6.77573">
        <ele>328</ele>
        <time>2015-06-14T10:08:17.000Z</time>
      </trkpt>
      <trkpt lat="47.47278" lon="6.77573">
        <ele>327</ele>
        <time>2015-06-14T10:08:18.000Z</time>
      </trkpt>
      <trkpt lat="47.47286" lon="6.77573">
        <ele>327</ele>
        <time>2015-06-14T10:08:19.000Z</time>
      </trkpt>
      <trkpt lat="47.47294" lon="6.77572">
        <ele>327</ele>
        <time>2015-06-14T10:08:20.000Z</time>
      </trkpt>
      <trkpt lat="47.47303" lon="6.77571">
        <ele>326</ele>
        <time>2015-06-14T10:08:21.000Z</time>
      </trkpt>
      <trkpt lat="47.47311" lon="6.77571">
        <ele>326</ele>
        <time>2015-06-14T10:08:22.000Z</time>
      </trkpt>
      <trkpt lat="47.4732" lon="6.7757">
        <ele>326</ele>
        <time>2015-06-14T10:08:23.000Z</time>
      </trkpt>
      <trkpt lat="47.47329" lon="6.77569">
        <ele>326</ele>
        <time>2015-06-14T10:08:24.000Z</time>
      </trkpt>
      <trkpt lat="47.47338" lon="6.77568">
        <ele>324</ele>
        <time>2015-06-14T10:08:25.000Z</time>
      </trkpt>
      <trkpt lat="47.47347" lon="6.77565">
        <ele>323</ele>
        <time>2015-06-14T10:08:26.000Z</time>
      </trkpt>
      <trkpt lat="47.47356" lon="6.77565">
        <ele>323</ele>
        <time>2015-06-14T10:08:27.000Z</time>
      </trkpt>
      <trkpt lat="47.47366" lon="6.77564">
        <ele>323</ele>
        <time>2015-06-14T10:08:28.000Z</time>
      </trkpt>
      <trkpt lat="47.47376" lon="6.77565">
        <ele>322</ele>
        <time>2015-06-14T10:08:29.000Z</time>
      </trkpt>
      <trkpt lat="47.47384" lon="6.77564">
        <ele>322</ele>
        <time>2015-06-14T10:08:30.000Z</time>
      </trkpt>
      <trkpt lat="47.47392" lon="6.77565">
        <ele>322</ele>
        <time>2015-06-14T10:08:31.000Z</time>
      </trkpt>
      <trkpt lat="47.47401" lon="6.77562">
        <ele>322</ele>
        <time>2015-06-14T10:08:32.000Z</time>
      </trkpt>
      <trkpt lat="47.4741" lon="6.77559">
        <ele>321</ele>
        <time>2015-06-14T10:08:33.000Z</time>
      </trkpt>
      <trkpt lat="47.47418" lon="6.77555">
        <ele>320</ele>
        <time>2015-06-14T10:08:34.000Z</time>
      </trkpt>
      <trkpt lat="47.47426" lon="6.77551">
        <ele>319</ele>
        <time>2015-06-14T10:08:35.000Z</time>
      </trkpt>
      <trkpt lat="47.47434" lon="6.77545">
        <ele>319</ele>
        <time>2015-06-14T10:08:36.000Z</time>
      </trkpt>
      <trkpt lat="47.47441" lon="6.77543">
        <ele>319</ele>
        <time>2015-06-14T10:08:37.000Z</time>
      </trkpt>
      <trkpt lat="47.47449" lon="6.7754">
        <ele>319</ele>
        <time>2015-06-14T10:08:38.000Z</time>
      </trkpt>
      <trkpt lat="47.47457" lon="6.77539">
        <ele>319</ele>
        <time>2015-06-14T10:08:39.000Z</time>
      </trkpt>
      <trkpt lat="47.47464" lon="6.77532">
        <ele>319</ele>
        <time>2015-06-14T10:08:40.000Z</time>
      </trkpt>
      <trkpt lat="47.47471" lon="6.77524">
        <ele>318</ele>
        <time>2015-06-14T10:08:41.000Z</time>
      </trkpt>
      <trkpt lat="47.47476" lon="6.77516">
        <ele>318</ele>
        <time>2015-06-14T10:08:42.000Z</time>
      </trkpt>
      <trkpt lat="47.4748" lon="6.77509">
        <ele>318</ele>
        <time>2015-06-14T10:08:43.000Z</time>
      </trkpt>
      <trkpt lat="47.47485" lon="6.775">
        <ele>317</ele>
        <time>2015-06-14T10:08:44.000Z</time>
      </trkpt>
      <trkpt lat="47.47489" lon="6.77491">
        <ele>317</ele>
        <time>2015-06-14T10:08:45.000Z</time>
      </trkpt>
      <trkpt lat="47.47493" lon="6.77484">
        <ele>317</ele>
        <time>2015-06-14T10:08:46.000Z</time>
      </trkpt>
      <trkpt lat="47.47497" lon="6.77477">
        <ele>317</ele>
        <time>2015-06-14T10:08:47.000Z</time>
      </trkpt>
      <trkpt lat="47.47501" lon="6.77471">
        <ele>316</ele>
        <time>2015-06-14T10:08:48.000Z</time>
      </trkpt>
      <trkpt lat="47.47505" lon="6.77465">
        <ele>316</ele>
        <time>2015-06-14T10:08:49.000Z</time>
      </trkpt>
      <trkpt lat="47.47508" lon="6.77458">
        <ele>316</ele>
        <time>2015-06-14T10:08:50.000Z</time>
      </trkpt>
      <trkpt lat="47.47511" lon="6.77452">
        <ele>316</ele>
        <time>2015-06-14T10:08:51.000Z</time>
      </trkpt>
      <trkpt lat="47.47513" lon="6.77448">
        <ele>316</ele>
        <time>2015-06-14T10:08:52.000Z</time>
      </trkpt>
      <trkpt lat="47.47517" lon="6.77439">
        <ele>316</ele>
        <time>2015-06-14T10:08:53.000Z</time>
      </trkpt>
      <trkpt lat="47.47523" lon="6.77435">
        <ele>316</ele>
        <time>2015-06-14T10:08:54.000Z</time>
      </trkpt>
      <trkpt lat="47.47528" lon="6.7743">
        <ele>316</ele>
        <time>2015-06-14T10:08:55.000Z</time>
      </trkpt>
      <trkpt lat="47.47533" lon="6.77424">
        <ele>315</ele>
        <time>2015-06-14T10:08:56.000Z</time>
      </trkpt>
      <trkpt lat="47.47537" lon="6.77422">
        <ele>315</ele>
        <time>2015-06-14T10:08:57.000Z</time>
      </trkpt>
      <trkpt lat="47.4754" lon="6.77416">
        <ele>315</ele>
        <time>2015-06-14T10:08:58.000Z</time>
      </trkpt>
      <trkpt lat="47.47543" lon="6.77414">
        <ele>315</ele>
        <time>2015-06-14T10:08:59.000Z</time>
      </trkpt>
      <trkpt lat="47.47545" lon="6.77412">
        <ele>314</ele>
        <time>2015-06-14T10:09:00.000Z</time>
      </trkpt>
      <trkpt lat="47.47547" lon="6.77409">
        <ele>314</ele>
        <time>2015-06-14T10:09:01.000Z</time>
      </trkpt>
      <trkpt lat="47.47547" lon="6.77399">
        <ele>314</ele>
        <time>2015-06-14T10:09:02.000Z</time>
      </trkpt>
      <trkpt lat="47.47547" lon="6.77394">
        <ele>314</ele>
        <time>2015-06-14T10:09:03.000Z</time>
      </trkpt>
      <trkpt lat="47.47547" lon="6.7739">
        <ele>314</ele>
        <time>2015-06-14T10:09:04.000Z</time>
      </trkpt>
      <trkpt lat="47.47544" lon="6.77385">
        <ele>314</ele>
        <time>2015-06-14T10:09:05.000Z</time>
      </trkpt>
      <trkpt lat="47.47542" lon="6.77379">
        <ele>314</ele>
        <time>2015-06-14T10:09:06.000Z</time>
      </trkpt>
      <trkpt lat="47.47539" lon="6.77372">
        <ele>314</ele>
        <time>2015-06-14T10:09:07.000Z</time>
      </trkpt>
      <trkpt lat="47.47535" lon="6.77366">
        <ele>314</ele>
        <time>2015-06-14T10:09:08.000Z</time>
      </trkpt>
      <trkpt lat="47.47531" lon="6.77361">
        <ele>314</ele>
        <time>2015-06-14T10:09:09.000Z</time>
      </trkpt>
      <trkpt lat="47.47528" lon="6.77355">
        <ele>314</ele>
        <time>2015-06-14T10:09:10.000Z</time>
      </trkpt>
      <trkpt lat="47.47524" lon="6.7735">
        <ele>314</ele>
        <time>2015-06-14T10:09:11.000Z</time>
      </trkpt>
      <trkpt lat="47.4752" lon="6.77343">
        <ele>314</ele>
        <time>2015-06-14T10:09:12.000Z</time>
      </trkpt>
      <trkpt lat="47.47516" lon="6.77337">
        <ele>315</ele>
        <time>2015-06-14T10:09:13.000Z</time>
      </trkpt>
      <trkpt lat="47.47512" lon="6.77331">
        <ele>314</ele>
        <time>2015-06-14T10:09:14.000Z</time>
      </trkpt>
      <trkpt lat="47.47508" lon="6.77324">
        <ele>314</ele>
        <time>2015-06-14T10:09:15.000Z</time>
      </trkpt>
      <trkpt lat="47.47504" lon="6.77316">
        <ele>314</ele>
        <time>2015-06-14T10:09:16.000Z</time>
      </trkpt>
      <trkpt lat="47.475" lon="6.7731">
        <ele>314</ele>
        <time>2015-06-14T10:09:17.000Z</time>
      </trkpt>
      <trkpt lat="47.47496" lon="6.77304">
        <ele>314</ele>
        <time>2015-06-14T10:09:18.000Z</time>
      </trkpt>
      <trkpt lat="47.47492" lon="6.77297">
        <ele>314</ele>
        <time>2015-06-14T10:09:19.000Z</time>
      </trkpt>
      <trkpt lat="47.47489" lon="6.77291">
        <ele>314</ele>
        <time>2015-06-14T10:09:20.000Z</time>
      </trkpt>
      <trkpt lat="47.47486" lon="6.77284">
        <ele>314</ele>
        <time>2015-06-14T10:09:21.000Z</time>
      </trkpt>
      <trkpt lat="47.47485" lon="6.77275">
        <ele>314</ele>
        <time>2015-06-14T10:09:22.000Z</time>
      </trkpt>
      <trkpt lat="47.47486" lon="6.77268">
        <ele>314</ele>
        <time>2015-06-14T10:09:23.000Z</time>
      </trkpt>
      <trkpt lat="47.4749" lon="6.77261">
        <ele>313</ele>
        <time>2015-06-14T10:09:24.000Z</time>
      </trkpt>
      <trkpt lat="47.47494" lon="6.77253">
        <ele>313</ele>
        <time>2015-06-14T10:09:25.000Z</time>
      </trkpt>
      <trkpt lat="47.47499" lon="6.77246">
        <ele>312</ele>
        <time>2015-06-14T10:09:26.000Z</time>
      </trkpt>
      <trkpt lat="47.47503" lon="6.77239">
        <ele>311</ele>
        <time>2015-06-14T10:09:27.000Z</time>
      </trkpt>
      <trkpt lat="47.47507" lon="6.77231">
        <ele>311</ele>
        <time>2015-06-14T10:09:28.000Z</time>
      </trkpt>
      <trkpt lat="47.47512" lon="6.77223">
        <ele>311</ele>
        <time>2015-06-14T10:09:29.000Z</time>
      </trkpt>
      <trkpt lat="47.47515" lon="6.77215">
        <ele>311</ele>
        <time>2015-06-14T10:09:30.000Z</time>
      </trkpt>
      <trkpt lat="47.47518" lon="6.77207">
        <ele>310</ele>
        <time>2015-06-14T10:09:31.000Z</time>
      </trkpt>
      <trkpt lat="47.47521" lon="6.77199">
        <ele>310</ele>
        <time>2015-06-14T10:09:32.000Z</time>
      </trkpt>
      <trkpt lat="47.47524" lon="6.7719">
        <ele>310</ele>
        <time>2015-06-14T10:09:33.000Z</time>
      </trkpt>
      <trkpt lat="47.47524" lon="6.77182">
        <ele>310</ele>
        <time>2015-06-14T10:09:34.000Z</time>
      </trkpt>
      <trkpt lat="47.47524" lon="6.77174">
        <ele>310</ele>
        <time>2015-06-14T10:09:35.000Z</time>
      </trkpt>
      <trkpt lat="47.47525" lon="6.77166">
        <ele>310</ele>
        <time>2015-06-14T10:09:36.000Z</time>
      </trkpt>
      <trkpt lat="47.47525" lon="6.77158">
        <ele>310</ele>
        <time>2015-06-14T10:09:37.000Z</time>
      </trkpt>
      <trkpt lat="47.47526" lon="6.77151">
        <ele>310</ele>
        <time>2015-06-14T10:09:38.000Z</time>
      </trkpt>
      <trkpt lat="47.4753" lon="6.7714">
        <ele>310</ele>
        <time>2015-06-14T10:09:39.000Z</time>
      </trkpt>
      <trkpt lat="47.47536" lon="6.77137">
        <ele>310</ele>
        <time>2015-06-14T10:09:40.000Z</time>
      </trkpt>
      <trkpt lat="47.47538" lon="6.7714">
        <ele>310</ele>
        <time>2015-06-14T10:09:41.000Z</time>
      </trkpt>
      <trkpt lat="47.4754" lon="6.77142">
        <ele>310</ele>
        <time>2015-06-14T10:09:42.000Z</time>
      </trkpt>
      <trkpt lat="47.47543" lon="6.77144">
        <ele>310</ele>
        <time>2015-06-14T10:09:43.000Z</time>
      </trkpt>
      <trkpt lat="47.47547" lon="6.77146">
        <ele>310</ele>
        <time>2015-06-14T10:09:44.000Z</time>
      </trkpt>
      <trkpt lat="47.47551" lon="6.77149">
        <ele>310</ele>
        <time>2015-06-14T10:09:45.000Z</time>
      </trkpt>
      <trkpt lat="47.47554" lon="6.77152">
        <ele>310</ele>
        <time>2015-06-14T10:09:46.000Z</time>
      </trkpt>
      <trkpt lat="47.47559" lon="6.77155">
        <ele>310</ele>
        <time>2015-06-14T10:09:47.000Z</time>
      </trkpt>
      <trkpt lat="47.47563" lon="6.77158">
        <ele>310</ele>
        <time>2015-06-14T10:09:48.000Z</time>
      </trkpt>
      <trkpt lat="47.47568" lon="6.77161">
        <ele>309</ele>
        <time>2015-06-14T10:09:49.000Z</time>
      </trkpt>
      <trkpt lat="47.47573" lon="6.77164">
        <ele>309</ele>
        <time>2015-06-14T10:09:50.000Z</time>
      </trkpt>
      <trkpt lat="47.47578" lon="6.77168">
        <ele>309</ele>
        <time>2015-06-14T10:09:51.000Z</time>
      </trkpt>
      <trkpt lat="47.47582" lon="6.77171">
        <ele>309</ele>
        <time>2015-06-14T10:09:52.000Z</time>
      </trkpt>
      <trkpt lat="47.47587" lon="6.77174">
        <ele>309</ele>
        <time>2015-06-14T10:09:53.000Z</time>
      </trkpt>
      <trkpt lat="47.47591" lon="6.77178">
        <ele>309</ele>
        <time>2015-06-14T10:09:54.000Z</time>
      </trkpt>
      <trkpt lat="47.47596" lon="6.77181">
        <ele>310</ele>
        <time>2015-06-14T10:09:55.000Z</time>
      </trkpt>
      <trkpt lat="47.476" lon="6.77184">
        <ele>310</ele>
        <time>2015-06-14T10:09:56.000Z</time>
      </trkpt>
      <trkpt lat="47.47604" lon="6.77186">
        <ele>310</ele>
        <time>2015-06-14T10:09:57.000Z</time>
      </trkpt>
      <trkpt lat="47.47609" lon="6.77184">
        <ele>310</ele>
        <time>2015-06-14T10:09:58.000Z</time>
      </trkpt>
      <trkpt lat="47.47613" lon="6.77183">
        <ele>310</ele>
        <time>2015-06-14T10:09:59.000Z</time>
      </trkpt>
      <trkpt lat="47.47617" lon="6.77178">
        <ele>310</ele>
        <time>2015-06-14T10:10:00.000Z</time>
      </trkpt>
      <trkpt lat="47.4762" lon="6.77173">
        <ele>310</ele>
        <time>2015-06-14T10:10:01.000Z</time>
      </trkpt>
      <trkpt lat="47.47623" lon="6.77167">
        <ele>310</ele>
        <time>2015-06-14T10:10:02.000Z</time>
      </trkpt>
      <trkpt lat="47.47626" lon="6.77161">
        <ele>310</ele>
        <time>2015-06-14T10:10:03.000Z</time>
      </trkpt>
      <trkpt lat="47.47628" lon="6.77155">
        <ele>310</ele>
        <time>2015-06-14T10:10:04.000Z</time>
      </trkpt>
      <trkpt lat="47.4763" lon="6.7715">
        <ele>310</ele>
        <time>2015-06-14T10:10:05.000Z</time>
      </trkpt>
      <trkpt lat="47.47632" lon="6.77145">
        <ele>310</ele>
        <time>2015-06-14T10:10:06.000Z</time>
      </trkpt>
      <trkpt lat="47.47634" lon="6.77139">
        <ele>310</ele>
        <time>2015-06-14T10:10:07.000Z</time>
      </trkpt>
      <trkpt lat="47.47635" lon="6.77134">
        <ele>310</ele>
        <time>2015-06-14T10:10:08.000Z</time>
      </trkpt>
      <trkpt lat="47.47636" lon="6.7713">
        <ele>310</ele>
        <time>2015-06-14T10:10:09.000Z</time>
      </trkpt>
      <trkpt lat="47.47636" lon="6.77127">
        <ele>310</ele>
        <time>2015-06-14T10:10:10.000Z</time>
      </trkpt>
      <trkpt lat="47.47638" lon="6.77122">
        <ele>310</ele>
        <time>2015-06-14T10:10:12.000Z</time>
      </trkpt>
      <trkpt lat="47.47638" lon="6.77119">
        <ele>310</ele>
        <time>2015-06-14T10:10:13.000Z</time>
      </trkpt>
      <trkpt lat="47.47639" lon="6.77114">
        <ele>310</ele>
        <time>2015-06-14T10:10:15.000Z</time>
      </trkpt>
      <trkpt lat="47.47639" lon="6.7711">
        <ele>310</ele>
        <time>2015-06-14T10:10:16.000Z</time>
      </trkpt>
      <trkpt lat="47.4764" lon="6.77107">
        <ele>310</ele>
        <time>2015-06-14T10:10:17.000Z</time>
      </trkpt>
      <trkpt lat="47.4764" lon="6.77103">
        <ele>310</ele>
        <time>2015-06-14T10:10:18.000Z</time>
      </trkpt>
      <trkpt lat="47.47641" lon="6.77099">
        <ele>311</ele>
        <time>2015-06-14T10:10:19.000Z</time>
      </trkpt>
      <trkpt lat="47.47642" lon="6.77096">
        <ele>311</ele>
        <time>2015-06-14T10:10:20.000Z</time>
      </trkpt>
      <trkpt lat="47.47642" lon="6.77091">
        <ele>311</ele>
        <time>2015-06-14T10:10:21.999Z</time>
      </trkpt>
      <trkpt lat="47.47643" lon="6.77088">
        <ele>311</ele>
        <time>2015-06-14T10:10:23.000Z</time>
      </trkpt>
      <trkpt lat="47.47644" lon="6.77083">
        <ele>311</ele>
        <time>2015-06-14T10:10:25.000Z</time>
      </trkpt>
      <trkpt lat="47.47646" lon="6.7708">
        <ele>311</ele>
        <time>2015-06-14T10:10:26.000Z</time>
      </trkpt>
      <trkpt lat="47.47647" lon="6.77076">
        <ele>311</ele>
        <time>2015-06-14T10:10:27.000Z</time>
      </trkpt>
      <trkpt lat="47.47649" lon="6.77073">
        <ele>311</ele>
        <time>2015-06-14T10:10:28.000Z</time>
      </trkpt>
      <trkpt lat="47.4765" lon="6.7707">
        <ele>311</ele>
        <time>2015-06-14T10:10:29.000Z</time>
      </trkpt>
      <trkpt lat="47.47652" lon="6.77066">
        <ele>311</ele>
        <time>2015-06-14T10:10:30.000Z</time>
      </trkpt>
      <trkpt lat="47.47653" lon="6.7706">
        <ele>311</ele>
        <time>2015-06-14T10:10:32.000Z</time>
      </trkpt>
      <trkpt lat="47.47653" lon="6.77058">
        <ele>311</ele>
        <time>2015-06-14T10:10:33.000Z</time>
      </trkpt>
      <trkpt lat="47.47653" lon="6.77052">
        <ele>311</ele>
        <time>2015-06-14T10:10:35.000Z</time>
      </trkpt>
      <trkpt lat="47.47654" lon="6.77038">
        <ele>311</ele>
        <time>2015-06-14T10:10:36.000Z</time>
      </trkpt>
      <trkpt lat="47.47655" lon="6.77031">
        <ele>311</ele>
        <time>2015-06-14T10:10:37.000Z</time>
      </trkpt>
      <trkpt lat="47.47656" lon="6.77021">
        <ele>311</ele>
        <time>2015-06-14T10:10:38.000Z</time>
      </trkpt>
      <trkpt lat="47.47658" lon="6.77014">
        <ele>311</ele>
        <time>2015-06-14T10:10:39.000Z</time>
      </trkpt>
      <trkpt lat="47.47661" lon="6.77006">
        <ele>311</ele>
        <time>2015-06-14T10:10:40.000Z</time>
      </trkpt>
      <trkpt lat="47.47663" lon="6.76996">
        <ele>311</ele>
        <time>2015-06-14T10:10:41.000Z</time>
      </trkpt>
      <trkpt lat="47.47667" lon="6.76987">
        <ele>311</ele>
        <time>2015-06-14T10:10:42.000Z</time>
      </trkpt>
      <trkpt lat="47.4767" lon="6.76977">
        <ele>311</ele>
        <time>2015-06-14T10:10:43.000Z</time>
      </trkpt>
      <trkpt lat="47.47674" lon="6.76967">
        <ele>311</ele>
        <time>2015-06-14T10:10:44.002Z</time>
      </trkpt>
      <trkpt lat="47.47676" lon="6.76954">
        <ele>311</ele>
        <time>2015-06-14T10:10:45.000Z</time>
      </trkpt>
      <trkpt lat="47.4768" lon="6.76946">
        <ele>311</ele>
        <time>2015-06-14T10:10:46.000Z</time>
      </trkpt>
      <trkpt lat="47.47683" lon="6.76936">
        <ele>311</ele>
        <time>2015-06-14T10:10:47.000Z</time>
      </trkpt>
      <trkpt lat="47.47687" lon="6.76926">
        <ele>311</ele>
        <time>2015-06-14T10:10:48.000Z</time>
      </trkpt>
      <trkpt lat="47.4769" lon="6.76919">
        <ele>311</ele>
        <time>2015-06-14T10:10:49.000Z</time>
      </trkpt>
      <trkpt lat="47.47693" lon="6.76911">
        <ele>311</ele>
        <time>2015-06-14T10:10:50.000Z</time>
      </trkpt>
      <trkpt lat="47.47695" lon="6.76904">
        <ele>311</ele>
        <time>2015-06-14T10:10:51.000Z</time>
      </trkpt>
      <trkpt lat="47.47697" lon="6.76897">
        <ele>311</ele>
        <time>2015-06-14T10:10:52.000Z</time>
      </trkpt>
      <trkpt lat="47.47698" lon="6.76891">
        <ele>311</ele>
        <time>2015-06-14T10:10:53.000Z</time>
      </trkpt>
      <trkpt lat="47.47702" lon="6.76882">
        <ele>311</ele>
        <time>2015-06-14T10:10:54.000Z</time>
      </trkpt>
      <trkpt lat="47.47705" lon="6.76873">
        <ele>311</ele>
        <time>2015-06-14T10:10:55.000Z</time>
      </trkpt>
      <trkpt lat="47.47708" lon="6.76865">
        <ele>311</ele>
        <time>2015-06-14T10:10:56.000Z</time>
      </trkpt>
      <trkpt lat="47.4771" lon="6.76858">
        <ele>311</ele>
        <time>2015-06-14T10:10:57.000Z</time>
      </trkpt>
      <trkpt lat="47.47712" lon="6.76851">
        <ele>311</ele>
        <time>2015-06-14T10:10:58.000Z</time>
      </trkpt>
      <trkpt lat="47.47714" lon="6.76844">
        <ele>311</ele>
        <time>2015-06-14T10:10:59.000Z</time>
      </trkpt>
      <trkpt lat="47.47717" lon="6.76837">
        <ele>311</ele>
        <time>2015-06-14T10:11:00.000Z</time>
      </trkpt>
      <trkpt lat="47.47717" lon="6.7683">
        <ele>311</ele>
        <time>2015-06-14T10:11:01.000Z</time>
      </trkpt>
      <trkpt lat="47.4772" lon="6.76824">
        <ele>311</ele>
        <time>2015-06-14T10:11:02.000Z</time>
      </trkpt>
      <trkpt lat="47.47722" lon="6.76817">
        <ele>311</ele>
        <time>2015-06-14T10:11:03.000Z</time>
      </trkpt>
      <trkpt lat="47.47727" lon="6.76813">
        <ele>311</ele>
        <time>2015-06-14T10:11:04.000Z</time>
      </trkpt>
      <trkpt lat="47.47731" lon="6.76809">
        <ele>311</ele>
        <time>2015-06-14T10:11:05.000Z</time>
      </trkpt>
      <trkpt lat="47.47733" lon="6.76806">
        <ele>311</ele>
        <time>2015-06-14T10:11:06.000Z</time>
      </trkpt>
      <trkpt lat="47.47736" lon="6.76805">
        <ele>311</ele>
        <time>2015-06-14T10:11:07.000Z</time>
      </trkpt>
      <trkpt lat="47.47739" lon="6.76802">
        <ele>311</ele>
        <time>2015-06-14T10:11:08.000Z</time>
      </trkpt>
      <trkpt lat="47.47742" lon="6.76802">
        <ele>311</ele>
        <time>2015-06-14T10:11:09.000Z</time>
      </trkpt>
      <trkpt lat="47.47745" lon="6.76801">
        <ele>311</ele>
        <time>2015-06-14T10:11:10.000Z</time>
      </trkpt>
      <trkpt lat="47.47748" lon="6.76801">
        <ele>311</ele>
        <time>2015-06-14T10:11:11.000Z</time>
      </trkpt>
      <trkpt lat="47.4775" lon="6.768">
        <ele>311</ele>
        <time>2015-06-14T10:11:12.000Z</time>
      </trkpt>
      <trkpt lat="47.47752" lon="6.76798">
        <ele>311</ele>
        <time>2015-06-14T10:11:13.000Z</time>
      </trkpt>
      <trkpt lat="47.47754" lon="6.76798">
        <ele>311</ele>
        <time>2015-06-14T10:11:14.000Z</time>
      </trkpt>
      <trkpt lat="47.47757" lon="6.76798">
        <ele>311</ele>
        <time>2015-06-14T10:11:15.000Z</time>
      </trkpt>
      <trkpt lat="47.47759" lon="6.76799">
        <ele>311</ele>
        <time>2015-06-14T10:11:16.000Z</time>
      </trkpt>
      <trkpt lat="47.47762" lon="6.768">
        <ele>311</ele>
        <time>2015-06-14T10:11:17.000Z</time>
      </trkpt>
      <trkpt lat="47.47765" lon="6.768">
        <ele>311</ele>
        <time>2015-06-14T10:11:17.999Z</time>
      </trkpt>
      <trkpt lat="47.47768" lon="6.76801">
        <ele>311</ele>
        <time>2015-06-14T10:11:19.000Z</time>
      </trkpt>
      <trkpt lat="47.47772" lon="6.76802">
        <ele>311</ele>
        <time>2015-06-14T10:11:20.000Z</time>
      </trkpt>
      <trkpt lat="47.47776" lon="6.76803">
        <ele>311</ele>
        <time>2015-06-14T10:11:21.000Z</time>
      </trkpt>
      <trkpt lat="47.4778" lon="6.76804">
        <ele>311</ele>
        <time>2015-06-14T10:11:22.000Z</time>
      </trkpt>
      <trkpt lat="47.47784" lon="6.76805">
        <ele>311</ele>
        <time>2015-06-14T10:11:23.000Z</time>
      </trkpt>
      <trkpt lat="47.47787" lon="6.76807">
        <ele>311</ele>
        <time>2015-06-14T10:11:24.001Z</time>
      </trkpt>
      <trkpt lat="47.47791" lon="6.76809">
        <ele>311</ele>
        <time>2015-06-14T10:11:25.000Z</time>
      </trkpt>
      <trkpt lat="47.47797" lon="6.76813">
        <ele>310</ele>
        <time>2015-06-14T10:11:26.000Z</time>
      </trkpt>
      <trkpt lat="47.47802" lon="6.76815">
        <ele>310</ele>
        <time>2015-06-14T10:11:27.000Z</time>
      </trkpt>
      <trkpt lat="47.47805" lon="6.76817">
        <ele>310</ele>
        <time>2015-06-14T10:11:28.000Z</time>
      </trkpt>
      <trkpt lat="47.47809" lon="6.7682">
        <ele>310</ele>
        <time>2015-06-14T10:11:29.000Z</time>
      </trkpt>
      <trkpt lat="47.47813" lon="6.7682">
        <ele>310</ele>
        <time>2015-06-14T10:11:30.000Z</time>
      </trkpt>
      <trkpt lat="47.47817" lon="6.7682">
        <ele>310</ele>
        <time>2015-06-14T10:11:31.000Z</time>
      </trkpt>
      <trkpt lat="47.47821" lon="6.76819">
        <ele>310</ele>
        <time>2015-06-14T10:11:32.000Z</time>
      </trkpt>
      <trkpt lat="47.47825" lon="6.76819">
        <ele>310</ele>
        <time>2015-06-14T10:11:33.000Z</time>
      </trkpt>
      <trkpt lat="47.47829" lon="6.76813">
        <ele>310</ele>
        <time>2015-06-14T10:11:34.000Z</time>
      </trkpt>
      <trkpt lat="47.47832" lon="6.76811">
        <ele>310</ele>
        <time>2015-06-14T10:11:35.000Z</time>
      </trkpt>
      <trkpt lat="47.47835" lon="6.76805">
        <ele>311</ele>
        <time>2015-06-14T10:11:36.000Z</time>
      </trkpt>
      <trkpt lat="47.47837" lon="6.76799">
        <ele>311</ele>
        <time>2015-06-14T10:11:37.000Z</time>
      </trkpt>
      <trkpt lat="47.4784" lon="6.76794">
        <ele>311</ele>
        <time>2015-06-14T10:11:38.000Z</time>
      </trkpt>
      <trkpt lat="47.47843" lon="6.76789">
        <ele>311</ele>
        <time>2015-06-14T10:11:39.000Z</time>
      </trkpt>
      <trkpt lat="47.47846" lon="6.76783">
        <ele>311</ele>
        <time>2015-06-14T10:11:40.000Z</time>
      </trkpt>
      <trkpt lat="47.47849" lon="6.76776">
        <ele>311</ele>
        <time>2015-06-14T10:11:41.000Z</time>
      </trkpt>
      <trkpt lat="47.47852" lon="6.76769">
        <ele>311</ele>
        <time>2015-06-14T10:11:42.000Z</time>
      </trkpt>
      <trkpt lat="47.47855" lon="6.76763">
        <ele>311</ele>
        <time>2015-06-14T10:11:43.000Z</time>
      </trkpt>
      <trkpt lat="47.47858" lon="6.76757">
        <ele>311</ele>
        <time>2015-06-14T10:11:44.000Z</time>
      </trkpt>
      <trkpt lat="47.47861" lon="6.76752">
        <ele>311</ele>
        <time>2015-06-14T10:11:45.000Z</time>
      </trkpt>
      <trkpt lat="47.47864" lon="6.76747">
        <ele>310</ele>
        <time>2015-06-14T10:11:46.000Z</time>
      </trkpt>
      <trkpt lat="47.47866" lon="6.76741">
        <ele>310</ele>
        <time>2015-06-14T10:11:47.000Z</time>
      </trkpt>
      <trkpt lat="47.47869" lon="6.76735">
        <ele>310</ele>
        <time>2015-06-14T10:11:48.000Z</time>
      </trkpt>
      <trkpt lat="47.47873" lon="6.76727">
        <ele>310</ele>
        <time>2015-06-14T10:11:49.000Z</time>
      </trkpt>
      <trkpt lat="47.47876" lon="6.76719">
        <ele>310</ele>
        <time>2015-06-14T10:11:50.000Z</time>
      </trkpt>
      <trkpt lat="47.47879" lon="6.76712">
        <ele>310</ele>
        <time>2015-06-14T10:11:51.000Z</time>
      </trkpt>
      <trkpt lat="47.47881" lon="6.76706">
        <ele>310</ele>
        <time>2015-06-14T10:11:52.000Z</time>
      </trkpt>
      <trkpt lat="47.47884" lon="6.76698">
        <ele>310</ele>
        <time>2015-06-14T10:11:53.000Z</time>
      </trkpt>
      <trkpt lat="47.47887" lon="6.76692">
        <ele>310</ele>
        <time>2015-06-14T10:11:54.000Z</time>
      </trkpt>
      <trkpt lat="47.47891" lon="6.76686">
        <ele>310</ele>
        <time>2015-06-14T10:11:55.000Z</time>
      </trkpt>
      <trkpt lat="47.47894" lon="6.76679">
        <ele>310</ele>
        <time>2015-06-14T10:11:56.000Z</time>
      </trkpt>
      <trkpt lat="47.47898" lon="6.76674">
        <ele>311</ele>
        <time>2015-06-14T10:11:57.000Z</time>
      </trkpt>
      <trkpt lat="47.47902" lon="6.76667">
        <ele>311</ele>
        <time>2015-06-14T10:11:58.000Z</time>
      </trkpt>
      <trkpt lat="47.47905" lon="6.76661">
        <ele>310</ele>
        <time>2015-06-14T10:11:59.000Z</time>
      </trkpt>
      <trkpt lat="47.47909" lon="6.76657">
        <ele>310</ele>
        <time>2015-06-14T10:12:00.000Z</time>
      </trkpt>
      <trkpt lat="47.47914" lon="6.76652">
        <ele>310</ele>
        <time>2015-06-14T10:12:01.000Z</time>
      </trkpt>
      <trkpt lat="47.47918" lon="6.76647">
        <ele>311</ele>
        <time>2015-06-14T10:12:02.000Z</time>
      </trkpt>
      <trkpt lat="47.47922" lon="6.76646">
        <ele>311</ele>
        <time>2015-06-14T10:12:03.000Z</time>
      </trkpt>
      <trkpt lat="47.47926" lon="6.76644">
        <ele>311</ele>
        <time>2015-06-14T10:12:04.000Z</time>
      </trkpt>
      <trkpt lat="47.47931" lon="6.76642">
        <ele>311</ele>
        <time>2015-06-14T10:12:05.000Z</time>
      </trkpt>
      <trkpt lat="47.47934" lon="6.76639">
        <ele>311</ele>
        <time>2015-06-14T10:12:06.000Z</time>
      </trkpt>
      <trkpt lat="47.47938" lon="6.76637">
        <ele>311</ele>
        <time>2015-06-14T10:12:07.000Z</time>
      </trkpt>
      <trkpt lat="47.47942" lon="6.76633">
        <ele>311</ele>
        <time>2015-06-14T10:12:08.000Z</time>
      </trkpt>
      <trkpt lat="47.47945" lon="6.7663">
        <ele>311</ele>
        <time>2015-06-14T10:12:09.000Z</time>
      </trkpt>
      <trkpt lat="47.4795" lon="6.76627">
        <ele>311</ele>
        <time>2015-06-14T10:12:10.000Z</time>
      </trkpt>
      <trkpt lat="47.47953" lon="6.76625">
        <ele>311</ele>
        <time>2015-06-14T10:12:11.000Z</time>
      </trkpt>
      <trkpt lat="47.47957" lon="6.76623">
        <ele>311</ele>
        <time>2015-06-14T10:12:12.000Z</time>
      </trkpt>
      <trkpt lat="47.47961" lon="6.76621">
        <ele>311</ele>
        <time>2015-06-14T10:12:13.000Z</time>
      </trkpt>
      <trkpt lat="47.47965" lon="6.76619">
        <ele>311</ele>
        <time>2015-06-14T10:12:14.000Z</time>
      </trkpt>
      <trkpt lat="47.47969" lon="6.76617">
        <ele>311</ele>
        <time>2015-06-14T10:12:15.000Z</time>
      </trkpt>
      <trkpt lat="47.47973" lon="6.76615">
        <ele>311</ele>
        <time>2015-06-14T10:12:16.000Z</time>
      </trkpt>
      <trkpt lat="47.47977" lon="6.76613">
        <ele>311</ele>
        <time>2015-06-14T10:12:17.000Z</time>
      </trkpt>
      <trkpt lat="47.47981" lon="6.76611">
        <ele>311</ele>
        <time>2015-06-14T10:12:18.000Z</time>
      </trkpt>
      <trkpt lat="47.47986" lon="6.76607">
        <ele>312</ele>
        <time>2015-06-14T10:12:19.000Z</time>
      </trkpt>
      <trkpt lat="47.4799" lon="6.76605">
        <ele>312</ele>
        <time>2015-06-14T10:12:20.000Z</time>
      </trkpt>
      <trkpt lat="47.47995" lon="6.76603">
        <ele>312</ele>
        <time>2015-06-14T10:12:21.000Z</time>
      </trkpt>
      <trkpt lat="47.47999" lon="6.766">
        <ele>312</ele>
        <time>2015-06-14T10:12:22.000Z</time>
      </trkpt>
      <trkpt lat="47.48003" lon="6.76597">
        <ele>312</ele>
        <time>2015-06-14T10:12:23.000Z</time>
      </trkpt>
      <trkpt lat="47.48008" lon="6.76593">
        <ele>312</ele>
        <time>2015-06-14T10:12:24.000Z</time>
      </trkpt>
      <trkpt lat="47.48012" lon="6.7659">
        <ele>312</ele>
        <time>2015-06-14T10:12:25.000Z</time>
      </trkpt>
      <trkpt lat="47.48017" lon="6.76587">
        <ele>312</ele>
        <time>2015-06-14T10:12:26.000Z</time>
      </trkpt>
      <trkpt lat="47.48021" lon="6.76584">
        <ele>312</ele>
        <time>2015-06-14T10:12:27.000Z</time>
      </trkpt>
      <trkpt lat="47.48026" lon="6.76582">
        <ele>312</ele>
        <time>2015-06-14T10:12:28.000Z</time>
      </trkpt>
      <trkpt lat="47.48031" lon="6.76578">
        <ele>312</ele>
        <time>2015-06-14T10:12:29.000Z</time>
      </trkpt>
      <trkpt lat="47.48039" lon="6.76572">
        <ele>312</ele>
        <time>2015-06-14T10:12:31.000Z</time>
      </trkpt>
      <trkpt lat="47.48044" lon="6.76568">
        <ele>312</ele>
        <time>2015-06-14T10:12:32.000Z</time>
      </trkpt>
      <trkpt lat="47.48048" lon="6.76564">
        <ele>312</ele>
        <time>2015-06-14T10:12:33.000Z</time>
      </trkpt>
      <trkpt lat="47.48052" lon="6.76561">
        <ele>312</ele>
        <time>2015-06-14T10:12:34.000Z</time>
      </trkpt>
      <trkpt lat="47.48057" lon="6.76557">
        <ele>312</ele>
        <time>2015-06-14T10:12:35.000Z</time>
      </trkpt>
      <trkpt lat="47.48063" lon="6.76553">
        <ele>312</ele>
        <time>2015-06-14T10:12:36.000Z</time>
      </trkpt>
      <trkpt lat="47.48067" lon="6.76549">
        <ele>312</ele>
        <time>2015-06-14T10:12:37.000Z</time>
      </trkpt>
      <trkpt lat="47.48072" lon="6.76542">
        <ele>312</ele>
        <time>2015-06-14T10:12:38.000Z</time>
      </trkpt>
      <trkpt lat="47.48077" lon="6.76539">
        <ele>312</ele>
        <time>2015-06-14T10:12:38.999Z</time>
      </trkpt>
      <trkpt lat="47.48081" lon="6.76535">
        <ele>312</ele>
        <time>2015-06-14T10:12:40.000Z</time>
      </trkpt>
      <trkpt lat="47.48084" lon="6.76532">
        <ele>317</ele>
        <time>2015-06-14T10:12:41.000Z</time>
      </trkpt>
      <trkpt lat="47.48087" lon="6.76527">
        <ele>317</ele>
        <time>2015-06-14T10:12:42.000Z</time>
      </trkpt>
      <trkpt lat="47.4809" lon="6.76524">
        <ele>317</ele>
        <time>2015-06-14T10:12:42.999Z</time>
      </trkpt>
      <trkpt lat="47.48093" lon="6.76521">
        <ele>317</ele>
        <time>2015-06-14T10:12:44.000Z</time>
      </trkpt>
      <trkpt lat="47.48097" lon="6.76519">
        <ele>317</ele>
        <time>2015-06-14T10:12:45.000Z</time>
      </trkpt>
      <trkpt lat="47.48101" lon="6.76517">
        <ele>318</ele>
        <time>2015-06-14T10:12:46.000Z</time>
      </trkpt>
      <trkpt lat="47.48103" lon="6.76518">
        <ele>318</ele>
        <time>2015-06-14T10:12:47.000Z</time>
      </trkpt>
      <trkpt lat="47.48106" lon="6.76521">
        <ele>319</ele>
        <time>2015-06-14T10:12:48.000Z</time>
      </trkpt>
      <trkpt lat="47.48108" lon="6.76522">
        <ele>319</ele>
        <time>2015-06-14T10:12:49.000Z</time>
      </trkpt>
      <trkpt lat="47.4811" lon="6.76525">
        <ele>319</ele>
        <time>2015-06-14T10:12:50.000Z</time>
      </trkpt>
      <trkpt lat="47.48112" lon="6.76529">
        <ele>319</ele>
        <time>2015-06-14T10:12:51.000Z</time>
      </trkpt>
      <trkpt lat="47.48114" lon="6.76533">
        <ele>319</ele>
        <time>2015-06-14T10:12:52.000Z</time>
      </trkpt>
      <trkpt lat="47.48115" lon="6.76537">
        <ele>319</ele>
        <time>2015-06-14T10:12:53.000Z</time>
      </trkpt>
      <trkpt lat="47.48117" lon="6.76542">
        <ele>319</ele>
        <time>2015-06-14T10:12:54.000Z</time>
      </trkpt>
      <trkpt lat="47.48116" lon="6.76548">
        <ele>319</ele>
        <time>2015-06-14T10:12:55.000Z</time>
      </trkpt>
      <trkpt lat="47.48115" lon="6.76554">
        <ele>319</ele>
        <time>2015-06-14T10:12:56.000Z</time>
      </trkpt>
      <trkpt lat="47.48113" lon="6.7656">
        <ele>318</ele>
        <time>2015-06-14T10:12:57.000Z</time>
      </trkpt>
      <trkpt lat="47.48102" lon="6.76568">
        <ele>317</ele>
        <time>2015-06-14T10:12:58.000Z</time>
      </trkpt>
      <trkpt lat="47.48097" lon="6.76574">
        <ele>316</ele>
        <time>2015-06-14T10:12:59.000Z</time>
      </trkpt>
      <trkpt lat="47.48095" lon="6.76582">
        <ele>315</ele>
        <time>2015-06-14T10:13:00.000Z</time>
      </trkpt>
      <trkpt lat="47.48093" lon="6.76588">
        <ele>313</ele>
        <time>2015-06-14T10:13:01.000Z</time>
      </trkpt>
      <trkpt lat="47.48091" lon="6.76595">
        <ele>313</ele>
        <time>2015-06-14T10:13:02.000Z</time>
      </trkpt>
      <trkpt lat="47.48089" lon="6.76601">
        <ele>313</ele>
        <time>2015-06-14T10:13:03.000Z</time>
      </trkpt>
      <trkpt lat="47.48088" lon="6.76607">
        <ele>313</ele>
        <time>2015-06-14T10:13:04.000Z</time>
      </trkpt>
      <trkpt lat="47.48091" lon="6.76616">
        <ele>313</ele>
        <time>2015-06-14T10:13:05.000Z</time>
      </trkpt>
      <trkpt lat="47.48095" lon="6.76624">
        <ele>313</ele>
        <time>2015-06-14T10:13:06.000Z</time>
      </trkpt>
      <trkpt lat="47.48097" lon="6.76629">
        <ele>313</ele>
        <time>2015-06-14T10:13:07.000Z</time>
      </trkpt>
      <trkpt lat="47.48099" lon="6.76634">
        <ele>313</ele>
        <time>2015-06-14T10:13:08.000Z</time>
      </trkpt>
      <trkpt lat="47.48102" lon="6.7664">
        <ele>313</ele>
        <time>2015-06-14T10:13:09.000Z</time>
      </trkpt>
      <trkpt lat="47.48107" lon="6.76648">
        <ele>312</ele>
        <time>2015-06-14T10:13:10.000Z</time>
      </trkpt>
      <trkpt lat="47.48111" lon="6.76654">
        <ele>312</ele>
        <time>2015-06-14T10:13:11.000Z</time>
      </trkpt>
      <trkpt lat="47.48115" lon="6.76661">
        <ele>312</ele>
        <time>2015-06-14T10:13:12.000Z</time>
      </trkpt>
      <trkpt lat="47.48121" lon="6.76668">
        <ele>312</ele>
        <time>2015-06-14T10:13:13.000Z</time>
      </trkpt>
      <trkpt lat="47.48125" lon="6.76675">
        <ele>312</ele>
        <time>2015-06-14T10:13:14.000Z</time>
      </trkpt>
      <trkpt lat="47.48129" lon="6.76682">
        <ele>312</ele>
        <time>2015-06-14T10:13:15.000Z</time>
      </trkpt>
      <trkpt lat="47.48133" lon="6.76689">
        <ele>312</ele>
        <time>2015-06-14T10:13:16.000Z</time>
      </trkpt>
      <trkpt lat="47.48137" lon="6.76697">
        <ele>312</ele>
        <time>2015-06-14T10:13:17.000Z</time>
      </trkpt>
      <trkpt lat="47.4814" lon="6.76704">
        <ele>312</ele>
        <time>2015-06-14T10:13:18.000Z</time>
      </trkpt>
      <trkpt lat="47.48143" lon="6.76711">
        <ele>312</ele>
        <time>2015-06-14T10:13:19.000Z</time>
      </trkpt>
      <trkpt lat="47.48146" lon="6.76718">
        <ele>312</ele>
        <time>2015-06-14T10:13:20.000Z</time>
      </trkpt>
      <trkpt lat="47.4815" lon="6.76725">
        <ele>312</ele>
        <time>2015-06-14T10:13:21.000Z</time>
      </trkpt>
      <trkpt lat="47.48152" lon="6.76733">
        <ele>312</ele>
        <time>2015-06-14T10:13:22.000Z</time>
      </trkpt>
      <trkpt lat="47.48156" lon="6.7674">
        <ele>313</ele>
        <time>2015-06-14T10:13:23.000Z</time>
      </trkpt>
      <trkpt lat="47.48161" lon="6.76745">
        <ele>313</ele>
        <time>2015-06-14T10:13:24.000Z</time>
      </trkpt>
      <trkpt lat="47.48164" lon="6.76751">
        <ele>313</ele>
        <time>2015-06-14T10:13:25.000Z</time>
      </trkpt>
      <trkpt lat="47.48168" lon="6.76756">
        <ele>313</ele>
        <time>2015-06-14T10:13:26.000Z</time>
      </trkpt>
      <trkpt lat="47.48172" lon="6.76762">
        <ele>313</ele>
        <time>2015-06-14T10:13:27.000Z</time>
      </trkpt>
      <trkpt lat="47.48177" lon="6.76766">
        <ele>312</ele>
        <time>2015-06-14T10:13:28.000Z</time>
      </trkpt>
      <trkpt lat="47.48182" lon="6.76771">
        <ele>312</ele>
        <time>2015-06-14T10:13:29.000Z</time>
      </trkpt>
      <trkpt lat="47.48186" lon="6.76776">
        <ele>312</ele>
        <time>2015-06-14T10:13:30.000Z</time>
      </trkpt>
      <trkpt lat="47.48191" lon="6.7678">
        <ele>312</ele>
        <time>2015-06-14T10:13:31.000Z</time>
      </trkpt>
      <trkpt lat="47.48196" lon="6.76784">
        <ele>312</ele>
        <time>2015-06-14T10:13:32.000Z</time>
      </trkpt>
      <trkpt lat="47.48201" lon="6.76786">
        <ele>312</ele>
        <time>2015-06-14T10:13:33.000Z</time>
      </trkpt>
      <trkpt lat="47.48207" lon="6.76788">
        <ele>312</ele>
        <time>2015-06-14T10:13:34.000Z</time>
      </trkpt>
      <trkpt lat="47.48212" lon="6.7679">
        <ele>312</ele>
        <time>2015-06-14T10:13:35.000Z</time>
      </trkpt>
      <trkpt lat="47.48218" lon="6.76792">
        <ele>312</ele>
        <time>2015-06-14T10:13:36.000Z</time>
      </trkpt>
      <trkpt lat="47.48224" lon="6.76794">
        <ele>312</ele>
        <time>2015-06-14T10:13:37.000Z</time>
      </trkpt>
      <trkpt lat="47.48229" lon="6.76797">
        <ele>312</ele>
        <time>2015-06-14T10:13:38.000Z</time>
      </trkpt>
      <trkpt lat="47.48235" lon="6.76799">
        <ele>312</ele>
        <time>2015-06-14T10:13:39.000Z</time>
      </trkpt>
      <trkpt lat="47.4824" lon="6.76803">
        <ele>312</ele>
        <time>2015-06-14T10:13:40.000Z</time>
      </trkpt>
      <trkpt lat="47.48244" lon="6.76807">
        <ele>312</ele>
        <time>2015-06-14T10:13:41.000Z</time>
      </trkpt>
      <trkpt lat="47.48249" lon="6.76811">
        <ele>312</ele>
        <time>2015-06-14T10:13:42.000Z</time>
      </trkpt>
      <trkpt lat="47.48253" lon="6.76817">
        <ele>312</ele>
        <time>2015-06-14T10:13:43.000Z</time>
      </trkpt>
      <trkpt lat="47.48257" lon="6.76822">
        <ele>312</ele>
        <time>2015-06-14T10:13:44.000Z</time>
      </trkpt>
      <trkpt lat="47.48262" lon="6.76827">
        <ele>312</ele>
        <time>2015-06-14T10:13:45.000Z</time>
      </trkpt>
      <trkpt lat="47.48266" lon="6.76834">
        <ele>311</ele>
        <time>2015-06-14T10:13:46.000Z</time>
      </trkpt>
      <trkpt lat="47.4827" lon="6.7684">
        <ele>311</ele>
        <time>2015-06-14T10:13:47.000Z</time>
      </trkpt>
      <trkpt lat="47.48274" lon="6.76845">
        <ele>311</ele>
        <time>2015-06-14T10:13:48.000Z</time>
      </trkpt>
      <trkpt lat="47.48277" lon="6.7685">
        <ele>310</ele>
        <time>2015-06-14T10:13:49.000Z</time>
      </trkpt>
      <trkpt lat="47.48281" lon="6.76856">
        <ele>310</ele>
        <time>2015-06-14T10:13:50.000Z</time>
      </trkpt>
      <trkpt lat="47.48285" lon="6.76862">
        <ele>310</ele>
        <time>2015-06-14T10:13:51.000Z</time>
      </trkpt>
      <trkpt lat="47.4829" lon="6.76868">
        <ele>310</ele>
        <time>2015-06-14T10:13:52.000Z</time>
      </trkpt>
      <trkpt lat="47.48296" lon="6.76872">
        <ele>310</ele>
        <time>2015-06-14T10:13:53.000Z</time>
      </trkpt>
      <trkpt lat="47.48301" lon="6.76877">
        <ele>310</ele>
        <time>2015-06-14T10:13:54.000Z</time>
      </trkpt>
      <trkpt lat="47.48306" lon="6.76881">
        <ele>310</ele>
        <time>2015-06-14T10:13:55.000Z</time>
      </trkpt>
      <trkpt lat="47.48311" lon="6.76886">
        <ele>310</ele>
        <time>2015-06-14T10:13:56.000Z</time>
      </trkpt>
      <trkpt lat="47.48317" lon="6.7689">
        <ele>310</ele>
        <time>2015-06-14T10:13:57.000Z</time>
      </trkpt>
      <trkpt lat="47.48321" lon="6.76895">
        <ele>310</ele>
        <time>2015-06-14T10:13:58.000Z</time>
      </trkpt>
      <trkpt lat="47.48327" lon="6.769">
        <ele>310</ele>
        <time>2015-06-14T10:13:59.000Z</time>
      </trkpt>
      <trkpt lat="47.48332" lon="6.76904">
        <ele>310</ele>
        <time>2015-06-14T10:14:00.000Z</time>
      </trkpt>
      <trkpt lat="47.48337" lon="6.76908">
        <ele>310</ele>
        <time>2015-06-14T10:14:01.000Z</time>
      </trkpt>
      <trkpt lat="47.48343" lon="6.76912">
        <ele>310</ele>
        <time>2015-06-14T10:14:02.000Z</time>
      </trkpt>
      <trkpt lat="47.4835" lon="6.76915">
        <ele>310</ele>
        <time>2015-06-14T10:14:03.000Z</time>
      </trkpt>
      <trkpt lat="47.48356" lon="6.76919">
        <ele>311</ele>
        <time>2015-06-14T10:14:04.000Z</time>
      </trkpt>
      <trkpt lat="47.48361" lon="6.76923">
        <ele>311</ele>
        <time>2015-06-14T10:14:05.000Z</time>
      </trkpt>
      <trkpt lat="47.48365" lon="6.76928">
        <ele>311</ele>
        <time>2015-06-14T10:14:06.000Z</time>
      </trkpt>
      <trkpt lat="47.48371" lon="6.76931">
        <ele>312</ele>
        <time>2015-06-14T10:14:07.000Z</time>
      </trkpt>
      <trkpt lat="47.48377" lon="6.76934">
        <ele>312</ele>
        <time>2015-06-14T10:14:08.000Z</time>
      </trkpt>
      <trkpt lat="47.48383" lon="6.76937">
        <ele>312</ele>
        <time>2015-06-14T10:14:09.000Z</time>
      </trkpt>
      <trkpt lat="47.48388" lon="6.7694">
        <ele>312</ele>
        <time>2015-06-14T10:14:10.000Z</time>
      </trkpt>
      <trkpt lat="47.48394" lon="6.76943">
        <ele>312</ele>
        <time>2015-06-14T10:14:11.000Z</time>
      </trkpt>
      <trkpt lat="47.48399" lon="6.76946">
        <ele>312</ele>
        <time>2015-06-14T10:14:12.000Z</time>
      </trkpt>
      <trkpt lat="47.48404" lon="6.76949">
        <ele>312</ele>
        <time>2015-06-14T10:14:13.000Z</time>
      </trkpt>
      <trkpt lat="47.4841" lon="6.76952">
        <ele>312</ele>
        <time>2015-06-14T10:14:14.000Z</time>
      </trkpt>
      <trkpt lat="47.48415" lon="6.76954">
        <ele>312</ele>
        <time>2015-06-14T10:14:15.000Z</time>
      </trkpt>
      <trkpt lat="47.4842" lon="6.76955">
        <ele>314</ele>
        <time>2015-06-14T10:14:16.000Z</time>
      </trkpt>
      <trkpt lat="47.48425" lon="6.76957">
        <ele>314</ele>
        <time>2015-06-14T10:14:17.000Z</time>
      </trkpt>
      <trkpt lat="47.4843" lon="6.7696">
        <ele>314</ele>
        <time>2015-06-14T10:14:18.000Z</time>
      </trkpt>
      <trkpt lat="47.48435" lon="6.76963">
        <ele>314</ele>
        <time>2015-06-14T10:14:19.000Z</time>
      </trkpt>
      <trkpt lat="47.4844" lon="6.76966">
        <ele>315</ele>
        <time>2015-06-14T10:14:20.000Z</time>
      </trkpt>
      <trkpt lat="47.48445" lon="6.76969">
        <ele>315</ele>
        <time>2015-06-14T10:14:21.000Z</time>
      </trkpt>
      <trkpt lat="47.4845" lon="6.76972">
        <ele>315</ele>
        <time>2015-06-14T10:14:22.000Z</time>
      </trkpt>
      <trkpt lat="47.48456" lon="6.76973">
        <ele>315</ele>
        <time>2015-06-14T10:14:23.000Z</time>
      </trkpt>
      <trkpt lat="47.4846" lon="6.76977">
        <ele>315</ele>
        <time>2015-06-14T10:14:24.000Z</time>
      </trkpt>
      <trkpt lat="47.48466" lon="6.76981">
        <ele>315</ele>
        <time>2015-06-14T10:14:25.000Z</time>
      </trkpt>
      <trkpt lat="47.4847" lon="6.76984">
        <ele>315</ele>
        <time>2015-06-14T10:14:26.000Z</time>
      </trkpt>
      <trkpt lat="47.48475" lon="6.76987">
        <ele>315</ele>
        <time>2015-06-14T10:14:27.000Z</time>
      </trkpt>
      <trkpt lat="47.4848" lon="6.7699">
        <ele>315</ele>
        <time>2015-06-14T10:14:28.000Z</time>
      </trkpt>
      <trkpt lat="47.48485" lon="6.76993">
        <ele>316</ele>
        <time>2015-06-14T10:14:29.000Z</time>
      </trkpt>
      <trkpt lat="47.4849" lon="6.76996">
        <ele>316</ele>
        <time>2015-06-14T10:14:30.000Z</time>
      </trkpt>
      <trkpt lat="47.48495" lon="6.76999">
        <ele>316</ele>
        <time>2015-06-14T10:14:31.000Z</time>
      </trkpt>
      <trkpt lat="47.485" lon="6.77004">
        <ele>316</ele>
        <time>2015-06-14T10:14:32.000Z</time>
      </trkpt>
      <trkpt lat="47.48505" lon="6.77007">
        <ele>315</ele>
        <time>2015-06-14T10:14:33.000Z</time>
      </trkpt>
      <trkpt lat="47.48509" lon="6.77011">
        <ele>315</ele>
        <time>2015-06-14T10:14:34.000Z</time>
      </trkpt>
      <trkpt lat="47.48514" lon="6.77014">
        <ele>315</ele>
        <time>2015-06-14T10:14:35.000Z</time>
      </trkpt>
      <trkpt lat="47.48518" lon="6.77019">
        <ele>315</ele>
        <time>2015-06-14T10:14:36.000Z</time>
      </trkpt>
      <trkpt lat="47.48523" lon="6.77023">
        <ele>314</ele>
        <time>2015-06-14T10:14:37.000Z</time>
      </trkpt>
      <trkpt lat="47.48527" lon="6.77026">
        <ele>314</ele>
        <time>2015-06-14T10:14:38.000Z</time>
      </trkpt>
      <trkpt lat="47.48532" lon="6.7703">
        <ele>314</ele>
        <time>2015-06-14T10:14:39.000Z</time>
      </trkpt>
      <trkpt lat="47.48536" lon="6.77035">
        <ele>314</ele>
        <time>2015-06-14T10:14:40.000Z</time>
      </trkpt>
      <trkpt lat="47.48541" lon="6.77039">
        <ele>314</ele>
        <time>2015-06-14T10:14:41.000Z</time>
      </trkpt>
      <trkpt lat="47.48546" lon="6.77042">
        <ele>314</ele>
        <time>2015-06-14T10:14:42.000Z</time>
      </trkpt>
      <trkpt lat="47.4855" lon="6.77043">
        <ele>314</ele>
        <time>2015-06-14T10:14:43.000Z</time>
      </trkpt>
      <trkpt lat="47.48554" lon="6.77044">
        <ele>314</ele>
        <time>2015-06-14T10:14:44.000Z</time>
      </trkpt>
      <trkpt lat="47.48559" lon="6.77045">
        <ele>314</ele>
        <time>2015-06-14T10:14:45.000Z</time>
      </trkpt>
      <trkpt lat="47.48563" lon="6.77046">
        <ele>314</ele>
        <time>2015-06-14T10:14:46.000Z</time>
      </trkpt>
      <trkpt lat="47.48567" lon="6.77048">
        <ele>314</ele>
        <time>2015-06-14T10:14:47.000Z</time>
      </trkpt>
      <trkpt lat="47.4857" lon="6.7705">
        <ele>314</ele>
        <time>2015-06-14T10:14:48.000Z</time>
      </trkpt>
      <trkpt lat="47.48573" lon="6.77053">
        <ele>314</ele>
        <time>2015-06-14T10:14:49.000Z</time>
      </trkpt>
      <trkpt lat="47.48576" lon="6.77056">
        <ele>314</ele>
        <time>2015-06-14T10:14:50.000Z</time>
      </trkpt>
      <trkpt lat="47.48581" lon="6.77059">
        <ele>314</ele>
        <time>2015-06-14T10:14:51.000Z</time>
      </trkpt>
      <trkpt lat="47.48586" lon="6.77061">
        <ele>313</ele>
        <time>2015-06-14T10:14:52.000Z</time>
      </trkpt>
      <trkpt lat="47.48591" lon="6.77063">
        <ele>313</ele>
        <time>2015-06-14T10:14:53.000Z</time>
      </trkpt>
      <trkpt lat="47.48595" lon="6.77066">
        <ele>313</ele>
        <time>2015-06-14T10:14:54.000Z</time>
      </trkpt>
      <trkpt lat="47.486" lon="6.77068">
        <ele>313</ele>
        <time>2015-06-14T10:14:55.000Z</time>
      </trkpt>
      <trkpt lat="47.48605" lon="6.77071">
        <ele>313</ele>
        <time>2015-06-14T10:14:56.000Z</time>
      </trkpt>
      <trkpt lat="47.48608" lon="6.77077">
        <ele>313</ele>
        <time>2015-06-14T10:14:57.000Z</time>
      </trkpt>
      <trkpt lat="47.48613" lon="6.7708">
        <ele>313</ele>
        <time>2015-06-14T10:14:58.000Z</time>
      </trkpt>
      <trkpt lat="47.48618" lon="6.77083">
        <ele>313</ele>
        <time>2015-06-14T10:14:59.000Z</time>
      </trkpt>
      <trkpt lat="47.48622" lon="6.77085">
        <ele>312</ele>
        <time>2015-06-14T10:15:00.000Z</time>
      </trkpt>
      <trkpt lat="47.48626" lon="6.77088">
        <ele>312</ele>
        <time>2015-06-14T10:15:01.000Z</time>
      </trkpt>
      <trkpt lat="47.48631" lon="6.77091">
        <ele>312</ele>
        <time>2015-06-14T10:15:02.000Z</time>
      </trkpt>
      <trkpt lat="47.48635" lon="6.77095">
        <ele>312</ele>
        <time>2015-06-14T10:15:03.000Z</time>
      </trkpt>
      <trkpt lat="47.4864" lon="6.77098">
        <ele>312</ele>
        <time>2015-06-14T10:15:04.000Z</time>
      </trkpt>
      <trkpt lat="47.48645" lon="6.77103">
        <ele>312</ele>
        <time>2015-06-14T10:15:05.000Z</time>
      </trkpt>
      <trkpt lat="47.4865" lon="6.7711">
        <ele>312</ele>
        <time>2015-06-14T10:15:06.000Z</time>
      </trkpt>
      <trkpt lat="47.48655" lon="6.77116">
        <ele>312</ele>
        <time>2015-06-14T10:15:07.000Z</time>
      </trkpt>
      <trkpt lat="47.4866" lon="6.7712">
        <ele>312</ele>
        <time>2015-06-14T10:15:08.000Z</time>
      </trkpt>
      <trkpt lat="47.48664" lon="6.77125">
        <ele>312</ele>
        <time>2015-06-14T10:15:09.000Z</time>
      </trkpt>
      <trkpt lat="47.48669" lon="6.7713">
        <ele>312</ele>
        <time>2015-06-14T10:15:10.000Z</time>
      </trkpt>
      <trkpt lat="47.48673" lon="6.77136">
        <ele>312</ele>
        <time>2015-06-14T10:15:11.000Z</time>
      </trkpt>
      <trkpt lat="47.48678" lon="6.77139">
        <ele>311</ele>
        <time>2015-06-14T10:15:12.000Z</time>
      </trkpt>
      <trkpt lat="47.48682" lon="6.77145">
        <ele>311</ele>
        <time>2015-06-14T10:15:13.000Z</time>
      </trkpt>
      <trkpt lat="47.48686" lon="6.7715">
        <ele>311</ele>
        <time>2015-06-14T10:15:14.000Z</time>
      </trkpt>
      <trkpt lat="47.48691" lon="6.77154">
        <ele>311</ele>
        <time>2015-06-14T10:15:15.000Z</time>
      </trkpt>
      <trkpt lat="47.48696" lon="6.77158">
        <ele>311</ele>
        <time>2015-06-14T10:15:16.000Z</time>
      </trkpt>
      <trkpt lat="47.487" lon="6.77163">
        <ele>311</ele>
        <time>2015-06-14T10:15:17.000Z</time>
      </trkpt>
      <trkpt lat="47.48705" lon="6.77167">
        <ele>311</ele>
        <time>2015-06-14T10:15:18.000Z</time>
      </trkpt>
      <trkpt lat="47.4871" lon="6.77171">
        <ele>311</ele>
        <time>2015-06-14T10:15:19.000Z</time>
      </trkpt>
      <trkpt lat="47.48714" lon="6.77174">
        <ele>311</ele>
        <time>2015-06-14T10:15:20.000Z</time>
      </trkpt>
      <trkpt lat="47.48719" lon="6.77178">
        <ele>310</ele>
        <time>2015-06-14T10:15:21.000Z</time>
      </trkpt>
      <trkpt lat="47.48724" lon="6.77182">
        <ele>310</ele>
        <time>2015-06-14T10:15:22.000Z</time>
      </trkpt>
      <trkpt lat="47.48728" lon="6.77185">
        <ele>310</ele>
        <time>2015-06-14T10:15:23.000Z</time>
      </trkpt>
      <trkpt lat="47.48733" lon="6.77189">
        <ele>310</ele>
        <time>2015-06-14T10:15:24.000Z</time>
      </trkpt>
      <trkpt lat="47.48738" lon="6.77192">
        <ele>310</ele>
        <time>2015-06-14T10:15:25.000Z</time>
      </trkpt>
      <trkpt lat="47.48743" lon="6.77196">
        <ele>310</ele>
        <time>2015-06-14T10:15:26.000Z</time>
      </trkpt>
      <trkpt lat="47.48747" lon="6.77199">
        <ele>310</ele>
        <time>2015-06-14T10:15:27.000Z</time>
      </trkpt>
      <trkpt lat="47.48752" lon="6.77203">
        <ele>310</ele>
        <time>2015-06-14T10:15:28.000Z</time>
      </trkpt>
      <trkpt lat="47.48757" lon="6.77207">
        <ele>310</ele>
        <time>2015-06-14T10:15:29.000Z</time>
      </trkpt>
      <trkpt lat="47.48762" lon="6.7721">
        <ele>310</ele>
        <time>2015-06-14T10:15:30.000Z</time>
      </trkpt>
      <trkpt lat="47.48767" lon="6.77214">
        <ele>310</ele>
        <time>2015-06-14T10:15:31.000Z</time>
      </trkpt>
      <trkpt lat="47.48772" lon="6.77217">
        <ele>310</ele>
        <time>2015-06-14T10:15:32.000Z</time>
      </trkpt>
      <trkpt lat="47.48776" lon="6.77222">
        <ele>310</ele>
        <time>2015-06-14T10:15:33.000Z</time>
      </trkpt>
      <trkpt lat="47.48781" lon="6.77225">
        <ele>310</ele>
        <time>2015-06-14T10:15:34.000Z</time>
      </trkpt>
      <trkpt lat="47.48786" lon="6.77229">
        <ele>310</ele>
        <time>2015-06-14T10:15:35.000Z</time>
      </trkpt>
      <trkpt lat="47.48791" lon="6.77233">
        <ele>310</ele>
        <time>2015-06-14T10:15:36.000Z</time>
      </trkpt>
      <trkpt lat="47.48796" lon="6.77238">
        <ele>310</ele>
        <time>2015-06-14T10:15:37.000Z</time>
      </trkpt>
      <trkpt lat="47.48801" lon="6.77241">
        <ele>310</ele>
        <time>2015-06-14T10:15:38.000Z</time>
      </trkpt>
      <trkpt lat="47.48805" lon="6.77245">
        <ele>311</ele>
        <time>2015-06-14T10:15:39.000Z</time>
      </trkpt>
      <trkpt lat="47.4881" lon="6.77248">
        <ele>311</ele>
        <time>2015-06-14T10:15:40.000Z</time>
      </trkpt>
      <trkpt lat="47.48815" lon="6.77252">
        <ele>310</ele>
        <time>2015-06-14T10:15:41.000Z</time>
      </trkpt>
      <trkpt lat="47.4882" lon="6.77256">
        <ele>310</ele>
        <time>2015-06-14T10:15:42.000Z</time>
      </trkpt>
      <trkpt lat="47.48825" lon="6.77258">
        <ele>310</ele>
        <time>2015-06-14T10:15:43.000Z</time>
      </trkpt>
      <trkpt lat="47.4883" lon="6.77261">
        <ele>310</ele>
        <time>2015-06-14T10:15:44.000Z</time>
      </trkpt>
      <trkpt lat="47.48834" lon="6.77265">
        <ele>310</ele>
        <time>2015-06-14T10:15:45.000Z</time>
      </trkpt>
      <trkpt lat="47.48839" lon="6.77268">
        <ele>310</ele>
        <time>2015-06-14T10:15:46.000Z</time>
      </trkpt>
      <trkpt lat="47.48844" lon="6.77271">
        <ele>310</ele>
        <time>2015-06-14T10:15:47.000Z</time>
      </trkpt>
      <trkpt lat="47.48849" lon="6.77274">
        <ele>310</ele>
        <time>2015-06-14T10:15:48.000Z</time>
      </trkpt>
      <trkpt lat="47.48854" lon="6.77275">
        <ele>310</ele>
        <time>2015-06-14T10:15:49.000Z</time>
      </trkpt>
      <trkpt lat="47.48859" lon="6.77278">
        <ele>310</ele>
        <time>2015-06-14T10:15:50.000Z</time>
      </trkpt>
      <trkpt lat="47.48864" lon="6.7728">
        <ele>310</ele>
        <time>2015-06-14T10:15:51.000Z</time>
      </trkpt>
      <trkpt lat="47.4887" lon="6.77282">
        <ele>310</ele>
        <time>2015-06-14T10:15:52.000Z</time>
      </trkpt>
      <trkpt lat="47.48876" lon="6.77285">
        <ele>310</ele>
        <time>2015-06-14T10:15:53.000Z</time>
      </trkpt>
      <trkpt lat="47.48881" lon="6.77286">
        <ele>310</ele>
        <time>2015-06-14T10:15:54.000Z</time>
      </trkpt>
      <trkpt lat="47.48886" lon="6.77288">
        <ele>310</ele>
        <time>2015-06-14T10:15:55.000Z</time>
      </trkpt>
      <trkpt lat="47.48892" lon="6.77289">
        <ele>310</ele>
        <time>2015-06-14T10:15:56.000Z</time>
      </trkpt>
      <trkpt lat="47.48897" lon="6.77289">
        <ele>310</ele>
        <time>2015-06-14T10:15:57.000Z</time>
      </trkpt>
      <trkpt lat="47.48901" lon="6.7729">
        <ele>310</ele>
        <time>2015-06-14T10:15:58.000Z</time>
      </trkpt>
      <trkpt lat="47.48906" lon="6.77292">
        <ele>310</ele>
        <time>2015-06-14T10:15:59.000Z</time>
      </trkpt>
      <trkpt lat="47.48909" lon="6.77295">
        <ele>310</ele>
        <time>2015-06-14T10:16:00.000Z</time>
      </trkpt>
      <trkpt lat="47.48913" lon="6.77297">
        <ele>310</ele>
        <time>2015-06-14T10:16:01.000Z</time>
      </trkpt>
      <trkpt lat="47.48917" lon="6.77298">
        <ele>311</ele>
        <time>2015-06-14T10:16:02.000Z</time>
      </trkpt>
      <trkpt lat="47.48921" lon="6.77299">
        <ele>311</ele>
        <time>2015-06-14T10:16:03.000Z</time>
      </trkpt>
      <trkpt lat="47.48924" lon="6.773">
        <ele>311</ele>
        <time>2015-06-14T10:16:04.000Z</time>
      </trkpt>
      <trkpt lat="47.48927" lon="6.77302">
        <ele>311</ele>
        <time>2015-06-14T10:16:05.000Z</time>
      </trkpt>
      <trkpt lat="47.4893" lon="6.77304">
        <ele>311</ele>
        <time>2015-06-14T10:16:06.000Z</time>
      </trkpt>
      <trkpt lat="47.48934" lon="6.77306">
        <ele>311</ele>
        <time>2015-06-14T10:16:07.000Z</time>
      </trkpt>
      <trkpt lat="47.48937" lon="6.77308">
        <ele>311</ele>
        <time>2015-06-14T10:16:08.000Z</time>
      </trkpt>
      <trkpt lat="47.4894" lon="6.77309">
        <ele>311</ele>
        <time>2015-06-14T10:16:09.000Z</time>
      </trkpt>
      <trkpt lat="47.48943" lon="6.77311">
        <ele>311</ele>
        <time>2015-06-14T10:16:10.000Z</time>
      </trkpt>
      <trkpt lat="47.48946" lon="6.77312">
        <ele>311</ele>
        <time>2015-06-14T10:16:11.000Z</time>
      </trkpt>
      <trkpt lat="47.48951" lon="6.77313">
        <ele>311</ele>
        <time>2015-06-14T10:16:13.000Z</time>
      </trkpt>
      <trkpt lat="47.48951" lon="6.77312">
        <ele>311</ele>
        <time>2015-06-14T10:16:14.000Z</time>
      </trkpt>
      <trkpt lat="47.48955" lon="6.77313">
        <ele>311</ele>
        <time>2015-06-14T10:16:21.000Z</time>
      </trkpt>
      <trkpt lat="47.48958" lon="6.77315">
        <ele>311</ele>
        <time>2015-06-14T10:16:22.000Z</time>
      </trkpt>
      <trkpt lat="47.48962" lon="6.77316">
        <ele>311</ele>
        <time>2015-06-14T10:16:23.000Z</time>
      </trkpt>
      <trkpt lat="47.48966" lon="6.77317">
        <ele>311</ele>
        <time>2015-06-14T10:16:24.000Z</time>
      </trkpt>
      <trkpt lat="47.4897" lon="6.77318">
        <ele>311</ele>
        <time>2015-06-14T10:16:25.000Z</time>
      </trkpt>
      <trkpt lat="47.48974" lon="6.77318">
        <ele>311</ele>
        <time>2015-06-14T10:16:26.000Z</time>
      </trkpt>
      <trkpt lat="47.48978" lon="6.77319">
        <ele>311</ele>
        <time>2015-06-14T10:16:27.000Z</time>
      </trkpt>
      <trkpt lat="47.48982" lon="6.77319">
        <ele>311</ele>
        <time>2015-06-14T10:16:28.000Z</time>
      </trkpt>
      <trkpt lat="47.48985" lon="6.7732">
        <ele>311</ele>
        <time>2015-06-14T10:16:29.000Z</time>
      </trkpt>
      <trkpt lat="47.48989" lon="6.7732">
        <ele>311</ele>
        <time>2015-06-14T10:16:30.000Z</time>
      </trkpt>
      <trkpt lat="47.48992" lon="6.7732">
        <ele>311</ele>
        <time>2015-06-14T10:16:31.000Z</time>
      </trkpt>
      <trkpt lat="47.48995" lon="6.77321">
        <ele>311</ele>
        <time>2015-06-14T10:16:32.000Z</time>
      </trkpt>
      <trkpt lat="47.48998" lon="6.77321">
        <ele>311</ele>
        <time>2015-06-14T10:16:33.000Z</time>
      </trkpt>
      <trkpt lat="47.49001" lon="6.77321">
        <ele>311</ele>
        <time>2015-06-14T10:16:34.000Z</time>
      </trkpt>
      <trkpt lat="47.49004" lon="6.77321">
        <ele>311</ele>
        <time>2015-06-14T10:16:35.000Z</time>
      </trkpt>
      <trkpt lat="47.49006" lon="6.77321">
        <ele>311</ele>
        <time>2015-06-14T10:16:36.000Z</time>
      </trkpt>
      <trkpt lat="47.4901" lon="6.77321">
        <ele>311</ele>
        <time>2015-06-14T10:16:38.000Z</time>
      </trkpt>
      <trkpt lat="47.49012" lon="6.7732">
        <ele>311</ele>
        <time>2015-06-14T10:16:39.000Z</time>
      </trkpt>
      <trkpt lat="47.49016" lon="6.77317">
        <ele>311</ele>
        <time>2015-06-14T10:17:22.000Z</time>
      </trkpt>
      <trkpt lat="47.49017" lon="6.77317">
        <ele>311</ele>
        <time>2015-06-14T10:17:23.000Z</time>
      </trkpt>
      <trkpt lat="47.49018" lon="6.77323">
        <ele>311</ele>
        <time>2015-06-14T10:22:23.000Z</time>
      </trkpt>
      <trkpt lat="47.49018" lon="6.77324">
        <ele>311</ele>
        <time>2015-06-14T10:22:24.000Z</time>
      </trkpt>
      <trkpt lat="47.49021" lon="6.77324">
        <ele>311</ele>
        <time>2015-06-14T10:26:12.000Z</time>
      </trkpt>
      <trkpt lat="47.49023" lon="6.77324">
        <ele>311</ele>
        <time>2015-06-14T10:26:13.000Z</time>
      </trkpt>
      <trkpt lat="47.49025" lon="6.77324">
        <ele>311</ele>
        <time>2015-06-14T10:26:14.000Z</time>
      </trkpt>
      <trkpt lat="47.49027" lon="6.77324">
        <ele>311</ele>
        <time>2015-06-14T10:26:15.000Z</time>
      </trkpt>
      <trkpt lat="47.4903" lon="6.77324">
        <ele>311</ele>
        <time>2015-06-14T10:26:16.000Z</time>
      </trkpt>
      <trkpt lat="47.49032" lon="6.77324">
        <ele>311</ele>
        <time>2015-06-14T10:26:17.000Z</time>
      </trkpt>
      <trkpt lat="47.49035" lon="6.77324">
        <ele>311</ele>
        <time>2015-06-14T10:26:18.000Z</time>
      </trkpt>
      <trkpt lat="47.49037" lon="6.77325">
        <ele>311</ele>
        <time>2015-06-14T10:26:19.000Z</time>
      </trkpt>
      <trkpt lat="47.4904" lon="6.77325">
        <ele>311</ele>
        <time>2015-06-14T10:26:20.000Z</time>
      </trkpt>
      <trkpt lat="47.49042" lon="6.77325">
        <ele>311</ele>
        <time>2015-06-14T10:26:21.000Z</time>
      </trkpt>
      <trkpt lat="47.49044" lon="6.77326">
        <ele>311</ele>
        <time>2015-06-14T10:26:22.000Z</time>
      </trkpt>
      <trkpt lat="47.49046" lon="6.77326">
        <ele>311</ele>
        <time>2015-06-14T10:26:23.000Z</time>
      </trkpt>
      <trkpt lat="47.49049" lon="6.77327">
        <ele>311</ele>
        <time>2015-06-14T10:26:24.000Z</time>
      </trkpt>
      <trkpt lat="47.49052" lon="6.77327">
        <ele>311</ele>
        <time>2015-06-14T10:26:25.000Z</time>
      </trkpt>
      <trkpt lat="47.49055" lon="6.77328">
        <ele>311</ele>
        <time>2015-06-14T10:26:26.000Z</time>
      </trkpt>
      <trkpt lat="47.49058" lon="6.77328">
        <ele>311</ele>
        <time>2015-06-14T10:26:27.000Z</time>
      </trkpt>
      <trkpt lat="47.49061" lon="6.77329">
        <ele>311</ele>
        <time>2015-06-14T10:26:28.000Z</time>
      </trkpt>
      <trkpt lat="47.49065" lon="6.7733">
        <ele>311</ele>
        <time>2015-06-14T10:26:29.000Z</time>
      </trkpt>
      <trkpt lat="47.49069" lon="6.7733">
        <ele>311</ele>
        <time>2015-06-14T10:26:30.000Z</time>
      </trkpt>
      <trkpt lat="47.49072" lon="6.77331">
        <ele>311</ele>
        <time>2015-06-14T10:26:31.000Z</time>
      </trkpt>
      <trkpt lat="47.49076" lon="6.77331">
        <ele>311</ele>
        <time>2015-06-14T10:26:32.000Z</time>
      </trkpt>
      <trkpt lat="47.4908" lon="6.77331">
        <ele>311</ele>
        <time>2015-06-14T10:26:33.000Z</time>
      </trkpt>
      <trkpt lat="47.49084" lon="6.77331">
        <ele>311</ele>
        <time>2015-06-14T10:26:34.000Z</time>
      </trkpt>
      <trkpt lat="47.49087" lon="6.77331">
        <ele>311</ele>
        <time>2015-06-14T10:26:35.000Z</time>
      </trkpt>
      <trkpt lat="47.49091" lon="6.77331">
        <ele>311</ele>
        <time>2015-06-14T10:26:36.000Z</time>
      </trkpt>
      <trkpt lat="47.49096" lon="6.77331">
        <ele>311</ele>
        <time>2015-06-14T10:26:37.000Z</time>
      </trkpt>
      <trkpt lat="47.491" lon="6.77331">
        <ele>311</ele>
        <time>2015-06-14T10:26:38.000Z</time>
      </trkpt>
      <trkpt lat="47.49104" lon="6.77331">
        <ele>311</ele>
        <time>2015-06-14T10:26:39.000Z</time>
      </trkpt>
      <trkpt lat="47.49108" lon="6.77331">
        <ele>311</ele>
        <time>2015-06-14T10:26:40.000Z</time>
      </trkpt>
      <trkpt lat="47.49112" lon="6.77331">
        <ele>311</ele>
        <time>2015-06-14T10:26:41.000Z</time>
      </trkpt>
      <trkpt lat="47.49116" lon="6.77332">
        <ele>311</ele>
        <time>2015-06-14T10:26:42.000Z</time>
      </trkpt>
      <trkpt lat="47.4912" lon="6.77332">
        <ele>311</ele>
        <time>2015-06-14T10:26:43.000Z</time>
      </trkpt>
      <trkpt lat="47.49123" lon="6.77333">
        <ele>311</ele>
        <time>2015-06-14T10:26:44.000Z</time>
      </trkpt>
      <trkpt lat="47.49127" lon="6.77333">
        <ele>311</ele>
        <time>2015-06-14T10:26:45.000Z</time>
      </trkpt>
      <trkpt lat="47.49131" lon="6.77334">
        <ele>310</ele>
        <time>2015-06-14T10:26:46.000Z</time>
      </trkpt>
      <trkpt lat="47.49135" lon="6.77334">
        <ele>310</ele>
        <time>2015-06-14T10:26:47.000Z</time>
      </trkpt>
      <trkpt lat="47.49139" lon="6.77334">
        <ele>310</ele>
        <time>2015-06-14T10:26:48.000Z</time>
      </trkpt>
      <trkpt lat="47.49142" lon="6.77334">
        <ele>310</ele>
        <time>2015-06-14T10:26:49.000Z</time>
      </trkpt>
      <trkpt lat="47.49146" lon="6.77334">
        <ele>310</ele>
        <time>2015-06-14T10:26:50.000Z</time>
      </trkpt>
      <trkpt lat="47.4915" lon="6.77335">
        <ele>310</ele>
        <time>2015-06-14T10:26:51.000Z</time>
      </trkpt>
      <trkpt lat="47.49154" lon="6.77335">
        <ele>310</ele>
        <time>2015-06-14T10:26:52.000Z</time>
      </trkpt>
      <trkpt lat="47.49157" lon="6.77335">
        <ele>310</ele>
        <time>2015-06-14T10:26:53.000Z</time>
      </trkpt>
      <trkpt lat="47.49161" lon="6.77335">
        <ele>310</ele>
        <time>2015-06-14T10:26:54.000Z</time>
      </trkpt>
      <trkpt lat="47.49165" lon="6.77336">
        <ele>310</ele>
        <time>2015-06-14T10:26:55.000Z</time>
      </trkpt>
      <trkpt lat="47.49168" lon="6.77336">
        <ele>310</ele>
        <time>2015-06-14T10:26:56.000Z</time>
      </trkpt>
      <trkpt lat="47.49171" lon="6.77336">
        <ele>310</ele>
        <time>2015-06-14T10:26:57.000Z</time>
      </trkpt>
      <trkpt lat="47.49174" lon="6.77336">
        <ele>310</ele>
        <time>2015-06-14T10:26:58.000Z</time>
      </trkpt>
      <trkpt lat="47.49177" lon="6.77336">
        <ele>310</ele>
        <time>2015-06-14T10:26:59.000Z</time>
      </trkpt>
      <trkpt lat="47.4918" lon="6.77336">
        <ele>310</ele>
        <time>2015-06-14T10:27:00.000Z</time>
      </trkpt>
      <trkpt lat="47.49182" lon="6.77336">
        <ele>310</ele>
        <time>2015-06-14T10:27:01.000Z</time>
      </trkpt>
      <trkpt lat="47.49185" lon="6.77336">
        <ele>310</ele>
        <time>2015-06-14T10:27:19.000Z</time>
      </trkpt>
      <trkpt lat="47.49187" lon="6.77336">
        <ele>310</ele>
        <time>2015-06-14T10:27:20.000Z</time>
      </trkpt>
      <trkpt lat="47.4919" lon="6.77334">
        <ele>309</ele>
        <time>2015-06-14T10:27:22.000Z</time>
      </trkpt>
      <trkpt lat="47.4919" lon="6.77331">
        <ele>310</ele>
        <time>2015-06-14T10:27:23.000Z</time>
      </trkpt>
      <trkpt lat="47.49189" lon="6.77327">
        <ele>310</ele>
        <time>2015-06-14T10:27:24.000Z</time>
      </trkpt>
      <trkpt lat="47.49188" lon="6.77321">
        <ele>310</ele>
        <time>2015-06-14T10:27:25.000Z</time>
      </trkpt>
      <trkpt lat="47.49186" lon="6.77315">
        <ele>311</ele>
        <time>2015-06-14T10:27:26.000Z</time>
      </trkpt>
      <trkpt lat="47.49185" lon="6.77309">
        <ele>311</ele>
        <time>2015-06-14T10:27:27.000Z</time>
      </trkpt>
      <trkpt lat="47.49185" lon="6.77302">
        <ele>311</ele>
        <time>2015-06-14T10:27:28.000Z</time>
      </trkpt>
      <trkpt lat="47.49185" lon="6.77295">
        <ele>311</ele>
        <time>2015-06-14T10:27:29.000Z</time>
      </trkpt>
      <trkpt lat="47.49185" lon="6.77289">
        <ele>311</ele>
        <time>2015-06-14T10:27:30.000Z</time>
      </trkpt>
      <trkpt lat="47.49186" lon="6.77283">
        <ele>311</ele>
        <time>2015-06-14T10:27:31.000Z</time>
      </trkpt>
      <trkpt lat="47.49186" lon="6.77277">
        <ele>311</ele>
        <time>2015-06-14T10:27:32.000Z</time>
      </trkpt>
      <trkpt lat="47.49187" lon="6.77272">
        <ele>311</ele>
        <time>2015-06-14T10:27:33.000Z</time>
      </trkpt>
      <trkpt lat="47.49187" lon="6.77266">
        <ele>311</ele>
        <time>2015-06-14T10:27:34.000Z</time>
      </trkpt>
      <trkpt lat="47.49188" lon="6.7726">
        <ele>311</ele>
        <time>2015-06-14T10:27:35.000Z</time>
      </trkpt>
      <trkpt lat="47.49188" lon="6.77255">
        <ele>311</ele>
        <time>2015-06-14T10:27:36.000Z</time>
      </trkpt>
      <trkpt lat="47.49189" lon="6.77249">
        <ele>312</ele>
        <time>2015-06-14T10:27:37.000Z</time>
      </trkpt>
      <trkpt lat="47.4919" lon="6.77245">
        <ele>312</ele>
        <time>2015-06-14T10:27:38.000Z</time>
      </trkpt>
      <trkpt lat="47.4919" lon="6.7724">
        <ele>312</ele>
        <time>2015-06-14T10:27:39.000Z</time>
      </trkpt>
      <trkpt lat="47.49189" lon="6.77236">
        <ele>312</ele>
        <time>2015-06-14T10:27:40.000Z</time>
      </trkpt>
      <trkpt lat="47.49188" lon="6.77232">
        <ele>312</ele>
        <time>2015-06-14T10:27:41.000Z</time>
      </trkpt>
      <trkpt lat="47.49187" lon="6.77227">
        <ele>312</ele>
        <time>2015-06-14T10:27:42.000Z</time>
      </trkpt>
      <trkpt lat="47.49186" lon="6.77223">
        <ele>312</ele>
        <time>2015-06-14T10:27:43.000Z</time>
      </trkpt>
      <trkpt lat="47.49186" lon="6.77217">
        <ele>312</ele>
        <time>2015-06-14T10:27:44.000Z</time>
      </trkpt>
      <trkpt lat="47.49186" lon="6.77212">
        <ele>312</ele>
        <time>2015-06-14T10:27:45.000Z</time>
      </trkpt>
      <trkpt lat="47.49186" lon="6.77206">
        <ele>312</ele>
        <time>2015-06-14T10:27:46.000Z</time>
      </trkpt>
      <trkpt lat="47.49187" lon="6.77201">
        <ele>312</ele>
        <time>2015-06-14T10:27:47.000Z</time>
      </trkpt>
      <trkpt lat="47.49187" lon="6.77196">
        <ele>312</ele>
        <time>2015-06-14T10:27:48.000Z</time>
      </trkpt>
      <trkpt lat="47.49187" lon="6.77191">
        <ele>312</ele>
        <time>2015-06-14T10:27:49.000Z</time>
      </trkpt>
      <trkpt lat="47.49187" lon="6.77186">
        <ele>313</ele>
        <time>2015-06-14T10:27:50.000Z</time>
      </trkpt>
      <trkpt lat="47.49187" lon="6.77181">
        <ele>313</ele>
        <time>2015-06-14T10:27:51.000Z</time>
      </trkpt>
      <trkpt lat="47.49187" lon="6.77176">
        <ele>313</ele>
        <time>2015-06-14T10:27:52.000Z</time>
      </trkpt>
      <trkpt lat="47.49187" lon="6.77171">
        <ele>313</ele>
        <time>2015-06-14T10:27:53.000Z</time>
      </trkpt>
      <trkpt lat="47.49187" lon="6.77166">
        <ele>313</ele>
        <time>2015-06-14T10:27:54.000Z</time>
      </trkpt>
      <trkpt lat="47.49187" lon="6.77162">
        <ele>313</ele>
        <time>2015-06-14T10:27:55.000Z</time>
      </trkpt>
      <trkpt lat="47.49186" lon="6.77157">
        <ele>313</ele>
        <time>2015-06-14T10:27:56.000Z</time>
      </trkpt>
      <trkpt lat="47.49186" lon="6.77153">
        <ele>313</ele>
        <time>2015-06-14T10:27:57.000Z</time>
      </trkpt>
      <trkpt lat="47.49186" lon="6.77149">
        <ele>313</ele>
        <time>2015-06-14T10:27:58.000Z</time>
      </trkpt>
      <trkpt lat="47.49186" lon="6.77145">
        <ele>313</ele>
        <time>2015-06-14T10:27:59.000Z</time>
      </trkpt>
      <trkpt lat="47.49187" lon="6.77139">
        <ele>313</ele>
        <time>2015-06-14T10:28:01.000Z</time>
      </trkpt>
      <trkpt lat="47.49188" lon="6.77136">
        <ele>313</ele>
        <time>2015-06-14T10:28:02.000Z</time>
      </trkpt>
      <trkpt lat="47.49189" lon="6.77133">
        <ele>313</ele>
        <time>2015-06-14T10:28:03.000Z</time>
      </trkpt>
      <trkpt lat="47.49189" lon="6.77129">
        <ele>313</ele>
        <time>2015-06-14T10:28:04.000Z</time>
      </trkpt>
      <trkpt lat="47.49189" lon="6.77124">
        <ele>313</ele>
        <time>2015-06-14T10:28:05.000Z</time>
      </trkpt>
      <trkpt lat="47.49187" lon="6.77119">
        <ele>313</ele>
        <time>2015-06-14T10:28:06.000Z</time>
      </trkpt>
      <trkpt lat="47.49185" lon="6.77114">
        <ele>313</ele>
        <time>2015-06-14T10:28:07.000Z</time>
      </trkpt>
      <trkpt lat="47.49183" lon="6.77109">
        <ele>313</ele>
        <time>2015-06-14T10:28:08.000Z</time>
      </trkpt>
      <trkpt lat="47.49182" lon="6.77104">
        <ele>313</ele>
        <time>2015-06-14T10:28:09.000Z</time>
      </trkpt>
      <trkpt lat="47.4918" lon="6.77098">
        <ele>312</ele>
        <time>2015-06-14T10:28:10.000Z</time>
      </trkpt>
      <trkpt lat="47.4918" lon="6.77093">
        <ele>312</ele>
        <time>2015-06-14T10:28:11.000Z</time>
      </trkpt>
      <trkpt lat="47.49179" lon="6.77087">
        <ele>312</ele>
        <time>2015-06-14T10:28:12.000Z</time>
      </trkpt>
      <trkpt lat="47.49178" lon="6.77082">
        <ele>312</ele>
        <time>2015-06-14T10:28:13.000Z</time>
      </trkpt>
      <trkpt lat="47.49176" lon="6.77076">
        <ele>312</ele>
        <time>2015-06-14T10:28:14.000Z</time>
      </trkpt>
      <trkpt lat="47.49174" lon="6.77071">
        <ele>312</ele>
        <time>2015-06-14T10:28:15.000Z</time>
      </trkpt>
      <trkpt lat="47.49173" lon="6.77066">
        <ele>313</ele>
        <time>2015-06-14T10:28:16.000Z</time>
      </trkpt>
      <trkpt lat="47.49172" lon="6.7706">
        <ele>313</ele>
        <time>2015-06-14T10:28:17.000Z</time>
      </trkpt>
      <trkpt lat="47.4917" lon="6.77054">
        <ele>313</ele>
        <time>2015-06-14T10:28:18.000Z</time>
      </trkpt>
      <trkpt lat="47.4917" lon="6.77048">
        <ele>313</ele>
        <time>2015-06-14T10:28:19.000Z</time>
      </trkpt>
      <trkpt lat="47.49169" lon="6.77043">
        <ele>313</ele>
        <time>2015-06-14T10:28:20.000Z</time>
      </trkpt>
      <trkpt lat="47.49169" lon="6.77038">
        <ele>313</ele>
        <time>2015-06-14T10:28:21.000Z</time>
      </trkpt>
      <trkpt lat="47.49168" lon="6.77033">
        <ele>313</ele>
        <time>2015-06-14T10:28:22.000Z</time>
      </trkpt>
      <trkpt lat="47.49168" lon="6.77028">
        <ele>313</ele>
        <time>2015-06-14T10:28:23.000Z</time>
      </trkpt>
      <trkpt lat="47.49167" lon="6.77022">
        <ele>313</ele>
        <time>2015-06-14T10:28:24.000Z</time>
      </trkpt>
      <trkpt lat="47.49166" lon="6.77017">
        <ele>312</ele>
        <time>2015-06-14T10:28:25.000Z</time>
      </trkpt>
      <trkpt lat="47.49164" lon="6.77012">
        <ele>312</ele>
        <time>2015-06-14T10:28:26.000Z</time>
      </trkpt>
      <trkpt lat="47.49162" lon="6.77007">
        <ele>312</ele>
        <time>2015-06-14T10:28:27.000Z</time>
      </trkpt>
      <trkpt lat="47.4916" lon="6.77003">
        <ele>312</ele>
        <time>2015-06-14T10:28:28.000Z</time>
      </trkpt>
      <trkpt lat="47.49157" lon="6.76998">
        <ele>312</ele>
        <time>2015-06-14T10:28:29.000Z</time>
      </trkpt>
      <trkpt lat="47.49155" lon="6.76994">
        <ele>312</ele>
        <time>2015-06-14T10:28:30.000Z</time>
      </trkpt>
      <trkpt lat="47.49152" lon="6.7699">
        <ele>312</ele>
        <time>2015-06-14T10:28:31.000Z</time>
      </trkpt>
      <trkpt lat="47.4915" lon="6.76985">
        <ele>312</ele>
        <time>2015-06-14T10:28:32.000Z</time>
      </trkpt>
      <trkpt lat="47.49148" lon="6.7698">
        <ele>312</ele>
        <time>2015-06-14T10:28:33.000Z</time>
      </trkpt>
      <trkpt lat="47.49147" lon="6.76975">
        <ele>312</ele>
        <time>2015-06-14T10:28:34.000Z</time>
      </trkpt>
      <trkpt lat="47.49146" lon="6.7697">
        <ele>312</ele>
        <time>2015-06-14T10:28:35.000Z</time>
      </trkpt>
      <trkpt lat="47.49146" lon="6.76965">
        <ele>312</ele>
        <time>2015-06-14T10:28:36.000Z</time>
      </trkpt>
      <trkpt lat="47.49147" lon="6.7696">
        <ele>312</ele>
        <time>2015-06-14T10:28:37.000Z</time>
      </trkpt>
      <trkpt lat="47.49148" lon="6.76956">
        <ele>312</ele>
        <time>2015-06-14T10:28:38.000Z</time>
      </trkpt>
      <trkpt lat="47.49149" lon="6.76951">
        <ele>312</ele>
        <time>2015-06-14T10:28:39.000Z</time>
      </trkpt>
      <trkpt lat="47.49149" lon="6.76945">
        <ele>312</ele>
        <time>2015-06-14T10:28:40.000Z</time>
      </trkpt>
      <trkpt lat="47.4915" lon="6.76939">
        <ele>312</ele>
        <time>2015-06-14T10:28:41.000Z</time>
      </trkpt>
      <trkpt lat="47.49151" lon="6.76933">
        <ele>312</ele>
        <time>2015-06-14T10:28:42.000Z</time>
      </trkpt>
      <trkpt lat="47.49152" lon="6.76927">
        <ele>312</ele>
        <time>2015-06-14T10:28:43.000Z</time>
      </trkpt>
      <trkpt lat="47.49153" lon="6.7692">
        <ele>312</ele>
        <time>2015-06-14T10:28:44.000Z</time>
      </trkpt>
      <trkpt lat="47.49154" lon="6.76914">
        <ele>313</ele>
        <time>2015-06-14T10:28:45.000Z</time>
      </trkpt>
      <trkpt lat="47.49155" lon="6.76907">
        <ele>313</ele>
        <time>2015-06-14T10:28:46.000Z</time>
      </trkpt>
      <trkpt lat="47.49156" lon="6.76901">
        <ele>312</ele>
        <time>2015-06-14T10:28:47.000Z</time>
      </trkpt>
      <trkpt lat="47.49156" lon="6.76894">
        <ele>312</ele>
        <time>2015-06-14T10:28:48.000Z</time>
      </trkpt>
      <trkpt lat="47.49157" lon="6.76888">
        <ele>312</ele>
        <time>2015-06-14T10:28:49.000Z</time>
      </trkpt>
      <trkpt lat="47.49157" lon="6.76877">
        <ele>312</ele>
        <time>2015-06-14T10:28:50.000Z</time>
      </trkpt>
      <trkpt lat="47.49156" lon="6.76871">
        <ele>312</ele>
        <time>2015-06-14T10:28:51.000Z</time>
      </trkpt>
      <trkpt lat="47.49156" lon="6.76864">
        <ele>312</ele>
        <time>2015-06-14T10:28:52.000Z</time>
      </trkpt>
      <trkpt lat="47.49159" lon="6.76857">
        <ele>312</ele>
        <time>2015-06-14T10:28:53.000Z</time>
      </trkpt>
      <trkpt lat="47.4916" lon="6.76851">
        <ele>313</ele>
        <time>2015-06-14T10:28:54.000Z</time>
      </trkpt>
      <trkpt lat="47.4916" lon="6.76844">
        <ele>313</ele>
        <time>2015-06-14T10:28:55.000Z</time>
      </trkpt>
      <trkpt lat="47.49161" lon="6.76838">
        <ele>313</ele>
        <time>2015-06-14T10:28:56.000Z</time>
      </trkpt>
      <trkpt lat="47.49161" lon="6.76832">
        <ele>313</ele>
        <time>2015-06-14T10:28:57.000Z</time>
      </trkpt>
      <trkpt lat="47.49158" lon="6.76827">
        <ele>313</ele>
        <time>2015-06-14T10:28:58.000Z</time>
      </trkpt>
      <trkpt lat="47.49157" lon="6.76822">
        <ele>313</ele>
        <time>2015-06-14T10:28:59.000Z</time>
      </trkpt>
      <trkpt lat="47.49157" lon="6.76817">
        <ele>313</ele>
        <time>2015-06-14T10:29:00.000Z</time>
      </trkpt>
      <trkpt lat="47.49158" lon="6.76812">
        <ele>313</ele>
        <time>2015-06-14T10:29:01.000Z</time>
      </trkpt>
      <trkpt lat="47.49159" lon="6.76807">
        <ele>313</ele>
        <time>2015-06-14T10:29:02.000Z</time>
      </trkpt>
      <trkpt lat="47.49159" lon="6.76801">
        <ele>313</ele>
        <time>2015-06-14T10:29:03.000Z</time>
      </trkpt>
      <trkpt lat="47.49159" lon="6.76795">
        <ele>313</ele>
        <time>2015-06-14T10:29:04.000Z</time>
      </trkpt>
      <trkpt lat="47.49159" lon="6.76789">
        <ele>313</ele>
        <time>2015-06-14T10:29:05.000Z</time>
      </trkpt>
      <trkpt lat="47.49159" lon="6.76783">
        <ele>313</ele>
        <time>2015-06-14T10:29:06.000Z</time>
      </trkpt>
      <trkpt lat="47.49158" lon="6.76777">
        <ele>313</ele>
        <time>2015-06-14T10:29:07.000Z</time>
      </trkpt>
      <trkpt lat="47.49158" lon="6.76771">
        <ele>313</ele>
        <time>2015-06-14T10:29:08.000Z</time>
      </trkpt>
      <trkpt lat="47.49157" lon="6.76765">
        <ele>313</ele>
        <time>2015-06-14T10:29:09.000Z</time>
      </trkpt>
      <trkpt lat="47.49155" lon="6.76759">
        <ele>313</ele>
        <time>2015-06-14T10:29:10.000Z</time>
      </trkpt>
      <trkpt lat="47.49154" lon="6.76753">
        <ele>313</ele>
        <time>2015-06-14T10:29:11.000Z</time>
      </trkpt>
      <trkpt lat="47.49153" lon="6.76746">
        <ele>313</ele>
        <time>2015-06-14T10:29:12.000Z</time>
      </trkpt>
      <trkpt lat="47.49152" lon="6.7674">
        <ele>313</ele>
        <time>2015-06-14T10:29:13.000Z</time>
      </trkpt>
      <trkpt lat="47.49152" lon="6.76733">
        <ele>313</ele>
        <time>2015-06-14T10:29:14.000Z</time>
      </trkpt>
      <trkpt lat="47.49151" lon="6.76727">
        <ele>313</ele>
        <time>2015-06-14T10:29:15.000Z</time>
      </trkpt>
      <trkpt lat="47.4915" lon="6.76721">
        <ele>313</ele>
        <time>2015-06-14T10:29:16.000Z</time>
      </trkpt>
      <trkpt lat="47.4915" lon="6.76712">
        <ele>313</ele>
        <time>2015-06-14T10:29:17.000Z</time>
      </trkpt>
      <trkpt lat="47.4915" lon="6.76706">
        <ele>313</ele>
        <time>2015-06-14T10:29:18.000Z</time>
      </trkpt>
      <trkpt lat="47.49148" lon="6.76699">
        <ele>313</ele>
        <time>2015-06-14T10:29:19.000Z</time>
      </trkpt>
      <trkpt lat="47.49147" lon="6.76693">
        <ele>313</ele>
        <time>2015-06-14T10:29:20.000Z</time>
      </trkpt>
      <trkpt lat="47.49145" lon="6.76687">
        <ele>314</ele>
        <time>2015-06-14T10:29:21.000Z</time>
      </trkpt>
      <trkpt lat="47.49145" lon="6.76679">
        <ele>314</ele>
        <time>2015-06-14T10:29:22.000Z</time>
      </trkpt>
      <trkpt lat="47.49144" lon="6.76673">
        <ele>314</ele>
        <time>2015-06-14T10:29:23.000Z</time>
      </trkpt>
      <trkpt lat="47.49143" lon="6.76667">
        <ele>314</ele>
        <time>2015-06-14T10:29:24.000Z</time>
      </trkpt>
      <trkpt lat="47.49141" lon="6.7666">
        <ele>314</ele>
        <time>2015-06-14T10:29:25.000Z</time>
      </trkpt>
      <trkpt lat="47.49142" lon="6.76654">
        <ele>314</ele>
        <time>2015-06-14T10:29:26.000Z</time>
      </trkpt>
      <trkpt lat="47.49141" lon="6.76647">
        <ele>314</ele>
        <time>2015-06-14T10:29:27.000Z</time>
      </trkpt>
      <trkpt lat="47.4914" lon="6.7664">
        <ele>314</ele>
        <time>2015-06-14T10:29:28.000Z</time>
      </trkpt>
      <trkpt lat="47.4914" lon="6.76633">
        <ele>314</ele>
        <time>2015-06-14T10:29:29.000Z</time>
      </trkpt>
      <trkpt lat="47.49138" lon="6.76627">
        <ele>314</ele>
        <time>2015-06-14T10:29:30.000Z</time>
      </trkpt>
      <trkpt lat="47.49137" lon="6.7662">
        <ele>314</ele>
        <time>2015-06-14T10:29:31.000Z</time>
      </trkpt>
      <trkpt lat="47.49136" lon="6.76613">
        <ele>314</ele>
        <time>2015-06-14T10:29:32.000Z</time>
      </trkpt>
      <trkpt lat="47.49134" lon="6.76607">
        <ele>314</ele>
        <time>2015-06-14T10:29:33.000Z</time>
      </trkpt>
      <trkpt lat="47.49134" lon="6.766">
        <ele>314</ele>
        <time>2015-06-14T10:29:34.000Z</time>
      </trkpt>
      <trkpt lat="47.49134" lon="6.76594">
        <ele>314</ele>
        <time>2015-06-14T10:29:35.000Z</time>
      </trkpt>
      <trkpt lat="47.49135" lon="6.76587">
        <ele>314</ele>
        <time>2015-06-14T10:29:36.000Z</time>
      </trkpt>
      <trkpt lat="47.49134" lon="6.76581">
        <ele>315</ele>
        <time>2015-06-14T10:29:37.000Z</time>
      </trkpt>
      <trkpt lat="47.49133" lon="6.76574">
        <ele>315</ele>
        <time>2015-06-14T10:29:38.000Z</time>
      </trkpt>
      <trkpt lat="47.49132" lon="6.76567">
        <ele>315</ele>
        <time>2015-06-14T10:29:39.000Z</time>
      </trkpt>
      <trkpt lat="47.49132" lon="6.7656">
        <ele>315</ele>
        <time>2015-06-14T10:29:40.000Z</time>
      </trkpt>
      <trkpt lat="47.49131" lon="6.76554">
        <ele>315</ele>
        <time>2015-06-14T10:29:41.000Z</time>
      </trkpt>
      <trkpt lat="47.49131" lon="6.76547">
        <ele>315</ele>
        <time>2015-06-14T10:29:42.000Z</time>
      </trkpt>
      <trkpt lat="47.49131" lon="6.76541">
        <ele>316</ele>
        <time>2015-06-14T10:29:43.000Z</time>
      </trkpt>
      <trkpt lat="47.49132" lon="6.76535">
        <ele>316</ele>
        <time>2015-06-14T10:29:44.000Z</time>
      </trkpt>
      <trkpt lat="47.49133" lon="6.7653">
        <ele>316</ele>
        <time>2015-06-14T10:29:45.000Z</time>
      </trkpt>
      <trkpt lat="47.49136" lon="6.76525">
        <ele>315</ele>
        <time>2015-06-14T10:29:46.000Z</time>
      </trkpt>
      <trkpt lat="47.49139" lon="6.76522">
        <ele>315</ele>
        <time>2015-06-14T10:29:47.000Z</time>
      </trkpt>
      <trkpt lat="47.49141" lon="6.76522">
        <ele>315</ele>
        <time>2015-06-14T10:29:48.000Z</time>
      </trkpt>
      <trkpt lat="47.49144" lon="6.76522">
        <ele>315</ele>
        <time>2015-06-14T10:29:49.000Z</time>
      </trkpt>
      <trkpt lat="47.49148" lon="6.76521">
        <ele>315</ele>
        <time>2015-06-14T10:29:50.000Z</time>
      </trkpt>
      <trkpt lat="47.49151" lon="6.76522">
        <ele>315</ele>
        <time>2015-06-14T10:29:51.000Z</time>
      </trkpt>
      <trkpt lat="47.49155" lon="6.76521">
        <ele>315</ele>
        <time>2015-06-14T10:29:52.000Z</time>
      </trkpt>
      <trkpt lat="47.49159" lon="6.7652">
        <ele>314</ele>
        <time>2015-06-14T10:29:53.000Z</time>
      </trkpt>
      <trkpt lat="47.49162" lon="6.76517">
        <ele>314</ele>
        <time>2015-06-14T10:29:54.000Z</time>
      </trkpt>
      <trkpt lat="47.49165" lon="6.76515">
        <ele>314</ele>
        <time>2015-06-14T10:29:55.000Z</time>
      </trkpt>
      <trkpt lat="47.49168" lon="6.76512">
        <ele>314</ele>
        <time>2015-06-14T10:29:56.000Z</time>
      </trkpt>
      <trkpt lat="47.4917" lon="6.7651">
        <ele>314</ele>
        <time>2015-06-14T10:29:57.000Z</time>
      </trkpt>
      <trkpt lat="47.49173" lon="6.76508">
        <ele>314</ele>
        <time>2015-06-14T10:29:58.000Z</time>
      </trkpt>
      <trkpt lat="47.49176" lon="6.76505">
        <ele>314</ele>
        <time>2015-06-14T10:30:00.000Z</time>
      </trkpt>
      <trkpt lat="47.49177" lon="6.76503">
        <ele>314</ele>
        <time>2015-06-14T10:30:01.000Z</time>
      </trkpt>
      <trkpt lat="47.4918" lon="6.765">
        <ele>315</ele>
        <time>2015-06-14T10:30:03.000Z</time>
      </trkpt>
      <trkpt lat="47.49181" lon="6.76499">
        <ele>315</ele>
        <time>2015-06-14T10:30:04.000Z</time>
      </trkpt>
      <trkpt lat="47.49184" lon="6.76495">
        <ele>316</ele>
        <time>2015-06-14T10:30:07.000Z</time>
      </trkpt>
      <trkpt lat="47.49185" lon="6.76494">
        <ele>316</ele>
        <time>2015-06-14T10:30:08.000Z</time>
      </trkpt>
      <trkpt lat="47.49181" lon="6.76497">
        <ele>315</ele>
        <time>2015-06-14T10:31:45.000Z</time>
      </trkpt>
      <trkpt lat="47.4918" lon="6.76497">
        <ele>315</ele>
        <time>2015-06-14T10:31:46.000Z</time>
      </trkpt>
      <trkpt lat="47.49183" lon="6.76492">
        <ele>316</ele>
        <time>2015-06-14T10:34:08.000Z</time>
      </trkpt>
      <trkpt lat="47.49183" lon="6.76491">
        <ele>316</ele>
        <time>2015-06-14T10:34:09.000Z</time>
      </trkpt>
      <trkpt lat="47.49187" lon="6.76493">
        <ele>316</ele>
        <time>2015-06-14T10:35:03.000Z</time>
      </trkpt>
      <trkpt lat="47.4919" lon="6.76493">
        <ele>316</ele>
        <time>2015-06-14T10:35:04.000Z</time>
      </trkpt>
      <trkpt lat="47.49193" lon="6.76492">
        <ele>317</ele>
        <time>2015-06-14T10:35:05.000Z</time>
      </trkpt>
      <trkpt lat="47.49197" lon="6.76491">
        <ele>317</ele>
        <time>2015-06-14T10:35:06.000Z</time>
      </trkpt>
      <trkpt lat="47.492" lon="6.76489">
        <ele>317</ele>
        <time>2015-06-14T10:35:07.000Z</time>
      </trkpt>
      <trkpt lat="47.49204" lon="6.76488">
        <ele>317</ele>
        <time>2015-06-14T10:35:08.000Z</time>
      </trkpt>
      <trkpt lat="47.49207" lon="6.76488">
        <ele>318</ele>
        <time>2015-06-14T10:35:09.000Z</time>
      </trkpt>
      <trkpt lat="47.4921" lon="6.76488">
        <ele>318</ele>
        <time>2015-06-14T10:35:10.000Z</time>
      </trkpt>
      <trkpt lat="47.49213" lon="6.76488">
        <ele>318</ele>
        <time>2015-06-14T10:35:11.000Z</time>
      </trkpt>
      <trkpt lat="47.49216" lon="6.76489">
        <ele>318</ele>
        <time>2015-06-14T10:35:12.000Z</time>
      </trkpt>
      <trkpt lat="47.49219" lon="6.76489">
        <ele>319</ele>
        <time>2015-06-14T10:35:13.000Z</time>
      </trkpt>
      <trkpt lat="47.49222" lon="6.76488">
        <ele>319</ele>
        <time>2015-06-14T10:35:14.000Z</time>
      </trkpt>
      <trkpt lat="47.49226" lon="6.76488">
        <ele>319</ele>
        <time>2015-06-14T10:35:15.000Z</time>
      </trkpt>
      <trkpt lat="47.49229" lon="6.76487">
        <ele>319</ele>
        <time>2015-06-14T10:35:16.000Z</time>
      </trkpt>
      <trkpt lat="47.49232" lon="6.76486">
        <ele>320</ele>
        <time>2015-06-14T10:35:17.000Z</time>
      </trkpt>
      <trkpt lat="47.49234" lon="6.76486">
        <ele>320</ele>
        <time>2015-06-14T10:35:18.000Z</time>
      </trkpt>
      <trkpt lat="47.49237" lon="6.76487">
        <ele>320</ele>
        <time>2015-06-14T10:35:19.000Z</time>
      </trkpt>
      <trkpt lat="47.49239" lon="6.76487">
        <ele>320</ele>
        <time>2015-06-14T10:35:20.000Z</time>
      </trkpt>
      <trkpt lat="47.49242" lon="6.76489">
        <ele>320</ele>
        <time>2015-06-14T10:35:21.000Z</time>
      </trkpt>
      <trkpt lat="47.49243" lon="6.76492">
        <ele>321</ele>
        <time>2015-06-14T10:35:22.000Z</time>
      </trkpt>
      <trkpt lat="47.49244" lon="6.76496">
        <ele>321</ele>
        <time>2015-06-14T10:35:23.000Z</time>
      </trkpt>
      <trkpt lat="47.49243" lon="6.76501">
        <ele>321</ele>
        <time>2015-06-14T10:35:24.000Z</time>
      </trkpt>
      <trkpt lat="47.49242" lon="6.76506">
        <ele>320</ele>
        <time>2015-06-14T10:35:25.000Z</time>
      </trkpt>
      <trkpt lat="47.49241" lon="6.76512">
        <ele>320</ele>
        <time>2015-06-14T10:35:26.000Z</time>
      </trkpt>
      <trkpt lat="47.49241" lon="6.76518">
        <ele>319</ele>
        <time>2015-06-14T10:35:27.000Z</time>
      </trkpt>
      <trkpt lat="47.4924" lon="6.76524">
        <ele>319</ele>
        <time>2015-06-14T10:35:28.000Z</time>
      </trkpt>
      <trkpt lat="47.4924" lon="6.7653">
        <ele>319</ele>
        <time>2015-06-14T10:35:29.000Z</time>
      </trkpt>
      <trkpt lat="47.49239" lon="6.76536">
        <ele>319</ele>
        <time>2015-06-14T10:35:30.000Z</time>
      </trkpt>
      <trkpt lat="47.49239" lon="6.76542">
        <ele>318</ele>
        <time>2015-06-14T10:35:31.000Z</time>
      </trkpt>
      <trkpt lat="47.49239" lon="6.76548">
        <ele>318</ele>
        <time>2015-06-14T10:35:32.000Z</time>
      </trkpt>
      <trkpt lat="47.49238" lon="6.76553">
        <ele>318</ele>
        <time>2015-06-14T10:35:33.000Z</time>
      </trkpt>
      <trkpt lat="47.49238" lon="6.76558">
        <ele>319</ele>
        <time>2015-06-14T10:35:34.000Z</time>
      </trkpt>
      <trkpt lat="47.49237" lon="6.76562">
        <ele>319</ele>
        <time>2015-06-14T10:35:35.000Z</time>
      </trkpt>
      <trkpt lat="47.49237" lon="6.76567">
        <ele>319</ele>
        <time>2015-06-14T10:35:36.000Z</time>
      </trkpt>
      <trkpt lat="47.49236" lon="6.76571">
        <ele>319</ele>
        <time>2015-06-14T10:35:37.000Z</time>
      </trkpt>
      <trkpt lat="47.49236" lon="6.76576">
        <ele>319</ele>
        <time>2015-06-14T10:35:38.000Z</time>
      </trkpt>
      <trkpt lat="47.49236" lon="6.76581">
        <ele>319</ele>
        <time>2015-06-14T10:35:39.000Z</time>
      </trkpt>
      <trkpt lat="47.49236" lon="6.76586">
        <ele>319</ele>
        <time>2015-06-14T10:35:40.000Z</time>
      </trkpt>
      <trkpt lat="47.49235" lon="6.76592">
        <ele>319</ele>
        <time>2015-06-14T10:35:41.000Z</time>
      </trkpt>
      <trkpt lat="47.49235" lon="6.76597">
        <ele>318</ele>
        <time>2015-06-14T10:35:42.000Z</time>
      </trkpt>
      <trkpt lat="47.49235" lon="6.76603">
        <ele>318</ele>
        <time>2015-06-14T10:35:43.000Z</time>
      </trkpt>
      <trkpt lat="47.49234" lon="6.76608">
        <ele>318</ele>
        <time>2015-06-14T10:35:44.000Z</time>
      </trkpt>
      <trkpt lat="47.49233" lon="6.76613">
        <ele>318</ele>
        <time>2015-06-14T10:35:45.000Z</time>
      </trkpt>
      <trkpt lat="47.49232" lon="6.76618">
        <ele>318</ele>
        <time>2015-06-14T10:35:46.000Z</time>
      </trkpt>
      <trkpt lat="47.49232" lon="6.76622">
        <ele>317</ele>
        <time>2015-06-14T10:35:47.000Z</time>
      </trkpt>
      <trkpt lat="47.49231" lon="6.76627">
        <ele>317</ele>
        <time>2015-06-14T10:35:48.000Z</time>
      </trkpt>
      <trkpt lat="47.49231" lon="6.76631">
        <ele>317</ele>
        <time>2015-06-14T10:35:49.000Z</time>
      </trkpt>
      <trkpt lat="47.4923" lon="6.76635">
        <ele>317</ele>
        <time>2015-06-14T10:35:50.000Z</time>
      </trkpt>
      <trkpt lat="47.49229" lon="6.76639">
        <ele>317</ele>
        <time>2015-06-14T10:35:51.000Z</time>
      </trkpt>
      <trkpt lat="47.49228" lon="6.76643">
        <ele>317</ele>
        <time>2015-06-14T10:35:52.000Z</time>
      </trkpt>
      <trkpt lat="47.49227" lon="6.76646">
        <ele>317</ele>
        <time>2015-06-14T10:35:53.000Z</time>
      </trkpt>
      <trkpt lat="47.49226" lon="6.7665">
        <ele>317</ele>
        <time>2015-06-14T10:35:54.000Z</time>
      </trkpt>
      <trkpt lat="47.49226" lon="6.76655">
        <ele>317</ele>
        <time>2015-06-14T10:35:55.000Z</time>
      </trkpt>
      <trkpt lat="47.49227" lon="6.7666">
        <ele>317</ele>
        <time>2015-06-14T10:35:56.000Z</time>
      </trkpt>
      <trkpt lat="47.49227" lon="6.76665">
        <ele>317</ele>
        <time>2015-06-14T10:35:57.000Z</time>
      </trkpt>
      <trkpt lat="47.49227" lon="6.7667">
        <ele>317</ele>
        <time>2015-06-14T10:35:58.000Z</time>
      </trkpt>
      <trkpt lat="47.49227" lon="6.76674">
        <ele>317</ele>
        <time>2015-06-14T10:35:59.000Z</time>
      </trkpt>
      <trkpt lat="47.49227" lon="6.76677">
        <ele>317</ele>
        <time>2015-06-14T10:36:00.000Z</time>
      </trkpt>
      <trkpt lat="47.49226" lon="6.76683">
        <ele>317</ele>
        <time>2015-06-14T10:36:02.000Z</time>
      </trkpt>
      <trkpt lat="47.49226" lon="6.76687">
        <ele>317</ele>
        <time>2015-06-14T10:36:03.000Z</time>
      </trkpt>
      <trkpt lat="47.49226" lon="6.76691">
        <ele>317</ele>
        <time>2015-06-14T10:36:04.000Z</time>
      </trkpt>
      <trkpt lat="47.49226" lon="6.76695">
        <ele>317</ele>
        <time>2015-06-14T10:36:05.000Z</time>
      </trkpt>
      <trkpt lat="47.49226" lon="6.76699">
        <ele>317</ele>
        <time>2015-06-14T10:36:06.000Z</time>
      </trkpt>
      <trkpt lat="47.49227" lon="6.76703">
        <ele>317</ele>
        <time>2015-06-14T10:36:07.000Z</time>
      </trkpt>
      <trkpt lat="47.49227" lon="6.76707">
        <ele>317</ele>
        <time>2015-06-14T10:36:08.000Z</time>
      </trkpt>
      <trkpt lat="47.49227" lon="6.76711">
        <ele>317</ele>
        <time>2015-06-14T10:36:09.000Z</time>
      </trkpt>
      <trkpt lat="47.49228" lon="6.76715">
        <ele>317</ele>
        <time>2015-06-14T10:36:10.000Z</time>
      </trkpt>
      <trkpt lat="47.49228" lon="6.76719">
        <ele>317</ele>
        <time>2015-06-14T10:36:11.000Z</time>
      </trkpt>
      <trkpt lat="47.49228" lon="6.76723">
        <ele>317</ele>
        <time>2015-06-14T10:36:12.000Z</time>
      </trkpt>
      <trkpt lat="47.49228" lon="6.76726">
        <ele>317</ele>
        <time>2015-06-14T10:36:13.000Z</time>
      </trkpt>
      <trkpt lat="47.49229" lon="6.76732">
        <ele>317</ele>
        <time>2015-06-14T10:36:15.000Z</time>
      </trkpt>
      <trkpt lat="47.49229" lon="6.76735">
        <ele>317</ele>
        <time>2015-06-14T10:36:16.000Z</time>
      </trkpt>
      <trkpt lat="47.4923" lon="6.76741">
        <ele>317</ele>
        <time>2015-06-14T10:36:19.000Z</time>
      </trkpt>
      <trkpt lat="47.4923" lon="6.76743">
        <ele>317</ele>
        <time>2015-06-14T10:36:20.000Z</time>
      </trkpt>
      <trkpt lat="47.49227" lon="6.76747">
        <ele>317</ele>
        <time>2015-06-14T10:38:09.000Z</time>
      </trkpt>
      <trkpt lat="47.49228" lon="6.76748">
        <ele>317</ele>
        <time>2015-06-14T10:38:10.000Z</time>
      </trkpt>
      <trkpt lat="47.49229" lon="6.76752">
        <ele>316</ele>
        <time>2015-06-14T10:38:12.000Z</time>
      </trkpt>
      <trkpt lat="47.4923" lon="6.76755">
        <ele>316</ele>
        <time>2015-06-14T10:38:13.000Z</time>
      </trkpt>
      <trkpt lat="47.49231" lon="6.76759">
        <ele>316</ele>
        <time>2015-06-14T10:38:14.000Z</time>
      </trkpt>
      <trkpt lat="47.49233" lon="6.76764">
        <ele>316</ele>
        <time>2015-06-14T10:38:15.000Z</time>
      </trkpt>
      <trkpt lat="47.49234" lon="6.7677">
        <ele>316</ele>
        <time>2015-06-14T10:38:16.000Z</time>
      </trkpt>
      <trkpt lat="47.49235" lon="6.76776">
        <ele>316</ele>
        <time>2015-06-14T10:38:17.000Z</time>
      </trkpt>
      <trkpt lat="47.49236" lon="6.76782">
        <ele>316</ele>
        <time>2015-06-14T10:38:18.000Z</time>
      </trkpt>
      <trkpt lat="47.49239" lon="6.76793">
        <ele>316</ele>
        <time>2015-06-14T10:38:19.000Z</time>
      </trkpt>
      <trkpt lat="47.49241" lon="6.76799">
        <ele>316</ele>
        <time>2015-06-14T10:38:20.000Z</time>
      </trkpt>
      <trkpt lat="47.49243" lon="6.76806">
        <ele>316</ele>
        <time>2015-06-14T10:38:21.000Z</time>
      </trkpt>
      <trkpt lat="47.49245" lon="6.76812">
        <ele>316</ele>
        <time>2015-06-14T10:38:22.000Z</time>
      </trkpt>
      <trkpt lat="47.49247" lon="6.76818">
        <ele>316</ele>
        <time>2015-06-14T10:38:23.000Z</time>
      </trkpt>
      <trkpt lat="47.49248" lon="6.76824">
        <ele>316</ele>
        <time>2015-06-14T10:38:24.000Z</time>
      </trkpt>
      <trkpt lat="47.4925" lon="6.7683">
        <ele>317</ele>
        <time>2015-06-14T10:38:25.000Z</time>
      </trkpt>
      <trkpt lat="47.49252" lon="6.76837">
        <ele>317</ele>
        <time>2015-06-14T10:38:26.000Z</time>
      </trkpt>
      <trkpt lat="47.49255" lon="6.76844">
        <ele>317</ele>
        <time>2015-06-14T10:38:27.000Z</time>
      </trkpt>
      <trkpt lat="47.49257" lon="6.7685">
        <ele>317</ele>
        <time>2015-06-14T10:38:28.000Z</time>
      </trkpt>
      <trkpt lat="47.4926" lon="6.76857">
        <ele>317</ele>
        <time>2015-06-14T10:38:29.000Z</time>
      </trkpt>
      <trkpt lat="47.49259" lon="6.76864">
        <ele>317</ele>
        <time>2015-06-14T10:38:30.000Z</time>
      </trkpt>
      <trkpt lat="47.49261" lon="6.7687">
        <ele>317</ele>
        <time>2015-06-14T10:38:31.000Z</time>
      </trkpt>
      <trkpt lat="47.49264" lon="6.76877">
        <ele>317</ele>
        <time>2015-06-14T10:38:32.000Z</time>
      </trkpt>
      <trkpt lat="47.49266" lon="6.76884">
        <ele>317</ele>
        <time>2015-06-14T10:38:33.000Z</time>
      </trkpt>
      <trkpt lat="47.49268" lon="6.76888">
        <ele>317</ele>
        <time>2015-06-14T10:38:34.000Z</time>
      </trkpt>
      <trkpt lat="47.49271" lon="6.76894">
        <ele>317</ele>
        <time>2015-06-14T10:38:35.000Z</time>
      </trkpt>
      <trkpt lat="47.49273" lon="6.769">
        <ele>317</ele>
        <time>2015-06-14T10:38:36.000Z</time>
      </trkpt>
      <trkpt lat="47.49275" lon="6.76906">
        <ele>317</ele>
        <time>2015-06-14T10:38:37.000Z</time>
      </trkpt>
      <trkpt lat="47.49278" lon="6.76913">
        <ele>317</ele>
        <time>2015-06-14T10:38:38.000Z</time>
      </trkpt>
      <trkpt lat="47.4928" lon="6.76918">
        <ele>316</ele>
        <time>2015-06-14T10:38:39.000Z</time>
      </trkpt>
      <trkpt lat="47.49282" lon="6.76924">
        <ele>316</ele>
        <time>2015-06-14T10:38:40.000Z</time>
      </trkpt>
      <trkpt lat="47.49284" lon="6.7693">
        <ele>316</ele>
        <time>2015-06-14T10:38:41.000Z</time>
      </trkpt>
      <trkpt lat="47.49286" lon="6.76936">
        <ele>316</ele>
        <time>2015-06-14T10:38:42.000Z</time>
      </trkpt>
      <trkpt lat="47.49288" lon="6.76942">
        <ele>316</ele>
        <time>2015-06-14T10:38:43.000Z</time>
      </trkpt>
      <trkpt lat="47.49289" lon="6.76948">
        <ele>316</ele>
        <time>2015-06-14T10:38:44.000Z</time>
      </trkpt>
      <trkpt lat="47.49292" lon="6.76954">
        <ele>316</ele>
        <time>2015-06-14T10:38:45.000Z</time>
      </trkpt>
      <trkpt lat="47.49294" lon="6.76961">
        <ele>317</ele>
        <time>2015-06-14T10:38:46.000Z</time>
      </trkpt>
      <trkpt lat="47.49295" lon="6.76968">
        <ele>317</ele>
        <time>2015-06-14T10:38:47.000Z</time>
      </trkpt>
      <trkpt lat="47.49297" lon="6.76974">
        <ele>317</ele>
        <time>2015-06-14T10:38:48.000Z</time>
      </trkpt>
      <trkpt lat="47.49298" lon="6.76982">
        <ele>317</ele>
        <time>2015-06-14T10:38:49.000Z</time>
      </trkpt>
      <trkpt lat="47.49299" lon="6.7699">
        <ele>317</ele>
        <time>2015-06-14T10:38:50.000Z</time>
      </trkpt>
      <trkpt lat="47.493" lon="6.76998">
        <ele>317</ele>
        <time>2015-06-14T10:38:51.000Z</time>
      </trkpt>
      <trkpt lat="47.49301" lon="6.77004">
        <ele>316</ele>
        <time>2015-06-14T10:38:52.000Z</time>
      </trkpt>
      <trkpt lat="47.493" lon="6.77009">
        <ele>316</ele>
        <time>2015-06-14T10:38:53.000Z</time>
      </trkpt>
      <trkpt lat="47.493" lon="6.77016">
        <ele>316</ele>
        <time>2015-06-14T10:38:54.000Z</time>
      </trkpt>
      <trkpt lat="47.49303" lon="6.77024">
        <ele>316</ele>
        <time>2015-06-14T10:38:55.000Z</time>
      </trkpt>
      <trkpt lat="47.49305" lon="6.77033">
        <ele>316</ele>
        <time>2015-06-14T10:38:56.000Z</time>
      </trkpt>
      <trkpt lat="47.49309" lon="6.77039">
        <ele>315</ele>
        <time>2015-06-14T10:38:57.000Z</time>
      </trkpt>
      <trkpt lat="47.49314" lon="6.77043">
        <ele>315</ele>
        <time>2015-06-14T10:38:58.000Z</time>
      </trkpt>
      <trkpt lat="47.49318" lon="6.7705">
        <ele>315</ele>
        <time>2015-06-14T10:38:59.000Z</time>
      </trkpt>
      <trkpt lat="47.49325" lon="6.77057">
        <ele>315</ele>
        <time>2015-06-14T10:39:00.000Z</time>
      </trkpt>
      <trkpt lat="47.4933" lon="6.77062">
        <ele>315</ele>
        <time>2015-06-14T10:39:01.000Z</time>
      </trkpt>
      <trkpt lat="47.49336" lon="6.77069">
        <ele>316</ele>
        <time>2015-06-14T10:39:02.000Z</time>
      </trkpt>
      <trkpt lat="47.49342" lon="6.77073">
        <ele>316</ele>
        <time>2015-06-14T10:39:03.000Z</time>
      </trkpt>
      <trkpt lat="47.49347" lon="6.77079">
        <ele>316</ele>
        <time>2015-06-14T10:39:04.000Z</time>
      </trkpt>
      <trkpt lat="47.49352" lon="6.77083">
        <ele>317</ele>
        <time>2015-06-14T10:39:05.000Z</time>
      </trkpt>
      <trkpt lat="47.49357" lon="6.77089">
        <ele>316</ele>
        <time>2015-06-14T10:39:06.000Z</time>
      </trkpt>
      <trkpt lat="47.49362" lon="6.77093">
        <ele>316</ele>
        <time>2015-06-14T10:39:07.000Z</time>
      </trkpt>
      <trkpt lat="47.49367" lon="6.77097">
        <ele>317</ele>
        <time>2015-06-14T10:39:08.000Z</time>
      </trkpt>
      <trkpt lat="47.49372" lon="6.771">
        <ele>317</ele>
        <time>2015-06-14T10:39:09.000Z</time>
      </trkpt>
      <trkpt lat="47.49378" lon="6.77105">
        <ele>317</ele>
        <time>2015-06-14T10:39:10.000Z</time>
      </trkpt>
      <trkpt lat="47.49382" lon="6.77109">
        <ele>317</ele>
        <time>2015-06-14T10:39:11.000Z</time>
      </trkpt>
      <trkpt lat="47.49388" lon="6.77113">
        <ele>317</ele>
        <time>2015-06-14T10:39:12.000Z</time>
      </trkpt>
      <trkpt lat="47.49392" lon="6.77116">
        <ele>317</ele>
        <time>2015-06-14T10:39:13.000Z</time>
      </trkpt>
      <trkpt lat="47.49397" lon="6.77121">
        <ele>317</ele>
        <time>2015-06-14T10:39:14.000Z</time>
      </trkpt>
      <trkpt lat="47.49401" lon="6.77124">
        <ele>317</ele>
        <time>2015-06-14T10:39:15.000Z</time>
      </trkpt>
      <trkpt lat="47.49404" lon="6.77127">
        <ele>317</ele>
        <time>2015-06-14T10:39:16.000Z</time>
      </trkpt>
      <trkpt lat="47.49408" lon="6.77132">
        <ele>317</ele>
        <time>2015-06-14T10:39:17.000Z</time>
      </trkpt>
      <trkpt lat="47.49413" lon="6.77135">
        <ele>317</ele>
        <time>2015-06-14T10:39:18.000Z</time>
      </trkpt>
      <trkpt lat="47.49417" lon="6.77138">
        <ele>319</ele>
        <time>2015-06-14T10:39:19.000Z</time>
      </trkpt>
      <trkpt lat="47.49423" lon="6.77142">
        <ele>319</ele>
        <time>2015-06-14T10:39:20.000Z</time>
      </trkpt>
      <trkpt lat="47.49429" lon="6.77147">
        <ele>319</ele>
        <time>2015-06-14T10:39:21.000Z</time>
      </trkpt>
      <trkpt lat="47.49434" lon="6.77152">
        <ele>319</ele>
        <time>2015-06-14T10:39:22.000Z</time>
      </trkpt>
      <trkpt lat="47.49439" lon="6.77159">
        <ele>319</ele>
        <time>2015-06-14T10:39:23.000Z</time>
      </trkpt>
      <trkpt lat="47.49445" lon="6.77163">
        <ele>319</ele>
        <time>2015-06-14T10:39:24.000Z</time>
      </trkpt>
      <trkpt lat="47.4945" lon="6.77167">
        <ele>317</ele>
        <time>2015-06-14T10:39:25.000Z</time>
      </trkpt>
      <trkpt lat="47.49455" lon="6.7717">
        <ele>317</ele>
        <time>2015-06-14T10:39:26.000Z</time>
      </trkpt>
      <trkpt lat="47.4946" lon="6.77174">
        <ele>317</ele>
        <time>2015-06-14T10:39:27.000Z</time>
      </trkpt>
      <trkpt lat="47.49464" lon="6.77178">
        <ele>317</ele>
        <time>2015-06-14T10:39:28.000Z</time>
      </trkpt>
      <trkpt lat="47.49468" lon="6.77181">
        <ele>317</ele>
        <time>2015-06-14T10:39:29.000Z</time>
      </trkpt>
      <trkpt lat="47.49473" lon="6.77184">
        <ele>317</ele>
        <time>2015-06-14T10:39:30.000Z</time>
      </trkpt>
      <trkpt lat="47.49477" lon="6.77186">
        <ele>317</ele>
        <time>2015-06-14T10:39:31.000Z</time>
      </trkpt>
      <trkpt lat="47.49482" lon="6.77189">
        <ele>317</ele>
        <time>2015-06-14T10:39:32.000Z</time>
      </trkpt>
      <trkpt lat="47.49487" lon="6.77192">
        <ele>317</ele>
        <time>2015-06-14T10:39:33.000Z</time>
      </trkpt>
      <trkpt lat="47.49492" lon="6.77194">
        <ele>317</ele>
        <time>2015-06-14T10:39:34.000Z</time>
      </trkpt>
      <trkpt lat="47.49498" lon="6.77195">
        <ele>317</ele>
        <time>2015-06-14T10:39:35.000Z</time>
      </trkpt>
      <trkpt lat="47.49504" lon="6.77196">
        <ele>318</ele>
        <time>2015-06-14T10:39:36.000Z</time>
      </trkpt>
      <trkpt lat="47.49511" lon="6.77198">
        <ele>318</ele>
        <time>2015-06-14T10:39:37.000Z</time>
      </trkpt>
      <trkpt lat="47.49516" lon="6.77199">
        <ele>318</ele>
        <time>2015-06-14T10:39:38.000Z</time>
      </trkpt>
      <trkpt lat="47.49521" lon="6.772">
        <ele>318</ele>
        <time>2015-06-14T10:39:39.000Z</time>
      </trkpt>
      <trkpt lat="47.49527" lon="6.77202">
        <ele>318</ele>
        <time>2015-06-14T10:39:40.000Z</time>
      </trkpt>
      <trkpt lat="47.49533" lon="6.77202">
        <ele>318</ele>
        <time>2015-06-14T10:39:41.000Z</time>
      </trkpt>
      <trkpt lat="47.49539" lon="6.77202">
        <ele>318</ele>
        <time>2015-06-14T10:39:42.000Z</time>
      </trkpt>
      <trkpt lat="47.49544" lon="6.77203">
        <ele>318</ele>
        <time>2015-06-14T10:39:43.000Z</time>
      </trkpt>
      <trkpt lat="47.49551" lon="6.77202">
        <ele>318</ele>
        <time>2015-06-14T10:39:44.000Z</time>
      </trkpt>
      <trkpt lat="47.49555" lon="6.77204">
        <ele>318</ele>
        <time>2015-06-14T10:39:45.000Z</time>
      </trkpt>
      <trkpt lat="47.49561" lon="6.77204">
        <ele>318</ele>
        <time>2015-06-14T10:39:46.000Z</time>
      </trkpt>
      <trkpt lat="47.49566" lon="6.77206">
        <ele>318</ele>
        <time>2015-06-14T10:39:47.000Z</time>
      </trkpt>
      <trkpt lat="47.49573" lon="6.77209">
        <ele>318</ele>
        <time>2015-06-14T10:39:48.000Z</time>
      </trkpt>
      <trkpt lat="47.49579" lon="6.77211">
        <ele>318</ele>
        <time>2015-06-14T10:39:49.000Z</time>
      </trkpt>
      <trkpt lat="47.49585" lon="6.77212">
        <ele>318</ele>
        <time>2015-06-14T10:39:50.000Z</time>
      </trkpt>
      <trkpt lat="47.49591" lon="6.77212">
        <ele>318</ele>
        <time>2015-06-14T10:39:51.000Z</time>
      </trkpt>
      <trkpt lat="47.49596" lon="6.77216">
        <ele>318</ele>
        <time>2015-06-14T10:39:52.000Z</time>
      </trkpt>
      <trkpt lat="47.49602" lon="6.77219">
        <ele>318</ele>
        <time>2015-06-14T10:39:53.000Z</time>
      </trkpt>
      <trkpt lat="47.49608" lon="6.77221">
        <ele>318</ele>
        <time>2015-06-14T10:39:54.000Z</time>
      </trkpt>
      <trkpt lat="47.49614" lon="6.77224">
        <ele>318</ele>
        <time>2015-06-14T10:39:55.000Z</time>
      </trkpt>
      <trkpt lat="47.4962" lon="6.77226">
        <ele>318</ele>
        <time>2015-06-14T10:39:56.000Z</time>
      </trkpt>
      <trkpt lat="47.49627" lon="6.7723">
        <ele>318</ele>
        <time>2015-06-14T10:39:57.000Z</time>
      </trkpt>
      <trkpt lat="47.49633" lon="6.77232">
        <ele>318</ele>
        <time>2015-06-14T10:39:58.000Z</time>
      </trkpt>
      <trkpt lat="47.49638" lon="6.77235">
        <ele>318</ele>
        <time>2015-06-14T10:39:59.000Z</time>
      </trkpt>
      <trkpt lat="47.49644" lon="6.77238">
        <ele>318</ele>
        <time>2015-06-14T10:40:00.000Z</time>
      </trkpt>
      <trkpt lat="47.4965" lon="6.77242">
        <ele>317</ele>
        <time>2015-06-14T10:40:01.000Z</time>
      </trkpt>
      <trkpt lat="47.49655" lon="6.77245">
        <ele>317</ele>
        <time>2015-06-14T10:40:02.000Z</time>
      </trkpt>
      <trkpt lat="47.49662" lon="6.77248">
        <ele>317</ele>
        <time>2015-06-14T10:40:03.000Z</time>
      </trkpt>
      <trkpt lat="47.49667" lon="6.77251">
        <ele>316</ele>
        <time>2015-06-14T10:40:04.000Z</time>
      </trkpt>
      <trkpt lat="47.49673" lon="6.77254">
        <ele>316</ele>
        <time>2015-06-14T10:40:05.000Z</time>
      </trkpt>
      <trkpt lat="47.49678" lon="6.77258">
        <ele>316</ele>
        <time>2015-06-14T10:40:06.000Z</time>
      </trkpt>
      <trkpt lat="47.49684" lon="6.77262">
        <ele>316</ele>
        <time>2015-06-14T10:40:07.000Z</time>
      </trkpt>
      <trkpt lat="47.4969" lon="6.77266">
        <ele>316</ele>
        <time>2015-06-14T10:40:08.000Z</time>
      </trkpt>
      <trkpt lat="47.49695" lon="6.77271">
        <ele>316</ele>
        <time>2015-06-14T10:40:09.000Z</time>
      </trkpt>
      <trkpt lat="47.497" lon="6.77274">
        <ele>316</ele>
        <time>2015-06-14T10:40:10.000Z</time>
      </trkpt>
      <trkpt lat="47.49706" lon="6.77277">
        <ele>316</ele>
        <time>2015-06-14T10:40:11.000Z</time>
      </trkpt>
      <trkpt lat="47.49712" lon="6.77281">
        <ele>316</ele>
        <time>2015-06-14T10:40:12.000Z</time>
      </trkpt>
      <trkpt lat="47.49717" lon="6.77284">
        <ele>315</ele>
        <time>2015-06-14T10:40:13.000Z</time>
      </trkpt>
      <trkpt lat="47.49723" lon="6.77288">
        <ele>315</ele>
        <time>2015-06-14T10:40:14.000Z</time>
      </trkpt>
      <trkpt lat="47.49728" lon="6.77292">
        <ele>315</ele>
        <time>2015-06-14T10:40:15.000Z</time>
      </trkpt>
      <trkpt lat="47.49733" lon="6.77295">
        <ele>315</ele>
        <time>2015-06-14T10:40:16.000Z</time>
      </trkpt>
      <trkpt lat="47.49738" lon="6.77298">
        <ele>315</ele>
        <time>2015-06-14T10:40:17.000Z</time>
      </trkpt>
      <trkpt lat="47.49743" lon="6.77301">
        <ele>315</ele>
        <time>2015-06-14T10:40:18.000Z</time>
      </trkpt>
      <trkpt lat="47.49749" lon="6.77303">
        <ele>315</ele>
        <time>2015-06-14T10:40:19.000Z</time>
      </trkpt>
      <trkpt lat="47.49754" lon="6.77306">
        <ele>316</ele>
        <time>2015-06-14T10:40:20.000Z</time>
      </trkpt>
      <trkpt lat="47.49758" lon="6.7731">
        <ele>316</ele>
        <time>2015-06-14T10:40:21.000Z</time>
      </trkpt>
      <trkpt lat="47.49762" lon="6.77314">
        <ele>316</ele>
        <time>2015-06-14T10:40:22.000Z</time>
      </trkpt>
      <trkpt lat="47.49768" lon="6.77313">
        <ele>316</ele>
        <time>2015-06-14T10:40:23.000Z</time>
      </trkpt>
      <trkpt lat="47.49774" lon="6.77312">
        <ele>316</ele>
        <time>2015-06-14T10:40:24.000Z</time>
      </trkpt>
      <trkpt lat="47.4978" lon="6.77313">
        <ele>316</ele>
        <time>2015-06-14T10:40:25.000Z</time>
      </trkpt>
      <trkpt lat="47.49786" lon="6.77313">
        <ele>317</ele>
        <time>2015-06-14T10:40:26.000Z</time>
      </trkpt>
      <trkpt lat="47.49792" lon="6.77312">
        <ele>317</ele>
        <time>2015-06-14T10:40:27.000Z</time>
      </trkpt>
      <trkpt lat="47.49798" lon="6.77313">
        <ele>317</ele>
        <time>2015-06-14T10:40:28.000Z</time>
      </trkpt>
      <trkpt lat="47.49803" lon="6.7731">
        <ele>317</ele>
        <time>2015-06-14T10:40:29.000Z</time>
      </trkpt>
      <trkpt lat="47.49808" lon="6.77311">
        <ele>317</ele>
        <time>2015-06-14T10:40:30.000Z</time>
      </trkpt>
      <trkpt lat="47.49812" lon="6.77312">
        <ele>317</ele>
        <time>2015-06-14T10:40:31.000Z</time>
      </trkpt>
      <trkpt lat="47.49817" lon="6.77313">
        <ele>316</ele>
        <time>2015-06-14T10:40:32.000Z</time>
      </trkpt>
      <trkpt lat="47.49823" lon="6.77314">
        <ele>316</ele>
        <time>2015-06-14T10:40:33.000Z</time>
      </trkpt>
      <trkpt lat="47.49829" lon="6.77313">
        <ele>316</ele>
        <time>2015-06-14T10:40:34.000Z</time>
      </trkpt>
      <trkpt lat="47.49835" lon="6.77313">
        <ele>317</ele>
        <time>2015-06-14T10:40:35.000Z</time>
      </trkpt>
      <trkpt lat="47.49841" lon="6.77314">
        <ele>317</ele>
        <time>2015-06-14T10:40:36.000Z</time>
      </trkpt>
      <trkpt lat="47.49847" lon="6.77313">
        <ele>317</ele>
        <time>2015-06-14T10:40:37.000Z</time>
      </trkpt>
      <trkpt lat="47.49853" lon="6.77312">
        <ele>317</ele>
        <time>2015-06-14T10:40:38.000Z</time>
      </trkpt>
      <trkpt lat="47.49858" lon="6.7731">
        <ele>317</ele>
        <time>2015-06-14T10:40:39.000Z</time>
      </trkpt>
      <trkpt lat="47.49865" lon="6.77309">
        <ele>318</ele>
        <time>2015-06-14T10:40:40.000Z</time>
      </trkpt>
      <trkpt lat="47.4987" lon="6.77306">
        <ele>318</ele>
        <time>2015-06-14T10:40:41.000Z</time>
      </trkpt>
      <trkpt lat="47.49876" lon="6.77304">
        <ele>318</ele>
        <time>2015-06-14T10:40:42.000Z</time>
      </trkpt>
      <trkpt lat="47.49881" lon="6.77305">
        <ele>318</ele>
        <time>2015-06-14T10:40:43.000Z</time>
      </trkpt>
      <trkpt lat="47.49886" lon="6.77304">
        <ele>318</ele>
        <time>2015-06-14T10:40:44.000Z</time>
      </trkpt>
      <trkpt lat="47.49892" lon="6.773">
        <ele>318</ele>
        <time>2015-06-14T10:40:45.000Z</time>
      </trkpt>
      <trkpt lat="47.49898" lon="6.773">
        <ele>318</ele>
        <time>2015-06-14T10:40:46.000Z</time>
      </trkpt>
      <trkpt lat="47.49902" lon="6.77301">
        <ele>318</ele>
        <time>2015-06-14T10:40:47.000Z</time>
      </trkpt>
      <trkpt lat="47.49906" lon="6.77301">
        <ele>318</ele>
        <time>2015-06-14T10:40:48.000Z</time>
      </trkpt>
      <trkpt lat="47.49911" lon="6.77297">
        <ele>318</ele>
        <time>2015-06-14T10:40:49.000Z</time>
      </trkpt>
      <trkpt lat="47.49917" lon="6.77294">
        <ele>316</ele>
        <time>2015-06-14T10:40:50.000Z</time>
      </trkpt>
      <trkpt lat="47.49923" lon="6.77291">
        <ele>317</ele>
        <time>2015-06-14T10:40:51.000Z</time>
      </trkpt>
      <trkpt lat="47.49928" lon="6.77288">
        <ele>317</ele>
        <time>2015-06-14T10:40:52.000Z</time>
      </trkpt>
      <trkpt lat="47.49933" lon="6.77285">
        <ele>317</ele>
        <time>2015-06-14T10:40:53.000Z</time>
      </trkpt>
      <trkpt lat="47.49938" lon="6.77282">
        <ele>317</ele>
        <time>2015-06-14T10:40:54.000Z</time>
      </trkpt>
      <trkpt lat="47.49942" lon="6.7728">
        <ele>317</ele>
        <time>2015-06-14T10:40:55.000Z</time>
      </trkpt>
      <trkpt lat="47.49947" lon="6.77277">
        <ele>317</ele>
        <time>2015-06-14T10:40:56.000Z</time>
      </trkpt>
      <trkpt lat="47.49952" lon="6.77274">
        <ele>317</ele>
        <time>2015-06-14T10:40:57.000Z</time>
      </trkpt>
      <trkpt lat="47.49957" lon="6.77273">
        <ele>317</ele>
        <time>2015-06-14T10:40:58.000Z</time>
      </trkpt>
      <trkpt lat="47.49962" lon="6.77269">
        <ele>317</ele>
        <time>2015-06-14T10:40:59.000Z</time>
      </trkpt>
      <trkpt lat="47.49967" lon="6.77267">
        <ele>317</ele>
        <time>2015-06-14T10:41:00.000Z</time>
      </trkpt>
      <trkpt lat="47.49972" lon="6.77264">
        <ele>316</ele>
        <time>2015-06-14T10:41:01.000Z</time>
      </trkpt>
      <trkpt lat="47.49978" lon="6.77263">
        <ele>316</ele>
        <time>2015-06-14T10:41:02.000Z</time>
      </trkpt>
      <trkpt lat="47.49984" lon="6.7726">
        <ele>316</ele>
        <time>2015-06-14T10:41:03.000Z</time>
      </trkpt>
      <trkpt lat="47.4999" lon="6.77257">
        <ele>316</ele>
        <time>2015-06-14T10:41:04.000Z</time>
      </trkpt>
      <trkpt lat="47.49995" lon="6.77255">
        <ele>316</ele>
        <time>2015-06-14T10:41:05.000Z</time>
      </trkpt>
      <trkpt lat="47.5" lon="6.77253">
        <ele>316</ele>
        <time>2015-06-14T10:41:06.000Z</time>
      </trkpt>
      <trkpt lat="47.50004" lon="6.77249">
        <ele>318</ele>
        <time>2015-06-14T10:41:07.000Z</time>
      </trkpt>
      <trkpt lat="47.50009" lon="6.77247">
        <ele>320</ele>
        <time>2015-06-14T10:41:08.000Z</time>
      </trkpt>
      <trkpt lat="47.50012" lon="6.77243">
        <ele>322</ele>
        <time>2015-06-14T10:41:09.000Z</time>
      </trkpt>
      <trkpt lat="47.50016" lon="6.77238">
        <ele>324</ele>
        <time>2015-06-14T10:41:10.000Z</time>
      </trkpt>
      <trkpt lat="47.50019" lon="6.77236">
        <ele>324</ele>
        <time>2015-06-14T10:41:11.000Z</time>
      </trkpt>
      <trkpt lat="47.50023" lon="6.77232">
        <ele>326</ele>
        <time>2015-06-14T10:41:12.000Z</time>
      </trkpt>
      <trkpt lat="47.50027" lon="6.7723">
        <ele>326</ele>
        <time>2015-06-14T10:41:13.000Z</time>
      </trkpt>
      <trkpt lat="47.50032" lon="6.77228">
        <ele>327</ele>
        <time>2015-06-14T10:41:14.000Z</time>
      </trkpt>
      <trkpt lat="47.50035" lon="6.7723">
        <ele>326</ele>
        <time>2015-06-14T10:41:15.000Z</time>
      </trkpt>
      <trkpt lat="47.50039" lon="6.7723">
        <ele>326</ele>
        <time>2015-06-14T10:41:16.000Z</time>
      </trkpt>
      <trkpt lat="47.50042" lon="6.7723">
        <ele>326</ele>
        <time>2015-06-14T10:41:17.000Z</time>
      </trkpt>
      <trkpt lat="47.50046" lon="6.77229">
        <ele>326</ele>
        <time>2015-06-14T10:41:18.000Z</time>
      </trkpt>
      <trkpt lat="47.5005" lon="6.77229">
        <ele>326</ele>
        <time>2015-06-14T10:41:19.000Z</time>
      </trkpt>
      <trkpt lat="47.50055" lon="6.77227">
        <ele>326</ele>
        <time>2015-06-14T10:41:20.000Z</time>
      </trkpt>
      <trkpt lat="47.50062" lon="6.77222">
        <ele>326</ele>
        <time>2015-06-14T10:41:21.000Z</time>
      </trkpt>
      <trkpt lat="47.50069" lon="6.7722">
        <ele>327</ele>
        <time>2015-06-14T10:41:22.000Z</time>
      </trkpt>
      <trkpt lat="47.50074" lon="6.77218">
        <ele>327</ele>
        <time>2015-06-14T10:41:23.000Z</time>
      </trkpt>
      <trkpt lat="47.50079" lon="6.77214">
        <ele>328</ele>
        <time>2015-06-14T10:41:24.000Z</time>
      </trkpt>
      <trkpt lat="47.50084" lon="6.7721">
        <ele>324</ele>
        <time>2015-06-14T10:41:25.000Z</time>
      </trkpt>
      <trkpt lat="47.5009" lon="6.77205">
        <ele>325</ele>
        <time>2015-06-14T10:41:26.000Z</time>
      </trkpt>
      <trkpt lat="47.50095" lon="6.77203">
        <ele>325</ele>
        <time>2015-06-14T10:41:27.000Z</time>
      </trkpt>
      <trkpt lat="47.501" lon="6.77202">
        <ele>325</ele>
        <time>2015-06-14T10:41:28.000Z</time>
      </trkpt>
      <trkpt lat="47.50105" lon="6.77202">
        <ele>325</ele>
        <time>2015-06-14T10:41:29.000Z</time>
      </trkpt>
      <trkpt lat="47.5011" lon="6.77204">
        <ele>324</ele>
        <time>2015-06-14T10:41:30.000Z</time>
      </trkpt>
      <trkpt lat="47.50116" lon="6.77204">
        <ele>324</ele>
        <time>2015-06-14T10:41:31.000Z</time>
      </trkpt>
      <trkpt lat="47.50123" lon="6.77205">
        <ele>323</ele>
        <time>2015-06-14T10:41:32.000Z</time>
      </trkpt>
      <trkpt lat="47.50129" lon="6.77205">
        <ele>323</ele>
        <time>2015-06-14T10:41:33.000Z</time>
      </trkpt>
      <trkpt lat="47.50136" lon="6.77206">
        <ele>322</ele>
        <time>2015-06-14T10:41:34.000Z</time>
      </trkpt>
      <trkpt lat="47.50142" lon="6.77207">
        <ele>322</ele>
        <time>2015-06-14T10:41:35.000Z</time>
      </trkpt>
      <trkpt lat="47.50148" lon="6.77209">
        <ele>322</ele>
        <time>2015-06-14T10:41:36.000Z</time>
      </trkpt>
      <trkpt lat="47.50154" lon="6.77213">
        <ele>321</ele>
        <time>2015-06-14T10:41:37.000Z</time>
      </trkpt>
      <trkpt lat="47.50159" lon="6.77219">
        <ele>320</ele>
        <time>2015-06-14T10:41:38.000Z</time>
      </trkpt>
      <trkpt lat="47.50164" lon="6.77223">
        <ele>319</ele>
        <time>2015-06-14T10:41:39.000Z</time>
      </trkpt>
      <trkpt lat="47.50169" lon="6.77227">
        <ele>316</ele>
        <time>2015-06-14T10:41:40.000Z</time>
      </trkpt>
      <trkpt lat="47.50173" lon="6.7723">
        <ele>316</ele>
        <time>2015-06-14T10:41:41.000Z</time>
      </trkpt>
      <trkpt lat="47.50178" lon="6.77234">
        <ele>315</ele>
        <time>2015-06-14T10:41:42.000Z</time>
      </trkpt>
      <trkpt lat="47.50181" lon="6.77239">
        <ele>315</ele>
        <time>2015-06-14T10:41:43.000Z</time>
      </trkpt>
      <trkpt lat="47.50187" lon="6.7724">
        <ele>315</ele>
        <time>2015-06-14T10:41:44.000Z</time>
      </trkpt>
      <trkpt lat="47.50193" lon="6.77242">
        <ele>316</ele>
        <time>2015-06-14T10:41:45.000Z</time>
      </trkpt>
      <trkpt lat="47.50197" lon="6.77247">
        <ele>316</ele>
        <time>2015-06-14T10:41:46.000Z</time>
      </trkpt>
      <trkpt lat="47.50201" lon="6.7725">
        <ele>316</ele>
        <time>2015-06-14T10:41:47.000Z</time>
      </trkpt>
      <trkpt lat="47.50206" lon="6.77254">
        <ele>313</ele>
        <time>2015-06-14T10:41:48.000Z</time>
      </trkpt>
      <trkpt lat="47.5021" lon="6.77258">
        <ele>313</ele>
        <time>2015-06-14T10:41:49.000Z</time>
      </trkpt>
      <trkpt lat="47.50214" lon="6.77262">
        <ele>313</ele>
        <time>2015-06-14T10:41:50.000Z</time>
      </trkpt>
      <trkpt lat="47.50219" lon="6.77265">
        <ele>313</ele>
        <time>2015-06-14T10:41:51.000Z</time>
      </trkpt>
      <trkpt lat="47.50223" lon="6.77269">
        <ele>313</ele>
        <time>2015-06-14T10:41:52.000Z</time>
      </trkpt>
      <trkpt lat="47.50227" lon="6.77272">
        <ele>313</ele>
        <time>2015-06-14T10:41:53.000Z</time>
      </trkpt>
      <trkpt lat="47.50231" lon="6.77275">
        <ele>313</ele>
        <time>2015-06-14T10:41:54.000Z</time>
      </trkpt>
      <trkpt lat="47.50236" lon="6.77278">
        <ele>313</ele>
        <time>2015-06-14T10:41:55.000Z</time>
      </trkpt>
      <trkpt lat="47.5024" lon="6.77281">
        <ele>313</ele>
        <time>2015-06-14T10:41:56.000Z</time>
      </trkpt>
      <trkpt lat="47.50245" lon="6.77284">
        <ele>313</ele>
        <time>2015-06-14T10:41:57.000Z</time>
      </trkpt>
      <trkpt lat="47.50249" lon="6.77287">
        <ele>313</ele>
        <time>2015-06-14T10:41:58.000Z</time>
      </trkpt>
      <trkpt lat="47.50254" lon="6.7729">
        <ele>313</ele>
        <time>2015-06-14T10:41:59.000Z</time>
      </trkpt>
      <trkpt lat="47.50258" lon="6.77293">
        <ele>313</ele>
        <time>2015-06-14T10:42:00.000Z</time>
      </trkpt>
      <trkpt lat="47.50262" lon="6.77296">
        <ele>313</ele>
        <time>2015-06-14T10:42:01.000Z</time>
      </trkpt>
      <trkpt lat="47.50267" lon="6.77299">
        <ele>313</ele>
        <time>2015-06-14T10:42:02.000Z</time>
      </trkpt>
      <trkpt lat="47.50271" lon="6.77302">
        <ele>313</ele>
        <time>2015-06-14T10:42:03.000Z</time>
      </trkpt>
      <trkpt lat="47.50275" lon="6.77306">
        <ele>313</ele>
        <time>2015-06-14T10:42:04.000Z</time>
      </trkpt>
      <trkpt lat="47.5028" lon="6.77309">
        <ele>313</ele>
        <time>2015-06-14T10:42:05.000Z</time>
      </trkpt>
      <trkpt lat="47.50284" lon="6.77313">
        <ele>313</ele>
        <time>2015-06-14T10:42:06.000Z</time>
      </trkpt>
      <trkpt lat="47.50289" lon="6.77316">
        <ele>313</ele>
        <time>2015-06-14T10:42:07.000Z</time>
      </trkpt>
      <trkpt lat="47.50294" lon="6.77319">
        <ele>313</ele>
        <time>2015-06-14T10:42:08.000Z</time>
      </trkpt>
      <trkpt lat="47.50298" lon="6.77323">
        <ele>312</ele>
        <time>2015-06-14T10:42:09.000Z</time>
      </trkpt>
      <trkpt lat="47.50303" lon="6.77326">
        <ele>312</ele>
        <time>2015-06-14T10:42:10.000Z</time>
      </trkpt>
      <trkpt lat="47.50308" lon="6.77331">
        <ele>312</ele>
        <time>2015-06-14T10:42:11.000Z</time>
      </trkpt>
      <trkpt lat="47.50313" lon="6.77334">
        <ele>312</ele>
        <time>2015-06-14T10:42:12.000Z</time>
      </trkpt>
      <trkpt lat="47.50318" lon="6.77338">
        <ele>312</ele>
        <time>2015-06-14T10:42:13.000Z</time>
      </trkpt>
      <trkpt lat="47.50322" lon="6.77342">
        <ele>312</ele>
        <time>2015-06-14T10:42:14.000Z</time>
      </trkpt>
      <trkpt lat="47.50327" lon="6.77344">
        <ele>312</ele>
        <time>2015-06-14T10:42:15.000Z</time>
      </trkpt>
      <trkpt lat="47.50331" lon="6.77349">
        <ele>312</ele>
        <time>2015-06-14T10:42:16.000Z</time>
      </trkpt>
      <trkpt lat="47.50337" lon="6.77352">
        <ele>312</ele>
        <time>2015-06-14T10:42:17.000Z</time>
      </trkpt>
      <trkpt lat="47.50342" lon="6.77355">
        <ele>312</ele>
        <time>2015-06-14T10:42:18.000Z</time>
      </trkpt>
      <trkpt lat="47.50347" lon="6.77358">
        <ele>312</ele>
        <time>2015-06-14T10:42:19.000Z</time>
      </trkpt>
      <trkpt lat="47.50351" lon="6.77362">
        <ele>312</ele>
        <time>2015-06-14T10:42:20.000Z</time>
      </trkpt>
      <trkpt lat="47.50355" lon="6.77366">
        <ele>312</ele>
        <time>2015-06-14T10:42:21.000Z</time>
      </trkpt>
      <trkpt lat="47.5036" lon="6.7737">
        <ele>312</ele>
        <time>2015-06-14T10:42:22.000Z</time>
      </trkpt>
      <trkpt lat="47.50365" lon="6.77374">
        <ele>312</ele>
        <time>2015-06-14T10:42:23.000Z</time>
      </trkpt>
      <trkpt lat="47.50369" lon="6.77378">
        <ele>312</ele>
        <time>2015-06-14T10:42:24.000Z</time>
      </trkpt>
      <trkpt lat="47.50374" lon="6.77382">
        <ele>312</ele>
        <time>2015-06-14T10:42:25.000Z</time>
      </trkpt>
      <trkpt lat="47.50378" lon="6.77387">
        <ele>312</ele>
        <time>2015-06-14T10:42:26.000Z</time>
      </trkpt>
      <trkpt lat="47.50383" lon="6.77391">
        <ele>312</ele>
        <time>2015-06-14T10:42:27.000Z</time>
      </trkpt>
      <trkpt lat="47.50388" lon="6.77393">
        <ele>312</ele>
        <time>2015-06-14T10:42:28.000Z</time>
      </trkpt>
      <trkpt lat="47.50393" lon="6.77397">
        <ele>312</ele>
        <time>2015-06-14T10:42:29.000Z</time>
      </trkpt>
      <trkpt lat="47.50398" lon="6.77401">
        <ele>312</ele>
        <time>2015-06-14T10:42:30.000Z</time>
      </trkpt>
      <trkpt lat="47.50402" lon="6.77406">
        <ele>312</ele>
        <time>2015-06-14T10:42:31.000Z</time>
      </trkpt>
      <trkpt lat="47.50406" lon="6.77411">
        <ele>311</ele>
        <time>2015-06-14T10:42:32.000Z</time>
      </trkpt>
      <trkpt lat="47.50411" lon="6.77415">
        <ele>311</ele>
        <time>2015-06-14T10:42:33.000Z</time>
      </trkpt>
      <trkpt lat="47.50416" lon="6.77419">
        <ele>311</ele>
        <time>2015-06-14T10:42:34.000Z</time>
      </trkpt>
      <trkpt lat="47.50421" lon="6.77424">
        <ele>311</ele>
        <time>2015-06-14T10:42:35.000Z</time>
      </trkpt>
      <trkpt lat="47.50425" lon="6.77427">
        <ele>312</ele>
        <time>2015-06-14T10:42:36.000Z</time>
      </trkpt>
      <trkpt lat="47.5043" lon="6.77431">
        <ele>312</ele>
        <time>2015-06-14T10:42:37.000Z</time>
      </trkpt>
      <trkpt lat="47.50435" lon="6.77436">
        <ele>312</ele>
        <time>2015-06-14T10:42:38.000Z</time>
      </trkpt>
      <trkpt lat="47.50439" lon="6.7744">
        <ele>312</ele>
        <time>2015-06-14T10:42:39.000Z</time>
      </trkpt>
      <trkpt lat="47.50444" lon="6.77444">
        <ele>312</ele>
        <time>2015-06-14T10:42:40.000Z</time>
      </trkpt>
      <trkpt lat="47.50449" lon="6.77448">
        <ele>312</ele>
        <time>2015-06-14T10:42:41.000Z</time>
      </trkpt>
      <trkpt lat="47.50454" lon="6.77452">
        <ele>312</ele>
        <time>2015-06-14T10:42:42.000Z</time>
      </trkpt>
      <trkpt lat="47.50458" lon="6.77455">
        <ele>312</ele>
        <time>2015-06-14T10:42:43.000Z</time>
      </trkpt>
      <trkpt lat="47.50463" lon="6.77459">
        <ele>313</ele>
        <time>2015-06-14T10:42:44.000Z</time>
      </trkpt>
      <trkpt lat="47.50467" lon="6.77465">
        <ele>313</ele>
        <time>2015-06-14T10:42:45.000Z</time>
      </trkpt>
      <trkpt lat="47.50472" lon="6.77469">
        <ele>313</ele>
        <time>2015-06-14T10:42:46.000Z</time>
      </trkpt>
      <trkpt lat="47.50477" lon="6.77473">
        <ele>313</ele>
        <time>2015-06-14T10:42:47.000Z</time>
      </trkpt>
      <trkpt lat="47.50481" lon="6.77477">
        <ele>313</ele>
        <time>2015-06-14T10:42:48.000Z</time>
      </trkpt>
      <trkpt lat="47.50486" lon="6.77482">
        <ele>313</ele>
        <time>2015-06-14T10:42:49.000Z</time>
      </trkpt>
      <trkpt lat="47.50491" lon="6.77488">
        <ele>313</ele>
        <time>2015-06-14T10:42:50.000Z</time>
      </trkpt>
      <trkpt lat="47.50496" lon="6.77493">
        <ele>314</ele>
        <time>2015-06-14T10:42:51.000Z</time>
      </trkpt>
      <trkpt lat="47.50501" lon="6.77496">
        <ele>314</ele>
        <time>2015-06-14T10:42:52.000Z</time>
      </trkpt>
      <trkpt lat="47.50506" lon="6.77498">
        <ele>314</ele>
        <time>2015-06-14T10:42:53.000Z</time>
      </trkpt>
      <trkpt lat="47.50512" lon="6.77503">
        <ele>314</ele>
        <time>2015-06-14T10:42:54.000Z</time>
      </trkpt>
      <trkpt lat="47.50517" lon="6.77507">
        <ele>314</ele>
        <time>2015-06-14T10:42:55.000Z</time>
      </trkpt>
      <trkpt lat="47.50521" lon="6.7751">
        <ele>314</ele>
        <time>2015-06-14T10:42:56.000Z</time>
      </trkpt>
      <trkpt lat="47.50526" lon="6.77515">
        <ele>313</ele>
        <time>2015-06-14T10:42:57.000Z</time>
      </trkpt>
      <trkpt lat="47.50531" lon="6.77518">
        <ele>313</ele>
        <time>2015-06-14T10:42:58.000Z</time>
      </trkpt>
      <trkpt lat="47.50536" lon="6.7752">
        <ele>313</ele>
        <time>2015-06-14T10:42:59.000Z</time>
      </trkpt>
      <trkpt lat="47.50541" lon="6.77523">
        <ele>313</ele>
        <time>2015-06-14T10:43:00.000Z</time>
      </trkpt>
      <trkpt lat="47.50546" lon="6.77526">
        <ele>313</ele>
        <time>2015-06-14T10:43:01.000Z</time>
      </trkpt>
      <trkpt lat="47.50549" lon="6.77532">
        <ele>313</ele>
        <time>2015-06-14T10:43:02.000Z</time>
      </trkpt>
      <trkpt lat="47.50552" lon="6.77538">
        <ele>313</ele>
        <time>2015-06-14T10:43:03.000Z</time>
      </trkpt>
      <trkpt lat="47.50555" lon="6.77544">
        <ele>313</ele>
        <time>2015-06-14T10:43:04.000Z</time>
      </trkpt>
      <trkpt lat="47.50558" lon="6.77549">
        <ele>313</ele>
        <time>2015-06-14T10:43:05.000Z</time>
      </trkpt>
      <trkpt lat="47.50563" lon="6.77552">
        <ele>313</ele>
        <time>2015-06-14T10:43:06.000Z</time>
      </trkpt>
      <trkpt lat="47.50567" lon="6.77553">
        <ele>313</ele>
        <time>2015-06-14T10:43:07.000Z</time>
      </trkpt>
      <trkpt lat="47.50572" lon="6.77554">
        <ele>313</ele>
        <time>2015-06-14T10:43:08.000Z</time>
      </trkpt>
      <trkpt lat="47.50577" lon="6.77555">
        <ele>313</ele>
        <time>2015-06-14T10:43:09.000Z</time>
      </trkpt>
      <trkpt lat="47.50581" lon="6.77551">
        <ele>313</ele>
        <time>2015-06-14T10:43:10.000Z</time>
      </trkpt>
      <trkpt lat="47.50584" lon="6.77546">
        <ele>313</ele>
        <time>2015-06-14T10:43:11.000Z</time>
      </trkpt>
      <trkpt lat="47.50583" lon="6.77539">
        <ele>313</ele>
        <time>2015-06-14T10:43:12.000Z</time>
      </trkpt>
      <trkpt lat="47.50584" lon="6.77534">
        <ele>313</ele>
        <time>2015-06-14T10:43:13.000Z</time>
      </trkpt>
      <trkpt lat="47.5059" lon="6.77535">
        <ele>313</ele>
        <time>2015-06-14T10:43:14.000Z</time>
      </trkpt>
      <trkpt lat="47.50595" lon="6.77535">
        <ele>313</ele>
        <time>2015-06-14T10:43:15.000Z</time>
      </trkpt>
      <trkpt lat="47.50596" lon="6.77535">
        <ele>313</ele>
        <time>2015-06-14T10:43:16.000Z</time>
      </trkpt>
      <trkpt lat="47.50598" lon="6.77534">
        <ele>313</ele>
        <time>2015-06-14T10:43:17.000Z</time>
      </trkpt>
      <trkpt lat="47.50603" lon="6.77532">
        <ele>313</ele>
        <time>2015-06-14T10:43:18.000Z</time>
      </trkpt>
      <trkpt lat="47.50608" lon="6.7753">
        <ele>313</ele>
        <time>2015-06-14T10:43:19.000Z</time>
      </trkpt>
      <trkpt lat="47.50612" lon="6.77531">
        <ele>313</ele>
        <time>2015-06-14T10:43:20.000Z</time>
      </trkpt>
      <trkpt lat="47.50616" lon="6.7753">
        <ele>313</ele>
        <time>2015-06-14T10:43:21.000Z</time>
      </trkpt>
      <trkpt lat="47.50622" lon="6.77531">
        <ele>313</ele>
        <time>2015-06-14T10:43:22.000Z</time>
      </trkpt>
      <trkpt lat="47.50627" lon="6.77532">
        <ele>313</ele>
        <time>2015-06-14T10:43:23.000Z</time>
      </trkpt>
      <trkpt lat="47.50637" lon="6.77535">
        <ele>313</ele>
        <time>2015-06-14T10:43:24.000Z</time>
      </trkpt>
      <trkpt lat="47.50642" lon="6.77536">
        <ele>313</ele>
        <time>2015-06-14T10:43:25.000Z</time>
      </trkpt>
      <trkpt lat="47.50646" lon="6.77538">
        <ele>313</ele>
        <time>2015-06-14T10:43:26.000Z</time>
      </trkpt>
      <trkpt lat="47.50651" lon="6.77539">
        <ele>313</ele>
        <time>2015-06-14T10:43:27.000Z</time>
      </trkpt>
      <trkpt lat="47.50656" lon="6.7754">
        <ele>313</ele>
        <time>2015-06-14T10:43:28.000Z</time>
      </trkpt>
      <trkpt lat="47.50661" lon="6.77541">
        <ele>313</ele>
        <time>2015-06-14T10:43:29.000Z</time>
      </trkpt>
      <trkpt lat="47.50666" lon="6.7754">
        <ele>313</ele>
        <time>2015-06-14T10:43:30.000Z</time>
      </trkpt>
      <trkpt lat="47.50671" lon="6.77535">
        <ele>313</ele>
        <time>2015-06-14T10:43:31.000Z</time>
      </trkpt>
      <trkpt lat="47.50675" lon="6.77533">
        <ele>313</ele>
        <time>2015-06-14T10:43:32.000Z</time>
      </trkpt>
      <trkpt lat="47.50681" lon="6.77532">
        <ele>313</ele>
        <time>2015-06-14T10:43:33.000Z</time>
      </trkpt>
      <trkpt lat="47.50686" lon="6.77532">
        <ele>313</ele>
        <time>2015-06-14T10:43:34.000Z</time>
      </trkpt>
      <trkpt lat="47.50691" lon="6.77531">
        <ele>313</ele>
        <time>2015-06-14T10:43:35.000Z</time>
      </trkpt>
      <trkpt lat="47.50696" lon="6.7753">
        <ele>313</ele>
        <time>2015-06-14T10:43:36.000Z</time>
      </trkpt>
      <trkpt lat="47.507" lon="6.77532">
        <ele>313</ele>
        <time>2015-06-14T10:43:37.000Z</time>
      </trkpt>
      <trkpt lat="47.50705" lon="6.77533">
        <ele>313</ele>
        <time>2015-06-14T10:43:38.000Z</time>
      </trkpt>
      <trkpt lat="47.5071" lon="6.77538">
        <ele>313</ele>
        <time>2015-06-14T10:43:39.000Z</time>
      </trkpt>
      <trkpt lat="47.50713" lon="6.77541">
        <ele>313</ele>
        <time>2015-06-14T10:43:40.000Z</time>
      </trkpt>
      <trkpt lat="47.50717" lon="6.77544">
        <ele>313</ele>
        <time>2015-06-14T10:43:41.000Z</time>
      </trkpt>
      <trkpt lat="47.50721" lon="6.77547">
        <ele>313</ele>
        <time>2015-06-14T10:43:42.000Z</time>
      </trkpt>
      <trkpt lat="47.50727" lon="6.77548">
        <ele>313</ele>
        <time>2015-06-14T10:43:43.000Z</time>
      </trkpt>
      <trkpt lat="47.50732" lon="6.77547">
        <ele>313</ele>
        <time>2015-06-14T10:43:44.000Z</time>
      </trkpt>
      <trkpt lat="47.50736" lon="6.77548">
        <ele>313</ele>
        <time>2015-06-14T10:43:45.000Z</time>
      </trkpt>
      <trkpt lat="47.5074" lon="6.7755">
        <ele>313</ele>
        <time>2015-06-14T10:43:46.000Z</time>
      </trkpt>
      <trkpt lat="47.50745" lon="6.77552">
        <ele>313</ele>
        <time>2015-06-14T10:43:47.000Z</time>
      </trkpt>
      <trkpt lat="47.5075" lon="6.77554">
        <ele>313</ele>
        <time>2015-06-14T10:43:48.000Z</time>
      </trkpt>
      <trkpt lat="47.50754" lon="6.77559">
        <ele>314</ele>
        <time>2015-06-14T10:43:49.000Z</time>
      </trkpt>
      <trkpt lat="47.50757" lon="6.77562">
        <ele>314</ele>
        <time>2015-06-14T10:43:50.000Z</time>
      </trkpt>
      <trkpt lat="47.5076" lon="6.77564">
        <ele>314</ele>
        <time>2015-06-14T10:43:51.000Z</time>
      </trkpt>
      <trkpt lat="47.50764" lon="6.77568">
        <ele>314</ele>
        <time>2015-06-14T10:43:52.000Z</time>
      </trkpt>
      <trkpt lat="47.50768" lon="6.77571">
        <ele>314</ele>
        <time>2015-06-14T10:43:53.000Z</time>
      </trkpt>
      <trkpt lat="47.5077" lon="6.77573">
        <ele>314</ele>
        <time>2015-06-14T10:43:53.999Z</time>
      </trkpt>
      <trkpt lat="47.50776" lon="6.77578">
        <ele>314</ele>
        <time>2015-06-14T10:43:55.000Z</time>
      </trkpt>
      <trkpt lat="47.50779" lon="6.77581">
        <ele>314</ele>
        <time>2015-06-14T10:43:56.000Z</time>
      </trkpt>
      <trkpt lat="47.50782" lon="6.77584">
        <ele>315</ele>
        <time>2015-06-14T10:43:57.000Z</time>
      </trkpt>
      <trkpt lat="47.50785" lon="6.77587">
        <ele>315</ele>
        <time>2015-06-14T10:43:58.000Z</time>
      </trkpt>
      <trkpt lat="47.50789" lon="6.7759">
        <ele>315</ele>
        <time>2015-06-14T10:43:59.000Z</time>
      </trkpt>
      <trkpt lat="47.50793" lon="6.77594">
        <ele>315</ele>
        <time>2015-06-14T10:44:00.000Z</time>
      </trkpt>
      <trkpt lat="47.50803" lon="6.77605">
        <ele>315</ele>
        <time>2015-06-14T10:44:01.000Z</time>
      </trkpt>
      <trkpt lat="47.50808" lon="6.7761">
        <ele>315</ele>
        <time>2015-06-14T10:44:02.000Z</time>
      </trkpt>
      <trkpt lat="47.50814" lon="6.77616">
        <ele>316</ele>
        <time>2015-06-14T10:44:03.000Z</time>
      </trkpt>
      <trkpt lat="47.50819" lon="6.77622">
        <ele>316</ele>
        <time>2015-06-14T10:44:04.000Z</time>
      </trkpt>
      <trkpt lat="47.50823" lon="6.77626">
        <ele>316</ele>
        <time>2015-06-14T10:44:05.000Z</time>
      </trkpt>
      <trkpt lat="47.50828" lon="6.7763">
        <ele>316</ele>
        <time>2015-06-14T10:44:06.000Z</time>
      </trkpt>
      <trkpt lat="47.50833" lon="6.77635">
        <ele>316</ele>
        <time>2015-06-14T10:44:07.000Z</time>
      </trkpt>
      <trkpt lat="47.50839" lon="6.77641">
        <ele>317</ele>
        <time>2015-06-14T10:44:08.000Z</time>
      </trkpt>
      <trkpt lat="47.50846" lon="6.77646">
        <ele>317</ele>
        <time>2015-06-14T10:44:09.000Z</time>
      </trkpt>
      <trkpt lat="47.5085" lon="6.77651">
        <ele>317</ele>
        <time>2015-06-14T10:44:10.000Z</time>
      </trkpt>
      <trkpt lat="47.50853" lon="6.77657">
        <ele>317</ele>
        <time>2015-06-14T10:44:11.000Z</time>
      </trkpt>
      <trkpt lat="47.50857" lon="6.77663">
        <ele>317</ele>
        <time>2015-06-14T10:44:12.000Z</time>
      </trkpt>
      <trkpt lat="47.5086" lon="6.77668">
        <ele>316</ele>
        <time>2015-06-14T10:44:13.000Z</time>
      </trkpt>
      <trkpt lat="47.50863" lon="6.77672">
        <ele>316</ele>
        <time>2015-06-14T10:44:14.000Z</time>
      </trkpt>
      <trkpt lat="47.50866" lon="6.77677">
        <ele>316</ele>
        <time>2015-06-14T10:44:15.000Z</time>
      </trkpt>
      <trkpt lat="47.50868" lon="6.77682">
        <ele>316</ele>
        <time>2015-06-14T10:44:16.000Z</time>
      </trkpt>
      <trkpt lat="47.50871" lon="6.77686">
        <ele>316</ele>
        <time>2015-06-14T10:44:17.000Z</time>
      </trkpt>
      <trkpt lat="47.50874" lon="6.77689">
        <ele>316</ele>
        <time>2015-06-14T10:44:18.000Z</time>
      </trkpt>
      <trkpt lat="47.50877" lon="6.77693">
        <ele>316</ele>
        <time>2015-06-14T10:44:19.000Z</time>
      </trkpt>
      <trkpt lat="47.5088" lon="6.77698">
        <ele>316</ele>
        <time>2015-06-14T10:44:20.000Z</time>
      </trkpt>
      <trkpt lat="47.50884" lon="6.777">
        <ele>316</ele>
        <time>2015-06-14T10:44:21.000Z</time>
      </trkpt>
      <trkpt lat="47.50889" lon="6.77701">
        <ele>316</ele>
        <time>2015-06-14T10:44:22.000Z</time>
      </trkpt>
      <trkpt lat="47.50893" lon="6.77702">
        <ele>316</ele>
        <time>2015-06-14T10:44:23.000Z</time>
      </trkpt>
      <trkpt lat="47.50896" lon="6.77702">
        <ele>316</ele>
        <time>2015-06-14T10:44:24.000Z</time>
      </trkpt>
      <trkpt lat="47.509" lon="6.77702">
        <ele>316</ele>
        <time>2015-06-14T10:44:25.000Z</time>
      </trkpt>
      <trkpt lat="47.50904" lon="6.77701">
        <ele>316</ele>
        <time>2015-06-14T10:44:26.000Z</time>
      </trkpt>
      <trkpt lat="47.50908" lon="6.77701">
        <ele>316</ele>
        <time>2015-06-14T10:44:27.000Z</time>
      </trkpt>
      <trkpt lat="47.50912" lon="6.77701">
        <ele>316</ele>
        <time>2015-06-14T10:44:28.000Z</time>
      </trkpt>
      <trkpt lat="47.50917" lon="6.77701">
        <ele>316</ele>
        <time>2015-06-14T10:44:29.000Z</time>
      </trkpt>
      <trkpt lat="47.50921" lon="6.77701">
        <ele>315</ele>
        <time>2015-06-14T10:44:30.000Z</time>
      </trkpt>
      <trkpt lat="47.50925" lon="6.77702">
        <ele>315</ele>
        <time>2015-06-14T10:44:31.000Z</time>
      </trkpt>
      <trkpt lat="47.50929" lon="6.77703">
        <ele>315</ele>
        <time>2015-06-14T10:44:32.000Z</time>
      </trkpt>
      <trkpt lat="47.50932" lon="6.77704">
        <ele>315</ele>
        <time>2015-06-14T10:44:33.000Z</time>
      </trkpt>
      <trkpt lat="47.50936" lon="6.77704">
        <ele>315</ele>
        <time>2015-06-14T10:44:34.000Z</time>
      </trkpt>
      <trkpt lat="47.50939" lon="6.77704">
        <ele>315</ele>
        <time>2015-06-14T10:44:35.000Z</time>
      </trkpt>
      <trkpt lat="47.50942" lon="6.77704">
        <ele>315</ele>
        <time>2015-06-14T10:44:36.000Z</time>
      </trkpt>
      <trkpt lat="47.50945" lon="6.77704">
        <ele>315</ele>
        <time>2015-06-14T10:44:37.000Z</time>
      </trkpt>
      <trkpt lat="47.50947" lon="6.77704">
        <ele>315</ele>
        <time>2015-06-14T10:44:38.000Z</time>
      </trkpt>
      <trkpt lat="47.50951" lon="6.77704">
        <ele>315</ele>
        <time>2015-06-14T10:44:40.000Z</time>
      </trkpt>
      <trkpt lat="47.50953" lon="6.77704">
        <ele>315</ele>
        <time>2015-06-14T10:44:41.000Z</time>
      </trkpt>
      <trkpt lat="47.50955" lon="6.77703">
        <ele>315</ele>
        <time>2015-06-14T10:44:42.000Z</time>
      </trkpt>
      <trkpt lat="47.50957" lon="6.77702">
        <ele>315</ele>
        <time>2015-06-14T10:44:43.000Z</time>
      </trkpt>
      <trkpt lat="47.50961" lon="6.777">
        <ele>315</ele>
        <time>2015-06-14T10:44:44.000Z</time>
      </trkpt>
      <trkpt lat="47.50964" lon="6.77699">
        <ele>315</ele>
        <time>2015-06-14T10:44:45.000Z</time>
      </trkpt>
      <trkpt lat="47.50968" lon="6.77699">
        <ele>315</ele>
        <time>2015-06-14T10:44:46.000Z</time>
      </trkpt>
      <trkpt lat="47.50972" lon="6.777">
        <ele>315</ele>
        <time>2015-06-14T10:44:47.000Z</time>
      </trkpt>
      <trkpt lat="47.50976" lon="6.77702">
        <ele>315</ele>
        <time>2015-06-14T10:44:48.000Z</time>
      </trkpt>
      <trkpt lat="47.50979" lon="6.77704">
        <ele>315</ele>
        <time>2015-06-14T10:44:49.000Z</time>
      </trkpt>
      <trkpt lat="47.50982" lon="6.77707">
        <ele>315</ele>
        <time>2015-06-14T10:44:50.000Z</time>
      </trkpt>
      <trkpt lat="47.50985" lon="6.7771">
        <ele>315</ele>
        <time>2015-06-14T10:44:51.000Z</time>
      </trkpt>
      <trkpt lat="47.50989" lon="6.77712">
        <ele>315</ele>
        <time>2015-06-14T10:44:52.000Z</time>
      </trkpt>
      <trkpt lat="47.50992" lon="6.77715">
        <ele>315</ele>
        <time>2015-06-14T10:44:53.000Z</time>
      </trkpt>
      <trkpt lat="47.50995" lon="6.77717">
        <ele>315</ele>
        <time>2015-06-14T10:44:54.000Z</time>
      </trkpt>
      <trkpt lat="47.50998" lon="6.77719">
        <ele>315</ele>
        <time>2015-06-14T10:44:55.000Z</time>
      </trkpt>
      <trkpt lat="47.51001" lon="6.77722">
        <ele>316</ele>
        <time>2015-06-14T10:44:56.000Z</time>
      </trkpt>
      <trkpt lat="47.51004" lon="6.7773">
        <ele>316</ele>
        <time>2015-06-14T10:44:57.000Z</time>
      </trkpt>
      <trkpt lat="47.51008" lon="6.77733">
        <ele>316</ele>
        <time>2015-06-14T10:44:58.000Z</time>
      </trkpt>
      <trkpt lat="47.51011" lon="6.77735">
        <ele>316</ele>
        <time>2015-06-14T10:44:59.000Z</time>
      </trkpt>
      <trkpt lat="47.51015" lon="6.77736">
        <ele>317</ele>
        <time>2015-06-14T10:45:00.000Z</time>
      </trkpt>
      <trkpt lat="47.5102" lon="6.7774">
        <ele>317</ele>
        <time>2015-06-14T10:45:01.000Z</time>
      </trkpt>
      <trkpt lat="47.51024" lon="6.77743">
        <ele>317</ele>
        <time>2015-06-14T10:45:02.000Z</time>
      </trkpt>
      <trkpt lat="47.51027" lon="6.77744">
        <ele>317</ele>
        <time>2015-06-14T10:45:03.000Z</time>
      </trkpt>
      <trkpt lat="47.5103" lon="6.77745">
        <ele>317</ele>
        <time>2015-06-14T10:45:04.000Z</time>
      </trkpt>
      <trkpt lat="47.51033" lon="6.77746">
        <ele>317</ele>
        <time>2015-06-14T10:45:05.000Z</time>
      </trkpt>
      <trkpt lat="47.51036" lon="6.77746">
        <ele>317</ele>
        <time>2015-06-14T10:45:06.000Z</time>
      </trkpt>
      <trkpt lat="47.51038" lon="6.77747">
        <ele>317</ele>
        <time>2015-06-14T10:45:07.000Z</time>
      </trkpt>
      <trkpt lat="47.5104" lon="6.77747">
        <ele>317</ele>
        <time>2015-06-14T10:45:08.000Z</time>
      </trkpt>
      <trkpt lat="47.51044" lon="6.77749">
        <ele>317</ele>
        <time>2015-06-14T10:45:10.000Z</time>
      </trkpt>
      <trkpt lat="47.51045" lon="6.77752">
        <ele>318</ele>
        <time>2015-06-14T10:45:11.000Z</time>
      </trkpt>
      <trkpt lat="47.51046" lon="6.77755">
        <ele>318</ele>
        <time>2015-06-14T10:45:12.000Z</time>
      </trkpt>
      <trkpt lat="47.51047" lon="6.77758">
        <ele>318</ele>
        <time>2015-06-14T10:45:13.000Z</time>
      </trkpt>
      <trkpt lat="47.51048" lon="6.77763">
        <ele>318</ele>
        <time>2015-06-14T10:45:15.000Z</time>
      </trkpt>
      <trkpt lat="47.51049" lon="6.77765">
        <ele>318</ele>
        <time>2015-06-14T10:45:16.000Z</time>
      </trkpt>
      <trkpt lat="47.51051" lon="6.77766">
        <ele>318</ele>
        <time>2015-06-14T10:45:17.000Z</time>
      </trkpt>
      <trkpt lat="47.51054" lon="6.77767">
        <ele>318</ele>
        <time>2015-06-14T10:45:18.000Z</time>
      </trkpt>
      <trkpt lat="47.51058" lon="6.77769">
        <ele>318</ele>
        <time>2015-06-14T10:45:19.000Z</time>
      </trkpt>
      <trkpt lat="47.51062" lon="6.7777">
        <ele>318</ele>
        <time>2015-06-14T10:45:20.000Z</time>
      </trkpt>
      <trkpt lat="47.51066" lon="6.7777">
        <ele>319</ele>
        <time>2015-06-14T10:45:21.000Z</time>
      </trkpt>
      <trkpt lat="47.5107" lon="6.7777">
        <ele>319</ele>
        <time>2015-06-14T10:45:22.000Z</time>
      </trkpt>
      <trkpt lat="47.51074" lon="6.7777">
        <ele>319</ele>
        <time>2015-06-14T10:45:23.000Z</time>
      </trkpt>
      <trkpt lat="47.51078" lon="6.7777">
        <ele>319</ele>
        <time>2015-06-14T10:45:24.000Z</time>
      </trkpt>
      <trkpt lat="47.51082" lon="6.7777">
        <ele>319</ele>
        <time>2015-06-14T10:45:25.000Z</time>
      </trkpt>
      <trkpt lat="47.51086" lon="6.77772">
        <ele>321</ele>
        <time>2015-06-14T10:45:26.000Z</time>
      </trkpt>
      <trkpt lat="47.51089" lon="6.77773">
        <ele>321</ele>
        <time>2015-06-14T10:45:27.000Z</time>
      </trkpt>
      <trkpt lat="47.51093" lon="6.77775">
        <ele>321</ele>
        <time>2015-06-14T10:45:28.000Z</time>
      </trkpt>
      <trkpt lat="47.51096" lon="6.77777">
        <ele>321</ele>
        <time>2015-06-14T10:45:29.000Z</time>
      </trkpt>
      <trkpt lat="47.51099" lon="6.77779">
        <ele>322</ele>
        <time>2015-06-14T10:45:30.000Z</time>
      </trkpt>
      <trkpt lat="47.51103" lon="6.7778">
        <ele>322</ele>
        <time>2015-06-14T10:45:31.000Z</time>
      </trkpt>
      <trkpt lat="47.51108" lon="6.77781">
        <ele>322</ele>
        <time>2015-06-14T10:45:32.000Z</time>
      </trkpt>
      <trkpt lat="47.51112" lon="6.77783">
        <ele>322</ele>
        <time>2015-06-14T10:45:33.000Z</time>
      </trkpt>
      <trkpt lat="47.51116" lon="6.77784">
        <ele>322</ele>
        <time>2015-06-14T10:45:34.000Z</time>
      </trkpt>
      <trkpt lat="47.51121" lon="6.77786">
        <ele>322</ele>
        <time>2015-06-14T10:45:35.000Z</time>
      </trkpt>
      <trkpt lat="47.51125" lon="6.77787">
        <ele>322</ele>
        <time>2015-06-14T10:45:36.000Z</time>
      </trkpt>
      <trkpt lat="47.51129" lon="6.77788">
        <ele>322</ele>
        <time>2015-06-14T10:45:37.000Z</time>
      </trkpt>
      <trkpt lat="47.51132" lon="6.77788">
        <ele>322</ele>
        <time>2015-06-14T10:45:38.000Z</time>
      </trkpt>
      <trkpt lat="47.51136" lon="6.77788">
        <ele>323</ele>
        <time>2015-06-14T10:45:39.000Z</time>
      </trkpt>
      <trkpt lat="47.51139" lon="6.77788">
        <ele>323</ele>
        <time>2015-06-14T10:45:40.000Z</time>
      </trkpt>
      <trkpt lat="47.51142" lon="6.77789">
        <ele>323</ele>
        <time>2015-06-14T10:45:41.000Z</time>
      </trkpt>
      <trkpt lat="47.51145" lon="6.7779">
        <ele>323</ele>
        <time>2015-06-14T10:45:42.000Z</time>
      </trkpt>
      <trkpt lat="47.51147" lon="6.77791">
        <ele>323</ele>
        <time>2015-06-14T10:45:43.000Z</time>
      </trkpt>
      <trkpt lat="47.5115" lon="6.77791">
        <ele>323</ele>
        <time>2015-06-14T10:45:44.000Z</time>
      </trkpt>
      <trkpt lat="47.51154" lon="6.77791">
        <ele>323</ele>
        <time>2015-06-14T10:45:45.000Z</time>
      </trkpt>
      <trkpt lat="47.51157" lon="6.77791">
        <ele>323</ele>
        <time>2015-06-14T10:45:46.000Z</time>
      </trkpt>
      <trkpt lat="47.5116" lon="6.77791">
        <ele>323</ele>
        <time>2015-06-14T10:45:47.000Z</time>
      </trkpt>
      <trkpt lat="47.51164" lon="6.77791">
        <ele>323</ele>
        <time>2015-06-14T10:45:48.000Z</time>
      </trkpt>
      <trkpt lat="47.51167" lon="6.77791">
        <ele>326</ele>
        <time>2015-06-14T10:45:49.000Z</time>
      </trkpt>
      <trkpt lat="47.51171" lon="6.77792">
        <ele>326</ele>
        <time>2015-06-14T10:45:50.000Z</time>
      </trkpt>
      <trkpt lat="47.51174" lon="6.77792">
        <ele>326</ele>
        <time>2015-06-14T10:45:51.000Z</time>
      </trkpt>
      <trkpt lat="47.51177" lon="6.77792">
        <ele>326</ele>
        <time>2015-06-14T10:45:52.000Z</time>
      </trkpt>
      <trkpt lat="47.5118" lon="6.77793">
        <ele>326</ele>
        <time>2015-06-14T10:45:53.000Z</time>
      </trkpt>
      <trkpt lat="47.51182" lon="6.77794">
        <ele>326</ele>
        <time>2015-06-14T10:45:54.000Z</time>
      </trkpt>
      <trkpt lat="47.51185" lon="6.77794">
        <ele>326</ele>
        <time>2015-06-14T10:45:55.000Z</time>
      </trkpt>
      <trkpt lat="47.51188" lon="6.77793">
        <ele>326</ele>
        <time>2015-06-14T10:45:56.000Z</time>
      </trkpt>
      <trkpt lat="47.51191" lon="6.77793">
        <ele>327</ele>
        <time>2015-06-14T10:45:57.000Z</time>
      </trkpt>
      <trkpt lat="47.51195" lon="6.77792">
        <ele>327</ele>
        <time>2015-06-14T10:45:59.000Z</time>
      </trkpt>
      <trkpt lat="47.51197" lon="6.77792">
        <ele>327</ele>
        <time>2015-06-14T10:46:00.000Z</time>
      </trkpt>
      <trkpt lat="47.51199" lon="6.77792">
        <ele>327</ele>
        <time>2015-06-14T10:46:01.000Z</time>
      </trkpt>
      <trkpt lat="47.51202" lon="6.77791">
        <ele>327</ele>
        <time>2015-06-14T10:46:02.000Z</time>
      </trkpt>
      <trkpt lat="47.51204" lon="6.77791">
        <ele>327</ele>
        <time>2015-06-14T10:46:03.000Z</time>
      </trkpt>
      <trkpt lat="47.51206" lon="6.77791">
        <ele>327</ele>
        <time>2015-06-14T10:46:04.000Z</time>
      </trkpt>
      <trkpt lat="47.51211" lon="6.77791">
        <ele>327</ele>
        <time>2015-06-14T10:46:06.000Z</time>
      </trkpt>
      <trkpt lat="47.51213" lon="6.7779">
        <ele>327</ele>
        <time>2015-06-14T10:46:07.000Z</time>
      </trkpt>
      <trkpt lat="47.51217" lon="6.77789">
        <ele>327</ele>
        <time>2015-06-14T10:46:09.000Z</time>
      </trkpt>
      <trkpt lat="47.51219" lon="6.77788">
        <ele>327</ele>
        <time>2015-06-14T10:46:10.000Z</time>
      </trkpt>
      <trkpt lat="47.51223" lon="6.77788">
        <ele>327</ele>
        <time>2015-06-14T10:46:12.000Z</time>
      </trkpt>
      <trkpt lat="47.51225" lon="6.77788">
        <ele>327</ele>
        <time>2015-06-14T10:46:13.000Z</time>
      </trkpt>
      <trkpt lat="47.51229" lon="6.77788">
        <ele>328</ele>
        <time>2015-06-14T10:46:15.000Z</time>
      </trkpt>
      <trkpt lat="47.51231" lon="6.77787">
        <ele>328</ele>
        <time>2015-06-14T10:46:16.000Z</time>
      </trkpt>
      <trkpt lat="47.51234" lon="6.77787">
        <ele>328</ele>
        <time>2015-06-14T10:46:18.000Z</time>
      </trkpt>
      <trkpt lat="47.51237" lon="6.77787">
        <ele>328</ele>
        <time>2015-06-14T10:46:19.000Z</time>
      </trkpt>
      <trkpt lat="47.5124" lon="6.77787">
        <ele>328</ele>
        <time>2015-06-14T10:46:21.000Z</time>
      </trkpt>
      <trkpt lat="47.51242" lon="6.77787">
        <ele>328</ele>
        <time>2015-06-14T10:46:22.000Z</time>
      </trkpt>
      <trkpt lat="47.51246" lon="6.77786">
        <ele>328</ele>
        <time>2015-06-14T10:46:24.000Z</time>
      </trkpt>
      <trkpt lat="47.51248" lon="6.77785">
        <ele>328</ele>
        <time>2015-06-14T10:46:25.000Z</time>
      </trkpt>
      <trkpt lat="47.51252" lon="6.77784">
        <ele>334</ele>
        <time>2015-06-14T10:46:27.000Z</time>
      </trkpt>
      <trkpt lat="47.51254" lon="6.77783">
        <ele>334</ele>
        <time>2015-06-14T10:46:28.000Z</time>
      </trkpt>
      <trkpt lat="47.51257" lon="6.77782">
        <ele>334</ele>
        <time>2015-06-14T10:46:30.000Z</time>
      </trkpt>
      <trkpt lat="47.51259" lon="6.77782">
        <ele>334</ele>
        <time>2015-06-14T10:46:31.000Z</time>
      </trkpt>
      <trkpt lat="47.51263" lon="6.77782">
        <ele>334</ele>
        <time>2015-06-14T10:46:33.000Z</time>
      </trkpt>
      <trkpt lat="47.51265" lon="6.77782">
        <ele>334</ele>
        <time>2015-06-14T10:46:34.000Z</time>
      </trkpt>
      <trkpt lat="47.51269" lon="6.77782">
        <ele>334</ele>
        <time>2015-06-14T10:46:36.000Z</time>
      </trkpt>
      <trkpt lat="47.51272" lon="6.77782">
        <ele>335</ele>
        <time>2015-06-14T10:46:37.000Z</time>
      </trkpt>
      <trkpt lat="47.51275" lon="6.77783">
        <ele>335</ele>
        <time>2015-06-14T10:46:38.000Z</time>
      </trkpt>
      <trkpt lat="47.51277" lon="6.77784">
        <ele>335</ele>
        <time>2015-06-14T10:46:39.000Z</time>
      </trkpt>
      <trkpt lat="47.5128" lon="6.77786">
        <ele>335</ele>
        <time>2015-06-14T10:46:41.000Z</time>
      </trkpt>
      <trkpt lat="47.51282" lon="6.77786">
        <ele>335</ele>
        <time>2015-06-14T10:46:42.000Z</time>
      </trkpt>
      <trkpt lat="47.51285" lon="6.77786">
        <ele>336</ele>
        <time>2015-06-14T10:46:44.000Z</time>
      </trkpt>
      <trkpt lat="47.51287" lon="6.77785">
        <ele>336</ele>
        <time>2015-06-14T10:46:45.000Z</time>
      </trkpt>
      <trkpt lat="47.51291" lon="6.77783">
        <ele>336</ele>
        <time>2015-06-14T10:46:47.000Z</time>
      </trkpt>
      <trkpt lat="47.51293" lon="6.77782">
        <ele>336</ele>
        <time>2015-06-14T10:46:48.000Z</time>
      </trkpt>
      <trkpt lat="47.51297" lon="6.77781">
        <ele>337</ele>
        <time>2015-06-14T10:46:50.000Z</time>
      </trkpt>
      <trkpt lat="47.51299" lon="6.77781">
        <ele>337</ele>
        <time>2015-06-14T10:46:51.000Z</time>
      </trkpt>
      <trkpt lat="47.51303" lon="6.7778">
        <ele>337</ele>
        <time>2015-06-14T10:46:53.000Z</time>
      </trkpt>
      <trkpt lat="47.51305" lon="6.7778">
        <ele>337</ele>
        <time>2015-06-14T10:46:54.000Z</time>
      </trkpt>
      <trkpt lat="47.51309" lon="6.7778">
        <ele>338</ele>
        <time>2015-06-14T10:46:56.000Z</time>
      </trkpt>
      <trkpt lat="47.51311" lon="6.7778">
        <ele>338</ele>
        <time>2015-06-14T10:46:57.000Z</time>
      </trkpt>
      <trkpt lat="47.51315" lon="6.77779">
        <ele>338</ele>
        <time>2015-06-14T10:46:59.000Z</time>
      </trkpt>
      <trkpt lat="47.51316" lon="6.77779">
        <ele>338</ele>
        <time>2015-06-14T10:47:00.000Z</time>
      </trkpt>
      <trkpt lat="47.51321" lon="6.7778">
        <ele>338</ele>
        <time>2015-06-14T10:47:04.000Z</time>
      </trkpt>
      <trkpt lat="47.51322" lon="6.7778">
        <ele>339</ele>
        <time>2015-06-14T10:47:05.000Z</time>
      </trkpt>
      <trkpt lat="47.51326" lon="6.7778">
        <ele>339</ele>
        <time>2015-06-14T10:47:07.000Z</time>
      </trkpt>
      <trkpt lat="47.51328" lon="6.7778">
        <ele>339</ele>
        <time>2015-06-14T10:47:08.000Z</time>
      </trkpt>
      <trkpt lat="47.51332" lon="6.7778">
        <ele>339</ele>
        <time>2015-06-14T10:47:10.000Z</time>
      </trkpt>
      <trkpt lat="47.51334" lon="6.77781">
        <ele>348</ele>
        <time>2015-06-14T10:47:11.000Z</time>
      </trkpt>
      <trkpt lat="47.51338" lon="6.77781">
        <ele>348</ele>
        <time>2015-06-14T10:47:13.000Z</time>
      </trkpt>
      <trkpt lat="47.5134" lon="6.7778">
        <ele>348</ele>
        <time>2015-06-14T10:47:14.000Z</time>
      </trkpt>
      <trkpt lat="47.51344" lon="6.77778">
        <ele>348</ele>
        <time>2015-06-14T10:47:16.000Z</time>
      </trkpt>
      <trkpt lat="47.51346" lon="6.77776">
        <ele>348</ele>
        <time>2015-06-14T10:47:17.000Z</time>
      </trkpt>
      <trkpt lat="47.51349" lon="6.77773">
        <ele>348</ele>
        <time>2015-06-14T10:47:19.000Z</time>
      </trkpt>
      <trkpt lat="47.51351" lon="6.77771">
        <ele>348</ele>
        <time>2015-06-14T10:47:20.000Z</time>
      </trkpt>
      <trkpt lat="47.51354" lon="6.77769">
        <ele>349</ele>
        <time>2015-06-14T10:47:22.000Z</time>
      </trkpt>
      <trkpt lat="47.51355" lon="6.77767">
        <ele>349</ele>
        <time>2015-06-14T10:47:23.000Z</time>
      </trkpt>
      <trkpt lat="47.51358" lon="6.77765">
        <ele>349</ele>
        <time>2015-06-14T10:47:25.000Z</time>
      </trkpt>
      <trkpt lat="47.5136" lon="6.77764">
        <ele>349</ele>
        <time>2015-06-14T10:47:26.000Z</time>
      </trkpt>
      <trkpt lat="47.51364" lon="6.77762">
        <ele>350</ele>
        <time>2015-06-14T10:47:28.000Z</time>
      </trkpt>
      <trkpt lat="47.51366" lon="6.77761">
        <ele>350</ele>
        <time>2015-06-14T10:47:29.000Z</time>
      </trkpt>
      <trkpt lat="47.51369" lon="6.77758">
        <ele>350</ele>
        <time>2015-06-14T10:47:31.000Z</time>
      </trkpt>
      <trkpt lat="47.5137" lon="6.77756">
        <ele>350</ele>
        <time>2015-06-14T10:47:32.000Z</time>
      </trkpt>
      <trkpt lat="47.51373" lon="6.77753">
        <ele>351</ele>
        <time>2015-06-14T10:47:34.000Z</time>
      </trkpt>
      <trkpt lat="47.51375" lon="6.77752">
        <ele>351</ele>
        <time>2015-06-14T10:47:35.000Z</time>
      </trkpt>
      <trkpt lat="47.51378" lon="6.77752">
        <ele>351</ele>
        <time>2015-06-14T10:47:37.000Z</time>
      </trkpt>
      <trkpt lat="47.5138" lon="6.77751">
        <ele>351</ele>
        <time>2015-06-14T10:47:38.000Z</time>
      </trkpt>
      <trkpt lat="47.51383" lon="6.7775">
        <ele>352</ele>
        <time>2015-06-14T10:47:39.999Z</time>
      </trkpt>
      <trkpt lat="47.51385" lon="6.77749">
        <ele>354</ele>
        <time>2015-06-14T10:47:41.000Z</time>
      </trkpt>
      <trkpt lat="47.51387" lon="6.77748">
        <ele>355</ele>
        <time>2015-06-14T10:47:42.000Z</time>
      </trkpt>
      <trkpt lat="47.51389" lon="6.77747">
        <ele>355</ele>
        <time>2015-06-14T10:47:43.000Z</time>
      </trkpt>
      <trkpt lat="47.51392" lon="6.77746">
        <ele>355</ele>
        <time>2015-06-14T10:47:44.000Z</time>
      </trkpt>
      <trkpt lat="47.51394" lon="6.77746">
        <ele>355</ele>
        <time>2015-06-14T10:47:45.000Z</time>
      </trkpt>
      <trkpt lat="47.51397" lon="6.77746">
        <ele>355</ele>
        <time>2015-06-14T10:47:47.000Z</time>
      </trkpt>
      <trkpt lat="47.51399" lon="6.77746">
        <ele>356</ele>
        <time>2015-06-14T10:47:48.000Z</time>
      </trkpt>
      <trkpt lat="47.51402" lon="6.77747">
        <ele>356</ele>
        <time>2015-06-14T10:47:50.000Z</time>
      </trkpt>
      <trkpt lat="47.51404" lon="6.77748">
        <ele>356</ele>
        <time>2015-06-14T10:47:51.000Z</time>
      </trkpt>
      <trkpt lat="47.51407" lon="6.77748">
        <ele>356</ele>
        <time>2015-06-14T10:47:53.000Z</time>
      </trkpt>
      <trkpt lat="47.51408" lon="6.77748">
        <ele>356</ele>
        <time>2015-06-14T10:47:54.000Z</time>
      </trkpt>
      <trkpt lat="47.51412" lon="6.77746">
        <ele>356</ele>
        <time>2015-06-14T10:47:59.000Z</time>
      </trkpt>
      <trkpt lat="47.51413" lon="6.77745">
        <ele>356</ele>
        <time>2015-06-14T10:48:00.000Z</time>
      </trkpt>
      <trkpt lat="47.51417" lon="6.77742">
        <ele>359</ele>
        <time>2015-06-14T10:48:02.000Z</time>
      </trkpt>
      <trkpt lat="47.51419" lon="6.77741">
        <ele>359</ele>
        <time>2015-06-14T10:48:03.000Z</time>
      </trkpt>
      <trkpt lat="47.51422" lon="6.77739">
        <ele>360</ele>
        <time>2015-06-14T10:48:04.000Z</time>
      </trkpt>
      <trkpt lat="47.51424" lon="6.77738">
        <ele>361</ele>
        <time>2015-06-14T10:48:05.000Z</time>
      </trkpt>
      <trkpt lat="47.51429" lon="6.77739">
        <ele>361</ele>
        <time>2015-06-14T10:48:07.000Z</time>
      </trkpt>
      <trkpt lat="47.51431" lon="6.7774">
        <ele>361</ele>
        <time>2015-06-14T10:48:08.000Z</time>
      </trkpt>
      <trkpt lat="47.51435" lon="6.77741">
        <ele>362</ele>
        <time>2015-06-14T10:48:10.000Z</time>
      </trkpt>
      <trkpt lat="47.51437" lon="6.77741">
        <ele>362</ele>
        <time>2015-06-14T10:48:11.000Z</time>
      </trkpt>
      <trkpt lat="47.5144" lon="6.77743">
        <ele>363</ele>
        <time>2015-06-14T10:48:13.000Z</time>
      </trkpt>
      <trkpt lat="47.51441" lon="6.77745">
        <ele>363</ele>
        <time>2015-06-14T10:48:14.000Z</time>
      </trkpt>
      <trkpt lat="47.51444" lon="6.77749">
        <ele>363</ele>
        <time>2015-06-14T10:48:16.000Z</time>
      </trkpt>
      <trkpt lat="47.51445" lon="6.77749">
        <ele>363</ele>
        <time>2015-06-14T10:48:17.000Z</time>
      </trkpt>
      <trkpt lat="47.51449" lon="6.77748">
        <ele>363</ele>
        <time>2015-06-14T10:48:19.000Z</time>
      </trkpt>
      <trkpt lat="47.51451" lon="6.77746">
        <ele>364</ele>
        <time>2015-06-14T10:48:20.000Z</time>
      </trkpt>
      <trkpt lat="47.51455" lon="6.77744">
        <ele>364</ele>
        <time>2015-06-14T10:48:22.000Z</time>
      </trkpt>
      <trkpt lat="47.51456" lon="6.77743">
        <ele>364</ele>
        <time>2015-06-14T10:48:23.000Z</time>
      </trkpt>
      <trkpt lat="47.5146" lon="6.77741">
        <ele>365</ele>
        <time>2015-06-14T10:48:25.000Z</time>
      </trkpt>
      <trkpt lat="47.51461" lon="6.7774">
        <ele>365</ele>
        <time>2015-06-14T10:48:26.000Z</time>
      </trkpt>
      <trkpt lat="47.51464" lon="6.77739">
        <ele>365</ele>
        <time>2015-06-14T10:48:27.000Z</time>
      </trkpt>
      <trkpt lat="47.51466" lon="6.77737">
        <ele>365</ele>
        <time>2015-06-14T10:48:28.000Z</time>
      </trkpt>
      <trkpt lat="47.51468" lon="6.77735">
        <ele>365</ele>
        <time>2015-06-14T10:48:29.000Z</time>
      </trkpt>
      <trkpt lat="47.51471" lon="6.77733">
        <ele>365</ele>
        <time>2015-06-14T10:48:30.000Z</time>
      </trkpt>
      <trkpt lat="47.51473" lon="6.77731">
        <ele>366</ele>
        <time>2015-06-14T10:48:31.000Z</time>
      </trkpt>
      <trkpt lat="47.51475" lon="6.7773">
        <ele>366</ele>
        <time>2015-06-14T10:48:32.000Z</time>
      </trkpt>
      <trkpt lat="47.51477" lon="6.77728">
        <ele>366</ele>
        <time>2015-06-14T10:48:33.000Z</time>
      </trkpt>
      <trkpt lat="47.51479" lon="6.77727">
        <ele>366</ele>
        <time>2015-06-14T10:48:34.000Z</time>
      </trkpt>
      <trkpt lat="47.51483" lon="6.77727">
        <ele>366</ele>
        <time>2015-06-14T10:48:36.000Z</time>
      </trkpt>
      <trkpt lat="47.51485" lon="6.77728">
        <ele>366</ele>
        <time>2015-06-14T10:48:37.000Z</time>
      </trkpt>
      <trkpt lat="47.51488" lon="6.77729">
        <ele>366</ele>
        <time>2015-06-14T10:48:39.000Z</time>
      </trkpt>
      <trkpt lat="47.5149" lon="6.7773">
        <ele>366</ele>
        <time>2015-06-14T10:48:40.000Z</time>
      </trkpt>
      <trkpt lat="47.51494" lon="6.77728">
        <ele>366</ele>
        <time>2015-06-14T10:48:42.000Z</time>
      </trkpt>
      <trkpt lat="47.51496" lon="6.77726">
        <ele>366</ele>
        <time>2015-06-14T10:48:43.000Z</time>
      </trkpt>
      <trkpt lat="47.51498" lon="6.77723">
        <ele>366</ele>
        <time>2015-06-14T10:48:44.000Z</time>
      </trkpt>
      <trkpt lat="47.515" lon="6.7772">
        <ele>367</ele>
        <time>2015-06-14T10:48:45.000Z</time>
      </trkpt>
      <trkpt lat="47.51501" lon="6.77718">
        <ele>371</ele>
        <time>2015-06-14T10:48:46.000Z</time>
      </trkpt>
      <trkpt lat="47.51503" lon="6.77715">
        <ele>371</ele>
        <time>2015-06-14T10:48:47.000Z</time>
      </trkpt>
      <trkpt lat="47.51506" lon="6.77715">
        <ele>372</ele>
        <time>2015-06-14T10:48:49.000Z</time>
      </trkpt>
      <trkpt lat="47.51508" lon="6.77715">
        <ele>372</ele>
        <time>2015-06-14T10:48:50.000Z</time>
      </trkpt>
      <trkpt lat="47.51511" lon="6.77717">
        <ele>372</ele>
        <time>2015-06-14T10:48:52.000Z</time>
      </trkpt>
      <trkpt lat="47.51512" lon="6.77718">
        <ele>372</ele>
        <time>2015-06-14T10:48:53.000Z</time>
      </trkpt>
      <trkpt lat="47.51515" lon="6.7772">
        <ele>372</ele>
        <time>2015-06-14T10:48:55.000Z</time>
      </trkpt>
      <trkpt lat="47.51517" lon="6.77721">
        <ele>372</ele>
        <time>2015-06-14T10:48:56.000Z</time>
      </trkpt>
      <trkpt lat="47.5152" lon="6.77723">
        <ele>372</ele>
        <time>2015-06-14T10:48:58.000Z</time>
      </trkpt>
      <trkpt lat="47.51521" lon="6.77723">
        <ele>372</ele>
        <time>2015-06-14T10:48:59.000Z</time>
      </trkpt>
      <trkpt lat="47.51524" lon="6.77725">
        <ele>372</ele>
        <time>2015-06-14T10:49:01.000Z</time>
      </trkpt>
      <trkpt lat="47.51525" lon="6.77728">
        <ele>372</ele>
        <time>2015-06-14T10:49:02.000Z</time>
      </trkpt>
      <trkpt lat="47.51526" lon="6.77734">
        <ele>371</ele>
        <time>2015-06-14T10:49:04.000Z</time>
      </trkpt>
      <trkpt lat="47.51527" lon="6.77737">
        <ele>371</ele>
        <time>2015-06-14T10:49:05.000Z</time>
      </trkpt>
      <trkpt lat="47.51528" lon="6.7774">
        <ele>371</ele>
        <time>2015-06-14T10:49:06.000Z</time>
      </trkpt>
      <trkpt lat="47.51529" lon="6.77743">
        <ele>371</ele>
        <time>2015-06-14T10:49:07.000Z</time>
      </trkpt>
      <trkpt lat="47.5153" lon="6.77747">
        <ele>371</ele>
        <time>2015-06-14T10:49:08.000Z</time>
      </trkpt>
      <trkpt lat="47.51532" lon="6.7775">
        <ele>371</ele>
        <time>2015-06-14T10:49:09.000Z</time>
      </trkpt>
      <trkpt lat="47.51536" lon="6.77753">
        <ele>374</ele>
        <time>2015-06-14T10:49:11.000Z</time>
      </trkpt>
      <trkpt lat="47.51538" lon="6.77753">
        <ele>374</ele>
        <time>2015-06-14T10:49:12.000Z</time>
      </trkpt>
      <trkpt lat="47.5154" lon="6.77753">
        <ele>374</ele>
        <time>2015-06-14T10:49:13.000Z</time>
      </trkpt>
      <trkpt lat="47.51542" lon="6.77753">
        <ele>374</ele>
        <time>2015-06-14T10:49:14.000Z</time>
      </trkpt>
      <trkpt lat="47.51546" lon="6.77752">
        <ele>375</ele>
        <time>2015-06-14T10:49:16.000Z</time>
      </trkpt>
      <trkpt lat="47.51548" lon="6.77751">
        <ele>375</ele>
        <time>2015-06-14T10:49:17.000Z</time>
      </trkpt>
      <trkpt lat="47.51552" lon="6.7775">
        <ele>375</ele>
        <time>2015-06-14T10:49:19.000Z</time>
      </trkpt>
      <trkpt lat="47.51554" lon="6.77751">
        <ele>375</ele>
        <time>2015-06-14T10:49:20.000Z</time>
      </trkpt>
      <trkpt lat="47.51558" lon="6.77753">
        <ele>375</ele>
        <time>2015-06-14T10:49:22.000Z</time>
      </trkpt>
      <trkpt lat="47.51559" lon="6.77753">
        <ele>376</ele>
        <time>2015-06-14T10:49:23.000Z</time>
      </trkpt>
      <trkpt lat="47.51563" lon="6.77754">
        <ele>376</ele>
        <time>2015-06-14T10:49:25.000Z</time>
      </trkpt>
      <trkpt lat="47.51565" lon="6.77754">
        <ele>376</ele>
        <time>2015-06-14T10:49:26.000Z</time>
      </trkpt>
      <trkpt lat="47.51569" lon="6.77754">
        <ele>376</ele>
        <time>2015-06-14T10:49:28.000Z</time>
      </trkpt>
      <trkpt lat="47.51571" lon="6.77754">
        <ele>376</ele>
        <time>2015-06-14T10:49:29.000Z</time>
      </trkpt>
      <trkpt lat="47.51574" lon="6.77754">
        <ele>376</ele>
        <time>2015-06-14T10:49:30.000Z</time>
      </trkpt>
      <trkpt lat="47.51577" lon="6.77754">
        <ele>376</ele>
        <time>2015-06-14T10:49:31.000Z</time>
      </trkpt>
      <trkpt lat="47.5158" lon="6.77755">
        <ele>376</ele>
        <time>2015-06-14T10:49:32.000Z</time>
      </trkpt>
      <trkpt lat="47.51583" lon="6.77755">
        <ele>376</ele>
        <time>2015-06-14T10:49:33.000Z</time>
      </trkpt>
      <trkpt lat="47.51587" lon="6.77755">
        <ele>377</ele>
        <time>2015-06-14T10:49:35.000Z</time>
      </trkpt>
      <trkpt lat="47.51588" lon="6.77756">
        <ele>378</ele>
        <time>2015-06-14T10:49:36.000Z</time>
      </trkpt>
      <trkpt lat="47.5159" lon="6.7776">
        <ele>379</ele>
        <time>2015-06-14T10:49:38.000Z</time>
      </trkpt>
      <trkpt lat="47.51591" lon="6.77763">
        <ele>379</ele>
        <time>2015-06-14T10:49:39.000Z</time>
      </trkpt>
      <trkpt lat="47.51594" lon="6.77767">
        <ele>380</ele>
        <time>2015-06-14T10:49:41.000Z</time>
      </trkpt>
      <trkpt lat="47.51596" lon="6.77769">
        <ele>380</ele>
        <time>2015-06-14T10:49:42.000Z</time>
      </trkpt>
      <trkpt lat="47.516" lon="6.7777">
        <ele>380</ele>
        <time>2015-06-14T10:49:45.000Z</time>
      </trkpt>
      <trkpt lat="47.51601" lon="6.77769">
        <ele>380</ele>
        <time>2015-06-14T10:49:46.000Z</time>
      </trkpt>
      <trkpt lat="47.51604" lon="6.77766">
        <ele>380</ele>
        <time>2015-06-14T10:49:49.000Z</time>
      </trkpt>
      <trkpt lat="47.51606" lon="6.77766">
        <ele>381</ele>
        <time>2015-06-14T10:49:50.000Z</time>
      </trkpt>
      <trkpt lat="47.5161" lon="6.77765">
        <ele>381</ele>
        <time>2015-06-14T10:49:52.000Z</time>
      </trkpt>
      <trkpt lat="47.51612" lon="6.77764">
        <ele>381</ele>
        <time>2015-06-14T10:49:53.000Z</time>
      </trkpt>
      <trkpt lat="47.51616" lon="6.77764">
        <ele>381</ele>
        <time>2015-06-14T10:49:55.000Z</time>
      </trkpt>
      <trkpt lat="47.51618" lon="6.77764">
        <ele>381</ele>
        <time>2015-06-14T10:49:56.000Z</time>
      </trkpt>
      <trkpt lat="47.51622" lon="6.77764">
        <ele>381</ele>
        <time>2015-06-14T10:49:58.000Z</time>
      </trkpt>
      <trkpt lat="47.51623" lon="6.77764">
        <ele>382</ele>
        <time>2015-06-14T10:49:59.000Z</time>
      </trkpt>
      <trkpt lat="47.51627" lon="6.77763">
        <ele>382</ele>
        <time>2015-06-14T10:50:01.000Z</time>
      </trkpt>
      <trkpt lat="47.51629" lon="6.77764">
        <ele>382</ele>
        <time>2015-06-14T10:50:02.000Z</time>
      </trkpt>
      <trkpt lat="47.51633" lon="6.77764">
        <ele>382</ele>
        <time>2015-06-14T10:50:04.000Z</time>
      </trkpt>
      <trkpt lat="47.51635" lon="6.77765">
        <ele>382</ele>
        <time>2015-06-14T10:50:05.000Z</time>
      </trkpt>
      <trkpt lat="47.51639" lon="6.77765">
        <ele>382</ele>
        <time>2015-06-14T10:50:07.000Z</time>
      </trkpt>
      <trkpt lat="47.51641" lon="6.77765">
        <ele>382</ele>
        <time>2015-06-14T10:50:08.000Z</time>
      </trkpt>
      <trkpt lat="47.51644" lon="6.77766">
        <ele>382</ele>
        <time>2015-06-14T10:50:10.000Z</time>
      </trkpt>
      <trkpt lat="47.51646" lon="6.77766">
        <ele>382</ele>
        <time>2015-06-14T10:50:11.000Z</time>
      </trkpt>
      <trkpt lat="47.5165" lon="6.77767">
        <ele>383</ele>
        <time>2015-06-14T10:50:13.000Z</time>
      </trkpt>
      <trkpt lat="47.51652" lon="6.77766">
        <ele>383</ele>
        <time>2015-06-14T10:50:14.000Z</time>
      </trkpt>
      <trkpt lat="47.51655" lon="6.77766">
        <ele>383</ele>
        <time>2015-06-14T10:50:15.000Z</time>
      </trkpt>
      <trkpt lat="47.51657" lon="6.77766">
        <ele>383</ele>
        <time>2015-06-14T10:50:16.000Z</time>
      </trkpt>
      <trkpt lat="47.51661" lon="6.77766">
        <ele>383</ele>
        <time>2015-06-14T10:50:18.000Z</time>
      </trkpt>
      <trkpt lat="47.51664" lon="6.77767">
        <ele>383</ele>
        <time>2015-06-14T10:50:19.000Z</time>
      </trkpt>
      <trkpt lat="47.51667" lon="6.77769">
        <ele>385</ele>
        <time>2015-06-14T10:50:21.000Z</time>
      </trkpt>
      <trkpt lat="47.51669" lon="6.7777">
        <ele>385</ele>
        <time>2015-06-14T10:50:22.000Z</time>
      </trkpt>
      <trkpt lat="47.51673" lon="6.77772">
        <ele>385</ele>
        <time>2015-06-14T10:50:24.000Z</time>
      </trkpt>
      <trkpt lat="47.51675" lon="6.77773">
        <ele>385</ele>
        <time>2015-06-14T10:50:25.000Z</time>
      </trkpt>
      <trkpt lat="47.5168" lon="6.77774">
        <ele>385</ele>
        <time>2015-06-14T10:50:27.000Z</time>
      </trkpt>
      <trkpt lat="47.51682" lon="6.77775">
        <ele>385</ele>
        <time>2015-06-14T10:50:28.000Z</time>
      </trkpt>
      <trkpt lat="47.51686" lon="6.77775">
        <ele>385</ele>
        <time>2015-06-14T10:50:30.000Z</time>
      </trkpt>
      <trkpt lat="47.51688" lon="6.77774">
        <ele>385</ele>
        <time>2015-06-14T10:50:31.000Z</time>
      </trkpt>
      <trkpt lat="47.51692" lon="6.77772">
        <ele>385</ele>
        <time>2015-06-14T10:50:33.000Z</time>
      </trkpt>
      <trkpt lat="47.51693" lon="6.77771">
        <ele>385</ele>
        <time>2015-06-14T10:50:34.000Z</time>
      </trkpt>
      <trkpt lat="47.51697" lon="6.77769">
        <ele>386</ele>
        <time>2015-06-14T10:50:37.000Z</time>
      </trkpt>
      <trkpt lat="47.51698" lon="6.77769">
        <ele>386</ele>
        <time>2015-06-14T10:50:38.000Z</time>
      </trkpt>
      <trkpt lat="47.51699" lon="6.77768">
        <ele>386</ele>
        <time>2015-06-14T10:50:39.000Z</time>
      </trkpt>
      <trkpt lat="47.51701" lon="6.77764">
        <ele>386</ele>
        <time>2015-06-14T10:50:40.000Z</time>
      </trkpt>
      <trkpt lat="47.51703" lon="6.7776">
        <ele>386</ele>
        <time>2015-06-14T10:50:41.000Z</time>
      </trkpt>
      <trkpt lat="47.51705" lon="6.77756">
        <ele>386</ele>
        <time>2015-06-14T10:50:42.000Z</time>
      </trkpt>
      <trkpt lat="47.51707" lon="6.77753">
        <ele>386</ele>
        <time>2015-06-14T10:50:43.000Z</time>
      </trkpt>
      <trkpt lat="47.51708" lon="6.7775">
        <ele>387</ele>
        <time>2015-06-14T10:50:44.000Z</time>
      </trkpt>
      <trkpt lat="47.5171" lon="6.77747">
        <ele>387</ele>
        <time>2015-06-14T10:50:45.000Z</time>
      </trkpt>
      <trkpt lat="47.51711" lon="6.77744">
        <ele>387</ele>
        <time>2015-06-14T10:50:46.000Z</time>
      </trkpt>
      <trkpt lat="47.51712" lon="6.77738">
        <ele>387</ele>
        <time>2015-06-14T10:50:48.000Z</time>
      </trkpt>
      <trkpt lat="47.51712" lon="6.77735">
        <ele>387</ele>
        <time>2015-06-14T10:50:49.000Z</time>
      </trkpt>
      <trkpt lat="47.51711" lon="6.77729">
        <ele>387</ele>
        <time>2015-06-14T10:50:51.000Z</time>
      </trkpt>
      <trkpt lat="47.51711" lon="6.77727">
        <ele>387</ele>
        <time>2015-06-14T10:50:52.000Z</time>
      </trkpt>
      <trkpt lat="47.51711" lon="6.77721">
        <ele>387</ele>
        <time>2015-06-14T10:50:54.000Z</time>
      </trkpt>
      <trkpt lat="47.51711" lon="6.77719">
        <ele>387</ele>
        <time>2015-06-14T10:50:55.000Z</time>
      </trkpt>
      <trkpt lat="47.5171" lon="6.77714">
        <ele>387</ele>
        <time>2015-06-14T10:50:57.000Z</time>
      </trkpt>
      <trkpt lat="47.5171" lon="6.77711">
        <ele>387</ele>
        <time>2015-06-14T10:50:58.000Z</time>
      </trkpt>
      <trkpt lat="47.51709" lon="6.77706">
        <ele>388</ele>
        <time>2015-06-14T10:51:00.000Z</time>
      </trkpt>
      <trkpt lat="47.51709" lon="6.77703">
        <ele>388</ele>
        <time>2015-06-14T10:51:01.000Z</time>
      </trkpt>
      <trkpt lat="47.51709" lon="6.77698">
        <ele>388</ele>
        <time>2015-06-14T10:51:03.000Z</time>
      </trkpt>
      <trkpt lat="47.51709" lon="6.77695">
        <ele>388</ele>
        <time>2015-06-14T10:51:04.000Z</time>
      </trkpt>
      <trkpt lat="47.5171" lon="6.7769">
        <ele>388</ele>
        <time>2015-06-14T10:51:06.000Z</time>
      </trkpt>
      <trkpt lat="47.5171" lon="6.77687">
        <ele>388</ele>
        <time>2015-06-14T10:51:07.000Z</time>
      </trkpt>
      <trkpt lat="47.5171" lon="6.77682">
        <ele>388</ele>
        <time>2015-06-14T10:51:09.000Z</time>
      </trkpt>
      <trkpt lat="47.5171" lon="6.77679">
        <ele>388</ele>
        <time>2015-06-14T10:51:10.000Z</time>
      </trkpt>
      <trkpt lat="47.5171" lon="6.77673">
        <ele>388</ele>
        <time>2015-06-14T10:51:12.000Z</time>
      </trkpt>
      <trkpt lat="47.51711" lon="6.77669">
        <ele>388</ele>
        <time>2015-06-14T10:51:13.000Z</time>
      </trkpt>
      <trkpt lat="47.51711" lon="6.77666">
        <ele>390</ele>
        <time>2015-06-14T10:51:14.000Z</time>
      </trkpt>
      <trkpt lat="47.51711" lon="6.77662">
        <ele>390</ele>
        <time>2015-06-14T10:51:15.000Z</time>
      </trkpt>
      <trkpt lat="47.51711" lon="6.77659">
        <ele>390</ele>
        <time>2015-06-14T10:51:16.000Z</time>
      </trkpt>
      <trkpt lat="47.51711" lon="6.77655">
        <ele>390</ele>
        <time>2015-06-14T10:51:17.000Z</time>
      </trkpt>
      <trkpt lat="47.51711" lon="6.77652">
        <ele>390</ele>
        <time>2015-06-14T10:51:18.000Z</time>
      </trkpt>
      <trkpt lat="47.51711" lon="6.77648">
        <ele>390</ele>
        <time>2015-06-14T10:51:19.000Z</time>
      </trkpt>
      <trkpt lat="47.51711" lon="6.77642">
        <ele>390</ele>
        <time>2015-06-14T10:51:21.000Z</time>
      </trkpt>
      <trkpt lat="47.51711" lon="6.77638">
        <ele>390</ele>
        <time>2015-06-14T10:51:22.000Z</time>
      </trkpt>
      <trkpt lat="47.51712" lon="6.77635">
        <ele>390</ele>
        <time>2015-06-14T10:51:23.000Z</time>
      </trkpt>
      <trkpt lat="47.51712" lon="6.77632">
        <ele>390</ele>
        <time>2015-06-14T10:51:24.000Z</time>
      </trkpt>
      <trkpt lat="47.51713" lon="6.77628">
        <ele>390</ele>
        <time>2015-06-14T10:51:25.000Z</time>
      </trkpt>
      <trkpt lat="47.51713" lon="6.77625">
        <ele>390</ele>
        <time>2015-06-14T10:51:26.000Z</time>
      </trkpt>
      <trkpt lat="47.51713" lon="6.77619">
        <ele>390</ele>
        <time>2015-06-14T10:51:28.000Z</time>
      </trkpt>
      <trkpt lat="47.51713" lon="6.77616">
        <ele>390</ele>
        <time>2015-06-14T10:51:29.000Z</time>
      </trkpt>
      <trkpt lat="47.51713" lon="6.7761">
        <ele>390</ele>
        <time>2015-06-14T10:51:31.000Z</time>
      </trkpt>
      <trkpt lat="47.51713" lon="6.77607">
        <ele>390</ele>
        <time>2015-06-14T10:51:32.000Z</time>
      </trkpt>
      <trkpt lat="47.51713" lon="6.77601">
        <ele>390</ele>
        <time>2015-06-14T10:51:34.000Z</time>
      </trkpt>
      <trkpt lat="47.51713" lon="6.77598">
        <ele>390</ele>
        <time>2015-06-14T10:51:35.000Z</time>
      </trkpt>
      <trkpt lat="47.51713" lon="6.77594">
        <ele>390</ele>
        <time>2015-06-14T10:51:36.000Z</time>
      </trkpt>
      <trkpt lat="47.51714" lon="6.7759">
        <ele>390</ele>
        <time>2015-06-14T10:51:37.000Z</time>
      </trkpt>
      <trkpt lat="47.51715" lon="6.77584">
        <ele>390</ele>
        <time>2015-06-14T10:51:38.000Z</time>
      </trkpt>
      <trkpt lat="47.51716" lon="6.77578">
        <ele>390</ele>
        <time>2015-06-14T10:51:39.000Z</time>
      </trkpt>
      <trkpt lat="47.51717" lon="6.77572">
        <ele>390</ele>
        <time>2015-06-14T10:51:40.000Z</time>
      </trkpt>
      <trkpt lat="47.51718" lon="6.77565">
        <ele>390</ele>
        <time>2015-06-14T10:51:41.000Z</time>
      </trkpt>
      <trkpt lat="47.51719" lon="6.77559">
        <ele>390</ele>
        <time>2015-06-14T10:51:42.000Z</time>
      </trkpt>
      <trkpt lat="47.51722" lon="6.7755">
        <ele>390</ele>
        <time>2015-06-14T10:51:43.000Z</time>
      </trkpt>
      <trkpt lat="47.51723" lon="6.77544">
        <ele>390</ele>
        <time>2015-06-14T10:51:44.000Z</time>
      </trkpt>
      <trkpt lat="47.51724" lon="6.77538">
        <ele>390</ele>
        <time>2015-06-14T10:51:45.000Z</time>
      </trkpt>
      <trkpt lat="47.51725" lon="6.77532">
        <ele>390</ele>
        <time>2015-06-14T10:51:46.000Z</time>
      </trkpt>
      <trkpt lat="47.51726" lon="6.77526">
        <ele>390</ele>
        <time>2015-06-14T10:51:47.000Z</time>
      </trkpt>
      <trkpt lat="47.51728" lon="6.77521">
        <ele>390</ele>
        <time>2015-06-14T10:51:48.000Z</time>
      </trkpt>
      <trkpt lat="47.51728" lon="6.77515">
        <ele>390</ele>
        <time>2015-06-14T10:51:49.000Z</time>
      </trkpt>
      <trkpt lat="47.51729" lon="6.77509">
        <ele>390</ele>
        <time>2015-06-14T10:51:50.000Z</time>
      </trkpt>
      <trkpt lat="47.51731" lon="6.77503">
        <ele>390</ele>
        <time>2015-06-14T10:51:51.000Z</time>
      </trkpt>
      <trkpt lat="47.51732" lon="6.77497">
        <ele>389</ele>
        <time>2015-06-14T10:51:52.000Z</time>
      </trkpt>
      <trkpt lat="47.51733" lon="6.77491">
        <ele>389</ele>
        <time>2015-06-14T10:51:53.000Z</time>
      </trkpt>
      <trkpt lat="47.51733" lon="6.77486">
        <ele>389</ele>
        <time>2015-06-14T10:51:54.000Z</time>
      </trkpt>
      <trkpt lat="47.51735" lon="6.77481">
        <ele>389</ele>
        <time>2015-06-14T10:51:55.000Z</time>
      </trkpt>
      <trkpt lat="47.51737" lon="6.77478">
        <ele>389</ele>
        <time>2015-06-14T10:51:56.000Z</time>
      </trkpt>
      <trkpt lat="47.5174" lon="6.77477">
        <ele>389</ele>
        <time>2015-06-14T10:51:57.000Z</time>
      </trkpt>
      <trkpt lat="47.51744" lon="6.77477">
        <ele>389</ele>
        <time>2015-06-14T10:51:58.000Z</time>
      </trkpt>
      <trkpt lat="47.51749" lon="6.77478">
        <ele>389</ele>
        <time>2015-06-14T10:51:59.000Z</time>
      </trkpt>
      <trkpt lat="47.51753" lon="6.77479">
        <ele>389</ele>
        <time>2015-06-14T10:52:00.000Z</time>
      </trkpt>
      <trkpt lat="47.51757" lon="6.7748">
        <ele>389</ele>
        <time>2015-06-14T10:52:01.000Z</time>
      </trkpt>
      <trkpt lat="47.51761" lon="6.77482">
        <ele>389</ele>
        <time>2015-06-14T10:52:02.000Z</time>
      </trkpt>
      <trkpt lat="47.51766" lon="6.77483">
        <ele>389</ele>
        <time>2015-06-14T10:52:03.000Z</time>
      </trkpt>
      <trkpt lat="47.5177" lon="6.77484">
        <ele>389</ele>
        <time>2015-06-14T10:52:04.000Z</time>
      </trkpt>
      <trkpt lat="47.51775" lon="6.77485">
        <ele>388</ele>
        <time>2015-06-14T10:52:05.000Z</time>
      </trkpt>
      <trkpt lat="47.51779" lon="6.77486">
        <ele>388</ele>
        <time>2015-06-14T10:52:06.000Z</time>
      </trkpt>
      <trkpt lat="47.51784" lon="6.77489">
        <ele>388</ele>
        <time>2015-06-14T10:52:07.000Z</time>
      </trkpt>
      <trkpt lat="47.51788" lon="6.77491">
        <ele>388</ele>
        <time>2015-06-14T10:52:08.000Z</time>
      </trkpt>
      <trkpt lat="47.51793" lon="6.77493">
        <ele>388</ele>
        <time>2015-06-14T10:52:09.000Z</time>
      </trkpt>
      <trkpt lat="47.51798" lon="6.77494">
        <ele>388</ele>
        <time>2015-06-14T10:52:10.000Z</time>
      </trkpt>
      <trkpt lat="47.51803" lon="6.77497">
        <ele>388</ele>
        <time>2015-06-14T10:52:11.000Z</time>
      </trkpt>
      <trkpt lat="47.51808" lon="6.77499">
        <ele>388</ele>
        <time>2015-06-14T10:52:12.000Z</time>
      </trkpt>
      <trkpt lat="47.51811" lon="6.77495">
        <ele>388</ele>
        <time>2015-06-14T10:52:13.000Z</time>
      </trkpt>
      <trkpt lat="47.5181" lon="6.77488">
        <ele>388</ele>
        <time>2015-06-14T10:52:14.000Z</time>
      </trkpt>
      <trkpt lat="47.51804" lon="6.77484">
        <ele>388</ele>
        <time>2015-06-14T10:52:15.000Z</time>
      </trkpt>
      <trkpt lat="47.51803" lon="6.77481">
        <ele>388</ele>
        <time>2015-06-14T10:52:16.000Z</time>
      </trkpt>
      <trkpt lat="47.51797" lon="6.77484">
        <ele>388</ele>
        <time>2015-06-14T10:52:17.000Z</time>
      </trkpt>
      <trkpt lat="47.51797" lon="6.77478">
        <ele>388</ele>
        <time>2015-06-14T10:52:19.000Z</time>
      </trkpt>
      <trkpt lat="47.51797" lon="6.77475">
        <ele>388</ele>
        <time>2015-06-14T10:52:20.000Z</time>
      </trkpt>
      <trkpt lat="47.51797" lon="6.77469">
        <ele>388</ele>
        <time>2015-06-14T10:52:23.000Z</time>
      </trkpt>
      <trkpt lat="47.51797" lon="6.77467">
        <ele>388</ele>
        <time>2015-06-14T10:52:24.000Z</time>
      </trkpt>
      <trkpt lat="47.518" lon="6.77463">
        <ele>388</ele>
        <time>2015-06-14T10:52:28.000Z</time>
      </trkpt>
      <trkpt lat="47.51801" lon="6.77463">
        <ele>388</ele>
        <time>2015-06-14T10:52:29.000Z</time>
      </trkpt>
      <trkpt lat="47.51796" lon="6.77461">
        <ele>388</ele>
        <time>2015-06-14T10:52:48.000Z</time>
      </trkpt>
      <trkpt lat="47.51796" lon="6.77461">
        <ele>388</ele>
        <time>2015-06-14T10:52:49.000Z</time>
      </trkpt>
      <trkpt lat="47.51794" lon="6.77467">
        <ele>388</ele>
        <time>2015-06-14T11:04:38.000Z</time>
      </trkpt>
      <trkpt lat="47.51794" lon="6.77467">
        <ele>388</ele>
        <time>2015-06-14T11:04:39.000Z</time>
      </trkpt>
      <trkpt lat="47.51795" lon="6.77462">
        <ele>388</ele>
        <time>2015-06-14T11:25:31.000Z</time>
      </trkpt>
      <trkpt lat="47.51794" lon="6.7746">
        <ele>388</ele>
        <time>2015-06-14T11:25:32.000Z</time>
      </trkpt>
      <trkpt lat="47.51795" lon="6.77463">
        <ele>388</ele>
        <time>2015-06-14T12:47:19.000Z</time>
      </trkpt>
    </trkseg>
  </trk>
</gpx>